<?xml version='1.0' encoding='UTF-8'?><gpx version="1.1" creator="JPX - https://github.com/jenetics/jpx" xmlns="http://www.topografix.com/GPX/1/1"><trk><trkseg><trkpt lat="43.35673245830568" lon="5.474399526920403"><ele>173.0</ele><time>2026-04-02T12:39:02.999Z</time></trkpt><trkpt lat="43.3566569508785" lon="5.474399877961173"><ele>173.0</ele><time>2026-04-02T12:39:07Z</time></trkpt><trkpt lat="43.356589571338844" lon="5.474435956814155"><ele>173.0</ele><time>2026-04-02T12:39:10Z</time></trkpt><trkpt lat="43.356506141996206" lon="5.474441204385431"><ele>173.0</ele><time>2026-04-02T12:39:13Z</time></trkpt><trkpt lat="43.356412203047356" lon="5.4744600260651115"><ele>173.0</ele><time>2026-04-02T12:39:16Z</time></trkpt><trkpt lat="43.356314998466985" lon="5.474483551008925"><ele>173.0</ele><time>2026-04-02T12:39:18Z</time></trkpt><trkpt lat="43.356246413176606" lon="5.4744653397168115"><ele>172.0</ele><time>2026-04-02T12:39:19Z</time></trkpt><trkpt lat="43.356180429087395" lon="5.474397459012658"><ele>171.0</ele><time>2026-04-02T12:39:20Z</time></trkpt><trkpt lat="43.35613132275749" lon="5.474302705826278"><ele>170.0</ele><time>2026-04-02T12:39:21Z</time></trkpt><trkpt lat="43.35609001419249" lon="5.474210817770389"><ele>169.0</ele><time>2026-04-02T12:39:22Z</time></trkpt><trkpt lat="43.35604041613185" lon="5.474152243731672"><ele>168.0</ele><time>2026-04-02T12:39:23Z</time></trkpt><trkpt lat="43.355983207496166" lon="5.474111998706002"><ele>167.0</ele><time>2026-04-02T12:39:24Z</time></trkpt><trkpt lat="43.35586378830062" lon="5.474120758115161"><ele>167.0</ele><time>2026-04-02T12:39:26Z</time></trkpt><trkpt lat="43.3557575028109" lon="5.474147409301923"><ele>167.0</ele><time>2026-04-02T12:39:28Z</time></trkpt><trkpt lat="43.35569203161995" lon="5.474136006102229"><ele>167.0</ele><time>2026-04-02T12:39:29Z</time></trkpt><trkpt lat="43.35562167939705" lon="5.474165566232408"><ele>167.0</ele><time>2026-04-02T12:39:30Z</time></trkpt><trkpt lat="43.35554019188523" lon="5.474171886536314"><ele>167.0</ele><time>2026-04-02T12:39:31Z</time></trkpt><trkpt lat="43.35545796272917" lon="5.4741891428453835"><ele>167.0</ele><time>2026-04-02T12:39:32Z</time></trkpt><trkpt lat="43.35537476190395" lon="5.474202508053922"><ele>165.6</ele><time>2026-04-02T12:39:33Z</time></trkpt><trkpt lat="43.355286199215676" lon="5.474208000302058"><ele>164.2</ele><time>2026-04-02T12:39:34Z</time></trkpt><trkpt lat="43.355198813301364" lon="5.47422214004958"><ele>162.8</ele><time>2026-04-02T12:39:34.999Z</time></trkpt><trkpt lat="43.35510463880025" lon="5.474234032560134"><ele>161.4</ele><time>2026-04-02T12:39:35.999Z</time></trkpt><trkpt lat="43.35501230822564" lon="5.474255347232868"><ele>160.0</ele><time>2026-04-02T12:39:36.999Z</time></trkpt><trkpt lat="43.35491620656325" lon="5.474284401161331"><ele>160.0</ele><time>2026-04-02T12:39:37.999Z</time></trkpt><trkpt lat="43.35482119486129" lon="5.47432521989358"><ele>160.0</ele><time>2026-04-02T12:39:38.999Z</time></trkpt><trkpt lat="43.35471375979563" lon="5.47433161437443"><ele>160.0</ele><time>2026-04-02T12:39:39.999Z</time></trkpt><trkpt lat="43.354609864629616" lon="5.474357521587209"><ele>160.0</ele><time>2026-04-02T12:39:40.999Z</time></trkpt><trkpt lat="43.35451180582722" lon="5.4744188274738805"><ele>160.0</ele><time>2026-04-02T12:39:41.999Z</time></trkpt><trkpt lat="43.35442345788787" lon="5.474500194243583"><ele>159.0</ele><time>2026-04-02T12:39:42.999Z</time></trkpt><trkpt lat="43.35433892537773" lon="5.474582661679768"><ele>158.0</ele><time>2026-04-02T12:39:43.999Z</time></trkpt><trkpt lat="43.35425825321047" lon="5.474668996803338"><ele>157.0</ele><time>2026-04-02T12:39:44.999Z</time></trkpt><trkpt lat="43.3541780901184" lon="5.474752089710868"><ele>156.0</ele><time>2026-04-02T12:39:45.999Z</time></trkpt><trkpt lat="43.354112502697056" lon="5.474855438471131"><ele>155.0</ele><time>2026-04-02T12:39:46.999Z</time></trkpt><trkpt lat="43.35405303813347" lon="5.474958692473226"><ele>155.0</ele><time>2026-04-02T12:39:47.999Z</time></trkpt><trkpt lat="43.35397122231062" lon="5.475024405657736"><ele>155.0</ele><time>2026-04-02T12:39:48.999Z</time></trkpt><trkpt lat="43.35388919987333" lon="5.475081482721289"><ele>155.0</ele><time>2026-04-02T12:39:49.999Z</time></trkpt><trkpt lat="43.353807932044894" lon="5.475143901714123"><ele>155.0</ele><time>2026-04-02T12:39:50.999Z</time></trkpt><trkpt lat="43.35372222491352" lon="5.475184811372315"><ele>155.0</ele><time>2026-04-02T12:39:51.999Z</time></trkpt><trkpt lat="43.3536435323206" lon="5.4752333978811425"><ele>154.5</ele><time>2026-04-02T12:39:52.999Z</time></trkpt><trkpt lat="43.3535648083981" lon="5.475279310824908"><ele>154.0</ele><time>2026-04-02T12:39:53.999Z</time></trkpt><trkpt lat="43.35347675069598" lon="5.475312941974464"><ele>153.5</ele><time>2026-04-02T12:39:54.999Z</time></trkpt><trkpt lat="43.353398029837095" lon="5.4753680301629375"><ele>153.0</ele><time>2026-04-02T12:39:55.999Z</time></trkpt><trkpt lat="43.35332344799579" lon="5.475411660648813"><ele>152.5</ele><time>2026-04-02T12:39:56.999Z</time></trkpt><trkpt lat="43.35325154913872" lon="5.475450165623805"><ele>152.0</ele><time>2026-04-02T12:39:57.999Z</time></trkpt><trkpt lat="43.353185428164906" lon="5.475488473722193"><ele>152.0</ele><time>2026-04-02T12:39:58.999Z</time></trkpt><trkpt lat="43.35310811251917" lon="5.475507988302945"><ele>152.0</ele><time>2026-04-02T12:40:01.999Z</time></trkpt><trkpt lat="43.35304362115916" lon="5.475574420964567"><ele>152.0</ele><time>2026-04-02T12:40:11.999Z</time></trkpt><trkpt lat="43.3529755858859" lon="5.475603043387372"><ele>152.0</ele><time>2026-04-02T12:40:14.999Z</time></trkpt><trkpt lat="43.352918139980105" lon="5.475674332079623"><ele>152.0</ele><time>2026-04-02T12:40:16.999Z</time></trkpt><trkpt lat="43.35283895398437" lon="5.4757428818722484"><ele>152.0</ele><time>2026-04-02T12:40:18.999Z</time></trkpt><trkpt lat="43.35274611466939" lon="5.475807930743196"><ele>151.0</ele><time>2026-04-02T12:40:20.999Z</time></trkpt><trkpt lat="43.3526312038524" lon="5.4758826099393705"><ele>150.0</ele><time>2026-04-02T12:40:22.999Z</time></trkpt><trkpt lat="43.352560000430294" lon="5.475909004420425"><ele>149.0</ele><time>2026-04-02T12:40:23.999Z</time></trkpt><trkpt lat="43.35248234344893" lon="5.475939485604322"><ele>148.0</ele><time>2026-04-02T12:40:24.999Z</time></trkpt><trkpt lat="43.35241366448267" lon="5.475922306050911"><ele>147.0</ele><time>2026-04-02T12:40:25.999Z</time></trkpt><trkpt lat="43.35235066564951" lon="5.47592169728874"><ele>146.0</ele><time>2026-04-02T12:40:28.999Z</time></trkpt><trkpt lat="43.35226327748006" lon="5.4759365000270845"><ele>145.0</ele><time>2026-04-02T12:40:31.999Z</time></trkpt><trkpt lat="43.352151645944055" lon="5.475919630058487"><ele>144.0</ele><time>2026-04-02T12:40:33.999Z</time></trkpt><trkpt lat="43.35204033962774" lon="5.4759155036201"><ele>143.0</ele><time>2026-04-02T12:40:35.999Z</time></trkpt><trkpt lat="43.351957259245744" lon="5.475914939635074"><ele>142.0</ele><time>2026-04-02T12:40:37.999Z</time></trkpt><trkpt lat="43.351885737909925" lon="5.476056637647931"><ele>141.0</ele><time>2026-04-02T12:40:41.999Z</time></trkpt><trkpt lat="43.351891206292365" lon="5.476177964138038"><ele>141.5</ele><time>2026-04-02T12:40:44.999Z</time></trkpt><trkpt lat="43.35189575143434" lon="5.476278806785503"><ele>142.0</ele><time>2026-04-02T12:40:46.999Z</time></trkpt><trkpt lat="43.351900400700885" lon="5.4763819596391095"><ele>142.5</ele><time>2026-04-02T12:40:48.999Z</time></trkpt><trkpt lat="43.351905234425104" lon="5.476487932213692"><ele>143.0</ele><time>2026-04-02T12:40:50.999Z</time></trkpt><trkpt lat="43.35190983098547" lon="5.476586963119393"><ele>143.5</ele><time>2026-04-02T12:40:52.999Z</time></trkpt><trkpt lat="43.351914801647155" lon="5.47669251154837"><ele>144.0</ele><time>2026-04-02T12:40:54.999Z</time></trkpt><trkpt lat="43.35191962932043" lon="5.476795023754616"><ele>144.0</ele><time>2026-04-02T12:40:56.999Z</time></trkpt><trkpt lat="43.35192456038072" lon="5.476899731360899"><ele>144.0</ele><time>2026-04-02T12:40:58.999Z</time></trkpt><trkpt lat="43.351929436332135" lon="5.477009057642448"><ele>144.0</ele><time>2026-04-02T12:41:00.999Z</time></trkpt><trkpt lat="43.35193419911704" lon="5.477115646477504"><ele>144.0</ele><time>2026-04-02T12:41:02.999Z</time></trkpt><trkpt lat="43.35193884708402" lon="5.477219665727176"><ele>144.0</ele><time>2026-04-02T12:41:04.999Z</time></trkpt><trkpt lat="43.35194390109049" lon="5.477327672931194"><ele>144.0</ele><time>2026-04-02T12:41:06.999Z</time></trkpt><trkpt lat="43.35194853622789" lon="5.477423307331978"><ele>144.0</ele><time>2026-04-02T12:41:08.999Z</time></trkpt><trkpt lat="43.35195317473308" lon="5.477519011249589"><ele>144.0</ele><time>2026-04-02T12:41:12.999Z</time></trkpt><trkpt lat="43.35200922756517" lon="5.477626139472178"><ele>144.0</ele><time>2026-04-02T12:41:15.999Z</time></trkpt><trkpt lat="43.35201757749131" lon="5.477745309537283"><ele>144.0</ele><time>2026-04-02T12:41:18.999Z</time></trkpt><trkpt lat="43.35196799376897" lon="5.4778305218953225"><ele>144.0</ele><time>2026-04-02T12:41:20.999Z</time></trkpt><trkpt lat="43.35197361188663" lon="5.477948550425264"><ele>144.0</ele><time>2026-04-02T12:41:24Z</time></trkpt><trkpt lat="43.351979434504024" lon="5.478070875165922"><ele>144.0</ele><time>2026-04-02T12:41:27Z</time></trkpt><trkpt lat="43.35198559521306" lon="5.478200302655346"><ele>144.0</ele><time>2026-04-02T12:41:30Z</time></trkpt><trkpt lat="43.35199168680288" lon="5.478328278146249"><ele>144.0</ele><time>2026-04-02T12:41:33Z</time></trkpt><trkpt lat="43.35199589198657" lon="5.47841662293023"><ele>144.0</ele><time>2026-04-02T12:41:35Z</time></trkpt><trkpt lat="43.352001270996546" lon="5.478529628442955"><ele>144.0</ele><time>2026-04-02T12:41:38Z</time></trkpt><trkpt lat="43.35200270270614" lon="5.478655184713037"><ele>144.0</ele><time>2026-04-02T12:41:41Z</time></trkpt><trkpt lat="43.35200550443695" lon="5.478766952269207"><ele>144.33333333333334</ele><time>2026-04-02T12:41:43Z</time></trkpt><trkpt lat="43.35201411548177" lon="5.478878051495331"><ele>144.66666666666666</ele><time>2026-04-02T12:41:44.999Z</time></trkpt><trkpt lat="43.35201853055343" lon="5.479002280728415"><ele>145.0</ele><time>2026-04-02T12:41:46.999Z</time></trkpt><trkpt lat="43.352023594016224" lon="5.479125849088055"><ele>145.33333333333331</ele><time>2026-04-02T12:41:48.999Z</time></trkpt><trkpt lat="43.352029580339874" lon="5.479246036868596"><ele>145.66666666666666</ele><time>2026-04-02T12:41:50.999Z</time></trkpt><trkpt lat="43.35204236977399" lon="5.479371557599609"><ele>146.0</ele><time>2026-04-02T12:41:52.999Z</time></trkpt><trkpt lat="43.35204749334284" lon="5.479497472792262"><ele>146.0</ele><time>2026-04-02T12:41:54.999Z</time></trkpt><trkpt lat="43.352061296837576" lon="5.479627459981021"><ele>146.0</ele><time>2026-04-02T12:41:56.999Z</time></trkpt><trkpt lat="43.35208743830322" lon="5.479752411753938"><ele>146.0</ele><time>2026-04-02T12:41:58.999Z</time></trkpt><trkpt lat="43.35211380429104" lon="5.479879496396958"><ele>146.0</ele><time>2026-04-02T12:42:00.999Z</time></trkpt><trkpt lat="43.35213670854855" lon="5.480008083127438"><ele>146.0</ele><time>2026-04-02T12:42:02.999Z</time></trkpt><trkpt lat="43.35217077071379" lon="5.480129949614572"><ele>146.0</ele><time>2026-04-02T12:42:04.999Z</time></trkpt><trkpt lat="43.35218922140618" lon="5.480244900697114"><ele>146.0</ele><time>2026-04-02T12:42:06.999Z</time></trkpt><trkpt lat="43.35221638087827" lon="5.480351384792048"><ele>146.0</ele><time>2026-04-02T12:42:08.999Z</time></trkpt><trkpt lat="43.35224299565515" lon="5.480459011913277"><ele>146.0</ele><time>2026-04-02T12:42:10.999Z</time></trkpt><trkpt lat="43.35226644434334" lon="5.480565456038561"><ele>146.0</ele><time>2026-04-02T12:42:12.999Z</time></trkpt><trkpt lat="43.35229110891917" lon="5.480665197545788"><ele>146.0</ele><time>2026-04-02T12:42:14.999Z</time></trkpt><trkpt lat="43.35231665618711" lon="5.480770766375985"><ele>146.33333333333331</ele><time>2026-04-02T12:42:16.999Z</time></trkpt><trkpt lat="43.35234003825467" lon="5.480881280757286"><ele>146.66666666666666</ele><time>2026-04-02T12:42:18.999Z</time></trkpt><trkpt lat="43.3523653877938" lon="5.480984388535535"><ele>147.0</ele><time>2026-04-02T12:42:20.999Z</time></trkpt><trkpt lat="43.35239023852411" lon="5.481086233167438"><ele>147.33333333333334</ele><time>2026-04-02T12:42:22.999Z</time></trkpt><trkpt lat="43.35241260553018" lon="5.481189164377088"><ele>147.66666666666669</ele><time>2026-04-02T12:42:24.999Z</time></trkpt><trkpt lat="43.35243583281703" lon="5.481285582285205"><ele>148.0</ele><time>2026-04-02T12:42:26.999Z</time></trkpt><trkpt lat="43.35245717823025" lon="5.48137682983172"><ele>148.16666666666669</ele><time>2026-04-02T12:42:29.999Z</time></trkpt><trkpt lat="43.35250371323231" lon="5.4814782665112896"><ele>148.33333333333334</ele><time>2026-04-02T12:42:30.999Z</time></trkpt><trkpt lat="43.352529236135005" lon="5.481583040353585"><ele>148.5</ele><time>2026-04-02T12:42:32.999Z</time></trkpt><trkpt lat="43.35255597347983" lon="5.481694709745619"><ele>148.66666666666666</ele><time>2026-04-02T12:42:34.999Z</time></trkpt><trkpt lat="43.35257989432279" lon="5.481805999190903"><ele>148.83333333333331</ele><time>2026-04-02T12:42:36.999Z</time></trkpt><trkpt lat="43.35260518895463" lon="5.481915962662582"><ele>149.0</ele><time>2026-04-02T12:42:38.999Z</time></trkpt><trkpt lat="43.35264356235279" lon="5.482031925235358"><ele>149.0</ele><time>2026-04-02T12:42:40.999Z</time></trkpt><trkpt lat="43.352662283724506" lon="5.482147688908415"><ele>149.0</ele><time>2026-04-02T12:42:42.999Z</time></trkpt><trkpt lat="43.35268318947943" lon="5.482257688237402"><ele>149.0</ele><time>2026-04-02T12:42:44.999Z</time></trkpt><trkpt lat="43.352713268412934" lon="5.482363091282954"><ele>149.0</ele><time>2026-04-02T12:42:46.999Z</time></trkpt><trkpt lat="43.35271158190471" lon="5.4824724444380495"><ele>149.0</ele><time>2026-04-02T12:42:48.999Z</time></trkpt><trkpt lat="43.35274095553026" lon="5.482572430182611"><ele>149.0</ele><time>2026-04-02T12:42:50.999Z</time></trkpt><trkpt lat="43.35276992736395" lon="5.482680263210825"><ele>149.0</ele><time>2026-04-02T12:42:52.999Z</time></trkpt><trkpt lat="43.35279143568159" lon="5.482776165805444"><ele>149.0</ele><time>2026-04-02T12:42:54.999Z</time></trkpt><trkpt lat="43.35281608504312" lon="5.482879818649408"><ele>149.0</ele><time>2026-04-02T12:42:56.999Z</time></trkpt><trkpt lat="43.35284800661698" lon="5.482987419839961"><ele>149.0</ele><time>2026-04-02T12:42:58.999Z</time></trkpt><trkpt lat="43.352872599234644" lon="5.483096675364166"><ele>149.0</ele><time>2026-04-02T12:43:00.999Z</time></trkpt><trkpt lat="43.35290121839015" lon="5.483202677349951"><ele>149.0</ele><time>2026-04-02T12:43:02.999Z</time></trkpt><trkpt lat="43.35293502744629" lon="5.483301540210252"><ele>149.16666666666666</ele><time>2026-04-02T12:43:04.999Z</time></trkpt><trkpt lat="43.3529744628612" lon="5.483398530160119"><ele>149.33333333333331</ele><time>2026-04-02T12:43:06.999Z</time></trkpt><trkpt lat="43.35302576572461" lon="5.483496480953483"><ele>149.5</ele><time>2026-04-02T12:43:08.999Z</time></trkpt><trkpt lat="43.3530714924808" lon="5.483590146254871"><ele>149.66666666666666</ele><time>2026-04-02T12:43:10.999Z</time></trkpt><trkpt lat="43.353119000067196" lon="5.483684572939857"><ele>149.83333333333334</ele><time>2026-04-02T12:43:12.999Z</time></trkpt><trkpt lat="43.35317847157232" lon="5.483768220276341"><ele>150.0</ele><time>2026-04-02T12:43:14.999Z</time></trkpt><trkpt lat="43.35322287122751" lon="5.483868323863846"><ele>150.66666666666666</ele><time>2026-04-02T12:43:16.999Z</time></trkpt><trkpt lat="43.353280809259125" lon="5.4839625440347275"><ele>151.33333333333334</ele><time>2026-04-02T12:43:18.999Z</time></trkpt><trkpt lat="43.353341567830284" lon="5.484054633674254"><ele>152.0</ele><time>2026-04-02T12:43:20.999Z</time></trkpt><trkpt lat="43.35339816230792" lon="5.484146180313014"><ele>152.66666666666669</ele><time>2026-04-02T12:43:22.999Z</time></trkpt><trkpt lat="43.35345354506846" lon="5.484233236824778"><ele>153.33333333333334</ele><time>2026-04-02T12:43:24.999Z</time></trkpt><trkpt lat="43.353526554345564" lon="5.484302776913565"><ele>154.0</ele><time>2026-04-02T12:43:26.999Z</time></trkpt><trkpt lat="43.35360348408207" lon="5.484357392436525"><ele>154.0</ele><time>2026-04-02T12:43:28.999Z</time></trkpt><trkpt lat="43.353686582881174" lon="5.484404524405452"><ele>154.0</ele><time>2026-04-02T12:43:30.999Z</time></trkpt><trkpt lat="43.35377275956251" lon="5.484455545227935"><ele>154.0</ele><time>2026-04-02T12:43:32.999Z</time></trkpt><trkpt lat="43.3538574302174" lon="5.484505505486184"><ele>154.0</ele><time>2026-04-02T12:43:34.999Z</time></trkpt><trkpt lat="43.353941827770065" lon="5.484552726352322"><ele>154.0</ele><time>2026-04-02T12:43:36.999Z</time></trkpt><trkpt lat="43.35403078924558" lon="5.484568564465224"><ele>154.16666666666669</ele><time>2026-04-02T12:43:38.999Z</time></trkpt><trkpt lat="43.35411789394132" lon="5.484606463539655"><ele>154.33333333333334</ele><time>2026-04-02T12:43:40.999Z</time></trkpt><trkpt lat="43.354172802016635" lon="5.4846719516551286"><ele>154.5</ele><time>2026-04-02T12:43:42.999Z</time></trkpt><trkpt lat="43.35422510132651" lon="5.484781999894795"><ele>154.66666666666666</ele><time>2026-04-02T12:43:44.999Z</time></trkpt><trkpt lat="43.35427600405203" lon="5.48488768371025"><ele>154.83333333333331</ele><time>2026-04-02T12:43:46.999Z</time></trkpt><trkpt lat="43.35433983213252" lon="5.484973554306854"><ele>155.0</ele><time>2026-04-02T12:43:48.999Z</time></trkpt><trkpt lat="43.35440011306817" lon="5.485087413330967"><ele>155.0</ele><time>2026-04-02T12:43:50.999Z</time></trkpt><trkpt lat="43.35445379011336" lon="5.485230056533529"><ele>155.0</ele><time>2026-04-02T12:43:52.999Z</time></trkpt><trkpt lat="43.35450682941799" lon="5.485381179843517"><ele>155.0</ele><time>2026-04-02T12:43:54.999Z</time></trkpt><trkpt lat="43.3545613234456" lon="5.485533565333604"><ele>155.0</ele><time>2026-04-02T12:43:56.999Z</time></trkpt><trkpt lat="43.35461491526248" lon="5.485679203585555"><ele>155.5</ele><time>2026-04-02T12:43:58.999Z</time></trkpt><trkpt lat="43.35468974835803" lon="5.485799958770716"><ele>156.0</ele><time>2026-04-02T12:44:00.999Z</time></trkpt><trkpt lat="43.35477705420467" lon="5.48589897024666"><ele>156.5</ele><time>2026-04-02T12:44:02.999Z</time></trkpt><trkpt lat="43.35487059833785" lon="5.485989213940591"><ele>157.0</ele><time>2026-04-02T12:44:04.999Z</time></trkpt><trkpt lat="43.35496544144049" lon="5.486057804359433"><ele>157.0</ele><time>2026-04-02T12:44:06.999Z</time></trkpt><trkpt lat="43.355055742506245" lon="5.486118546038149"><ele>157.0</ele><time>2026-04-02T12:44:08.999Z</time></trkpt><trkpt lat="43.355149442394094" lon="5.486181075023007"><ele>157.0</ele><time>2026-04-02T12:44:10.999Z</time></trkpt><trkpt lat="43.35524744785986" lon="5.48624471301525"><ele>157.0</ele><time>2026-04-02T12:44:12.999Z</time></trkpt><trkpt lat="43.35532753596868" lon="5.486303297905108"><ele>157.0</ele><time>2026-04-02T12:44:14.999Z</time></trkpt><trkpt lat="43.35542249185984" lon="5.486364293424926"><ele>156.79999999999998</ele><time>2026-04-02T12:44:16.999Z</time></trkpt><trkpt lat="43.355510958929294" lon="5.48642401698587"><ele>156.6</ele><time>2026-04-02T12:44:18.999Z</time></trkpt><trkpt lat="43.355604570002455" lon="5.486481496006074"><ele>156.39999999999998</ele><time>2026-04-02T12:44:20.999Z</time></trkpt><trkpt lat="43.355689606463535" lon="5.486539858236533"><ele>156.2</ele><time>2026-04-02T12:44:22.999Z</time></trkpt><trkpt lat="43.355769755363106" lon="5.4865959657918335"><ele>156.0</ele><time>2026-04-02T12:44:24.999Z</time></trkpt><trkpt lat="43.35585332089464" lon="5.486650592459954"><ele>156.0</ele><time>2026-04-02T12:44:26.999Z</time></trkpt><trkpt lat="43.35592408163642" lon="5.486716987634184"><ele>156.0</ele><time>2026-04-02T12:44:28.999Z</time></trkpt><trkpt lat="43.35595963977734" lon="5.4868144097785585"><ele>156.0</ele><time>2026-04-02T12:44:30.999Z</time></trkpt><trkpt lat="43.35601695112688" lon="5.486919583305352"><ele>156.0</ele><time>2026-04-02T12:44:33.999Z</time></trkpt><trkpt lat="43.356140300195435" lon="5.486998165859969"><ele>156.0</ele><time>2026-04-02T12:44:35.999Z</time></trkpt><trkpt lat="43.35621970684053" lon="5.487083541251265"><ele>156.4</ele><time>2026-04-02T12:44:37.999Z</time></trkpt><trkpt lat="43.35628857239492" lon="5.487174089141348"><ele>156.8</ele><time>2026-04-02T12:44:39.999Z</time></trkpt><trkpt lat="43.356360146642636" lon="5.487270013607502"><ele>157.20000000000002</ele><time>2026-04-02T12:44:41.999Z</time></trkpt><trkpt lat="43.3564338451141" lon="5.487367377271717"><ele>157.6</ele><time>2026-04-02T12:44:43.999Z</time></trkpt><trkpt lat="43.35651187335089" lon="5.4874585518985475"><ele>158.0</ele><time>2026-04-02T12:44:45.999Z</time></trkpt><trkpt lat="43.35658740936903" lon="5.487544813570981"><ele>158.0</ele><time>2026-04-02T12:44:47.999Z</time></trkpt><trkpt lat="43.35665862332066" lon="5.487628362788"><ele>158.0</ele><time>2026-04-02T12:44:49.999Z</time></trkpt><trkpt lat="43.356727794569984" lon="5.487722718053178"><ele>158.0</ele><time>2026-04-02T12:44:51.999Z</time></trkpt><trkpt lat="43.356799417920506" lon="5.487816176313607"><ele>158.0</ele><time>2026-04-02T12:44:53.999Z</time></trkpt><trkpt lat="43.35685574023943" lon="5.487910750449519"><ele>158.0</ele><time>2026-04-02T12:44:55.999Z</time></trkpt><trkpt lat="43.35691992504951" lon="5.488000086859273"><ele>158.2857142857143</ele><time>2026-04-02T12:44:57.999Z</time></trkpt><trkpt lat="43.356972741004036" lon="5.488066579506252"><ele>158.57142857142858</ele><time>2026-04-02T12:44:59.999Z</time></trkpt><trkpt lat="43.35702084037727" lon="5.4881364281154426"><ele>158.85714285714286</ele><time>2026-04-02T12:45:01.999Z</time></trkpt><trkpt lat="43.357042035277495" lon="5.488226298552197"><ele>159.14285714285717</ele><time>2026-04-02T12:45:03.999Z</time></trkpt><trkpt lat="43.357053003187765" lon="5.488331927804497"><ele>159.42857142857144</ele><time>2026-04-02T12:45:05.999Z</time></trkpt><trkpt lat="43.35709256452064" lon="5.488428707966077"><ele>159.71428571428572</ele><time>2026-04-02T12:45:07.999Z</time></trkpt><trkpt lat="43.35713781855664" lon="5.488508360038355"><ele>160.0</ele><time>2026-04-02T12:45:10.999Z</time></trkpt><trkpt lat="43.357199866845825" lon="5.488482591972727"><ele>160.0</ele><time>2026-04-02T12:45:13.999Z</time></trkpt><trkpt lat="43.35717316940974" lon="5.488643295807902"><ele>160.0</ele><time>2026-04-02T12:45:14.999Z</time></trkpt><trkpt lat="43.35718955809305" lon="5.488742609484925"><ele>160.0</ele><time>2026-04-02T12:45:16.999Z</time></trkpt><trkpt lat="43.35721189992968" lon="5.488847506522578"><ele>160.0</ele><time>2026-04-02T12:45:18.999Z</time></trkpt><trkpt lat="43.35723125875255" lon="5.488952100474911"><ele>160.0</ele><time>2026-04-02T12:45:20.999Z</time></trkpt><trkpt lat="43.35725590356622" lon="5.489065258103136"><ele>160.0</ele><time>2026-04-02T12:45:22.999Z</time></trkpt><trkpt lat="43.35728031622152" lon="5.489175811326609"><ele>160.16666666666669</ele><time>2026-04-02T12:45:24.999Z</time></trkpt><trkpt lat="43.357305483838196" lon="5.489293213732799"><ele>160.33333333333334</ele><time>2026-04-02T12:45:26.999Z</time></trkpt><trkpt lat="43.357329735939174" lon="5.489408411072933"><ele>160.5</ele><time>2026-04-02T12:45:28.999Z</time></trkpt><trkpt lat="43.357349867963244" lon="5.489523681770118"><ele>160.66666666666666</ele><time>2026-04-02T12:45:30.999Z</time></trkpt><trkpt lat="43.35737912820847" lon="5.489634775457465"><ele>160.83333333333331</ele><time>2026-04-02T12:45:32.999Z</time></trkpt><trkpt lat="43.35740042895609" lon="5.48974738971461"><ele>161.0</ele><time>2026-04-02T12:45:34.999Z</time></trkpt><trkpt lat="43.35742418482362" lon="5.489854598123486"><ele>161.33333333333331</ele><time>2026-04-02T12:45:36.999Z</time></trkpt><trkpt lat="43.357447496073696" lon="5.4899718989000625"><ele>161.66666666666666</ele><time>2026-04-02T12:45:38.999Z</time></trkpt><trkpt lat="43.357471494062985" lon="5.490087223512172"><ele>162.0</ele><time>2026-04-02T12:45:40.999Z</time></trkpt><trkpt lat="43.357500463112274" lon="5.49019626656546"><ele>162.33333333333334</ele><time>2026-04-02T12:45:43Z</time></trkpt><trkpt lat="43.35751870873303" lon="5.490304593967565"><ele>162.66666666666669</ele><time>2026-04-02T12:45:45Z</time></trkpt><trkpt lat="43.35754194988439" lon="5.4904132984716405"><ele>163.0</ele><time>2026-04-02T12:45:47Z</time></trkpt><trkpt lat="43.3575651796429" lon="5.490517981502175"><ele>163.66666666666669</ele><time>2026-04-02T12:45:49Z</time></trkpt><trkpt lat="43.35760079543585" lon="5.490622382553576"><ele>164.33333333333334</ele><time>2026-04-02T12:45:51Z</time></trkpt><trkpt lat="43.357642853122705" lon="5.490720483881292"><ele>165.0</ele><time>2026-04-02T12:45:53Z</time></trkpt><trkpt lat="43.35767496962151" lon="5.490822621345347"><ele>165.66666666666666</ele><time>2026-04-02T12:45:55Z</time></trkpt><trkpt lat="43.35772084987633" lon="5.490917450332982"><ele>166.33333333333331</ele><time>2026-04-02T12:45:57Z</time></trkpt><trkpt lat="43.357762334903015" lon="5.4910140702708015"><ele>167.0</ele><time>2026-04-02T12:45:59Z</time></trkpt><trkpt lat="43.35780374148271" lon="5.491108197091869"><ele>167.0</ele><time>2026-04-02T12:46:01Z</time></trkpt><trkpt lat="43.35784058383004" lon="5.491197411039111"><ele>167.0</ele><time>2026-04-02T12:46:03Z</time></trkpt><trkpt lat="43.35776635397173" lon="5.491287789046484"><ele>167.0</ele><time>2026-04-02T12:46:06Z</time></trkpt><trkpt lat="43.35769621000833" lon="5.491342578349083"><ele>167.0</ele><time>2026-04-02T12:46:09Z</time></trkpt><trkpt lat="43.35762507148858" lon="5.491317502075031"><ele>167.0</ele><time>2026-04-02T12:46:11.999Z</time></trkpt><trkpt lat="43.35755435248215" lon="5.491288224362919"><ele>167.0</ele><time>2026-04-02T12:46:15.999Z</time></trkpt><trkpt lat="43.35748583656741" lon="5.49126543888698"><ele>167.0</ele><time>2026-04-02T12:46:19.999Z</time></trkpt><trkpt lat="43.3574310995923" lon="5.491201168343259"><ele>167.0</ele><time>2026-04-02T12:46:23.999Z</time></trkpt><trkpt lat="43.357381652146394" lon="5.491143172698771"><ele>167.0</ele><time>2026-04-02T12:46:26.999Z</time></trkpt><trkpt lat="43.357317098687076" lon="5.491074308104835"><ele>167.0</ele><time>2026-04-02T12:46:30.999Z</time></trkpt><trkpt lat="43.357257567685984" lon="5.491025521566832"><ele>167.0</ele><time>2026-04-02T12:46:34.999Z</time></trkpt><trkpt lat="43.35719436743364" lon="5.490955192862858"><ele>167.0</ele><time>2026-04-02T12:46:38.999Z</time></trkpt><trkpt lat="43.35712824341329" lon="5.490888785183824"><ele>167.0</ele><time>2026-04-02T12:46:43.999Z</time></trkpt><trkpt lat="43.35711513381469" lon="5.490982503227935"><ele>167.0</ele><time>2026-04-02T12:46:50.999Z</time></trkpt><trkpt lat="43.35714857593091" lon="5.491068342807485"><ele>167.0</ele><time>2026-04-02T12:46:54.999Z</time></trkpt><trkpt lat="43.35719428901529" lon="5.491141836402215"><ele>167.0</ele><time>2026-04-02T12:46:58.999Z</time></trkpt><trkpt lat="43.35724063639814" lon="5.491226033934005"><ele>167.0</ele><time>2026-04-02T12:47:02.999Z</time></trkpt><trkpt lat="43.35728563644923" lon="5.491296626461264"><ele>167.0</ele><time>2026-04-02T12:47:05.999Z</time></trkpt><trkpt lat="43.35733170957098" lon="5.491369444474851"><ele>167.0</ele><time>2026-04-02T12:47:09.999Z</time></trkpt><trkpt lat="43.357370584903315" lon="5.491451517036931"><ele>168.0</ele><time>2026-04-02T12:47:12.999Z</time></trkpt><trkpt lat="43.35741667034155" lon="5.491538613732695"><ele>169.0</ele><time>2026-04-02T12:47:16.999Z</time></trkpt><trkpt lat="43.357441448762785" lon="5.491639364193034"><ele>170.0</ele><time>2026-04-02T12:47:20.999Z</time></trkpt><trkpt lat="43.3574530323768" lon="5.491736177471479"><ele>171.0</ele><time>2026-04-02T12:47:25.999Z</time></trkpt><trkpt lat="43.35746298456641" lon="5.491822638952285"><ele>172.0</ele><time>2026-04-02T12:47:30Z</time></trkpt><trkpt lat="43.357449764813175" lon="5.491919348230319"><ele>173.0</ele><time>2026-04-02T12:47:36Z</time></trkpt><trkpt lat="43.357378756599154" lon="5.49195642160368"><ele>174.0</ele><time>2026-04-02T12:47:42Z</time></trkpt><trkpt lat="43.35732627109994" lon="5.491906610160263"><ele>174.0</ele><time>2026-04-02T12:47:46Z</time></trkpt><trkpt lat="43.357246009549485" lon="5.491870441776367"><ele>174.0</ele><time>2026-04-02T12:47:51Z</time></trkpt><trkpt lat="43.35718811110761" lon="5.491931804965597"><ele>174.0</ele><time>2026-04-02T12:47:56Z</time></trkpt><trkpt lat="43.357132148405334" lon="5.491998411928098"><ele>174.0</ele><time>2026-04-02T12:48:01Z</time></trkpt><trkpt lat="43.35708211116988" lon="5.492087670323766"><ele>174.0</ele><time>2026-04-02T12:48:06Z</time></trkpt><trkpt lat="43.357023570269355" lon="5.492153205273034"><ele>174.0</ele><time>2026-04-02T12:48:12Z</time></trkpt><trkpt lat="43.35696982544933" lon="5.492223155776998"><ele>179.14285714285714</ele><time>2026-04-02T12:48:17Z</time></trkpt><trkpt lat="43.3569532785899" lon="5.492310822568358"><ele>184.28571428571428</ele><time>2026-04-02T12:48:22Z</time></trkpt><trkpt lat="43.35693002631349" lon="5.4923946277021125"><ele>189.42857142857144</ele><time>2026-04-02T12:48:29Z</time></trkpt><trkpt lat="43.35693422724564" lon="5.492484631762669"><ele>194.57142857142856</ele><time>2026-04-02T12:48:34Z</time></trkpt><trkpt lat="43.35699020373996" lon="5.492556869483248"><ele>199.71428571428572</ele><time>2026-04-02T12:48:39Z</time></trkpt><trkpt lat="43.35705401308951" lon="5.492602115764346"><ele>204.85714285714286</ele><time>2026-04-02T12:48:44Z</time></trkpt><trkpt lat="43.35710788137437" lon="5.492649157088305"><ele>210.0</ele><time>2026-04-02T12:48:48Z</time></trkpt><trkpt lat="43.35716052009985" lon="5.492703951006795"><ele>210.0</ele><time>2026-04-02T12:48:52Z</time></trkpt><trkpt lat="43.35720940693933" lon="5.492758501800901"><ele>210.0</ele><time>2026-04-02T12:48:56Z</time></trkpt><trkpt lat="43.35725819273808" lon="5.492813563897569"><ele>210.0</ele><time>2026-04-02T12:49:00Z</time></trkpt><trkpt lat="43.35732288689562" lon="5.492863295604858"><ele>210.0</ele><time>2026-04-02T12:49:04Z</time></trkpt><trkpt lat="43.357402074778875" lon="5.4929224432592125"><ele>210.0</ele><time>2026-04-02T12:49:08Z</time></trkpt><trkpt lat="43.35744711890137" lon="5.4930033852128055"><ele>210.0</ele><time>2026-04-02T12:49:12Z</time></trkpt><trkpt lat="43.35747532951641" lon="5.493095782402594"><ele>210.0</ele><time>2026-04-02T12:49:15.999Z</time></trkpt><trkpt lat="43.357515175988034" lon="5.493174974858261"><ele>210.0</ele><time>2026-04-02T12:49:19.999Z</time></trkpt><trkpt lat="43.35757432026706" lon="5.493246110347116"><ele>210.0</ele><time>2026-04-02T12:49:23.999Z</time></trkpt><trkpt lat="43.35761870898663" lon="5.493328980848852"><ele>210.0</ele><time>2026-04-02T12:49:28Z</time></trkpt><trkpt lat="43.35766899602409" lon="5.493398065944938"><ele>210.0</ele><time>2026-04-02T12:49:31Z</time></trkpt><trkpt lat="43.35772190536893" lon="5.493476423754346"><ele>210.0</ele><time>2026-04-02T12:49:35Z</time></trkpt><trkpt lat="43.357781694502684" lon="5.493537910282669"><ele>210.0</ele><time>2026-04-02T12:49:39Z</time></trkpt><trkpt lat="43.357838673542645" lon="5.493612756463613"><ele>210.0</ele><time>2026-04-02T12:49:42Z</time></trkpt><trkpt lat="43.35788919006716" lon="5.493669921938533"><ele>210.0</ele><time>2026-04-02T12:49:45Z</time></trkpt><trkpt lat="43.35792670863732" lon="5.493768899080431"><ele>210.0</ele><time>2026-04-02T12:49:49Z</time></trkpt><trkpt lat="43.357931911957536" lon="5.493859788323009"><ele>210.0</ele><time>2026-04-02T12:49:53Z</time></trkpt><trkpt lat="43.357862445654455" lon="5.49387191803827"><ele>210.0</ele><time>2026-04-02T12:49:59Z</time></trkpt><trkpt lat="43.357809523468816" lon="5.493810225747495"><ele>210.0</ele><time>2026-04-02T12:50:04Z</time></trkpt><trkpt lat="43.357756104066816" lon="5.493756424139464"><ele>210.0</ele><time>2026-04-02T12:50:15Z</time></trkpt><trkpt lat="43.357725061923105" lon="5.493680845639538"><ele>210.0</ele><time>2026-04-02T12:50:20Z</time></trkpt><trkpt lat="43.35767074217396" lon="5.493610952630847"><ele>210.0</ele><time>2026-04-02T12:50:25Z</time></trkpt><trkpt lat="43.35760672225279" lon="5.493571870558754"><ele>210.0</ele><time>2026-04-02T12:50:30Z</time></trkpt><trkpt lat="43.357545865719196" lon="5.493524837841873"><ele>210.0</ele><time>2026-04-02T12:50:36Z</time></trkpt><trkpt lat="43.357482368236674" lon="5.49346114328593"><ele>210.0</ele><time>2026-04-02T12:50:42Z</time></trkpt><trkpt lat="43.35742426775568" lon="5.4934070308140575"><ele>210.0</ele><time>2026-04-02T12:50:47Z</time></trkpt><trkpt lat="43.357364010760115" lon="5.493380029558909"><ele>210.0</ele><time>2026-04-02T12:50:52Z</time></trkpt><trkpt lat="43.357295491813645" lon="5.49332628678068"><ele>210.0</ele><time>2026-04-02T12:50:57Z</time></trkpt><trkpt lat="43.35721719608916" lon="5.493288115085839"><ele>210.0</ele><time>2026-04-02T12:51:01Z</time></trkpt><trkpt lat="43.35714820781638" lon="5.49326289156892"><ele>210.0</ele><time>2026-04-02T12:51:05Z</time></trkpt><trkpt lat="43.35707847539981" lon="5.493246096487459"><ele>210.0</ele><time>2026-04-02T12:51:09Z</time></trkpt><trkpt lat="43.35700590623674" lon="5.493223069357152"><ele>210.0</ele><time>2026-04-02T12:51:13Z</time></trkpt><trkpt lat="43.35693441124027" lon="5.493221025548009"><ele>210.0</ele><time>2026-04-02T12:51:17Z</time></trkpt><trkpt lat="43.35687230934649" lon="5.49325455971847"><ele>210.0</ele><time>2026-04-02T12:51:22Z</time></trkpt><trkpt lat="43.35681734827436" lon="5.4932975988764445"><ele>212.71428571428572</ele><time>2026-04-02T12:51:28Z</time></trkpt><trkpt lat="43.356759288473356" lon="5.493336881833683"><ele>215.42857142857144</ele><time>2026-04-02T12:51:34Z</time></trkpt><trkpt lat="43.35669697042567" lon="5.4933714186110905"><ele>218.14285714285714</ele><time>2026-04-02T12:51:41Z</time></trkpt><trkpt lat="43.35663483807822" lon="5.493405422783143"><ele>220.85714285714286</ele><time>2026-04-02T12:51:47Z</time></trkpt><trkpt lat="43.35656057612036" lon="5.493413519106646"><ele>223.57142857142858</ele><time>2026-04-02T12:51:53Z</time></trkpt><trkpt lat="43.35650116717565" lon="5.493376095525132"><ele>226.28571428571428</ele><time>2026-04-02T12:51:58Z</time></trkpt><trkpt lat="43.35643759288907" lon="5.493326187083554"><ele>229.0</ele><time>2026-04-02T12:52:04Z</time></trkpt><trkpt lat="43.35638536394141" lon="5.493265114932561"><ele>229.71428571428572</ele><time>2026-04-02T12:52:10Z</time></trkpt><trkpt lat="43.35633343824936" lon="5.4932020852836345"><ele>230.42857142857144</ele><time>2026-04-02T12:52:15Z</time></trkpt><trkpt lat="43.35627208701035" lon="5.493143661981147"><ele>231.14285714285717</ele><time>2026-04-02T12:52:21Z</time></trkpt><trkpt lat="43.35621877951274" lon="5.493090828120099"><ele>231.85714285714286</ele><time>2026-04-02T12:52:26Z</time></trkpt><trkpt lat="43.35616337085723" lon="5.493033998565266"><ele>232.5714285714286</ele><time>2026-04-02T12:52:31Z</time></trkpt><trkpt lat="43.35609132944854" lon="5.49299364922014"><ele>233.2857142857143</ele><time>2026-04-02T12:52:36Z</time></trkpt><trkpt lat="43.35602806225686" lon="5.492981482497158"><ele>234.0</ele><time>2026-04-02T12:52:41Z</time></trkpt><trkpt lat="43.35595927714183" lon="5.493000026682814"><ele>234.0</ele><time>2026-04-02T12:52:46Z</time></trkpt><trkpt lat="43.355892432581236" lon="5.493034769635474"><ele>234.00000000000003</ele><time>2026-04-02T12:52:51Z</time></trkpt><trkpt lat="43.3558731836431" lon="5.493118206189914"><ele>234.0</ele><time>2026-04-02T12:52:56Z</time></trkpt><trkpt lat="43.355939064740205" lon="5.4931877140043115"><ele>234.0</ele><time>2026-04-02T12:53:08Z</time></trkpt><trkpt lat="43.35599775452855" lon="5.493245433558414"><ele>234.00000000000003</ele><time>2026-04-02T12:53:12Z</time></trkpt><trkpt lat="43.35604795468645" lon="5.493302911635415"><ele>234.0</ele><time>2026-04-02T12:53:16Z</time></trkpt><trkpt lat="43.356096800712784" lon="5.49336251396404"><ele>234.0</ele><time>2026-04-02T12:53:20Z</time></trkpt><trkpt lat="43.35615262674556" lon="5.493443492889466"><ele>234.0</ele><time>2026-04-02T12:53:25Z</time></trkpt><trkpt lat="43.35619897326057" lon="5.493505090406746"><ele>234.00000000000003</ele><time>2026-04-02T12:53:29Z</time></trkpt><trkpt lat="43.356241848476415" lon="5.493576817469959"><ele>234.0</ele><time>2026-04-02T12:53:33Z</time></trkpt><trkpt lat="43.356290235122685" lon="5.493651964413048"><ele>234.0</ele><time>2026-04-02T12:53:38Z</time></trkpt><trkpt lat="43.35633284603614" lon="5.493726008356298"><ele>234.00000000000003</ele><time>2026-04-02T12:53:42.001Z</time></trkpt><trkpt lat="43.356392903632745" lon="5.493790918818248"><ele>234.0</ele><time>2026-04-02T12:53:46.001Z</time></trkpt><trkpt lat="43.356454899369425" lon="5.493846367349753"><ele>234.0</ele><time>2026-04-02T12:53:50.001Z</time></trkpt><trkpt lat="43.35651766105234" lon="5.493884887703872"><ele>235.85714285714286</ele><time>2026-04-02T12:53:54.001Z</time></trkpt><trkpt lat="43.356581576740474" lon="5.493910259637298"><ele>237.71428571428572</ele><time>2026-04-02T12:53:58Z</time></trkpt><trkpt lat="43.35664300942492" lon="5.493939138349795"><ele>239.57142857142858</ele><time>2026-04-02T12:54:02Z</time></trkpt><trkpt lat="43.35670677529438" lon="5.493975312235398"><ele>241.42857142857144</ele><time>2026-04-02T12:54:07Z</time></trkpt><trkpt lat="43.35676914089588" lon="5.493996823445598"><ele>243.28571428571428</ele><time>2026-04-02T12:54:11Z</time></trkpt><trkpt lat="43.35684040732609" lon="5.494031618204157"><ele>245.14285714285717</ele><time>2026-04-02T12:54:15Z</time></trkpt><trkpt lat="43.356899228286515" lon="5.494068384123302"><ele>247.0</ele><time>2026-04-02T12:54:19Z</time></trkpt><trkpt lat="43.3569604940785" lon="5.494127411178518"><ele>247.0</ele><time>2026-04-02T12:54:24Z</time></trkpt><trkpt lat="43.35701963476404" lon="5.494181408152349"><ele>247.0</ele><time>2026-04-02T12:54:29Z</time></trkpt><trkpt lat="43.35707682989324" lon="5.494244471456904"><ele>247.0</ele><time>2026-04-02T12:54:34Z</time></trkpt><trkpt lat="43.357127243681504" lon="5.494297697171536"><ele>247.0</ele><time>2026-04-02T12:54:38Z</time></trkpt><trkpt lat="43.35717645011686" lon="5.494372887773707"><ele>247.0</ele><time>2026-04-02T12:54:43Z</time></trkpt><trkpt lat="43.35721025458042" lon="5.4944472535729325"><ele>247.0</ele><time>2026-04-02T12:54:47Z</time></trkpt><trkpt lat="43.357243366778064" lon="5.494542914827968"><ele>247.0</ele><time>2026-04-02T12:54:52Z</time></trkpt><trkpt lat="43.35725579015537" lon="5.49462868932465"><ele>246.57142857142858</ele><time>2026-04-02T12:54:56Z</time></trkpt><trkpt lat="43.35727168695563" lon="5.494714952104492"><ele>246.1428571428571</ele><time>2026-04-02T12:55:00Z</time></trkpt><trkpt lat="43.35726771006291" lon="5.49481039760303"><ele>245.7142857142857</ele><time>2026-04-02T12:55:06Z</time></trkpt><trkpt lat="43.357255762361255" lon="5.494914205090199"><ele>245.28571428571428</ele><time>2026-04-02T12:55:12Z</time></trkpt><trkpt lat="43.3572544585405" lon="5.495009483412045"><ele>244.85714285714283</ele><time>2026-04-02T12:55:17Z</time></trkpt><trkpt lat="43.35724600311918" lon="5.495099018396449"><ele>244.4285714285714</ele><time>2026-04-02T12:55:22Z</time></trkpt><trkpt lat="43.357241687977094" lon="5.495187026030768"><ele>243.99999999999997</ele><time>2026-04-02T12:55:33Z</time></trkpt><trkpt lat="43.357257974450135" lon="5.495274942042251"><ele>243.99999999999997</ele><time>2026-04-02T12:55:39Z</time></trkpt><trkpt lat="43.35724662811654" lon="5.495362842000805"><ele>244.0</ele><time>2026-04-02T12:55:45Z</time></trkpt><trkpt lat="43.35724152305485" lon="5.495459507638125"><ele>243.99999999999997</ele><time>2026-04-02T12:55:52Z</time></trkpt><trkpt lat="43.35723798970309" lon="5.495560452271206"><ele>243.99999999999997</ele><time>2026-04-02T12:55:58Z</time></trkpt><trkpt lat="43.357244186162724" lon="5.495661984323956"><ele>244.0</ele><time>2026-04-02T12:56:05Z</time></trkpt><trkpt lat="43.35724790045353" lon="5.495752617307176"><ele>243.99999999999997</ele><time>2026-04-02T12:56:12Z</time></trkpt><trkpt lat="43.357242245031024" lon="5.495844660475312"><ele>243.99999999999997</ele><time>2026-04-02T12:56:19Z</time></trkpt><trkpt lat="43.35723427159474" lon="5.495934969652004"><ele>245.28571428571425</ele><time>2026-04-02T12:56:26Z</time></trkpt><trkpt lat="43.3572281481977" lon="5.49602423457637"><ele>246.57142857142856</ele><time>2026-04-02T12:56:33Z</time></trkpt><trkpt lat="43.35722592136999" lon="5.496122551018597"><ele>247.85714285714286</ele><time>2026-04-02T12:56:41Z</time></trkpt><trkpt lat="43.35723633045621" lon="5.496222004016874"><ele>249.14285714285714</ele><time>2026-04-02T12:56:48Z</time></trkpt><trkpt lat="43.35724279720731" lon="5.496320129234862"><ele>250.42857142857144</ele><time>2026-04-02T12:56:56Z</time></trkpt><trkpt lat="43.357268080349165" lon="5.496409547396838"><ele>251.71428571428575</ele><time>2026-04-02T12:57:03Z</time></trkpt><trkpt lat="43.35723195975427" lon="5.496481705834803"><ele>253.00000000000003</ele><time>2026-04-02T12:57:10Z</time></trkpt><trkpt lat="43.35716955821128" lon="5.4964587634574595"><ele>255.28571428571433</ele><time>2026-04-02T12:57:17Z</time></trkpt><trkpt lat="43.35714268664614" lon="5.496372640268521"><ele>257.57142857142856</ele><time>2026-04-02T12:57:22Z</time></trkpt><trkpt lat="43.3570936111812" lon="5.496297030686949"><ele>259.8571428571429</ele><time>2026-04-02T12:57:26Z</time></trkpt><trkpt lat="43.357052670916985" lon="5.496221072217616"><ele>262.14285714285717</ele><time>2026-04-02T12:57:30Z</time></trkpt><trkpt lat="43.356999932358455" lon="5.496163346482547"><ele>264.42857142857144</ele><time>2026-04-02T12:57:34Z</time></trkpt><trkpt lat="43.35694033411633" lon="5.496091968895007"><ele>266.7142857142857</ele><time>2026-04-02T12:57:39Z</time></trkpt><trkpt lat="43.356888413847116" lon="5.496038570225904"><ele>269.0</ele><time>2026-04-02T12:57:43Z</time></trkpt><trkpt lat="43.35681568618523" lon="5.495956881932457"><ele>269.0</ele><time>2026-04-02T12:57:48Z</time></trkpt><trkpt lat="43.356743057716116" lon="5.495905845107492"><ele>269.0</ele><time>2026-04-02T12:57:51Z</time></trkpt><trkpt lat="43.356662104898334" lon="5.495885538546937"><ele>269.0</ele><time>2026-04-02T12:57:54Z</time></trkpt><trkpt lat="43.35659501285625" lon="5.495929109032093"><ele>269.0</ele><time>2026-04-02T12:57:57Z</time></trkpt><trkpt lat="43.35658452060872" lon="5.496019586470657"><ele>269.0</ele><time>2026-04-02T12:58:00Z</time></trkpt><trkpt lat="43.356604795564486" lon="5.496106221468595"><ele>269.0</ele><time>2026-04-02T12:58:04Z</time></trkpt><trkpt lat="43.35663196410508" lon="5.496195768498601"><ele>269.0</ele><time>2026-04-02T12:58:08Z</time></trkpt><trkpt lat="43.3566683104466" lon="5.496267904233166"><ele>269.57142857142856</ele><time>2026-04-02T12:58:12Z</time></trkpt><trkpt lat="43.35670117004446" lon="5.496363015884901"><ele>270.14285714285717</ele><time>2026-04-02T12:58:17Z</time></trkpt><trkpt lat="43.35673193498857" lon="5.496453217512134"><ele>270.7142857142857</ele><time>2026-04-02T12:58:22Z</time></trkpt><trkpt lat="43.3567625695937" lon="5.496548769144013"><ele>271.2857142857143</ele><time>2026-04-02T12:58:27Z</time></trkpt><trkpt lat="43.35678491783578" lon="5.496645278534772"><ele>271.8571428571429</ele><time>2026-04-02T12:58:32Z</time></trkpt><trkpt lat="43.35681108294028" lon="5.49672519043564"><ele>272.42857142857144</ele><time>2026-04-02T12:58:37Z</time></trkpt><trkpt lat="43.35683040594015" lon="5.496808952298948"><ele>273.0</ele><time>2026-04-02T12:58:41Z</time></trkpt><trkpt lat="43.35685291366251" lon="5.496896756159202"><ele>273.0</ele><time>2026-04-02T12:58:46Z</time></trkpt><trkpt lat="43.35688251261506" lon="5.496985543243018"><ele>273.0</ele><time>2026-04-02T12:58:51Z</time></trkpt><trkpt lat="43.35690202863117" lon="5.497074920998209"><ele>273.0</ele><time>2026-04-02T12:58:56Z</time></trkpt><trkpt lat="43.35692446155566" lon="5.497170599765243"><ele>273.0</ele><time>2026-04-02T12:59:01Z</time></trkpt><trkpt lat="43.35694559276768" lon="5.4972568182414125"><ele>273.0</ele><time>2026-04-02T12:59:06Z</time></trkpt><trkpt lat="43.3569659053164" lon="5.497350829748811"><ele>273.0</ele><time>2026-04-02T12:59:11Z</time></trkpt><trkpt lat="43.356986148975956" lon="5.4974371035235015"><ele>273.0</ele><time>2026-04-02T12:59:16Z</time></trkpt><trkpt lat="43.35701107051355" lon="5.497518945173104"><ele>273.14285714285717</ele><time>2026-04-02T12:59:20Z</time></trkpt><trkpt lat="43.35704221894119" lon="5.497607253788822"><ele>273.2857142857143</ele><time>2026-04-02T12:59:25Z</time></trkpt><trkpt lat="43.357076052536044" lon="5.497694172960931"><ele>273.42857142857144</ele><time>2026-04-02T12:59:29.999Z</time></trkpt><trkpt lat="43.357105367094" lon="5.497783010851845"><ele>273.57142857142856</ele><time>2026-04-02T12:59:34.999Z</time></trkpt><trkpt lat="43.35713854893747" lon="5.4978763502219135"><ele>273.7142857142857</ele><time>2026-04-02T12:59:40.999Z</time></trkpt><trkpt lat="43.357168467497836" lon="5.497963852030824"><ele>273.8571428571429</ele><time>2026-04-02T12:59:46.999Z</time></trkpt><trkpt lat="43.35719081216212" lon="5.498060426691263"><ele>274.0</ele><time>2026-04-02T12:59:52.999Z</time></trkpt><trkpt lat="43.35722166228272" lon="5.49815300270916"><ele>275.7142857142857</ele><time>2026-04-02T12:59:58.999Z</time></trkpt><trkpt lat="43.35724672208417" lon="5.498246236820172"><ele>277.42857142857144</ele><time>2026-04-02T13:00:04.999Z</time></trkpt><trkpt lat="43.357269260210984" lon="5.4983379667037156"><ele>279.1428571428571</ele><time>2026-04-02T13:00:11Z</time></trkpt><trkpt lat="43.35728325222907" lon="5.498433900937048"><ele>280.8571428571429</ele><time>2026-04-02T13:00:17Z</time></trkpt><trkpt lat="43.35728915755741" lon="5.498523250155219"><ele>282.57142857142856</ele><time>2026-04-02T13:00:22Z</time></trkpt><trkpt lat="43.35728792392564" lon="5.49862008978173"><ele>284.2857142857143</ele><time>2026-04-02T13:00:28Z</time></trkpt><trkpt lat="43.35728775158653" lon="5.498721355763555"><ele>286.0</ele><time>2026-04-02T13:00:34Z</time></trkpt><trkpt lat="43.357286699474464" lon="5.49881682716886"><ele>286.99999999999994</ele><time>2026-04-02T13:00:40Z</time></trkpt><trkpt lat="43.35727810218599" lon="5.498915515813622"><ele>288.0</ele><time>2026-04-02T13:00:47Z</time></trkpt><trkpt lat="43.35727291289575" lon="5.499014349887838"><ele>289.0</ele><time>2026-04-02T13:00:53Z</time></trkpt><trkpt lat="43.35726267926024" lon="5.4991109695130405"><ele>290.0</ele><time>2026-04-02T13:01:00Z</time></trkpt><trkpt lat="43.357253312336326" lon="5.49921126749418"><ele>291.0</ele><time>2026-04-02T13:02:18.999Z</time></trkpt><trkpt lat="43.3572550815337" lon="5.499303308825308"><ele>291.99999999999994</ele><time>2026-04-02T13:02:25Z</time></trkpt><trkpt lat="43.357256184226785" lon="5.499393561923608"><ele>293.0</ele><time>2026-04-02T13:02:31Z</time></trkpt><trkpt lat="43.35725242034093" lon="5.499486707992626"><ele>293.4285714285714</ele><time>2026-04-02T13:02:36Z</time></trkpt><trkpt lat="43.357242083749114" lon="5.499593514936337"><ele>293.85714285714283</ele><time>2026-04-02T13:02:42Z</time></trkpt><trkpt lat="43.357233799368515" lon="5.4996919996187295"><ele>294.2857142857143</ele><time>2026-04-02T13:02:47Z</time></trkpt><trkpt lat="43.357207619495014" lon="5.499773713951237"><ele>294.71428571428567</ele><time>2026-04-02T13:02:51Z</time></trkpt><trkpt lat="43.35719680384437" lon="5.499866115537854"><ele>295.1428571428571</ele><time>2026-04-02T13:02:56Z</time></trkpt><trkpt lat="43.357175196629065" lon="5.499955917243559"><ele>295.57142857142856</ele><time>2026-04-02T13:03:01Z</time></trkpt><trkpt lat="43.35715414226167" lon="5.5000383069280225"><ele>296.0</ele><time>2026-04-02T13:03:05Z</time></trkpt><trkpt lat="43.357130648806596" lon="5.500123498709974"><ele>296.7142857142857</ele><time>2026-04-02T13:03:10Z</time></trkpt><trkpt lat="43.35710736479656" lon="5.500208097795081"><ele>297.42857142857144</ele><time>2026-04-02T13:03:14Z</time></trkpt><trkpt lat="43.3570788201634" lon="5.500305249972005"><ele>298.1428571428571</ele><time>2026-04-02T13:03:19Z</time></trkpt><trkpt lat="43.35705800418193" lon="5.500392705160481"><ele>298.8571428571429</ele><time>2026-04-02T13:03:24Z</time></trkpt><trkpt lat="43.35703045711178" lon="5.500473985420335"><ele>299.57142857142856</ele><time>2026-04-02T13:03:29Z</time></trkpt><trkpt lat="43.35700515244826" lon="5.500556260552499"><ele>300.2857142857143</ele><time>2026-04-02T13:03:34Z</time></trkpt><trkpt lat="43.356970946838146" lon="5.500635370808429"><ele>301.0</ele><time>2026-04-02T13:03:39Z</time></trkpt><trkpt lat="43.35695654374493" lon="5.50072462052363"><ele>303.57142857142856</ele><time>2026-04-02T13:03:43.999Z</time></trkpt><trkpt lat="43.35693001447112" lon="5.5008219488739325"><ele>306.1428571428571</ele><time>2026-04-02T13:03:48.999Z</time></trkpt><trkpt lat="43.35691124175258" lon="5.500919187913122"><ele>308.7142857142857</ele><time>2026-04-02T13:03:53.999Z</time></trkpt><trkpt lat="43.35689100954601" lon="5.501001228053865"><ele>311.2857142857143</ele><time>2026-04-02T13:03:58.999Z</time></trkpt><trkpt lat="43.35688888104096" lon="5.501111446071637"><ele>313.85714285714283</ele><time>2026-04-02T13:04:05.999Z</time></trkpt><trkpt lat="43.3568541897282" lon="5.501196574557929"><ele>316.42857142857144</ele><time>2026-04-02T13:04:10.999Z</time></trkpt><trkpt lat="43.3568314818868" lon="5.501285616132759"><ele>319.0</ele><time>2026-04-02T13:04:15.999Z</time></trkpt><trkpt lat="43.35681630867493" lon="5.501374248429789"><ele>320.2857142857143</ele><time>2026-04-02T13:04:19.999Z</time></trkpt><trkpt lat="43.35681248030727" lon="5.5014742973568564"><ele>321.57142857142856</ele><time>2026-04-02T13:04:24.999Z</time></trkpt><trkpt lat="43.35681647746279" lon="5.50156478036325"><ele>322.85714285714283</ele><time>2026-04-02T13:04:29.999Z</time></trkpt><trkpt lat="43.35684774222754" lon="5.501646773626351"><ele>324.1428571428571</ele><time>2026-04-02T13:04:34.999Z</time></trkpt><trkpt lat="43.356870307905375" lon="5.5017310149413765"><ele>325.42857142857144</ele><time>2026-04-02T13:04:39Z</time></trkpt><trkpt lat="43.356902946489946" lon="5.5018278712370075"><ele>326.71428571428567</ele><time>2026-04-02T13:04:44Z</time></trkpt><trkpt lat="43.356928825278935" lon="5.501910046440536"><ele>328.0</ele><time>2026-04-02T13:04:48Z</time></trkpt><trkpt lat="43.35694730855868" lon="5.50200792950746"><ele>328.2857142857143</ele><time>2026-04-02T13:04:53Z</time></trkpt><trkpt lat="43.35695276014579" lon="5.502104609208706"><ele>328.57142857142856</ele><time>2026-04-02T13:04:58Z</time></trkpt><trkpt lat="43.35693927616356" lon="5.502193540009737"><ele>328.8571428571429</ele><time>2026-04-02T13:05:03Z</time></trkpt><trkpt lat="43.356933381023055" lon="5.502295933355155"><ele>329.1428571428571</ele><time>2026-04-02T13:05:08Z</time></trkpt><trkpt lat="43.356907930479615" lon="5.502378096493849"><ele>329.42857142857144</ele><time>2026-04-02T13:05:13Z</time></trkpt><trkpt lat="43.356869776984084" lon="5.502462482600487"><ele>329.7142857142857</ele><time>2026-04-02T13:05:19Z</time></trkpt><trkpt lat="43.35682623879039" lon="5.502535753563235"><ele>330.0</ele><time>2026-04-02T13:05:25Z</time></trkpt><trkpt lat="43.35677175636836" lon="5.502596126770223"><ele>330.00000000000006</ele><time>2026-04-02T13:05:31Z</time></trkpt><trkpt lat="43.35672414395949" lon="5.502660321192852"><ele>330.0</ele><time>2026-04-02T13:05:37Z</time></trkpt><trkpt lat="43.356679646180154" lon="5.502739291152203"><ele>330.0</ele><time>2026-04-02T13:05:45Z</time></trkpt><trkpt lat="43.35663261809876" lon="5.502815940899997"><ele>330.0</ele><time>2026-04-02T13:05:51Z</time></trkpt><trkpt lat="43.356596056730496" lon="5.502893082746902"><ele>330.0</ele><time>2026-04-02T13:05:57Z</time></trkpt><trkpt lat="43.35655556414515" lon="5.5029791707207005"><ele>330.00000000000006</ele><time>2026-04-02T13:06:03Z</time></trkpt><trkpt lat="43.35651863952512" lon="5.503064462685792"><ele>330.0</ele><time>2026-04-02T13:06:09Z</time></trkpt><trkpt lat="43.35648892843488" lon="5.503141507397473"><ele>330.14285714285717</ele><time>2026-04-02T13:06:15Z</time></trkpt><trkpt lat="43.35645084481664" lon="5.50321618980302"><ele>330.2857142857143</ele><time>2026-04-02T13:06:20.999Z</time></trkpt><trkpt lat="43.356407023232656" lon="5.503298533188597"><ele>330.42857142857144</ele><time>2026-04-02T13:06:26.999Z</time></trkpt><trkpt lat="43.356371933426644" lon="5.5033744104206175"><ele>330.57142857142856</ele><time>2026-04-02T13:06:31.999Z</time></trkpt><trkpt lat="43.35633119408511" lon="5.503441834590649"><ele>330.7142857142857</ele><time>2026-04-02T13:06:37Z</time></trkpt><trkpt lat="43.35630762614209" lon="5.503535497383506"><ele>330.8571428571429</ele><time>2026-04-02T13:06:42Z</time></trkpt><trkpt lat="43.35629876686136" lon="5.503635172488796"><ele>331.0</ele><time>2026-04-02T13:06:47Z</time></trkpt><trkpt lat="43.356300499638294" lon="5.503737372621309"><ele>333.57142857142856</ele><time>2026-04-02T13:06:52Z</time></trkpt><trkpt lat="43.35629753981693" lon="5.503844079388692"><ele>336.1428571428571</ele><time>2026-04-02T13:06:57Z</time></trkpt><trkpt lat="43.35630443292185" lon="5.503948315833142"><ele>338.71428571428567</ele><time>2026-04-02T13:07:02Z</time></trkpt><trkpt lat="43.35632253435375" lon="5.504035808423688"><ele>341.2857142857143</ele><time>2026-04-02T13:07:06Z</time></trkpt><trkpt lat="43.35636556819656" lon="5.504108305498786"><ele>343.85714285714283</ele><time>2026-04-02T13:07:10Z</time></trkpt><trkpt lat="43.35643194429624" lon="5.504134572445307"><ele>346.4285714285714</ele><time>2026-04-02T13:07:15Z</time></trkpt><trkpt lat="43.35649911540671" lon="5.504130965662003"><ele>349.0</ele><time>2026-04-02T13:07:20Z</time></trkpt><trkpt lat="43.35656451581903" lon="5.504111417073114"><ele>348.99999999999994</ele><time>2026-04-02T13:07:26Z</time></trkpt><trkpt lat="43.356631338739106" lon="5.504107032104998"><ele>349.0</ele><time>2026-04-02T13:07:32Z</time></trkpt><trkpt lat="43.35670028628588" lon="5.504101750655851"><ele>349.0</ele><time>2026-04-02T13:07:38Z</time></trkpt><trkpt lat="43.356773368824335" lon="5.504100239262976"><ele>349.0</ele><time>2026-04-02T13:08:01Z</time></trkpt><trkpt lat="43.356839967545135" lon="5.504109653956367"><ele>349.0</ele><time>2026-04-02T13:08:07Z</time></trkpt><trkpt lat="43.35690746299293" lon="5.504125154791839"><ele>348.99999999999994</ele><time>2026-04-02T13:08:12Z</time></trkpt><trkpt lat="43.35696611602508" lon="5.504173529531174"><ele>349.0</ele><time>2026-04-02T13:08:18Z</time></trkpt><trkpt lat="43.35702251356024" lon="5.504236938566249"><ele>348.99999999999994</ele><time>2026-04-02T13:08:23.999Z</time></trkpt><trkpt lat="43.35708082848586" lon="5.504273815664004"><ele>349.0</ele><time>2026-04-02T13:08:28.999Z</time></trkpt><trkpt lat="43.35714791314794" lon="5.504319378553892"><ele>349.0</ele><time>2026-04-02T13:08:34Z</time></trkpt><trkpt lat="43.35721531352829" lon="5.504348800360812"><ele>349.0</ele><time>2026-04-02T13:08:39Z</time></trkpt><trkpt lat="43.35728247447266" lon="5.504374355197437"><ele>349.0</ele><time>2026-04-02T13:08:44Z</time></trkpt><trkpt lat="43.35735234210133" lon="5.504411811546016"><ele>348.99999999999994</ele><time>2026-04-02T13:08:50Z</time></trkpt><trkpt lat="43.35737264924342" lon="5.504504575884993"><ele>349.0</ele><time>2026-04-02T13:08:56Z</time></trkpt><trkpt lat="43.3573253005116" lon="5.5045802384139675"><ele>347.57142857142856</ele><time>2026-04-02T13:09:02Z</time></trkpt><trkpt lat="43.357267186902824" lon="5.504628729968802"><ele>346.1428571428571</ele><time>2026-04-02T13:09:08Z</time></trkpt><trkpt lat="43.357218771170636" lon="5.504696919541166"><ele>344.71428571428567</ele><time>2026-04-02T13:09:14Z</time></trkpt><trkpt lat="43.35717543767704" lon="5.504764749316931"><ele>343.2857142857143</ele><time>2026-04-02T13:09:19Z</time></trkpt><trkpt lat="43.35713962298487" lon="5.504838436019398"><ele>341.8571428571429</ele><time>2026-04-02T13:09:24Z</time></trkpt><trkpt lat="43.35708498837273" lon="5.504903055316686"><ele>340.4285714285714</ele><time>2026-04-02T13:09:30Z</time></trkpt><trkpt lat="43.357040981973945" lon="5.504972732560943"><ele>339.0</ele><time>2026-04-02T13:09:35Z</time></trkpt><trkpt lat="43.35698909648125" lon="5.505041450807304"><ele>342.4285714285714</ele><time>2026-04-02T13:09:40Z</time></trkpt><trkpt lat="43.35693900557617" lon="5.505113862772382"><ele>345.8571428571429</ele><time>2026-04-02T13:09:45Z</time></trkpt><trkpt lat="43.35689519513458" lon="5.505186662332057"><ele>349.2857142857143</ele><time>2026-04-02T13:09:50Z</time></trkpt><trkpt lat="43.35683409735299" lon="5.505240144768988"><ele>352.71428571428567</ele><time>2026-04-02T13:09:56Z</time></trkpt><trkpt lat="43.356781986554054" lon="5.5053003884250655"><ele>356.1428571428571</ele><time>2026-04-02T13:10:02Z</time></trkpt><trkpt lat="43.356723350692214" lon="5.505360149060732"><ele>359.57142857142856</ele><time>2026-04-02T13:10:08Z</time></trkpt><trkpt lat="43.35666073744007" lon="5.50540619510944"><ele>363.0</ele><time>2026-04-02T13:10:14Z</time></trkpt><trkpt lat="43.35661276742694" lon="5.505470608852444"><ele>362.99999999999994</ele><time>2026-04-02T13:10:20Z</time></trkpt><trkpt lat="43.356563701404646" lon="5.5055289443567075"><ele>363.0</ele><time>2026-04-02T13:10:27Z</time></trkpt><trkpt lat="43.35651466483933" lon="5.505599671564718"><ele>363.0</ele><time>2026-04-02T13:10:34Z</time></trkpt><trkpt lat="43.35647269705132" lon="5.505677767722232"><ele>363.0</ele><time>2026-04-02T13:10:41Z</time></trkpt><trkpt lat="43.35642929494673" lon="5.505745729073828"><ele>363.0</ele><time>2026-04-02T13:10:48Z</time></trkpt><trkpt lat="43.35638374760339" lon="5.5058065957888775"><ele>362.99999999999994</ele><time>2026-04-02T13:10:54Z</time></trkpt><trkpt lat="43.356350029746444" lon="5.50588290965063"><ele>363.0</ele><time>2026-04-02T13:11:01Z</time></trkpt><trkpt lat="43.356289791902206" lon="5.505931797761378"><ele>363.85714285714283</ele><time>2026-04-02T13:11:09Z</time></trkpt><trkpt lat="43.35624623330522" lon="5.506001622511013"><ele>364.7142857142857</ele><time>2026-04-02T13:11:16Z</time></trkpt><trkpt lat="43.35618338939665" lon="5.506043346675154"><ele>365.57142857142856</ele><time>2026-04-02T13:11:23Z</time></trkpt><trkpt lat="43.356130819383516" lon="5.506102201615842"><ele>366.42857142857144</ele><time>2026-04-02T13:11:30Z</time></trkpt><trkpt lat="43.35607076088047" lon="5.506138666600372"><ele>367.2857142857143</ele><time>2026-04-02T13:11:37Z</time></trkpt><trkpt lat="43.35601489935627" lon="5.506186922957814"><ele>368.1428571428571</ele><time>2026-04-02T13:11:43Z</time></trkpt><trkpt lat="43.35595865402192" lon="5.506233744250181"><ele>369.0</ele><time>2026-04-02T13:11:49Z</time></trkpt><trkpt lat="43.35589997488051" lon="5.506275061277358"><ele>369.0</ele><time>2026-04-02T13:11:54Z</time></trkpt><trkpt lat="43.35584271808403" lon="5.506338454197161"><ele>369.0</ele><time>2026-04-02T13:12:00Z</time></trkpt><trkpt lat="43.35578175306527" lon="5.506390571526206"><ele>369.0</ele><time>2026-04-02T13:12:06Z</time></trkpt><trkpt lat="43.355714063993666" lon="5.506441037068632"><ele>369.0</ele><time>2026-04-02T13:12:12Z</time></trkpt><trkpt lat="43.35564892444013" lon="5.506490709364477"><ele>369.0</ele><time>2026-04-02T13:12:18Z</time></trkpt><trkpt lat="43.35558565149847" lon="5.506524200636846"><ele>369.0</ele><time>2026-04-02T13:12:24Z</time></trkpt><trkpt lat="43.3555213471062" lon="5.506561314289693"><ele>369.0</ele><time>2026-04-02T13:12:30Z</time></trkpt><trkpt lat="43.35545643233511" lon="5.506599526235862"><ele>372.0</ele><time>2026-04-02T13:12:36Z</time></trkpt><trkpt lat="43.35539629390482" lon="5.506636474083148"><ele>375.0</ele><time>2026-04-02T13:12:41Z</time></trkpt><trkpt lat="43.355339372498975" lon="5.506686139229313"><ele>378.0</ele><time>2026-04-02T13:12:46Z</time></trkpt><trkpt lat="43.35528291650166" lon="5.506733584549841"><ele>381.0</ele><time>2026-04-02T13:12:51Z</time></trkpt><trkpt lat="43.35522439392818" lon="5.5067896146829565"><ele>384.0</ele><time>2026-04-02T13:12:56Z</time></trkpt><trkpt lat="43.35517165311387" lon="5.506839590046739"><ele>387.0</ele><time>2026-04-02T13:13:01Z</time></trkpt><trkpt lat="43.35511993445749" lon="5.506898767199259"><ele>390.0</ele><time>2026-04-02T13:13:06Z</time></trkpt><trkpt lat="43.35506050445594" lon="5.506955219523985"><ele>390.0</ele><time>2026-04-02T13:13:11Z</time></trkpt><trkpt lat="43.354995539757525" lon="5.507013537212538"><ele>390.0</ele><time>2026-04-02T13:13:16Z</time></trkpt><trkpt lat="43.354923399983335" lon="5.507055043529676"><ele>390.0</ele><time>2026-04-02T13:13:21Z</time></trkpt><trkpt lat="43.35486258322324" lon="5.507090526833369"><ele>390.0</ele><time>2026-04-02T13:13:25Z</time></trkpt><trkpt lat="43.35478939510494" lon="5.507142713936052"><ele>390.0</ele><time>2026-04-02T13:13:30Z</time></trkpt><trkpt lat="43.35473210589537" lon="5.507201457698472"><ele>390.0</ele><time>2026-04-02T13:13:34Z</time></trkpt><trkpt lat="43.354687771319185" lon="5.507268697155217"><ele>390.0</ele><time>2026-04-02T13:13:38Z</time></trkpt><trkpt lat="43.35464508307038" lon="5.507336562806683"><ele>391.42857142857144</ele><time>2026-04-02T13:13:42Z</time></trkpt><trkpt lat="43.35461019202419" lon="5.507409927464891"><ele>392.85714285714283</ele><time>2026-04-02T13:13:46Z</time></trkpt><trkpt lat="43.35457728236598" lon="5.507490944572858"><ele>394.28571428571433</ele><time>2026-04-02T13:13:49Z</time></trkpt><trkpt lat="43.35453354731066" lon="5.507556231843001"><ele>395.7142857142857</ele><time>2026-04-02T13:13:53Z</time></trkpt><trkpt lat="43.35448959899169" lon="5.507485301733255"><ele>397.14285714285717</ele><time>2026-04-02T13:13:58Z</time></trkpt><trkpt lat="43.354504641989195" lon="5.507385421105595"><ele>398.5714285714286</ele><time>2026-04-02T13:14:03Z</time></trkpt><trkpt lat="43.354551576865276" lon="5.507323980771501"><ele>400.0</ele><time>2026-04-02T13:16:07Z</time></trkpt><trkpt lat="43.35458076283034" lon="5.5072458642892625"><ele>400.00000000000006</ele><time>2026-04-02T13:16:11Z</time></trkpt><trkpt lat="43.35463206945263" lon="5.507179913277272"><ele>400.0</ele><time>2026-04-02T13:16:16.001Z</time></trkpt><trkpt lat="43.35468000218266" lon="5.507103740003871"><ele>400.0</ele><time>2026-04-02T13:16:21.001Z</time></trkpt><trkpt lat="43.35472288416492" lon="5.507035944495341"><ele>400.0</ele><time>2026-04-02T13:16:24.001Z</time></trkpt><trkpt lat="43.35476808038324" lon="5.506966110001875"><ele>400.0</ele><time>2026-04-02T13:16:28.001Z</time></trkpt><trkpt lat="43.354810547795" lon="5.506890828345017"><ele>400.00000000000006</ele><time>2026-04-02T13:16:32.001Z</time></trkpt><trkpt lat="43.354852763829186" lon="5.506822525664822"><ele>400.0</ele><time>2026-04-02T13:16:36.001Z</time></trkpt><trkpt lat="43.35488780986781" lon="5.506744467176448"><ele>400.5714285714286</ele><time>2026-04-02T13:16:40.001Z</time></trkpt><trkpt lat="43.354935072688875" lon="5.506664928598465"><ele>401.14285714285717</ele><time>2026-04-02T13:16:45.001Z</time></trkpt><trkpt lat="43.35495185568032" lon="5.506575095932219"><ele>401.7142857142857</ele><time>2026-04-02T13:16:49.001Z</time></trkpt><trkpt lat="43.354902279269325" lon="5.506503367474584"><ele>402.28571428571433</ele><time>2026-04-02T13:16:55.001Z</time></trkpt><trkpt lat="43.35483517842628" lon="5.506536487462136"><ele>402.85714285714283</ele><time>2026-04-02T13:16:59Z</time></trkpt><trkpt lat="43.35477472026287" lon="5.506591564167335"><ele>403.42857142857144</ele><time>2026-04-02T13:17:04Z</time></trkpt><trkpt lat="43.35470786038636" lon="5.506632210571531"><ele>404.0</ele><time>2026-04-02T13:17:09Z</time></trkpt><trkpt lat="43.354633085476465" lon="5.506660156457761"><ele>404.0</ele><time>2026-04-02T13:17:14Z</time></trkpt><trkpt lat="43.35456331149123" lon="5.506695243692859"><ele>404.0</ele><time>2026-04-02T13:17:19Z</time></trkpt><trkpt lat="43.354489882206636" lon="5.506725468968557"><ele>404.0</ele><time>2026-04-02T13:17:24Z</time></trkpt><trkpt lat="43.35441840012995" lon="5.506758144632919"><ele>404.0</ele><time>2026-04-02T13:17:29Z</time></trkpt><trkpt lat="43.35435574019583" lon="5.506795597360313"><ele>404.0</ele><time>2026-04-02T13:17:34Z</time></trkpt><trkpt lat="43.354286301173325" lon="5.506824335920372"><ele>404.0</ele><time>2026-04-02T13:17:39Z</time></trkpt><trkpt lat="43.35421090914438" lon="5.506840458400458"><ele>404.0</ele><time>2026-04-02T13:17:44Z</time></trkpt><trkpt lat="43.354148970615" lon="5.506876845391208"><ele>404.0</ele><time>2026-04-02T13:17:49.001Z</time></trkpt><trkpt lat="43.354085318441804" lon="5.506922488756204"><ele>404.0</ele><time>2026-04-02T13:17:54.001Z</time></trkpt><trkpt lat="43.35403689160361" lon="5.506982879181627"><ele>404.0</ele><time>2026-04-02T13:17:58.001Z</time></trkpt><trkpt lat="43.35399056594155" lon="5.507044374198313"><ele>404.0</ele><time>2026-04-02T13:18:02.001Z</time></trkpt><trkpt lat="43.353949284539944" lon="5.50713593781783"><ele>404.0</ele><time>2026-04-02T13:18:06.001Z</time></trkpt><trkpt lat="43.353915404384274" lon="5.5072338284715645"><ele>404.0</ele><time>2026-04-02T13:18:10.001Z</time></trkpt><trkpt lat="43.353885783406675" lon="5.507336300071705"><ele>404.0</ele><time>2026-04-02T13:18:14.001Z</time></trkpt><trkpt lat="43.35386345950039" lon="5.507418228158034"><ele>403.0</ele><time>2026-04-02T13:18:17.001Z</time></trkpt><trkpt lat="43.35385468968502" lon="5.507532674815409"><ele>402.0</ele><time>2026-04-02T13:18:21.001Z</time></trkpt><trkpt lat="43.3538373176804" lon="5.507623932482137"><ele>401.0</ele><time>2026-04-02T13:18:24.001Z</time></trkpt><trkpt lat="43.35383497222135" lon="5.507723007177564"><ele>400.0</ele><time>2026-04-02T13:18:27.001Z</time></trkpt><trkpt lat="43.353828441685614" lon="5.507822799559965"><ele>399.0</ele><time>2026-04-02T13:18:30.001Z</time></trkpt><trkpt lat="43.35381871864317" lon="5.507924601768752"><ele>398.0</ele><time>2026-04-02T13:18:33.001Z</time></trkpt><trkpt lat="43.35381458138798" lon="5.50802483629375"><ele>397.0</ele><time>2026-04-02T13:18:37.001Z</time></trkpt><trkpt lat="43.353810151379214" lon="5.508117307094562"><ele>397.00000000000006</ele><time>2026-04-02T13:18:40.001Z</time></trkpt><trkpt lat="43.353808301793954" lon="5.508239511429227"><ele>397.0</ele><time>2026-04-02T13:18:43.001Z</time></trkpt><trkpt lat="43.353802357870926" lon="5.508328509984483"><ele>397.0</ele><time>2026-04-02T13:18:46.001Z</time></trkpt><trkpt lat="43.35383519263393" lon="5.508421402443981"><ele>397.0</ele><time>2026-04-02T13:18:51.001Z</time></trkpt><trkpt lat="43.35384500279704" lon="5.508513270732023"><ele>397.00000000000006</ele><time>2026-04-02T13:18:54.001Z</time></trkpt><trkpt lat="43.35385457838711" lon="5.508615722543041"><ele>397.0</ele><time>2026-04-02T13:18:57Z</time></trkpt><trkpt lat="43.353875287517894" lon="5.5087278785026665"><ele>398.33333333333337</ele><time>2026-04-02T13:19:00Z</time></trkpt><trkpt lat="43.353879945169375" lon="5.508817855848633"><ele>399.6666666666667</ele><time>2026-04-02T13:19:02Z</time></trkpt><trkpt lat="43.353888864826416" lon="5.508913178676396"><ele>401.0</ele><time>2026-04-02T13:19:04Z</time></trkpt><trkpt lat="43.35389216032984" lon="5.509021027416145"><ele>402.33333333333337</ele><time>2026-04-02T13:19:06Z</time></trkpt><trkpt lat="43.35388918197821" lon="5.509133720086997"><ele>403.6666666666667</ele><time>2026-04-02T13:19:08Z</time></trkpt><trkpt lat="43.35388784196017" lon="5.509265294164361"><ele>405.0</ele><time>2026-04-02T13:19:10Z</time></trkpt><trkpt lat="43.35387798748496" lon="5.509397580886831"><ele>404.8</ele><time>2026-04-02T13:19:12Z</time></trkpt><trkpt lat="43.35386632056256" lon="5.509536177473308"><ele>404.6</ele><time>2026-04-02T13:19:14Z</time></trkpt><trkpt lat="43.35385697646039" lon="5.5096785797005685"><ele>404.4</ele><time>2026-04-02T13:19:16Z</time></trkpt><trkpt lat="43.35385823686864" lon="5.509822659122241"><ele>404.2</ele><time>2026-04-02T13:19:18Z</time></trkpt><trkpt lat="43.35385993535712" lon="5.509987036224846"><ele>404.0</ele><time>2026-04-02T13:19:20Z</time></trkpt><trkpt lat="43.35386665568887" lon="5.510076035445098"><ele>403.99999999999994</ele><time>2026-04-02T13:19:21Z</time></trkpt><trkpt lat="43.353859974887875" lon="5.510163431826669"><ele>404.0</ele><time>2026-04-02T13:19:22Z</time></trkpt><trkpt lat="43.35384954483973" lon="5.510252893526124"><ele>404.0</ele><time>2026-04-02T13:19:23Z</time></trkpt><trkpt lat="43.35383634206674" lon="5.510342444780237"><ele>404.0</ele><time>2026-04-02T13:19:24Z</time></trkpt><trkpt lat="43.3538424200873" lon="5.510430466759988"><ele>403.99999999999994</ele><time>2026-04-02T13:19:25Z</time></trkpt><trkpt lat="43.35381880823554" lon="5.510588511939415"><ele>404.0</ele><time>2026-04-02T13:19:27Z</time></trkpt><trkpt lat="43.35378960295658" lon="5.51072628868788"><ele>405.1428571428571</ele><time>2026-04-02T13:19:29Z</time></trkpt><trkpt lat="43.35376243642358" lon="5.510827273208928"><ele>406.2857142857143</ele><time>2026-04-02T13:19:31Z</time></trkpt><trkpt lat="43.353737078006155" lon="5.510915885269117"><ele>407.42857142857144</ele><time>2026-04-02T13:19:33Z</time></trkpt><trkpt lat="43.35369707371047" lon="5.511001881564249"><ele>408.57142857142856</ele><time>2026-04-02T13:19:36Z</time></trkpt><trkpt lat="43.35366346232882" lon="5.5110920716607055"><ele>409.7142857142857</ele><time>2026-04-02T13:19:39Z</time></trkpt><trkpt lat="43.353665316858496" lon="5.511197441704943"><ele>410.85714285714283</ele><time>2026-04-02T13:19:42Z</time></trkpt><trkpt lat="43.35371178958792" lon="5.511269390237205"><ele>412.0</ele><time>2026-04-02T13:19:45Z</time></trkpt><trkpt lat="43.353763666925836" lon="5.511332053048854"><ele>413.2857142857143</ele><time>2026-04-02T13:19:48Z</time></trkpt><trkpt lat="43.353807526540564" lon="5.51140276200044"><ele>414.57142857142856</ele><time>2026-04-02T13:19:51Z</time></trkpt><trkpt lat="43.353848612585516" lon="5.511495143244422"><ele>415.8571428571429</ele><time>2026-04-02T13:19:55Z</time></trkpt><trkpt lat="43.353888246038636" lon="5.511574074199017"><ele>417.1428571428571</ele><time>2026-04-02T13:19:59Z</time></trkpt><trkpt lat="43.353935614307666" lon="5.511648254058468"><ele>418.42857142857144</ele><time>2026-04-02T13:20:03Z</time></trkpt><trkpt lat="43.35398059205363" lon="5.511711443474992"><ele>419.7142857142857</ele><time>2026-04-02T13:20:06Z</time></trkpt><trkpt lat="43.3540307696348" lon="5.5117637359077385"><ele>421.0</ele><time>2026-04-02T13:20:10Z</time></trkpt><trkpt lat="43.35409217439726" lon="5.511815821581756"><ele>421.28571428571433</ele><time>2026-04-02T13:20:15Z</time></trkpt><trkpt lat="43.3541491884859" lon="5.511853368150685"><ele>421.57142857142856</ele><time>2026-04-02T13:20:19Z</time></trkpt><trkpt lat="43.354209389422216" lon="5.511880578251924"><ele>421.8571428571429</ele><time>2026-04-02T13:20:23.001Z</time></trkpt><trkpt lat="43.354280102262116" lon="5.5119024313007765"><ele>422.14285714285717</ele><time>2026-04-02T13:20:28.001Z</time></trkpt><trkpt lat="43.354351386956324" lon="5.5119037465880885"><ele>422.42857142857144</ele><time>2026-04-02T13:20:34.001Z</time></trkpt><trkpt lat="43.35441441689514" lon="5.511915362360096"><ele>422.7142857142857</ele><time>2026-04-02T13:20:39.001Z</time></trkpt><trkpt lat="43.35448630298773" lon="5.511926048662739"><ele>423.0</ele><time>2026-04-02T13:20:45.001Z</time></trkpt><trkpt lat="43.354554444993376" lon="5.511942071534283"><ele>423.0</ele><time>2026-04-02T13:20:51.001Z</time></trkpt><trkpt lat="43.354620935691244" lon="5.511964032105168"><ele>423.0</ele><time>2026-04-02T13:20:57.001Z</time></trkpt><trkpt lat="43.35469197410944" lon="5.511985928258837"><ele>423.0</ele><time>2026-04-02T13:21:03Z</time></trkpt><trkpt lat="43.35475499482121" lon="5.512032103541105"><ele>423.0</ele><time>2026-04-02T13:21:09Z</time></trkpt><trkpt lat="43.35481227952939" lon="5.512080690874143"><ele>423.0</ele><time>2026-04-02T13:21:13Z</time></trkpt><trkpt lat="43.354848346361926" lon="5.512155415899539"><ele>423.0</ele><time>2026-04-02T13:21:18Z</time></trkpt><trkpt lat="43.35486198682503" lon="5.512254302990497"><ele>423.0</ele><time>2026-04-02T13:21:24Z</time></trkpt><trkpt lat="43.35487712514329" lon="5.512352297579304"><ele>424.57142857142856</ele><time>2026-04-02T13:21:30Z</time></trkpt><trkpt lat="43.354865800022004" lon="5.51243932134556"><ele>426.14285714285717</ele><time>2026-04-02T13:21:35Z</time></trkpt><trkpt lat="43.35484220036312" lon="5.5125320429729125"><ele>427.7142857142857</ele><time>2026-04-02T13:21:41Z</time></trkpt><trkpt lat="43.35482670098692" lon="5.512624858807854"><ele>429.2857142857143</ele><time>2026-04-02T13:21:46Z</time></trkpt><trkpt lat="43.35481763813663" lon="5.512729443313362"><ele>430.8571428571429</ele><time>2026-04-02T13:21:52Z</time></trkpt><trkpt lat="43.35482260542261" lon="5.512831538765093"><ele>432.42857142857144</ele><time>2026-04-02T13:21:57Z</time></trkpt><trkpt lat="43.35481785695372" lon="5.512923285157855"><ele>434.0</ele><time>2026-04-02T13:22:02Z</time></trkpt><trkpt lat="43.35482992510453" lon="5.513017190204618"><ele>434.99999999999994</ele><time>2026-04-02T13:22:06Z</time></trkpt><trkpt lat="43.354845200838405" lon="5.513111278462771"><ele>436.0</ele><time>2026-04-02T13:22:10Z</time></trkpt><trkpt lat="43.35486712034811" lon="5.513232068967501"><ele>437.0</ele><time>2026-04-02T13:22:15Z</time></trkpt><trkpt lat="43.354895042475846" lon="5.5133222617162865"><ele>438.0</ele><time>2026-04-02T13:22:18Z</time></trkpt><trkpt lat="43.35492211048753" lon="5.5134317192000255"><ele>438.99999999999994</ele><time>2026-04-02T13:22:22Z</time></trkpt><trkpt lat="43.35495115361281" lon="5.513538210799772"><ele>440.0</ele><time>2026-04-02T13:22:26Z</time></trkpt><trkpt lat="43.3549755952633" lon="5.513628092112673"><ele>439.99999999999994</ele><time>2026-04-02T13:22:29Z</time></trkpt><trkpt lat="43.35499988871474" lon="5.513732721977782"><ele>440.0</ele><time>2026-04-02T13:22:33Z</time></trkpt><trkpt lat="43.3550158508424" lon="5.513840789433313"><ele>440.0</ele><time>2026-04-02T13:22:37Z</time></trkpt><trkpt lat="43.355036240290566" lon="5.513931477117996"><ele>440.0</ele><time>2026-04-02T13:22:40Z</time></trkpt><trkpt lat="43.35504506278713" lon="5.514033468443922"><ele>440.0</ele><time>2026-04-02T13:22:43Z</time></trkpt><trkpt lat="43.35503955228489" lon="5.514124441797727"><ele>439.99999999999994</ele><time>2026-04-02T13:22:46Z</time></trkpt><trkpt lat="43.35502105412549" lon="5.514216199726651"><ele>440.0</ele><time>2026-04-02T13:22:50Z</time></trkpt><trkpt lat="43.3549963972711" lon="5.514304829605927"><ele>440.57142857142856</ele><time>2026-04-02T13:22:55Z</time></trkpt><trkpt lat="43.35495666248694" lon="5.514376032822057"><ele>441.1428571428571</ele><time>2026-04-02T13:23:00Z</time></trkpt><trkpt lat="43.35491828928256" lon="5.51446049287358"><ele>441.71428571428567</ele><time>2026-04-02T13:23:06Z</time></trkpt><trkpt lat="43.35487338816281" lon="5.514524552372276"><ele>442.2857142857143</ele><time>2026-04-02T13:23:12Z</time></trkpt><trkpt lat="43.35483913238875" lon="5.514629832569082"><ele>442.8571428571429</ele><time>2026-04-02T13:27:27Z</time></trkpt><trkpt lat="43.35480434554126" lon="5.514716146790664"><ele>443.4285714285714</ele><time>2026-04-02T13:27:30Z</time></trkpt><trkpt lat="43.35475628780428" lon="5.514790395148602"><ele>444.0</ele><time>2026-04-02T13:27:33Z</time></trkpt><trkpt lat="43.354707432683824" lon="5.514878049030387"><ele>445.8333333333333</ele><time>2026-04-02T13:27:36Z</time></trkpt><trkpt lat="43.35465996034815" lon="5.514977043868839"><ele>447.66666666666663</ele><time>2026-04-02T13:27:39Z</time></trkpt><trkpt lat="43.354607442808316" lon="5.515051681633997"><ele>449.5</ele><time>2026-04-02T13:27:42Z</time></trkpt><trkpt lat="43.35455647110824" lon="5.515136512741705"><ele>451.3333333333333</ele><time>2026-04-02T13:27:45Z</time></trkpt><trkpt lat="43.35451269136931" lon="5.515204782798429"><ele>453.16666666666663</ele><time>2026-04-02T13:27:48Z</time></trkpt><trkpt lat="43.35446533245309" lon="5.5152836022437635"><ele>455.0</ele><time>2026-04-02T13:27:51Z</time></trkpt><trkpt lat="43.354431921481236" lon="5.515370247063764"><ele>454.16666666666663</ele><time>2026-04-02T13:27:54Z</time></trkpt><trkpt lat="43.35440542032377" lon="5.515467755174549"><ele>453.3333333333333</ele><time>2026-04-02T13:27:57Z</time></trkpt><trkpt lat="43.35438230052479" lon="5.515569667055817"><ele>452.5</ele><time>2026-04-02T13:28:00Z</time></trkpt><trkpt lat="43.35436683248569" lon="5.515679531714829"><ele>451.66666666666663</ele><time>2026-04-02T13:28:03Z</time></trkpt><trkpt lat="43.35436718550004" lon="5.515804284448709"><ele>450.8333333333333</ele><time>2026-04-02T13:28:06Z</time></trkpt><trkpt lat="43.354378796238706" lon="5.5158990422505445"><ele>450.0</ele><time>2026-04-02T13:28:08Z</time></trkpt><trkpt lat="43.35441221215418" lon="5.5159853828961145"><ele>450.0</ele><time>2026-04-02T13:28:10Z</time></trkpt><trkpt lat="43.35446435358904" lon="5.516064115448806"><ele>450.0</ele><time>2026-04-02T13:28:12Z</time></trkpt><trkpt lat="43.35451419475371" lon="5.516133495496203"><ele>450.0</ele><time>2026-04-02T13:28:14Z</time></trkpt><trkpt lat="43.35456508565819" lon="5.516196359500182"><ele>450.0</ele><time>2026-04-02T13:28:16Z</time></trkpt><trkpt lat="43.354622959101626" lon="5.516276822065309"><ele>450.0</ele><time>2026-04-02T13:28:19Z</time></trkpt><trkpt lat="43.354686621562706" lon="5.516344473055566"><ele>450.0</ele><time>2026-04-02T13:28:22Z</time></trkpt><trkpt lat="43.35473977413036" lon="5.51641193837362"><ele>447.6</ele><time>2026-04-02T13:28:24Z</time></trkpt><trkpt lat="43.3547949596386" lon="5.516480584419686"><ele>445.2</ele><time>2026-04-02T13:28:26Z</time></trkpt><trkpt lat="43.35485404851615" lon="5.516555277424932"><ele>442.79999999999995</ele><time>2026-04-02T13:28:28Z</time></trkpt><trkpt lat="43.354922625341864" lon="5.5166456386968745"><ele>440.4</ele><time>2026-04-02T13:28:30Z</time></trkpt><trkpt lat="43.35498678586121" lon="5.516744257882608"><ele>438.0</ele><time>2026-04-02T13:28:32Z</time></trkpt><trkpt lat="43.35503417132605" lon="5.516873805977628"><ele>438.0</ele><time>2026-04-02T13:28:34Z</time></trkpt><trkpt lat="43.35507399788238" lon="5.517007440658116"><ele>437.99999999999994</ele><time>2026-04-02T13:28:36Z</time></trkpt><trkpt lat="43.355103530710544" lon="5.517162757308485"><ele>437.99999999999994</ele><time>2026-04-02T13:28:38Z</time></trkpt><trkpt lat="43.35508183946347" lon="5.517329057050693"><ele>438.0</ele><time>2026-04-02T13:28:40Z</time></trkpt><trkpt lat="43.355069222993045" lon="5.517417350587253"><ele>438.0</ele><time>2026-04-02T13:28:41Z</time></trkpt><trkpt lat="43.35503891980131" lon="5.517574278177549"><ele>437.4</ele><time>2026-04-02T13:28:43Z</time></trkpt><trkpt lat="43.35499465296576" lon="5.517732790027872"><ele>436.79999999999995</ele><time>2026-04-02T13:28:45Z</time></trkpt><trkpt lat="43.354928966612334" lon="5.517877695629717"><ele>436.2</ele><time>2026-04-02T13:28:47Z</time></trkpt><trkpt lat="43.35483080779017" lon="5.5180027586471265"><ele>435.6</ele><time>2026-04-02T13:28:49Z</time></trkpt><trkpt lat="43.35477656729705" lon="5.5180512159396855"><ele>435.0</ele><time>2026-04-02T13:28:50Z</time></trkpt><trkpt lat="43.3547305929502" lon="5.518115563831421"><ele>437.6</ele><time>2026-04-02T13:28:51Z</time></trkpt><trkpt lat="43.354673491629015" lon="5.518159088808232"><ele>440.2</ele><time>2026-04-02T13:28:52Z</time></trkpt><trkpt lat="43.354622192942514" lon="5.518214848450282"><ele>442.79999999999995</ele><time>2026-04-02T13:28:53Z</time></trkpt><trkpt lat="43.35453982394905" lon="5.518341673967"><ele>445.4</ele><time>2026-04-02T13:28:55Z</time></trkpt><trkpt lat="43.354490184695045" lon="5.518492621702415"><ele>448.0</ele><time>2026-04-02T13:28:57Z</time></trkpt><trkpt lat="43.354450288828524" lon="5.518627391485402"><ele>446.59999999999997</ele><time>2026-04-02T13:28:59Z</time></trkpt><trkpt lat="43.3544031964674" lon="5.518752748194771"><ele>445.19999999999993</ele><time>2026-04-02T13:29:01Z</time></trkpt><trkpt lat="43.35434826403626" lon="5.518877227311637"><ele>443.8</ele><time>2026-04-02T13:29:03Z</time></trkpt><trkpt lat="43.35427421649039" lon="5.518963144087541"><ele>442.4</ele><time>2026-04-02T13:29:05Z</time></trkpt><trkpt lat="43.35419977292444" lon="5.519062363205429"><ele>441.0</ele><time>2026-04-02T13:29:07Z</time></trkpt><trkpt lat="43.354145366987304" lon="5.519175743346711"><ele>441.0</ele><time>2026-04-02T13:29:09Z</time></trkpt><trkpt lat="43.35408554076523" lon="5.519267482842664"><ele>441.0</ele><time>2026-04-02T13:29:11Z</time></trkpt><trkpt lat="43.354042586423915" lon="5.519363663949463"><ele>441.0</ele><time>2026-04-02T13:29:13Z</time></trkpt><trkpt lat="43.354003188239524" lon="5.519481091282788"><ele>441.0</ele><time>2026-04-02T13:29:15Z</time></trkpt><trkpt lat="43.35395935020993" lon="5.519601548082739"><ele>441.0</ele><time>2026-04-02T13:29:17Z</time></trkpt><trkpt lat="43.35393788207294" lon="5.519744813755294"><ele>440.6</ele><time>2026-04-02T13:29:19Z</time></trkpt><trkpt lat="43.35392930793696" lon="5.519895033255247"><ele>440.20000000000005</ele><time>2026-04-02T13:29:21Z</time></trkpt><trkpt lat="43.353902031438054" lon="5.52005346453677"><ele>439.79999999999995</ele><time>2026-04-02T13:29:23Z</time></trkpt><trkpt lat="43.35382696495917" lon="5.520178569460645"><ele>439.4</ele><time>2026-04-02T13:29:25Z</time></trkpt><trkpt lat="43.353757286848435" lon="5.520178746195839"><ele>439.0</ele><time>2026-04-02T13:29:26Z</time></trkpt><trkpt lat="43.353642756245556" lon="5.520165145149944"><ele>439.0</ele><time>2026-04-02T13:29:28Z</time></trkpt><trkpt lat="43.35353656636596" lon="5.520127225581685"><ele>439.0</ele><time>2026-04-02T13:29:30Z</time></trkpt><trkpt lat="43.353430435437005" lon="5.5200872685155575"><ele>439.0</ele><time>2026-04-02T13:29:32Z</time></trkpt><trkpt lat="43.3533225765565" lon="5.520049923830051"><ele>439.0</ele><time>2026-04-02T13:29:34Z</time></trkpt><trkpt lat="43.35321463204635" lon="5.520022179075639"><ele>439.0</ele><time>2026-04-02T13:29:36Z</time></trkpt><trkpt lat="43.353099066709746" lon="5.520039593596157"><ele>438.33333333333337</ele><time>2026-04-02T13:29:38Z</time></trkpt><trkpt lat="43.35298116359091" lon="5.520090700144309"><ele>437.6666666666667</ele><time>2026-04-02T13:29:40Z</time></trkpt><trkpt lat="43.3529148081988" lon="5.520095741016147"><ele>437.0</ele><time>2026-04-02T13:29:41Z</time></trkpt><trkpt lat="43.35285179541997" lon="5.520121446750783"><ele>436.33333333333337</ele><time>2026-04-02T13:29:42Z</time></trkpt><trkpt lat="43.35274186613938" lon="5.520154633289831"><ele>435.6666666666667</ele><time>2026-04-02T13:29:44Z</time></trkpt><trkpt lat="43.352675872503866" lon="5.520153598673258"><ele>435.0</ele><time>2026-04-02T13:29:46Z</time></trkpt><trkpt lat="43.35259435212959" lon="5.520152205158417"><ele>435.0</ele><time>2026-04-02T13:29:49Z</time></trkpt><trkpt lat="43.35251907228117" lon="5.520123182586915"><ele>435.0</ele><time>2026-04-02T13:29:52Z</time></trkpt><trkpt lat="43.35244506149438" lon="5.520105600384128"><ele>435.0</ele><time>2026-04-02T13:29:55Z</time></trkpt><trkpt lat="43.35236084322561" lon="5.52011281447884"><ele>435.0</ele><time>2026-04-02T13:29:58Z</time></trkpt><trkpt lat="43.35228116690946" lon="5.520100222407836"><ele>435.0</ele><time>2026-04-02T13:30:01Z</time></trkpt><trkpt lat="43.35221240085383" lon="5.520137251589038"><ele>435.0</ele><time>2026-04-02T13:30:04Z</time></trkpt><trkpt lat="43.352154616038476" lon="5.520180483573369"><ele>435.8571428571429</ele><time>2026-04-02T13:30:07Z</time></trkpt><trkpt lat="43.35210517380763" lon="5.520238214132872"><ele>436.7142857142857</ele><time>2026-04-02T13:30:10Z</time></trkpt><trkpt lat="43.35204275025453" lon="5.52029499133389"><ele>437.57142857142856</ele><time>2026-04-02T13:30:14Z</time></trkpt><trkpt lat="43.351986744534535" lon="5.520376802045232"><ele>438.42857142857144</ele><time>2026-04-02T13:30:18Z</time></trkpt><trkpt lat="43.35192498452502" lon="5.520430054023313"><ele>439.2857142857143</ele><time>2026-04-02T13:30:21Z</time></trkpt><trkpt lat="43.351855383429985" lon="5.520451401223068"><ele>440.14285714285717</ele><time>2026-04-02T13:30:24Z</time></trkpt><trkpt lat="43.35179462191936" lon="5.520379160701629"><ele>441.0</ele><time>2026-04-02T13:30:27Z</time></trkpt><trkpt lat="43.351777432007005" lon="5.520292440762916"><ele>441.0</ele><time>2026-04-02T13:30:30Z</time></trkpt><trkpt lat="43.35176052393236" lon="5.5201836105499344"><ele>441.0</ele><time>2026-04-02T13:30:33Z</time></trkpt><trkpt lat="43.351735152023785" lon="5.520072545654493"><ele>441.0</ele><time>2026-04-02T13:30:36Z</time></trkpt><trkpt lat="43.35168206595447" lon="5.519988512312566"><ele>441.0</ele><time>2026-04-02T13:30:39Z</time></trkpt><trkpt lat="43.35162629251796" lon="5.519945964345603"><ele>441.0</ele><time>2026-04-02T13:30:42Z</time></trkpt><trkpt lat="43.35157029081897" lon="5.519878421917172"><ele>441.0</ele><time>2026-04-02T13:30:45Z</time></trkpt><trkpt lat="43.35149784839074" lon="5.5198097373312445"><ele>441.0</ele><time>2026-04-02T13:30:48Z</time></trkpt><trkpt lat="43.351443268119176" lon="5.519760747948581"><ele>441.0</ele><time>2026-04-02T13:30:50Z</time></trkpt><trkpt lat="43.35138384540196" lon="5.51970981969816"><ele>441.0</ele><time>2026-04-02T13:30:52Z</time></trkpt><trkpt lat="43.35133381099435" lon="5.51963576505205"><ele>441.0</ele><time>2026-04-02T13:30:54Z</time></trkpt><trkpt lat="43.351287437618204" lon="5.5195422302216395"><ele>441.0</ele><time>2026-04-02T13:30:56Z</time></trkpt><trkpt lat="43.35123437317224" lon="5.5194482157959035"><ele>441.0</ele><time>2026-04-02T13:30:58Z</time></trkpt><trkpt lat="43.35116879656686" lon="5.519346064304237"><ele>439.6</ele><time>2026-04-02T13:31:00Z</time></trkpt><trkpt lat="43.35108552453995" lon="5.51924959428879"><ele>438.20000000000005</ele><time>2026-04-02T13:31:02Z</time></trkpt><trkpt lat="43.35099280955393" lon="5.519160784863561"><ele>436.79999999999995</ele><time>2026-04-02T13:31:04Z</time></trkpt><trkpt lat="43.350897873691146" lon="5.5191023163686905"><ele>435.4</ele><time>2026-04-02T13:31:06Z</time></trkpt><trkpt lat="43.350793027132504" lon="5.519079245943269"><ele>434.0</ele><time>2026-04-02T13:31:08Z</time></trkpt><trkpt lat="43.3506923909638" lon="5.519092705362328"><ele>434.0</ele><time>2026-04-02T13:31:10Z</time></trkpt><trkpt lat="43.35058864076568" lon="5.519133432964547"><ele>434.0</ele><time>2026-04-02T13:31:12Z</time></trkpt><trkpt lat="43.35047472349706" lon="5.51914456714931"><ele>434.0</ele><time>2026-04-02T13:31:14Z</time></trkpt><trkpt lat="43.35035687494933" lon="5.519155762753991"><ele>434.0</ele><time>2026-04-02T13:31:16Z</time></trkpt><trkpt lat="43.35023518563741" lon="5.519204638933834"><ele>433.0</ele><time>2026-04-02T13:31:18Z</time></trkpt><trkpt lat="43.35017377113578" lon="5.519239687775013"><ele>432.0</ele><time>2026-04-02T13:31:19Z</time></trkpt><trkpt lat="43.35010508360833" lon="5.519248194667693"><ele>431.0</ele><time>2026-04-02T13:31:20Z</time></trkpt><trkpt lat="43.35003431642077" lon="5.519267267827777"><ele>430.0</ele><time>2026-04-02T13:31:21Z</time></trkpt><trkpt lat="43.349964794640194" lon="5.519309471333693"><ele>429.0</ele><time>2026-04-02T13:31:22Z</time></trkpt><trkpt lat="43.349894892783" lon="5.519331325426522"><ele>428.0</ele><time>2026-04-02T13:31:23Z</time></trkpt><trkpt lat="43.349826286166866" lon="5.519351529216263"><ele>427.0</ele><time>2026-04-02T13:31:24Z</time></trkpt><trkpt lat="43.349754117690715" lon="5.51937725060789"><ele>426.42857142857144</ele><time>2026-04-02T13:31:25Z</time></trkpt><trkpt lat="43.3496876303653" lon="5.519413300425859"><ele>425.8571428571429</ele><time>2026-04-02T13:31:26Z</time></trkpt><trkpt lat="43.34962109376915" lon="5.519447880641857"><ele>425.2857142857143</ele><time>2026-04-02T13:31:27Z</time></trkpt><trkpt lat="43.349557429029616" lon="5.519484229546096"><ele>424.7142857142857</ele><time>2026-04-02T13:31:28.001Z</time></trkpt><trkpt lat="43.34948655878054" lon="5.519500666071668"><ele>424.14285714285717</ele><time>2026-04-02T13:31:29.001Z</time></trkpt><trkpt lat="43.34941877863554" lon="5.5195359643629045"><ele>423.57142857142856</ele><time>2026-04-02T13:31:30.001Z</time></trkpt><trkpt lat="43.34935976307217" lon="5.519587706152124"><ele>423.0</ele><time>2026-04-02T13:31:31.001Z</time></trkpt><trkpt lat="43.34929028463356" lon="5.519624815843923"><ele>426.1666666666667</ele><time>2026-04-02T13:31:32.001Z</time></trkpt><trkpt lat="43.34922450671695" lon="5.519657765164466"><ele>429.33333333333337</ele><time>2026-04-02T13:31:33.001Z</time></trkpt><trkpt lat="43.349159393366335" lon="5.519709718427204"><ele>432.5</ele><time>2026-04-02T13:31:34.001Z</time></trkpt><trkpt lat="43.349091151422506" lon="5.51976307799348"><ele>435.6666666666667</ele><time>2026-04-02T13:31:35.001Z</time></trkpt><trkpt lat="43.34902336633285" lon="5.519832210201851"><ele>438.83333333333337</ele><time>2026-04-02T13:31:36.001Z</time></trkpt><trkpt lat="43.34897125470491" lon="5.519914844207836"><ele>442.0</ele><time>2026-04-02T13:31:37.001Z</time></trkpt><trkpt lat="43.34891089858803" lon="5.519994911702021"><ele>442.50000000000006</ele><time>2026-04-02T13:31:38.001Z</time></trkpt><trkpt lat="43.3488523213194" lon="5.520077277735145"><ele>443.0</ele><time>2026-04-02T13:31:39.001Z</time></trkpt><trkpt lat="43.3487963179839" lon="5.520150306721688"><ele>443.5</ele><time>2026-04-02T13:31:40.001Z</time></trkpt><trkpt lat="43.348732818483676" lon="5.520223975142136"><ele>444.0</ele><time>2026-04-02T13:31:41.001Z</time></trkpt><trkpt lat="43.348671734389555" lon="5.520292360020038"><ele>444.50000000000006</ele><time>2026-04-02T13:31:42.001Z</time></trkpt><trkpt lat="43.348620089641855" lon="5.520353053306348"><ele>445.0</ele><time>2026-04-02T13:31:43.001Z</time></trkpt><trkpt lat="43.34854876055486" lon="5.5204310385490825"><ele>445.0</ele><time>2026-04-02T13:31:45.001Z</time></trkpt><trkpt lat="43.348465231288124" lon="5.520346904731592"><ele>445.0</ele><time>2026-04-02T13:31:47Z</time></trkpt><trkpt lat="43.348486712444384" lon="5.520210187680933"><ele>445.0</ele><time>2026-04-02T13:31:49Z</time></trkpt><trkpt lat="43.348512530327426" lon="5.5200767103220025"><ele>445.0</ele><time>2026-04-02T13:31:51Z</time></trkpt><trkpt lat="43.34855214970867" lon="5.519935601482392"><ele>445.0</ele><time>2026-04-02T13:31:53Z</time></trkpt><trkpt lat="43.34854493320916" lon="5.51977547054298"><ele>445.0</ele><time>2026-04-02T13:31:55Z</time></trkpt><trkpt lat="43.348548833933386" lon="5.519624374149131"><ele>445.0</ele><time>2026-04-02T13:31:57Z</time></trkpt><trkpt lat="43.348547499299016" lon="5.519477321809474"><ele>445.0</ele><time>2026-04-02T13:31:59Z</time></trkpt><trkpt lat="43.348537625451634" lon="5.519336616477932"><ele>445.0</ele><time>2026-04-02T13:32:01Z</time></trkpt><trkpt lat="43.34855886218601" lon="5.519193330983378"><ele>445.0</ele><time>2026-04-02T13:32:03Z</time></trkpt><trkpt lat="43.34859366024128" lon="5.519059787391662"><ele>446.6</ele><time>2026-04-02T13:32:05Z</time></trkpt><trkpt lat="43.34862139181192" lon="5.518930546662245"><ele>448.2</ele><time>2026-04-02T13:32:07Z</time></trkpt><trkpt lat="43.34866542525166" lon="5.5188201331154385"><ele>449.79999999999995</ele><time>2026-04-02T13:32:09Z</time></trkpt><trkpt lat="43.34870810073413" lon="5.518705727978185"><ele>451.4</ele><time>2026-04-02T13:32:11Z</time></trkpt><trkpt lat="43.348729466460426" lon="5.518586140301752"><ele>453.0</ele><time>2026-04-02T13:32:13Z</time></trkpt><trkpt lat="43.34878082891756" lon="5.518479311340521"><ele>454.79999999999995</ele><time>2026-04-02T13:32:15Z</time></trkpt><trkpt lat="43.348835669199666" lon="5.518364201507547"><ele>456.59999999999997</ele><time>2026-04-02T13:32:17Z</time></trkpt><trkpt lat="43.34889456914888" lon="5.518254553186243"><ele>458.40000000000003</ele><time>2026-04-02T13:32:19Z</time></trkpt><trkpt lat="43.3489589338368" lon="5.518139612713494"><ele>460.20000000000005</ele><time>2026-04-02T13:32:21Z</time></trkpt><trkpt lat="43.3490272053504" lon="5.518027344574649"><ele>462.0</ele><time>2026-04-02T13:32:23Z</time></trkpt><trkpt lat="43.34910593889325" lon="5.517929035975144"><ele>454.0</ele><time>2026-04-02T13:32:25Z</time></trkpt><trkpt lat="43.349166228773605" lon="5.517799564299248"><ele>446.0</ele><time>2026-04-02T13:32:27Z</time></trkpt><trkpt lat="43.349238477154614" lon="5.517667870766507"><ele>438.0</ele><time>2026-04-02T13:32:29Z</time></trkpt><trkpt lat="43.349306659006224" lon="5.517531805587238"><ele>430.0</ele><time>2026-04-02T13:32:31Z</time></trkpt><trkpt lat="43.34936663393444" lon="5.517403983763255"><ele>430.00000000000006</ele><time>2026-04-02T13:32:33Z</time></trkpt><trkpt lat="43.34942037466799" lon="5.517297558724756"><ele>430.0</ele><time>2026-04-02T13:32:35Z</time></trkpt><trkpt lat="43.34945016560899" lon="5.51719369097745"><ele>430.0</ele><time>2026-04-02T13:32:37Z</time></trkpt><trkpt lat="43.34947037132261" lon="5.517109151163027"><ele>430.0</ele><time>2026-04-02T13:32:39.001Z</time></trkpt><trkpt lat="43.34948992891247" lon="5.517003383455594"><ele>430.00000000000006</ele><time>2026-04-02T13:32:42.001Z</time></trkpt><trkpt lat="43.34949379166214" lon="5.516897191235066"><ele>430.0</ele><time>2026-04-02T13:32:45.001Z</time></trkpt><trkpt lat="43.34948847227977" lon="5.516789633304594"><ele>430.8</ele><time>2026-04-02T13:32:48.001Z</time></trkpt><trkpt lat="43.349479747759666" lon="5.516663612449903"><ele>431.6</ele><time>2026-04-02T13:32:51.001Z</time></trkpt><trkpt lat="43.3494686663402" lon="5.516563491170817"><ele>432.4</ele><time>2026-04-02T13:32:53.001Z</time></trkpt><trkpt lat="43.34944593126055" lon="5.516444971512436"><ele>433.2</ele><time>2026-04-02T13:32:55.001Z</time></trkpt><trkpt lat="43.34940598449161" lon="5.516313312263215"><ele>434.0</ele><time>2026-04-02T13:32:57.001Z</time></trkpt><trkpt lat="43.34934785594463" lon="5.5161867446367"><ele>430.99999999999994</ele><time>2026-04-02T13:32:59.001Z</time></trkpt><trkpt lat="43.349282764579854" lon="5.5160539101478365"><ele>428.0</ele><time>2026-04-02T13:33:01.001Z</time></trkpt><trkpt lat="43.34925933679833" lon="5.515962927939208"><ele>425.0</ele><time>2026-04-02T13:33:02.001Z</time></trkpt><trkpt lat="43.349219453796046" lon="5.51588175613207"><ele>422.0</ele><time>2026-04-02T13:33:03.001Z</time></trkpt><trkpt lat="43.34916301073289" lon="5.515814060538454"><ele>418.99999999999994</ele><time>2026-04-02T13:33:04.001Z</time></trkpt><trkpt lat="43.349129608327374" lon="5.515721353064562"><ele>416.0</ele><time>2026-04-02T13:33:05.001Z</time></trkpt><trkpt lat="43.34906494213348" lon="5.515647283510303"><ele>415.99999999999994</ele><time>2026-04-02T13:33:06.001Z</time></trkpt><trkpt lat="43.34900811066394" lon="5.51556890522565"><ele>416.0</ele><time>2026-04-02T13:33:07.001Z</time></trkpt><trkpt lat="43.34894914456052" lon="5.515485439391969"><ele>416.0</ele><time>2026-04-02T13:33:08.001Z</time></trkpt><trkpt lat="43.34888947421618" lon="5.51540466496332"><ele>416.0</ele><time>2026-04-02T13:33:09.001Z</time></trkpt><trkpt lat="43.34882784274537" lon="5.515311556438367"><ele>415.99999999999994</ele><time>2026-04-02T13:33:10.001Z</time></trkpt><trkpt lat="43.348761851121914" lon="5.515234334178422"><ele>416.0</ele><time>2026-04-02T13:33:11.001Z</time></trkpt><trkpt lat="43.348696436882214" lon="5.515148763245599"><ele>417.0</ele><time>2026-04-02T13:33:12.001Z</time></trkpt><trkpt lat="43.3486340630096" lon="5.515062547862113"><ele>418.0</ele><time>2026-04-02T13:33:13.001Z</time></trkpt><trkpt lat="43.3485669896059" lon="5.514966969828064"><ele>419.0</ele><time>2026-04-02T13:33:14.001Z</time></trkpt><trkpt lat="43.348500255428526" lon="5.514864761064841"><ele>420.0</ele><time>2026-04-02T13:33:15.001Z</time></trkpt><trkpt lat="43.34844392331573" lon="5.514758743036252"><ele>421.0</ele><time>2026-04-02T13:33:16.001Z</time></trkpt><trkpt lat="43.34839718639976" lon="5.514634596611592"><ele>416.8</ele><time>2026-04-02T13:33:17.001Z</time></trkpt><trkpt lat="43.34835940782467" lon="5.514503876282141"><ele>412.6</ele><time>2026-04-02T13:33:18.001Z</time></trkpt><trkpt lat="43.3483150653635" lon="5.514369954534211"><ele>408.4</ele><time>2026-04-02T13:33:19.001Z</time></trkpt><trkpt lat="43.348274117975684" lon="5.514235552804798"><ele>404.2</ele><time>2026-04-02T13:33:20.001Z</time></trkpt><trkpt lat="43.34824281108144" lon="5.51408728246481"><ele>400.0</ele><time>2026-04-02T13:33:21.001Z</time></trkpt><trkpt lat="43.34820774523868" lon="5.513970804641434"><ele>400.00000000000006</ele><time>2026-04-02T13:33:22.001Z</time></trkpt><trkpt lat="43.34817985923405" lon="5.513820037823787"><ele>400.0</ele><time>2026-04-02T13:33:24.001Z</time></trkpt><trkpt lat="43.34813261579164" lon="5.513759857881127"><ele>400.0</ele><time>2026-04-02T13:33:31.001Z</time></trkpt><trkpt lat="43.348066121962674" lon="5.513742267378216"><ele>400.0</ele><time>2026-04-02T13:33:33.001Z</time></trkpt><trkpt lat="43.34797747008134" lon="5.513733378528359"><ele>400.00000000000006</ele><time>2026-04-02T13:33:35.002Z</time></trkpt><trkpt lat="43.34787700493027" lon="5.5137604794372175"><ele>400.0</ele><time>2026-04-02T13:33:37.002Z</time></trkpt><trkpt lat="43.34775122753785" lon="5.513768914435149"><ele>398.1666666666667</ele><time>2026-04-02T13:33:39.002Z</time></trkpt><trkpt lat="43.347686519903725" lon="5.513787106769754"><ele>396.33333333333337</ele><time>2026-04-02T13:33:40.002Z</time></trkpt><trkpt lat="43.34761211785737" lon="5.513804053626565"><ele>394.5</ele><time>2026-04-02T13:33:41.002Z</time></trkpt><trkpt lat="43.347536372777505" lon="5.513814376373607"><ele>392.66666666666663</ele><time>2026-04-02T13:33:42.002Z</time></trkpt><trkpt lat="43.34746848850478" lon="5.513731627667444"><ele>390.8333333333333</ele><time>2026-04-02T13:33:43.002Z</time></trkpt><trkpt lat="43.34746105202956" lon="5.5136159340899304"><ele>389.0</ele><time>2026-04-02T13:33:44.002Z</time></trkpt><trkpt lat="43.34742106447239" lon="5.51350770258877"><ele>389.0</ele><time>2026-04-02T13:33:45.002Z</time></trkpt><trkpt lat="43.34736950691618" lon="5.513396391702687"><ele>389.0</ele><time>2026-04-02T13:33:46.002Z</time></trkpt><trkpt lat="43.347319094236546" lon="5.513287115794576"><ele>389.0</ele><time>2026-04-02T13:33:47.002Z</time></trkpt><trkpt lat="43.34726790528119" lon="5.5131735054435165"><ele>389.0</ele><time>2026-04-02T13:33:48.002Z</time></trkpt><trkpt lat="43.347206248980015" lon="5.5130611464281705"><ele>389.0</ele><time>2026-04-02T13:33:49.001Z</time></trkpt><trkpt lat="43.34714656387876" lon="5.5129438818888"><ele>389.0</ele><time>2026-04-02T13:33:50.001Z</time></trkpt><trkpt lat="43.347075937789796" lon="5.512825803108096"><ele>389.0</ele><time>2026-04-02T13:33:51.001Z</time></trkpt><trkpt lat="43.3470050053576" lon="5.512712883668339"><ele>389.0</ele><time>2026-04-02T13:33:52.001Z</time></trkpt><trkpt lat="43.34693633262086" lon="5.512600701765472"><ele>389.0</ele><time>2026-04-02T13:33:53.001Z</time></trkpt><trkpt lat="43.346855886070166" lon="5.512513878119477"><ele>389.0</ele><time>2026-04-02T13:33:54.001Z</time></trkpt><trkpt lat="43.346770977282745" lon="5.512491595357586"><ele>388.99999999999994</ele><time>2026-04-02T13:33:55.001Z</time></trkpt><trkpt lat="43.346707232349075" lon="5.512448382757166"><ele>389.0</ele><time>2026-04-02T13:33:56.001Z</time></trkpt><trkpt lat="43.346636781288076" lon="5.512503056623041"><ele>389.0</ele><time>2026-04-02T13:33:57.001Z</time></trkpt><trkpt lat="43.346552972697104" lon="5.5125525015746"><ele>389.0</ele><time>2026-04-02T13:33:59.001Z</time></trkpt><trkpt lat="43.346494587267266" lon="5.5126148679107505"><ele>388.99999999999994</ele><time>2026-04-02T13:34:02.001Z</time></trkpt><trkpt lat="43.346441010184876" lon="5.512689533175087"><ele>389.0</ele><time>2026-04-02T13:34:06.001Z</time></trkpt><trkpt lat="43.346379017571614" lon="5.512752702165616"><ele>393.16666666666663</ele><time>2026-04-02T13:34:10.001Z</time></trkpt><trkpt lat="43.346323696155025" lon="5.512827595428445"><ele>397.3333333333333</ele><time>2026-04-02T13:34:14.001Z</time></trkpt><trkpt lat="43.346258185626574" lon="5.512876224416058"><ele>401.5</ele><time>2026-04-02T13:34:18.001Z</time></trkpt><trkpt lat="43.34618093494082" lon="5.512852654682735"><ele>405.66666666666663</ele><time>2026-04-02T13:34:21.001Z</time></trkpt><trkpt lat="43.34614601314363" lon="5.512756142769833"><ele>409.8333333333333</ele><time>2026-04-02T13:34:25.001Z</time></trkpt><trkpt lat="43.34615309124842" lon="5.512661650388524"><ele>414.0</ele><time>2026-04-02T13:34:29.001Z</time></trkpt><trkpt lat="43.346168938119625" lon="5.512550452860855"><ele>414.0</ele><time>2026-04-02T13:34:33.001Z</time></trkpt><trkpt lat="43.34618511972481" lon="5.512466337862418"><ele>414.0</ele><time>2026-04-02T13:34:36.001Z</time></trkpt><trkpt lat="43.34620557869344" lon="5.512370588602509"><ele>414.0</ele><time>2026-04-02T13:34:39.001Z</time></trkpt><trkpt lat="43.34622331664526" lon="5.5122724207680855"><ele>414.0</ele><time>2026-04-02T13:34:42.001Z</time></trkpt><trkpt lat="43.346252524559056" lon="5.512169659313218"><ele>414.0</ele><time>2026-04-02T13:34:45.001Z</time></trkpt><trkpt lat="43.346283831746035" lon="5.512070178501208"><ele>414.0</ele><time>2026-04-02T13:34:48.001Z</time></trkpt><trkpt lat="43.34632966970438" lon="5.511968380333762"><ele>410.0</ele><time>2026-04-02T13:34:51.001Z</time></trkpt><trkpt lat="43.34638639252531" lon="5.51188524000912"><ele>406.0</ele><time>2026-04-02T13:34:54.001Z</time></trkpt><trkpt lat="43.34645649820566" lon="5.511812783108979"><ele>402.0</ele><time>2026-04-02T13:34:57.001Z</time></trkpt><trkpt lat="43.34652561853233" lon="5.511746584570778"><ele>398.0</ele><time>2026-04-02T13:35:00.001Z</time></trkpt><trkpt lat="43.34653361211106" lon="5.5116410864278205"><ele>394.0</ele><time>2026-04-02T13:35:03.001Z</time></trkpt><trkpt lat="43.34648631259041" lon="5.511573503620792"><ele>390.0</ele><time>2026-04-02T13:35:06.001Z</time></trkpt><trkpt lat="43.346564048053786" lon="5.511544741312412"><ele>390.0</ele><time>2026-04-02T13:36:23.001Z</time></trkpt><trkpt lat="43.34651004594658" lon="5.511483734296409"><ele>390.0</ele><time>2026-04-02T13:36:26.001Z</time></trkpt><trkpt lat="43.346461428360854" lon="5.511547540669827"><ele>390.0</ele><time>2026-04-02T13:36:30.001Z</time></trkpt><trkpt lat="43.346385919085506" lon="5.511585586696951"><ele>390.0</ele><time>2026-04-02T13:36:34.001Z</time></trkpt><trkpt lat="43.34632951356922" lon="5.511643461227788"><ele>390.0</ele><time>2026-04-02T13:36:38.001Z</time></trkpt><trkpt lat="43.34626622106443" lon="5.511680307032471"><ele>390.0</ele><time>2026-04-02T13:36:42.001Z</time></trkpt><trkpt lat="43.346201025137276" lon="5.511696605711275"><ele>390.0</ele><time>2026-04-02T13:36:45.001Z</time></trkpt><trkpt lat="43.34613767613913" lon="5.511702997256518"><ele>391.42857142857144</ele><time>2026-04-02T13:36:48Z</time></trkpt><trkpt lat="43.346074420806275" lon="5.511701407058744"><ele>392.85714285714283</ele><time>2026-04-02T13:36:51Z</time></trkpt><trkpt lat="43.346010779934055" lon="5.511709064885588"><ele>394.28571428571433</ele><time>2026-04-02T13:36:54Z</time></trkpt><trkpt lat="43.345940552857236" lon="5.5117189223074"><ele>395.7142857142857</ele><time>2026-04-02T13:36:58Z</time></trkpt><trkpt lat="43.345862036280714" lon="5.51170391321893"><ele>397.14285714285717</ele><time>2026-04-02T13:37:02Z</time></trkpt><trkpt lat="43.345785226482015" lon="5.511707885527761"><ele>398.5714285714286</ele><time>2026-04-02T13:37:06Z</time></trkpt><trkpt lat="43.345719583610936" lon="5.511716512109639"><ele>400.0</ele><time>2026-04-02T13:37:10Z</time></trkpt><trkpt lat="43.34565765468222" lon="5.511734235807117"><ele>400.00000000000006</ele><time>2026-04-02T13:37:14Z</time></trkpt><trkpt lat="43.34559146196361" lon="5.511723474019806"><ele>400.0</ele><time>2026-04-02T13:37:18Z</time></trkpt><trkpt lat="43.34552018799125" lon="5.511738108202385"><ele>400.0</ele><time>2026-04-02T13:37:23Z</time></trkpt><trkpt lat="43.34545616251289" lon="5.5117554302752785"><ele>400.0</ele><time>2026-04-02T13:37:28Z</time></trkpt><trkpt lat="43.34538951083693" lon="5.511778354433314"><ele>400.0</ele><time>2026-04-02T13:37:32Z</time></trkpt><trkpt lat="43.345324894197915" lon="5.511807891152164"><ele>400.00000000000006</ele><time>2026-04-02T13:37:37Z</time></trkpt><trkpt lat="43.34525885364717" lon="5.511833468964061"><ele>400.0</ele><time>2026-04-02T13:37:41Z</time></trkpt><trkpt lat="43.34519695963523" lon="5.5118544033049455"><ele>399.8571428571429</ele><time>2026-04-02T13:37:45Z</time></trkpt><trkpt lat="43.34513352951028" lon="5.511866059752703"><ele>399.7142857142857</ele><time>2026-04-02T13:37:49.002Z</time></trkpt><trkpt lat="43.34506312885945" lon="5.5118725364906185"><ele>399.57142857142856</ele><time>2026-04-02T13:37:53.002Z</time></trkpt><trkpt lat="43.34499928270942" lon="5.511884190762051"><ele>399.42857142857144</ele><time>2026-04-02T13:37:57.001Z</time></trkpt><trkpt lat="43.344932538249914" lon="5.5119171842433055"><ele>399.2857142857143</ele><time>2026-04-02T13:38:01.001Z</time></trkpt><trkpt lat="43.344867199505316" lon="5.511966037605114"><ele>399.14285714285717</ele><time>2026-04-02T13:38:05.001Z</time></trkpt><trkpt lat="43.344811150226846" lon="5.512033682458473"><ele>399.0</ele><time>2026-04-02T13:38:09.001Z</time></trkpt><trkpt lat="43.34475950047546" lon="5.512114711636947"><ele>400.7142857142857</ele><time>2026-04-02T13:38:13.001Z</time></trkpt><trkpt lat="43.344718581551746" lon="5.512215414290074"><ele>402.42857142857144</ele><time>2026-04-02T13:38:17.001Z</time></trkpt><trkpt lat="43.34470302606698" lon="5.512299996066356"><ele>404.1428571428571</ele><time>2026-04-02T13:38:20.001Z</time></trkpt><trkpt lat="43.34469991482428" lon="5.5123915460182085"><ele>405.8571428571429</ele><time>2026-04-02T13:38:23.001Z</time></trkpt><trkpt lat="43.344683249130284" lon="5.512498627427451"><ele>407.57142857142856</ele><time>2026-04-02T13:38:27Z</time></trkpt><trkpt lat="43.34466767108026" lon="5.512593569303585"><ele>409.2857142857143</ele><time>2026-04-02T13:38:31Z</time></trkpt><trkpt lat="43.34465599525405" lon="5.5126989023114525"><ele>411.0</ele><time>2026-04-02T13:38:35Z</time></trkpt><trkpt lat="43.344647557412586" lon="5.512793306344141"><ele>411.0</ele><time>2026-04-02T13:38:39Z</time></trkpt><trkpt lat="43.344641129097646" lon="5.51288615368544"><ele>411.0</ele><time>2026-04-02T13:38:43Z</time></trkpt><trkpt lat="43.34464028894687" lon="5.512983184650167"><ele>411.0</ele><time>2026-04-02T13:38:47Z</time></trkpt><trkpt lat="43.34465053063742" lon="5.5130752343522795"><ele>411.0</ele><time>2026-04-02T13:38:51Z</time></trkpt><trkpt lat="43.34463553418196" lon="5.513159858787488"><ele>411.0</ele><time>2026-04-02T13:38:55Z</time></trkpt><trkpt lat="43.34461071641097" lon="5.513239503749451"><ele>411.0</ele><time>2026-04-02T13:38:59Z</time></trkpt><trkpt lat="43.34454230151556" lon="5.51325830668728"><ele>411.0</ele><time>2026-04-02T13:39:03Z</time></trkpt><trkpt lat="43.34447976586567" lon="5.513233321905505"><ele>412.85714285714283</ele><time>2026-04-02T13:39:07Z</time></trkpt><trkpt lat="43.344408988998595" lon="5.513203118346781"><ele>414.71428571428567</ele><time>2026-04-02T13:39:11Z</time></trkpt><trkpt lat="43.34434555422584" lon="5.51316221905478"><ele>416.57142857142856</ele><time>2026-04-02T13:39:15Z</time></trkpt><trkpt lat="43.34427028579807" lon="5.51316128763465"><ele>418.42857142857144</ele><time>2026-04-02T13:39:19Z</time></trkpt><trkpt lat="43.344199400325586" lon="5.513166516427097"><ele>420.2857142857143</ele><time>2026-04-02T13:39:23Z</time></trkpt><trkpt lat="43.34413485220698" lon="5.513180591747822"><ele>422.14285714285717</ele><time>2026-04-02T13:39:26Z</time></trkpt><trkpt lat="43.34405706932482" lon="5.513216841319783"><ele>424.0</ele><time>2026-04-02T13:39:30Z</time></trkpt><trkpt lat="43.34398472253444" lon="5.513261778835181"><ele>424.0</ele><time>2026-04-02T13:39:34Z</time></trkpt><trkpt lat="43.34391915932109" lon="5.513305623486155"><ele>424.0</ele><time>2026-04-02T13:39:38Z</time></trkpt><trkpt lat="43.34386429140417" lon="5.51334845611691"><ele>424.0</ele><time>2026-04-02T13:39:42Z</time></trkpt><trkpt lat="43.34380966154515" lon="5.513392288706082"><ele>424.0</ele><time>2026-04-02T13:39:45.999Z</time></trkpt><trkpt lat="43.34374615671033" lon="5.513432924817307"><ele>424.0</ele><time>2026-04-02T13:39:50.999Z</time></trkpt><trkpt lat="43.343685982412914" lon="5.513481969858556"><ele>424.0</ele><time>2026-04-02T13:39:56.001Z</time></trkpt><trkpt lat="43.343620478088525" lon="5.513525011174879"><ele>424.0</ele><time>2026-04-02T13:40:00.001Z</time></trkpt><trkpt lat="43.343564652452265" lon="5.513583988776101"><ele>423.5714285714286</ele><time>2026-04-02T13:40:04.001Z</time></trkpt><trkpt lat="43.3435170273874" lon="5.513646672920743"><ele>423.1428571428571</ele><time>2026-04-02T13:40:08.001Z</time></trkpt><trkpt lat="43.34346817754115" lon="5.513702587489485"><ele>422.7142857142857</ele><time>2026-04-02T13:40:12Z</time></trkpt><trkpt lat="43.343430243517126" lon="5.513776880179099"><ele>422.28571428571433</ele><time>2026-04-02T13:40:16Z</time></trkpt><trkpt lat="43.34338642885183" lon="5.513845683209695"><ele>421.8571428571429</ele><time>2026-04-02T13:40:20Z</time></trkpt><trkpt lat="43.34334691910053" lon="5.513931885762247"><ele>421.42857142857144</ele><time>2026-04-02T13:40:24Z</time></trkpt><trkpt lat="43.34330609463228" lon="5.514014207126404"><ele>421.0</ele><time>2026-04-02T13:40:28Z</time></trkpt><trkpt lat="43.34328187036427" lon="5.5140971056933505"><ele>422.7142857142857</ele><time>2026-04-02T13:40:32Z</time></trkpt><trkpt lat="43.3432548537827" lon="5.51418513810509"><ele>424.42857142857144</ele><time>2026-04-02T13:40:36Z</time></trkpt><trkpt lat="43.34324172372842" lon="5.514281776420741"><ele>426.1428571428571</ele><time>2026-04-02T13:40:40Z</time></trkpt><trkpt lat="43.34323387599468" lon="5.514372653750012"><ele>427.8571428571429</ele><time>2026-04-02T13:40:44Z</time></trkpt><trkpt lat="43.34323250056286" lon="5.514474144426543"><ele>429.57142857142856</ele><time>2026-04-02T13:40:48Z</time></trkpt><trkpt lat="43.343245061663346" lon="5.51457660841578"><ele>431.2857142857143</ele><time>2026-04-02T13:40:52Z</time></trkpt><trkpt lat="43.343251937381446" lon="5.514670753140518"><ele>433.0</ele><time>2026-04-02T13:40:56Z</time></trkpt><trkpt lat="43.343264444823404" lon="5.514772648437484"><ele>434.57142857142856</ele><time>2026-04-02T13:41:00Z</time></trkpt><trkpt lat="43.34328174792764" lon="5.514865061204826"><ele>436.1428571428571</ele><time>2026-04-02T13:41:04Z</time></trkpt><trkpt lat="43.3432925212819" lon="5.514955964280051"><ele>437.71428571428567</ele><time>2026-04-02T13:41:07.999Z</time></trkpt><trkpt lat="43.34330735944192" lon="5.5150487268561195"><ele>439.2857142857143</ele><time>2026-04-02T13:41:11.999Z</time></trkpt><trkpt lat="43.343329675538655" lon="5.515147575161187"><ele>440.8571428571429</ele><time>2026-04-02T13:41:15.999Z</time></trkpt><trkpt lat="43.343360797030726" lon="5.515238098910428"><ele>442.4285714285714</ele><time>2026-04-02T13:41:19.999Z</time></trkpt><trkpt lat="43.34338822893698" lon="5.515322383400249"><ele>444.0</ele><time>2026-04-02T13:41:23.999Z</time></trkpt><trkpt lat="43.34341816511403" lon="5.515417984223447"><ele>445.42857142857144</ele><time>2026-04-02T13:41:27.999Z</time></trkpt><trkpt lat="43.3434305699853" lon="5.515509008757946"><ele>446.8571428571429</ele><time>2026-04-02T13:41:31.999Z</time></trkpt><trkpt lat="43.34344723096763" lon="5.515600341207726"><ele>448.28571428571433</ele><time>2026-04-02T13:41:35.999Z</time></trkpt><trkpt lat="43.343445172859184" lon="5.5156882435630346"><ele>449.7142857142857</ele><time>2026-04-02T13:41:39.999Z</time></trkpt><trkpt lat="43.34339161774041" lon="5.5157572765016845"><ele>451.1428571428572</ele><time>2026-04-02T13:41:43.999Z</time></trkpt><trkpt lat="43.343329793002376" lon="5.515731119707347"><ele>452.5714285714286</ele><time>2026-04-02T13:41:47.999Z</time></trkpt><trkpt lat="43.34327724324943" lon="5.515661130939239"><ele>454.0</ele><time>2026-04-02T13:41:51.999Z</time></trkpt><trkpt lat="43.34322063997113" lon="5.5156207597878675"><ele>454.0</ele><time>2026-04-02T13:41:55.999Z</time></trkpt><trkpt lat="43.34314674742752" lon="5.515593473846033"><ele>454.00000000000006</ele><time>2026-04-02T13:42:00Z</time></trkpt><trkpt lat="43.34306742770141" lon="5.515610344854483"><ele>454.0</ele><time>2026-04-02T13:42:04Z</time></trkpt><trkpt lat="43.34299830702388" lon="5.515646144024171"><ele>454.0</ele><time>2026-04-02T13:42:08Z</time></trkpt><trkpt lat="43.34292226392261" lon="5.515654819174827"><ele>454.00000000000006</ele><time>2026-04-02T13:42:12Z</time></trkpt><trkpt lat="43.34286755208198" lon="5.51557716528401"><ele>454.0</ele><time>2026-04-02T13:42:17Z</time></trkpt><trkpt lat="43.342849489334355" lon="5.515493801050335"><ele>454.0</ele><time>2026-04-02T13:42:20Z</time></trkpt><trkpt lat="43.34282225152091" lon="5.515407462219116"><ele>452.8571428571429</ele><time>2026-04-02T13:42:23Z</time></trkpt><trkpt lat="43.342769063199796" lon="5.51532312704233"><ele>451.7142857142858</ele><time>2026-04-02T13:42:27Z</time></trkpt><trkpt lat="43.34272397057594" lon="5.515243381216417"><ele>450.57142857142856</ele><time>2026-04-02T13:42:31Z</time></trkpt><trkpt lat="43.34266385557482" lon="5.515177629655349"><ele>449.42857142857144</ele><time>2026-04-02T13:42:35Z</time></trkpt><trkpt lat="43.34260124679918" lon="5.515123285271237"><ele>448.2857142857143</ele><time>2026-04-02T13:42:38.999Z</time></trkpt><trkpt lat="43.342539007528245" lon="5.515071160026037"><ele>447.1428571428571</ele><time>2026-04-02T13:42:42.999Z</time></trkpt><trkpt lat="43.3424767928217" lon="5.515033541832297"><ele>446.0</ele><time>2026-04-02T13:42:45.999Z</time></trkpt><trkpt lat="43.34241814689807" lon="5.514999924681138"><ele>446.0</ele><time>2026-04-02T13:42:48.999Z</time></trkpt><trkpt lat="43.342358630085414" lon="5.514949203440535"><ele>446.0</ele><time>2026-04-02T13:42:50.999Z</time></trkpt><trkpt lat="43.34229625987712" lon="5.514899035075946"><ele>446.0</ele><time>2026-04-02T13:42:53.999Z</time></trkpt><trkpt lat="43.34223361977982" lon="5.514873956426732"><ele>446.0</ele><time>2026-04-02T13:42:57.999Z</time></trkpt><trkpt lat="43.34216221996727" lon="5.514929572905532"><ele>446.0</ele><time>2026-04-02T13:44:45Z</time></trkpt><trkpt lat="43.342171697508384" lon="5.515018624910773"><ele>446.0</ele><time>2026-04-02T13:44:50.999Z</time></trkpt><trkpt lat="43.342200880565684" lon="5.515119923214172"><ele>446.0</ele><time>2026-04-02T13:44:55.999Z</time></trkpt><trkpt lat="43.34222411793842" lon="5.515208248247498"><ele>446.0</ele><time>2026-04-02T13:44:59.999Z</time></trkpt><trkpt lat="43.34224993598085" lon="5.515299783473739"><ele>446.0</ele><time>2026-04-02T13:45:03.999Z</time></trkpt><trkpt lat="43.34228715588264" lon="5.515392604652954"><ele>446.0</ele><time>2026-04-02T13:45:07.999Z</time></trkpt><trkpt lat="43.34232893153788" lon="5.515477346636102"><ele>446.0</ele><time>2026-04-02T13:45:12.999Z</time></trkpt><trkpt lat="43.34237458399942" lon="5.515560102154447"><ele>446.0</ele><time>2026-04-02T13:45:17.999Z</time></trkpt><trkpt lat="43.342410870815996" lon="5.515637168624717"><ele>446.0</ele><time>2026-04-02T13:45:22.999Z</time></trkpt><trkpt lat="43.34245012385317" lon="5.515718584642644"><ele>446.0</ele><time>2026-04-02T13:45:27.999Z</time></trkpt><trkpt lat="43.34249264068893" lon="5.5158025017343215"><ele>448.42857142857144</ele><time>2026-04-02T13:45:32.999Z</time></trkpt><trkpt lat="43.34253135772078" lon="5.515879749421775"><ele>450.85714285714283</ele><time>2026-04-02T13:45:37.999Z</time></trkpt><trkpt lat="43.34256787498369" lon="5.515961164187862"><ele>453.2857142857143</ele><time>2026-04-02T13:45:42.999Z</time></trkpt><trkpt lat="43.34261062622342" lon="5.516033361137698"><ele>455.71428571428567</ele><time>2026-04-02T13:45:47.999Z</time></trkpt><trkpt lat="43.34264137694262" lon="5.516125192766227"><ele>458.1428571428571</ele><time>2026-04-02T13:45:52.999Z</time></trkpt><trkpt lat="43.342669556675304" lon="5.516223107248483"><ele>460.57142857142856</ele><time>2026-04-02T13:45:57.999Z</time></trkpt><trkpt lat="43.3426928316767" lon="5.516320390536541"><ele>463.0</ele><time>2026-04-02T13:46:02.999Z</time></trkpt><trkpt lat="43.34271999163221" lon="5.516404387830649"><ele>465.71428571428567</ele><time>2026-04-02T13:46:06.999Z</time></trkpt><trkpt lat="43.34275711852448" lon="5.516495571656508"><ele>468.4285714285714</ele><time>2026-04-02T13:46:12Z</time></trkpt><trkpt lat="43.342788175274706" lon="5.516594373070069"><ele>471.1428571428571</ele><time>2026-04-02T13:46:17Z</time></trkpt><trkpt lat="43.34282710163649" lon="5.516669896218983"><ele>473.8571428571429</ele><time>2026-04-02T13:46:21Z</time></trkpt><trkpt lat="43.34288343056951" lon="5.5167484872119665"><ele>476.5714285714286</ele><time>2026-04-02T13:46:26Z</time></trkpt><trkpt lat="43.34292577280848" lon="5.516818154043311"><ele>479.28571428571433</ele><time>2026-04-02T13:46:30Z</time></trkpt><trkpt lat="43.34297079050828" lon="5.516897580502096"><ele>482.0</ele><time>2026-04-02T13:46:35Z</time></trkpt><trkpt lat="43.343014543880194" lon="5.516973042360043"><ele>481.8571428571429</ele><time>2026-04-02T13:46:40Z</time></trkpt><trkpt lat="43.34307501696318" lon="5.517025080788176"><ele>481.7142857142858</ele><time>2026-04-02T13:46:45Z</time></trkpt><trkpt lat="43.34311344089964" lon="5.517102199918926"><ele>481.57142857142856</ele><time>2026-04-02T13:46:50Z</time></trkpt><trkpt lat="43.343171694967474" lon="5.517186885949884"><ele>481.42857142857144</ele><time>2026-04-02T13:46:56Z</time></trkpt><trkpt lat="43.34321326156868" lon="5.517262752901611"><ele>481.2857142857143</ele><time>2026-04-02T13:46:59.999Z</time></trkpt><trkpt lat="43.343260870272694" lon="5.517331057331969"><ele>481.1428571428571</ele><time>2026-04-02T13:47:04.999Z</time></trkpt><trkpt lat="43.34330596702407" lon="5.517407109041439"><ele>480.99999999999994</ele><time>2026-04-02T13:48:21Z</time></trkpt><trkpt lat="43.34335412545602" lon="5.517473453923367"><ele>480.99999999999994</ele><time>2026-04-02T13:48:26Z</time></trkpt><trkpt lat="43.34341290443235" lon="5.517512499403132"><ele>481.0</ele><time>2026-04-02T13:48:30Z</time></trkpt><trkpt lat="43.3434912274018" lon="5.517552888645038"><ele>480.99999999999994</ele><time>2026-04-02T13:48:50Z</time></trkpt><trkpt lat="43.34354162026163" lon="5.517605236149404"><ele>480.99999999999994</ele><time>2026-04-02T13:48:54Z</time></trkpt><trkpt lat="43.34356510674017" lon="5.517704425503178"><ele>481.0</ele><time>2026-04-02T13:48:59Z</time></trkpt><trkpt lat="43.34358527630976" lon="5.517787842098727"><ele>480.99999999999994</ele><time>2026-04-02T13:49:04Z</time></trkpt><trkpt lat="43.343600975948924" lon="5.517871673766402"><ele>480.99999999999994</ele><time>2026-04-02T13:49:09Z</time></trkpt><trkpt lat="43.3436368049236" lon="5.517956402716915"><ele>482.5714285714285</ele><time>2026-04-02T13:49:15Z</time></trkpt><trkpt lat="43.34366447525695" lon="5.518037634958453"><ele>484.1428571428571</ele><time>2026-04-02T13:49:20.999Z</time></trkpt><trkpt lat="43.343697496402676" lon="5.518127088885217"><ele>485.7142857142857</ele><time>2026-04-02T13:49:26.999Z</time></trkpt><trkpt lat="43.34371100806936" lon="5.5182226602070426"><ele>487.2857142857143</ele><time>2026-04-02T13:49:32.999Z</time></trkpt><trkpt lat="43.343749568500165" lon="5.51830370244555"><ele>488.8571428571429</ele><time>2026-04-02T13:49:38.999Z</time></trkpt><trkpt lat="43.3437633782388" lon="5.5183904718343015"><ele>490.4285714285715</ele><time>2026-04-02T13:49:44.999Z</time></trkpt><trkpt lat="43.34380560482498" lon="5.518470084114142"><ele>492.00000000000006</ele><time>2026-04-02T13:49:50.999Z</time></trkpt><trkpt lat="43.343839859732455" lon="5.518556486726991"><ele>492.00000000000006</ele><time>2026-04-02T13:49:57.999Z</time></trkpt><trkpt lat="43.34385150717553" lon="5.518649495519464"><ele>492.0</ele><time>2026-04-02T13:50:03.999Z</time></trkpt><trkpt lat="43.34386535479529" lon="5.518744348192148"><ele>492.00000000000006</ele><time>2026-04-02T13:50:09.999Z</time></trkpt><trkpt lat="43.343888445130055" lon="5.518832178761632"><ele>492.00000000000006</ele><time>2026-04-02T13:50:14.999Z</time></trkpt><trkpt lat="43.3439154827063" lon="5.518917940747857"><ele>492.0</ele><time>2026-04-02T13:50:21Z</time></trkpt><trkpt lat="43.34393261735572" lon="5.519014934052844"><ele>492.00000000000006</ele><time>2026-04-02T13:50:27Z</time></trkpt><trkpt lat="43.343949923508916" lon="5.519116540714217"><ele>492.00000000000006</ele><time>2026-04-02T13:50:33Z</time></trkpt><trkpt lat="43.34396205409041" lon="5.519205087322528"><ele>492.28571428571433</ele><time>2026-04-02T13:50:38Z</time></trkpt><trkpt lat="43.343987858225105" lon="5.519297133305209"><ele>492.57142857142856</ele><time>2026-04-02T13:50:44Z</time></trkpt><trkpt lat="43.3440069044591" lon="5.519387793383882"><ele>492.8571428571429</ele><time>2026-04-02T13:50:50Z</time></trkpt><trkpt lat="43.34401493344407" lon="5.519476149270078"><ele>493.14285714285717</ele><time>2026-04-02T13:50:56Z</time></trkpt><trkpt lat="43.34403817409475" lon="5.5195705630567895"><ele>493.42857142857144</ele><time>2026-04-02T13:51:02Z</time></trkpt><trkpt lat="43.34406251192685" lon="5.519658049868005"><ele>493.7142857142857</ele><time>2026-04-02T13:51:07Z</time></trkpt><trkpt lat="43.344089924446195" lon="5.519745284621574"><ele>494.0</ele><time>2026-04-02T13:51:12Z</time></trkpt><trkpt lat="43.34411401852101" lon="5.519836184650497"><ele>495.28571428571433</ele><time>2026-04-02T13:51:17Z</time></trkpt><trkpt lat="43.34413866857868" lon="5.519927022360674"><ele>496.57142857142856</ele><time>2026-04-02T13:51:22Z</time></trkpt><trkpt lat="43.34417154467197" lon="5.520021365869091"><ele>497.8571428571429</ele><time>2026-04-02T13:51:27Z</time></trkpt><trkpt lat="43.34420707603131" lon="5.520104867963386"><ele>499.14285714285717</ele><time>2026-04-02T13:51:31.999Z</time></trkpt><trkpt lat="43.344245517912334" lon="5.520178247488441"><ele>500.42857142857144</ele><time>2026-04-02T13:51:36.999Z</time></trkpt><trkpt lat="43.34428499591049" lon="5.520253632680594"><ele>501.7142857142857</ele><time>2026-04-02T13:51:41.999Z</time></trkpt><trkpt lat="43.34432836200311" lon="5.520338826991153"><ele>503.0</ele><time>2026-04-02T13:51:47.999Z</time></trkpt><trkpt lat="43.34435971101201" lon="5.520418643226754"><ele>504.14285714285717</ele><time>2026-04-02T13:51:52.999Z</time></trkpt><trkpt lat="43.34440470516244" lon="5.520498142053881"><ele>505.28571428571433</ele><time>2026-04-02T13:51:57.999Z</time></trkpt><trkpt lat="43.344442972082284" lon="5.520583465887483"><ele>506.42857142857144</ele><time>2026-04-02T13:52:02.999Z</time></trkpt><trkpt lat="43.3444706049726" lon="5.520677529578405"><ele>507.57142857142856</ele><time>2026-04-02T13:52:07.999Z</time></trkpt><trkpt lat="43.344508558424195" lon="5.520759856976334"><ele>508.7142857142857</ele><time>2026-04-02T13:52:12.999Z</time></trkpt><trkpt lat="43.34453774648068" lon="5.520840880224381"><ele>509.8571428571429</ele><time>2026-04-02T13:52:16.999Z</time></trkpt><trkpt lat="43.34457725135249" lon="5.5209204481038485"><ele>511.0</ele><time>2026-04-02T13:52:22.999Z</time></trkpt><trkpt lat="43.34462556189777" lon="5.521009834272303"><ele>511.0</ele><time>2026-04-02T13:53:40.999Z</time></trkpt><trkpt lat="43.3446621980048" lon="5.521085644069171"><ele>511.0</ele><time>2026-04-02T13:53:43.999Z</time></trkpt><trkpt lat="43.34470766535989" lon="5.521176625371402"><ele>511.0</ele><time>2026-04-02T13:53:47.999Z</time></trkpt><trkpt lat="43.34474672700585" lon="5.52125292165579"><ele>511.0</ele><time>2026-04-02T13:53:50.999Z</time></trkpt><trkpt lat="43.34478992645859" lon="5.521336754185069"><ele>511.0</ele><time>2026-04-02T13:53:54.999Z</time></trkpt><trkpt lat="43.34482422902587" lon="5.5214255650121595"><ele>511.0</ele><time>2026-04-02T13:53:58.999Z</time></trkpt><trkpt lat="43.34486856683277" lon="5.521497570052722"><ele>511.0</ele><time>2026-04-02T13:54:02.999Z</time></trkpt><trkpt lat="43.34490704938548" lon="5.521573480235937"><ele>511.57142857142856</ele><time>2026-04-02T13:54:07.999Z</time></trkpt><trkpt lat="43.34494486711737" lon="5.521649639797879"><ele>512.1428571428571</ele><time>2026-04-02T13:54:12.999Z</time></trkpt><trkpt lat="43.344983798712164" lon="5.5217224930533835"><ele>512.7142857142858</ele><time>2026-04-02T13:54:17.999Z</time></trkpt><trkpt lat="43.34502117235722" lon="5.521800148526556"><ele>513.2857142857142</ele><time>2026-04-02T13:54:22.999Z</time></trkpt><trkpt lat="43.345061457923926" lon="5.5218739051912795"><ele>513.8571428571429</ele><time>2026-04-02T13:54:27.999Z</time></trkpt><trkpt lat="43.34509723283852" lon="5.521954780120479"><ele>514.4285714285714</ele><time>2026-04-02T13:54:33Z</time></trkpt><trkpt lat="43.34514216421115" lon="5.522043124092284"><ele>515.0</ele><time>2026-04-02T13:54:39Z</time></trkpt><trkpt lat="43.3451712405412" lon="5.522121300739355"><ele>515.5714285714286</ele><time>2026-04-02T13:54:44Z</time></trkpt><trkpt lat="43.345210458219434" lon="5.52221344256225"><ele>516.1428571428571</ele><time>2026-04-02T13:54:48Z</time></trkpt><trkpt lat="43.34524125485735" lon="5.522313549323261"><ele>516.7142857142857</ele><time>2026-04-02T13:54:53Z</time></trkpt><trkpt lat="43.34526372863239" lon="5.522397865132062"><ele>517.2857142857142</ele><time>2026-04-02T13:54:57Z</time></trkpt><trkpt lat="43.345295903630685" lon="5.5224895654519255"><ele>517.8571428571428</ele><time>2026-04-02T13:55:02Z</time></trkpt><trkpt lat="43.34531447518223" lon="5.522579424331354"><ele>518.4285714285714</ele><time>2026-04-02T13:55:07Z</time></trkpt><trkpt lat="43.34534619557072" lon="5.522673741266322"><ele>519.0</ele><time>2026-04-02T13:55:12Z</time></trkpt><trkpt lat="43.345382846739554" lon="5.522768103763972"><ele>519.0</ele><time>2026-04-02T13:55:17Z</time></trkpt><trkpt lat="43.345405540367025" lon="5.522856712177611"><ele>519.0</ele><time>2026-04-02T13:55:21Z</time></trkpt><trkpt lat="43.345435760146685" lon="5.522937726100727"><ele>519.0</ele><time>2026-04-02T13:55:25Z</time></trkpt><trkpt lat="43.34547625793377" lon="5.523032880154094"><ele>519.0</ele><time>2026-04-02T13:55:30Z</time></trkpt><trkpt lat="43.34550079025272" lon="5.523147294427856"><ele>519.0</ele><time>2026-04-02T13:55:34.999Z</time></trkpt><trkpt lat="43.34550698709651" lon="5.523237409675766"><ele>519.0</ele><time>2026-04-02T13:55:37.999Z</time></trkpt><trkpt lat="43.34551946571371" lon="5.523348175667111"><ele>519.0</ele><time>2026-04-02T13:55:41.999Z</time></trkpt><trkpt lat="43.34551509112151" lon="5.523437604290797"><ele>519.8571428571429</ele><time>2026-04-02T13:55:44.999Z</time></trkpt><trkpt lat="43.3455048260812" lon="5.5235275006654"><ele>520.7142857142857</ele><time>2026-04-02T13:55:47.999Z</time></trkpt><trkpt lat="43.345494272518756" lon="5.523614612756436"><ele>521.5714285714286</ele><time>2026-04-02T13:55:50.999Z</time></trkpt><trkpt lat="43.34548540820792" lon="5.523706291944192"><ele>522.4285714285714</ele><time>2026-04-02T13:55:53.999Z</time></trkpt><trkpt lat="43.34547183943372" lon="5.5237961420808706"><ele>523.2857142857142</ele><time>2026-04-02T13:55:56.999Z</time></trkpt><trkpt lat="43.345468971085495" lon="5.523887291196874"><ele>524.1428571428571</ele><time>2026-04-02T13:55:59.999Z</time></trkpt><trkpt lat="43.34545322310556" lon="5.523972854716017"><ele>525.0</ele><time>2026-04-02T13:56:02.999Z</time></trkpt><trkpt lat="43.345439035127185" lon="5.524081441588216"><ele>525.8571428571429</ele><time>2026-04-02T13:56:06.999Z</time></trkpt><trkpt lat="43.345424255936265" lon="5.524186004861611"><ele>526.7142857142858</ele><time>2026-04-02T13:56:10.999Z</time></trkpt><trkpt lat="43.345423898538336" lon="5.524279045730465"><ele>527.5714285714286</ele><time>2026-04-02T13:56:14.999Z</time></trkpt><trkpt lat="43.34539700324178" lon="5.524383398038571"><ele>528.4285714285714</ele><time>2026-04-02T13:56:18.999Z</time></trkpt><trkpt lat="43.34538590205648" lon="5.524475595967677"><ele>529.2857142857143</ele><time>2026-04-02T13:58:10.999Z</time></trkpt><trkpt lat="43.34536650164273" lon="5.524561093618483"><ele>530.1428571428571</ele><time>2026-04-02T13:58:13.999Z</time></trkpt><trkpt lat="43.34533756211861" lon="5.524651607558284"><ele>531.0</ele><time>2026-04-02T13:58:16.999Z</time></trkpt><trkpt lat="43.34531759067655" lon="5.52475270165408"><ele>531.4285714285714</ele><time>2026-04-02T13:58:19.999Z</time></trkpt><trkpt lat="43.34529465653421" lon="5.524848834441639"><ele>531.8571428571429</ele><time>2026-04-02T13:58:22.999Z</time></trkpt><trkpt lat="43.34526448779754" lon="5.5249404299187095"><ele>532.2857142857143</ele><time>2026-04-02T13:58:25.999Z</time></trkpt><trkpt lat="43.3452389964811" lon="5.525039456194344"><ele>532.7142857142858</ele><time>2026-04-02T13:58:28.999Z</time></trkpt><trkpt lat="43.3452091399904" lon="5.525129183593804"><ele>533.1428571428571</ele><time>2026-04-02T13:58:31.999Z</time></trkpt><trkpt lat="43.34519459398962" lon="5.5252214642960515"><ele>533.5714285714287</ele><time>2026-04-02T13:58:34.998Z</time></trkpt><trkpt lat="43.345171841824474" lon="5.525303256506254"><ele>534.0</ele><time>2026-04-02T13:58:37.998Z</time></trkpt><trkpt lat="43.34517332385989" lon="5.5254321253855805"><ele>534.1428571428572</ele><time>2026-04-02T13:58:41.998Z</time></trkpt><trkpt lat="43.34518468965947" lon="5.525521881000474"><ele>534.2857142857143</ele><time>2026-04-02T13:58:43.998Z</time></trkpt><trkpt lat="43.34521302161941" lon="5.525603223369887"><ele>534.4285714285714</ele><time>2026-04-02T13:58:46.999Z</time></trkpt><trkpt lat="43.34525774762748" lon="5.525686969973537"><ele>534.5714285714287</ele><time>2026-04-02T13:58:50.999Z</time></trkpt><trkpt lat="43.34529447642244" lon="5.525759519938352"><ele>534.7142857142858</ele><time>2026-04-02T13:58:54Z</time></trkpt><trkpt lat="43.34535591624966" lon="5.525828144467096"><ele>534.8571428571429</ele><time>2026-04-02T13:58:58Z</time></trkpt><trkpt lat="43.34541011036738" lon="5.525887509281806"><ele>535.0</ele><time>2026-04-02T13:59:02Z</time></trkpt><trkpt lat="43.345460995014804" lon="5.525941638170224"><ele>535.0</ele><time>2026-04-02T13:59:05Z</time></trkpt><trkpt lat="43.34551254433297" lon="5.525992740196244"><ele>535.0</ele><time>2026-04-02T13:59:08Z</time></trkpt><trkpt lat="43.34557572526574" lon="5.526053917623384"><ele>535.0</ele><time>2026-04-02T13:59:12Z</time></trkpt><trkpt lat="43.345636579349254" lon="5.526117616297525"><ele>535.0</ele><time>2026-04-02T13:59:15.999Z</time></trkpt><trkpt lat="43.345689299095" lon="5.526188868345045"><ele>535.0</ele><time>2026-04-02T13:59:19.999Z</time></trkpt><trkpt lat="43.34574021143841" lon="5.526249009978995"><ele>535.0</ele><time>2026-04-02T13:59:23.999Z</time></trkpt><trkpt lat="43.34579233860395" lon="5.526327007520851"><ele>535.0</ele><time>2026-04-02T13:59:27.999Z</time></trkpt><trkpt lat="43.34583692446925" lon="5.526395224684327"><ele>535.3333333333334</ele><time>2026-04-02T13:59:31.999Z</time></trkpt><trkpt lat="43.345889590755405" lon="5.526485714620764"><ele>535.6666666666667</ele><time>2026-04-02T13:59:35.999Z</time></trkpt><trkpt lat="43.3459256505448" lon="5.52655975583164"><ele>536.0</ele><time>2026-04-02T13:59:38.999Z</time></trkpt><trkpt lat="43.3459746347903" lon="5.526644499355213"><ele>536.3333333333334</ele><time>2026-04-02T13:59:42.999Z</time></trkpt><trkpt lat="43.346012034484204" lon="5.526717863760743"><ele>536.6666666666666</ele><time>2026-04-02T13:59:45.999Z</time></trkpt><trkpt lat="43.34605087949308" lon="5.52681566605867"><ele>537.0</ele><time>2026-04-02T13:59:49.999Z</time></trkpt><trkpt lat="43.34608694536401" lon="5.526910406971443"><ele>537.0</ele><time>2026-04-02T13:59:53.999Z</time></trkpt><trkpt lat="43.34611548329293" lon="5.527005283590914"><ele>537.0</ele><time>2026-04-02T13:59:57.999Z</time></trkpt><trkpt lat="43.34614756928627" lon="5.527101339300238"><ele>537.0</ele><time>2026-04-02T14:00:01.999Z</time></trkpt><trkpt lat="43.346181651373335" lon="5.527183207470876"><ele>537.0</ele><time>2026-04-02T14:00:05.999Z</time></trkpt><trkpt lat="43.346221779830934" lon="5.527284028773511"><ele>537.0</ele><time>2026-04-02T14:00:10.999Z</time></trkpt><trkpt lat="43.34624831886602" lon="5.527375349392456"><ele>537.0</ele><time>2026-04-02T14:00:14.999Z</time></trkpt><trkpt lat="43.34629053357486" lon="5.527469045876003"><ele>537.9999999999999</ele><time>2026-04-02T14:00:19.999Z</time></trkpt><trkpt lat="43.34634067113892" lon="5.5275695721870655"><ele>539.0</ele><time>2026-04-02T14:00:24.999Z</time></trkpt><trkpt lat="43.34637404165465" lon="5.527644369790359"><ele>540.0</ele><time>2026-04-02T14:00:28.998Z</time></trkpt><trkpt lat="43.34640518790441" lon="5.527735555539712"><ele>541.0</ele><time>2026-04-02T14:00:33.998Z</time></trkpt><trkpt lat="43.34645588510118" lon="5.527789890489926"><ele>542.0</ele><time>2026-04-02T14:00:37.998Z</time></trkpt><trkpt lat="43.346493647503614" lon="5.527867460167697"><ele>542.9999999999999</ele><time>2026-04-02T14:00:41.998Z</time></trkpt><trkpt lat="43.34655027602006" lon="5.527917717493956"><ele>544.0</ele><time>2026-04-02T14:00:45.998Z</time></trkpt><trkpt lat="43.34662431651375" lon="5.527954451919939"><ele>545.1428571428571</ele><time>2026-04-02T14:00:52Z</time></trkpt><trkpt lat="43.346691350144035" lon="5.5279741616623275"><ele>546.2857142857142</ele><time>2026-04-02T14:00:58Z</time></trkpt><trkpt lat="43.34674859628082" lon="5.528023285707153"><ele>547.4285714285714</ele><time>2026-04-02T14:01:04Z</time></trkpt><trkpt lat="43.34681607745323" lon="5.528058269638131"><ele>548.5714285714286</ele><time>2026-04-02T14:01:10Z</time></trkpt><trkpt lat="43.34688381935367" lon="5.528106092808065"><ele>549.7142857142858</ele><time>2026-04-02T14:01:16Z</time></trkpt><trkpt lat="43.346944901423676" lon="5.528146366546052"><ele>550.8571428571429</ele><time>2026-04-02T14:01:22Z</time></trkpt><trkpt lat="43.347010411135436" lon="5.528193820369858"><ele>552.0</ele><time>2026-04-02T14:01:29Z</time></trkpt><trkpt lat="43.347070581161546" lon="5.528232745268253"><ele>552.0</ele><time>2026-04-02T14:01:35Z</time></trkpt><trkpt lat="43.34711367201797" lon="5.5283040834139365"><ele>552.0</ele><time>2026-04-02T14:01:40.999Z</time></trkpt><trkpt lat="43.34716554882897" lon="5.528373154751161"><ele>552.0</ele><time>2026-04-02T14:01:47.999Z</time></trkpt><trkpt lat="43.3472094620095" lon="5.528439559269833"><ele>552.0</ele><time>2026-04-02T14:01:54.999Z</time></trkpt><trkpt lat="43.347271185196774" lon="5.528491668322715"><ele>552.0</ele><time>2026-04-02T14:02:07.999Z</time></trkpt><trkpt lat="43.34732661314467" lon="5.528554708821745"><ele>552.0</ele><time>2026-04-02T14:02:14.999Z</time></trkpt><trkpt lat="43.34737648080032" lon="5.528611434960425"><ele>552.0</ele><time>2026-04-02T14:02:20.999Z</time></trkpt><trkpt lat="43.34742375847042" lon="5.5286734171170435"><ele>554.0</ele><time>2026-04-02T14:02:27.999Z</time></trkpt><trkpt lat="43.34746109509118" lon="5.528743131617097"><ele>556.0</ele><time>2026-04-02T14:02:34.999Z</time></trkpt><trkpt lat="43.34750751178636" lon="5.528805595917079"><ele>558.0</ele><time>2026-04-02T14:02:41.999Z</time></trkpt><trkpt lat="43.34755579510768" lon="5.528874937522353"><ele>560.0</ele><time>2026-04-02T14:02:49.999Z</time></trkpt><trkpt lat="43.34760382675648" lon="5.528938162724802"><ele>562.0</ele><time>2026-04-02T14:02:58Z</time></trkpt><trkpt lat="43.34764648350664" lon="5.529017716769767"><ele>564.0</ele><time>2026-04-02T14:03:06Z</time></trkpt><trkpt lat="43.34768918716073" lon="5.529092157036873"><ele>566.0</ele><time>2026-04-02T14:03:14Z</time></trkpt><trkpt lat="43.347744819154954" lon="5.5291579041346015"><ele>566.0</ele><time>2026-04-02T14:03:31Z</time></trkpt><trkpt lat="43.34778938188749" lon="5.5292199684265855"><ele>566.0</ele><time>2026-04-02T14:03:41Z</time></trkpt><trkpt lat="43.34783538666258" lon="5.529294975190841"><ele>566.0</ele><time>2026-04-02T14:03:47Z</time></trkpt><trkpt lat="43.347884825298486" lon="5.529372786693719"><ele>566.0</ele><time>2026-04-02T14:03:53.999Z</time></trkpt><trkpt lat="43.34792334328758" lon="5.529442580865517"><ele>566.0</ele><time>2026-04-02T14:03:59.999Z</time></trkpt><trkpt lat="43.34796045921561" lon="5.529520185854303"><ele>566.0</ele><time>2026-04-02T14:04:06.999Z</time></trkpt><trkpt lat="43.34799580361465" lon="5.5296021806451865"><ele>566.0</ele><time>2026-04-02T14:04:13.999Z</time></trkpt><trkpt lat="43.34801776055926" lon="5.529694691703956"><ele>567.7142857142858</ele><time>2026-04-02T14:04:21.999Z</time></trkpt><trkpt lat="43.348049124582445" lon="5.5297853978405875"><ele>569.4285714285714</ele><time>2026-04-02T14:04:27.999Z</time></trkpt><trkpt lat="43.348081427719" lon="5.5298681149717686"><ele>571.1428571428571</ele><time>2026-04-02T14:04:33.999Z</time></trkpt><trkpt lat="43.34810863019461" lon="5.529962467009222"><ele>572.8571428571429</ele><time>2026-04-02T14:04:40.999Z</time></trkpt><trkpt lat="43.34813163008297" lon="5.530043065707898"><ele>574.5714285714286</ele><time>2026-04-02T14:04:47.999Z</time></trkpt><trkpt lat="43.34816492446847" lon="5.530123552526286"><ele>576.2857142857143</ele><time>2026-04-02T14:04:54.999Z</time></trkpt><trkpt lat="43.3481928788069" lon="5.530213133451786"><ele>578.0</ele><time>2026-04-02T14:05:03Z</time></trkpt><trkpt lat="43.348217912798134" lon="5.530293619292913"><ele>578.0</ele><time>2026-04-02T14:05:11Z</time></trkpt><trkpt lat="43.348246612826074" lon="5.530373264622178"><ele>578.0</ele><time>2026-04-02T14:05:18Z</time></trkpt><trkpt lat="43.348279021847375" lon="5.530454138807866"><ele>578.0</ele><time>2026-04-02T14:05:24Z</time></trkpt><trkpt lat="43.34831913914375" lon="5.530533712655378"><ele>578.0</ele><time>2026-04-02T14:05:31Z</time></trkpt><trkpt lat="43.34833959130242" lon="5.530622177811178"><ele>578.0</ele><time>2026-04-02T14:05:38Z</time></trkpt><trkpt lat="43.34836147118769" lon="5.530719409975674"><ele>578.0</ele><time>2026-04-02T14:05:45Z</time></trkpt><trkpt lat="43.34839484605228" lon="5.530793319122376"><ele>578.0</ele><time>2026-04-02T14:05:51Z</time></trkpt><trkpt lat="43.34840359745475" lon="5.5308803638475075"><ele>578.8571428571429</ele><time>2026-04-02T14:05:57Z</time></trkpt><trkpt lat="43.34840700654285" lon="5.530976277963068"><ele>579.7142857142857</ele><time>2026-04-02T14:06:02.999Z</time></trkpt><trkpt lat="43.34842322922875" lon="5.53107183800826"><ele>580.5714285714286</ele><time>2026-04-02T14:06:07.999Z</time></trkpt><trkpt lat="43.348399579342754" lon="5.531160331031915"><ele>581.4285714285714</ele><time>2026-04-02T14:06:12.999Z</time></trkpt><trkpt lat="43.348367098966655" lon="5.531250188724528"><ele>582.2857142857143</ele><time>2026-04-02T14:06:17.999Z</time></trkpt><trkpt lat="43.34831408457889" lon="5.531330703186361"><ele>583.1428571428571</ele><time>2026-04-02T14:06:21.999Z</time></trkpt><trkpt lat="43.34827558594414" lon="5.531419072169954"><ele>584.0</ele><time>2026-04-02T14:06:26.999Z</time></trkpt><trkpt lat="43.348231987509216" lon="5.5314886998877215"><ele>584.5714285714286</ele><time>2026-04-02T14:06:31.999Z</time></trkpt><trkpt lat="43.34818533628061" lon="5.5315769637333085"><ele>585.1428571428571</ele><time>2026-04-02T14:06:36.999Z</time></trkpt><trkpt lat="43.34813979688206" lon="5.531643588885753"><ele>585.7142857142858</ele><time>2026-04-02T14:06:40.999Z</time></trkpt><trkpt lat="43.34810618734998" lon="5.531719983985085"><ele>586.2857142857142</ele><time>2026-04-02T14:06:45.999Z</time></trkpt><trkpt lat="43.34805497636033" lon="5.531787105503711"><ele>586.8571428571429</ele><time>2026-04-02T14:06:50.999Z</time></trkpt><trkpt lat="43.348004535486446" lon="5.53185340757997"><ele>587.4285714285714</ele><time>2026-04-02T14:06:54.999Z</time></trkpt><trkpt lat="43.34795172987954" lon="5.531935184330672"><ele>588.0</ele><time>2026-04-02T14:06:59.998Z</time></trkpt><trkpt lat="43.347906025383566" lon="5.532012018586946"><ele>589.5714285714286</ele><time>2026-04-02T14:07:04.998Z</time></trkpt><trkpt lat="43.34785151573358" lon="5.532074263595039"><ele>591.1428571428571</ele><time>2026-04-02T14:07:10Z</time></trkpt><trkpt lat="43.34778945977839" lon="5.532146843868298"><ele>592.7142857142858</ele><time>2026-04-02T14:07:15Z</time></trkpt><trkpt lat="43.34773972095553" lon="5.532208632308534"><ele>594.2857142857142</ele><time>2026-04-02T14:07:20Z</time></trkpt><trkpt lat="43.34767963974839" lon="5.532275082343974"><ele>595.8571428571429</ele><time>2026-04-02T14:07:43Z</time></trkpt><trkpt lat="43.34762616775119" lon="5.532334812957819"><ele>597.4285714285714</ele><time>2026-04-02T14:07:47Z</time></trkpt><trkpt lat="43.347557884257206" lon="5.532376584961519"><ele>599.0</ele><time>2026-04-02T14:07:51Z</time></trkpt><trkpt lat="43.347505201913656" lon="5.532429143857177"><ele>599.0</ele><time>2026-04-02T14:07:55Z</time></trkpt><trkpt lat="43.34744348920608" lon="5.532465945840181"><ele>599.0</ele><time>2026-04-02T14:08:00Z</time></trkpt><trkpt lat="43.347369403326105" lon="5.532498165055302"><ele>599.0</ele><time>2026-04-02T14:08:04.999Z</time></trkpt><trkpt lat="43.34730764552505" lon="5.532542195002644"><ele>599.0</ele><time>2026-04-02T14:08:09.999Z</time></trkpt><trkpt lat="43.3472410270703" lon="5.532585390209472"><ele>599.0</ele><time>2026-04-02T14:08:15.999Z</time></trkpt><trkpt lat="43.34718312452726" lon="5.5326206271116485"><ele>599.0</ele><time>2026-04-02T14:08:20.999Z</time></trkpt><trkpt lat="43.34711925255927" lon="5.532663303358928"><ele>599.0</ele><time>2026-04-02T14:08:25.999Z</time></trkpt><trkpt lat="43.347056060768466" lon="5.532701675096141"><ele>602.4285714285714</ele><time>2026-04-02T14:08:30.999Z</time></trkpt><trkpt lat="43.346987654031594" lon="5.532737102600578"><ele>605.8571428571429</ele><time>2026-04-02T14:08:36.999Z</time></trkpt><trkpt lat="43.346929318876384" lon="5.53277032239884"><ele>609.2857142857142</ele><time>2026-04-02T14:08:42.999Z</time></trkpt><trkpt lat="43.34685524353408" lon="5.532797069447341"><ele>612.7142857142858</ele><time>2026-04-02T14:08:48.999Z</time></trkpt><trkpt lat="43.34679603342083" lon="5.532832046711885"><ele>616.1428571428571</ele><time>2026-04-02T14:08:54.999Z</time></trkpt><trkpt lat="43.34672892718053" lon="5.532847188763784"><ele>619.5714285714286</ele><time>2026-04-02T14:09:00.999Z</time></trkpt><trkpt lat="43.34665343695575" lon="5.532853918539545"><ele>623.0</ele><time>2026-04-02T14:09:06.998Z</time></trkpt><trkpt lat="43.34659027388399" lon="5.532867177285029"><ele>623.0</ele><time>2026-04-02T14:09:11.998Z</time></trkpt><trkpt lat="43.34651264289839" lon="5.532881872375746"><ele>623.0</ele><time>2026-04-02T14:09:18Z</time></trkpt><trkpt lat="43.34644733777114" lon="5.532889451933296"><ele>623.0</ele><time>2026-04-02T14:09:24Z</time></trkpt><trkpt lat="43.34638638526247" lon="5.532926349638683"><ele>623.0</ele><time>2026-04-02T14:09:29Z</time></trkpt><trkpt lat="43.34634018043912" lon="5.532993429534586"><ele>623.0</ele><time>2026-04-02T14:09:35Z</time></trkpt><trkpt lat="43.34633975505549" lon="5.5330983068385375"><ele>623.0</ele><time>2026-04-02T14:09:41Z</time></trkpt><trkpt lat="43.346350248558956" lon="5.533190793084671"><ele>623.0</ele><time>2026-04-02T14:09:46Z</time></trkpt><trkpt lat="43.34635748218885" lon="5.533291519346786"><ele>623.0</ele><time>2026-04-02T14:09:52Z</time></trkpt><trkpt lat="43.34636731111771" lon="5.533391252623422"><ele>623.0</ele><time>2026-04-02T14:09:57.999Z</time></trkpt><trkpt lat="43.34636046174295" lon="5.533490667237478"><ele>623.0</ele><time>2026-04-02T14:10:03.999Z</time></trkpt><trkpt lat="43.34631315235255" lon="5.533551656380661"><ele>623.0</ele><time>2026-04-02T14:10:08.999Z</time></trkpt><trkpt lat="43.34625013527208" lon="5.533570653264114"><ele>623.0</ele><time>2026-04-02T14:10:14.999Z</time></trkpt><trkpt lat="43.346198540308734" lon="5.533630537799315"><ele>623.0</ele><time>2026-04-02T14:10:20.999Z</time></trkpt><trkpt lat="43.346146782898195" lon="5.533697737217892"><ele>623.0</ele><time>2026-04-02T14:10:25.999Z</time></trkpt><trkpt lat="43.34610809336472" lon="5.533768646458449"><ele>623.0</ele><time>2026-04-02T14:10:29.999Z</time></trkpt><trkpt lat="43.346078644562915" lon="5.533849790619596"><ele>623.0</ele><time>2026-04-02T14:10:34.999Z</time></trkpt><trkpt lat="43.34605670131588" lon="5.533965018200079"><ele>623.0</ele><time>2026-04-02T14:10:39.999Z</time></trkpt><trkpt lat="43.34604107765752" lon="5.5340625858948576"><ele>623.0</ele><time>2026-04-02T14:10:44.999Z</time></trkpt><trkpt lat="43.346046707150265" lon="5.534161839485087"><ele>623.0</ele><time>2026-04-02T14:10:48.999Z</time></trkpt><trkpt lat="43.346056939114476" lon="5.534247838867565"><ele>623.0</ele><time>2026-04-02T14:10:51.999Z</time></trkpt><trkpt lat="43.34607940468593" lon="5.534346603522678"><ele>623.0</ele><time>2026-04-02T14:10:55.999Z</time></trkpt><trkpt lat="43.34610788126436" lon="5.534455850108961"><ele>623.0</ele><time>2026-04-02T14:10:59.998Z</time></trkpt><trkpt lat="43.346129935406516" lon="5.534550988464439"><ele>623.0</ele><time>2026-04-02T14:11:03.998Z</time></trkpt><trkpt lat="43.34615756741082" lon="5.53464417396663"><ele>623.0</ele><time>2026-04-02T14:11:08.998Z</time></trkpt><trkpt lat="43.346191980103065" lon="5.534718026596001"><ele>623.0</ele><time>2026-04-02T14:11:12.998Z</time></trkpt><trkpt lat="43.346187046037294" lon="5.534809934312798"><ele>623.0</ele><time>2026-04-02T14:11:16.998Z</time></trkpt><trkpt lat="43.346187130233766" lon="5.534909153203761"><ele>623.0</ele><time>2026-04-02T14:11:21Z</time></trkpt><trkpt lat="43.34619235748188" lon="5.535000105000603"><ele>623.0</ele><time>2026-04-02T14:11:25Z</time></trkpt><trkpt lat="43.346193516411894" lon="5.5350945974530745"><ele>622.8571428571429</ele><time>2026-04-02T14:11:29Z</time></trkpt><trkpt lat="43.34619631358395" lon="5.535191161877229"><ele>622.7142857142858</ele><time>2026-04-02T14:11:33Z</time></trkpt><trkpt lat="43.34618240760545" lon="5.535294224089061"><ele>622.5714285714286</ele><time>2026-04-02T14:11:37Z</time></trkpt><trkpt lat="43.346179918129934" lon="5.535396991131792"><ele>622.4285714285714</ele><time>2026-04-02T14:11:41Z</time></trkpt><trkpt lat="43.34617624780745" lon="5.535497372952965"><ele>622.2857142857143</ele><time>2026-04-02T14:11:45Z</time></trkpt><trkpt lat="43.34616598464867" lon="5.53559553506239"><ele>622.1428571428571</ele><time>2026-04-02T14:11:50Z</time></trkpt><trkpt lat="43.34615712545002" lon="5.535683405177544"><ele>622.0</ele><time>2026-04-02T14:11:54Z</time></trkpt><trkpt lat="43.3461536545218" lon="5.535794753861321"><ele>622.0</ele><time>2026-04-02T14:11:59Z</time></trkpt><trkpt lat="43.346151221108954" lon="5.535897228558261"><ele>622.0</ele><time>2026-04-02T14:12:03.999Z</time></trkpt><trkpt lat="43.34613960649648" lon="5.535998160578261"><ele>622.0</ele><time>2026-04-02T14:12:08.999Z</time></trkpt><trkpt lat="43.34613636492174" lon="5.536102939731436"><ele>622.0</ele><time>2026-04-02T14:12:13.999Z</time></trkpt><trkpt lat="43.3461357438062" lon="5.536207548092332"><ele>622.0</ele><time>2026-04-02T14:12:18.999Z</time></trkpt><trkpt lat="43.34613299443998" lon="5.536298558143207"><ele>622.0</ele><time>2026-04-02T14:12:22.999Z</time></trkpt><trkpt lat="43.346129872610135" lon="5.536392329596006"><ele>622.0</ele><time>2026-04-02T14:12:26.999Z</time></trkpt><trkpt lat="43.346127060908" lon="5.536486304466298"><ele>622.1666666666667</ele><time>2026-04-02T14:12:30.999Z</time></trkpt><trkpt lat="43.34612466616331" lon="5.5365814733022"><ele>622.3333333333334</ele><time>2026-04-02T14:12:35.999Z</time></trkpt><trkpt lat="43.34612931986611" lon="5.536692309965965"><ele>622.5</ele><time>2026-04-02T14:12:39.999Z</time></trkpt><trkpt lat="43.3461373563635" lon="5.53679279855214"><ele>622.6666666666666</ele><time>2026-04-02T14:12:42.999Z</time></trkpt><trkpt lat="43.34614992050231" lon="5.536896884623925"><ele>622.8333333333333</ele><time>2026-04-02T14:12:46.999Z</time></trkpt><trkpt lat="43.346166564275585" lon="5.537005599469093"><ele>623.0</ele><time>2026-04-02T14:12:50.999Z</time></trkpt><trkpt lat="43.346175751113655" lon="5.5371033456315075"><ele>623.1428571428571</ele><time>2026-04-02T14:12:54.999Z</time></trkpt><trkpt lat="43.34618722129571" lon="5.537203877035112"><ele>623.2857142857142</ele><time>2026-04-02T14:12:58.999Z</time></trkpt><trkpt lat="43.3461955944593" lon="5.5373049336935445"><ele>623.4285714285714</ele><time>2026-04-02T14:13:02.999Z</time></trkpt><trkpt lat="43.34620901467035" lon="5.537413734211453"><ele>623.5714285714286</ele><time>2026-04-02T14:13:06.998Z</time></trkpt><trkpt lat="43.346229356422654" lon="5.537501492656358"><ele>623.7142857142857</ele><time>2026-04-02T14:13:10.998Z</time></trkpt><trkpt lat="43.34623540855821" lon="5.537601989486025"><ele>623.8571428571429</ele><time>2026-04-02T14:13:14.998Z</time></trkpt><trkpt lat="43.346253054429724" lon="5.537685185865081"><ele>624.0</ele><time>2026-04-02T14:13:17.998Z</time></trkpt><trkpt lat="43.34627380114385" lon="5.5377739814177955"><ele>624.0</ele><time>2026-04-02T14:13:20.998Z</time></trkpt><trkpt lat="43.34628618535129" lon="5.537872598325098"><ele>624.0</ele><time>2026-04-02T14:13:24.998Z</time></trkpt><trkpt lat="43.34629311793489" lon="5.537972749366846"><ele>624.0</ele><time>2026-04-02T14:13:29Z</time></trkpt><trkpt lat="43.346293341883666" lon="5.538080406634504"><ele>624.0</ele><time>2026-04-02T14:13:34Z</time></trkpt><trkpt lat="43.34629613779848" lon="5.538177999693017"><ele>624.0</ele><time>2026-04-02T14:13:38Z</time></trkpt><trkpt lat="43.34629042161436" lon="5.538286338429572"><ele>624.0</ele><time>2026-04-02T14:13:42Z</time></trkpt><trkpt lat="43.346280804820196" lon="5.538384186998278"><ele>624.0</ele><time>2026-04-02T14:13:46Z</time></trkpt><trkpt lat="43.346248777455195" lon="5.538477210116704"><ele>624.8571428571429</ele><time>2026-04-02T14:13:50Z</time></trkpt><trkpt lat="43.34621697719321" lon="5.538560708911354"><ele>625.7142857142857</ele><time>2026-04-02T14:13:54Z</time></trkpt><trkpt lat="43.346155426613" lon="5.53862980995586"><ele>626.5714285714286</ele><time>2026-04-02T14:13:58Z</time></trkpt><trkpt lat="43.34609454543718" lon="5.538681718100614"><ele>627.4285714285714</ele><time>2026-04-02T14:14:02Z</time></trkpt><trkpt lat="43.34604601052373" lon="5.538761750421219"><ele>628.2857142857142</ele><time>2026-04-02T14:14:07Z</time></trkpt><trkpt lat="43.34598847340187" lon="5.538815244154677"><ele>629.1428571428571</ele><time>2026-04-02T14:14:11Z</time></trkpt><trkpt lat="43.34591720847042" lon="5.5388684812861015"><ele>630.0</ele><time>2026-04-02T14:14:15.999Z</time></trkpt><trkpt lat="43.34585326778391" lon="5.538909808896824"><ele>630.1428571428571</ele><time>2026-04-02T14:14:19.999Z</time></trkpt><trkpt lat="43.345775365564315" lon="5.538952295556921"><ele>630.2857142857142</ele><time>2026-04-02T14:14:23.999Z</time></trkpt><trkpt lat="43.345696629692654" lon="5.5389800811141985"><ele>630.4285714285714</ele><time>2026-04-02T14:14:27.999Z</time></trkpt><trkpt lat="43.34563045382015" lon="5.5389875620868265"><ele>630.5714285714286</ele><time>2026-04-02T14:14:31.999Z</time></trkpt><trkpt lat="43.34556838543095" lon="5.53901612298682"><ele>630.7142857142857</ele><time>2026-04-02T14:14:34.999Z</time></trkpt><trkpt lat="43.34552817068411" lon="5.539085997569722"><ele>630.8571428571429</ele><time>2026-04-02T14:14:38.999Z</time></trkpt><trkpt lat="43.345514239024894" lon="5.5391774579396404"><ele>631.0</ele><time>2026-04-02T14:14:42.999Z</time></trkpt><trkpt lat="43.34553884149238" lon="5.539276156012453"><ele>633.0</ele><time>2026-04-02T14:14:46.999Z</time></trkpt><trkpt lat="43.34556500799488" lon="5.539360010314247"><ele>635.0</ele><time>2026-04-02T14:14:50.999Z</time></trkpt><trkpt lat="43.345599720107465" lon="5.539436752714968"><ele>637.0</ele><time>2026-04-02T14:14:54.999Z</time></trkpt><trkpt lat="43.3456320284152" lon="5.539531553719942"><ele>639.0</ele><time>2026-04-02T14:14:59.999Z</time></trkpt><trkpt lat="43.34567413849652" lon="5.5396283391041"><ele>641.0</ele><time>2026-04-02T14:15:04.999Z</time></trkpt><trkpt lat="43.3456947717197" lon="5.5397134252652815"><ele>643.0</ele><time>2026-04-02T14:15:08.999Z</time></trkpt><trkpt lat="43.34571906879042" lon="5.5398057983038"><ele>645.0</ele><time>2026-04-02T14:15:13.999Z</time></trkpt><trkpt lat="43.34574647172494" lon="5.539906069993737"><ele>644.7142857142858</ele><time>2026-04-02T14:15:18.998Z</time></trkpt><trkpt lat="43.345771850238876" lon="5.5400005002615345"><ele>644.4285714285713</ele><time>2026-04-02T14:15:23.998Z</time></trkpt><trkpt lat="43.345793639902126" lon="5.540094512938448"><ele>644.1428571428571</ele><time>2026-04-02T14:15:28.998Z</time></trkpt><trkpt lat="43.34580917171055" lon="5.54018593202281"><ele>643.8571428571429</ele><time>2026-04-02T14:15:34Z</time></trkpt><trkpt lat="43.34583258007537" lon="5.540270709547247"><ele>643.5714285714287</ele><time>2026-04-02T14:15:38Z</time></trkpt><trkpt lat="43.345850207813385" lon="5.540373182419336"><ele>643.2857142857142</ele><time>2026-04-02T14:15:43Z</time></trkpt><trkpt lat="43.34588050233978" lon="5.540453617367606"><ele>643.0</ele><time>2026-04-02T14:15:48Z</time></trkpt><trkpt lat="43.34592175922602" lon="5.540541479330326"><ele>643.0</ele><time>2026-04-02T14:15:52Z</time></trkpt><trkpt lat="43.34596776522182" lon="5.540612273123267"><ele>643.0</ele><time>2026-04-02T14:15:56Z</time></trkpt><trkpt lat="43.34602146538689" lon="5.540688275387897"><ele>643.0</ele><time>2026-04-02T14:16:00Z</time></trkpt><trkpt lat="43.346075248526176" lon="5.540755009973274"><ele>643.0</ele><time>2026-04-02T14:16:04Z</time></trkpt><trkpt lat="43.346125525645526" lon="5.540825225979698"><ele>643.0</ele><time>2026-04-02T14:16:09Z</time></trkpt><trkpt lat="43.34616907567697" lon="5.5408901034547045"><ele>643.0</ele><time>2026-04-02T14:16:13Z</time></trkpt><trkpt lat="43.34621232637009" lon="5.540973430180613"><ele>643.0</ele><time>2026-04-02T14:16:18Z</time></trkpt><trkpt lat="43.34625745757242" lon="5.541037726661663"><ele>643.0</ele><time>2026-04-02T14:16:22Z</time></trkpt><trkpt lat="43.34630319985498" lon="5.541125405782887"><ele>643.0</ele><time>2026-04-02T14:16:25.999Z</time></trkpt><trkpt lat="43.34634809527044" lon="5.5412006242887095"><ele>643.0</ele><time>2026-04-02T14:16:29.999Z</time></trkpt><trkpt lat="43.34638840298416" lon="5.541290586412165"><ele>643.0</ele><time>2026-04-02T14:16:34.999Z</time></trkpt><trkpt lat="43.34641792916734" lon="5.541370314464775"><ele>643.0</ele><time>2026-04-02T14:16:38.999Z</time></trkpt><trkpt lat="43.34645273275926" lon="5.541448009898653"><ele>643.0</ele><time>2026-04-02T14:16:42.999Z</time></trkpt><trkpt lat="43.34648495281349" lon="5.54152514350787"><ele>643.0</ele><time>2026-04-02T14:16:46.999Z</time></trkpt><trkpt lat="43.346519483495456" lon="5.541620155382243"><ele>644.5714285714286</ele><time>2026-04-02T14:16:51.999Z</time></trkpt><trkpt lat="43.34655522017411" lon="5.541705378351876"><ele>646.1428571428572</ele><time>2026-04-02T14:16:56.999Z</time></trkpt><trkpt lat="43.34659267266553" lon="5.541793069302099"><ele>647.7142857142858</ele><time>2026-04-02T14:17:01.999Z</time></trkpt><trkpt lat="43.34663177090163" lon="5.541883810255935"><ele>649.2857142857142</ele><time>2026-04-02T14:17:06.999Z</time></trkpt><trkpt lat="43.34666977623666" lon="5.541972600885736"><ele>650.8571428571429</ele><time>2026-04-02T14:17:11.999Z</time></trkpt><trkpt lat="43.34670997425414" lon="5.542055397231969"><ele>652.4285714285714</ele><time>2026-04-02T14:17:16.999Z</time></trkpt><trkpt lat="43.34674130080899" lon="5.542130736293059"><ele>654.0</ele><time>2026-04-02T14:17:20.999Z</time></trkpt><trkpt lat="43.34677372026345" lon="5.542212301334992"><ele>654.5714285714286</ele><time>2026-04-02T14:17:25.999Z</time></trkpt><trkpt lat="43.3468011113442" lon="5.54229096334677"><ele>655.1428571428571</ele><time>2026-04-02T14:17:30.998Z</time></trkpt><trkpt lat="43.34682004561921" lon="5.5423901181223805"><ele>655.7142857142858</ele><time>2026-04-02T14:17:36.998Z</time></trkpt><trkpt lat="43.346842008045876" lon="5.542477128713199"><ele>656.2857142857142</ele><time>2026-04-02T14:17:42Z</time></trkpt><trkpt lat="43.34687370168633" lon="5.542568146364762"><ele>656.8571428571429</ele><time>2026-04-02T14:17:47Z</time></trkpt><trkpt lat="43.34690282273501" lon="5.5426558226167915"><ele>657.4285714285714</ele><time>2026-04-02T14:17:53Z</time></trkpt><trkpt lat="43.34692421422838" lon="5.542748900978513"><ele>658.0</ele><time>2026-04-02T14:17:59Z</time></trkpt><trkpt lat="43.346949000003114" lon="5.542844169752053"><ele>659.2857142857143</ele><time>2026-04-02T14:18:05Z</time></trkpt><trkpt lat="43.34697489861437" lon="5.542939004158703"><ele>660.5714285714286</ele><time>2026-04-02T14:18:11Z</time></trkpt><trkpt lat="43.34699552677025" lon="5.543029147932899"><ele>661.8571428571429</ele><time>2026-04-02T14:18:16Z</time></trkpt><trkpt lat="43.347007052721" lon="5.543118653918365"><ele>663.1428571428571</ele><time>2026-04-02T14:18:22Z</time></trkpt><trkpt lat="43.34700571188615" lon="5.543205863055054"><ele>664.4285714285714</ele><time>2026-04-02T14:18:27Z</time></trkpt><trkpt lat="43.34694903503045" lon="5.543245145936623"><ele>665.7142857142858</ele><time>2026-04-02T14:18:31.999Z</time></trkpt><trkpt lat="43.346891946880625" lon="5.543290323216008"><ele>667.0</ele><time>2026-04-02T14:18:36.999Z</time></trkpt><trkpt lat="43.346829115621254" lon="5.543331392617795"><ele>667.0000000000001</ele><time>2026-04-02T14:18:41.999Z</time></trkpt><trkpt lat="43.34676788570491" lon="5.543371648835512"><ele>667.0</ele><time>2026-04-02T14:18:46.999Z</time></trkpt><trkpt lat="43.34670439959712" lon="5.543439986922968"><ele>667.0</ele><time>2026-04-02T14:18:51.999Z</time></trkpt><trkpt lat="43.3466469652498" lon="5.543519975544361"><ele>667.0</ele><time>2026-04-02T14:18:56.999Z</time></trkpt><trkpt lat="43.34660312536601" lon="5.543597887869063"><ele>667.0</ele><time>2026-04-02T14:19:00.999Z</time></trkpt><trkpt lat="43.3465727135411" lon="5.543677648128978"><ele>667.0000000000001</ele><time>2026-04-02T14:19:04.999Z</time></trkpt><trkpt lat="43.34654475516275" lon="5.543768408557356"><ele>667.0</ele><time>2026-04-02T14:19:09.999Z</time></trkpt><trkpt lat="43.34651638666275" lon="5.543864894216723"><ele>666.2857142857143</ele><time>2026-04-02T14:19:13.999Z</time></trkpt><trkpt lat="43.34649159524711" lon="5.543950957377263"><ele>665.5714285714286</ele><time>2026-04-02T14:19:18.999Z</time></trkpt><trkpt lat="43.34647531672727" lon="5.544053795659769"><ele>664.8571428571429</ele><time>2026-04-02T14:19:23.999Z</time></trkpt><trkpt lat="43.346454239863405" lon="5.544150687418598"><ele>664.1428571428571</ele><time>2026-04-02T14:19:28.999Z</time></trkpt><trkpt lat="43.34642145167295" lon="5.544243582184333"><ele>663.4285714285714</ele><time>2026-04-02T14:19:33.998Z</time></trkpt><trkpt lat="43.346403587083095" lon="5.544340021497411"><ele>662.7142857142858</ele><time>2026-04-02T14:19:38.998Z</time></trkpt><trkpt lat="43.346380725871" lon="5.544430128592681"><ele>662.0</ele><time>2026-04-02T14:19:42.998Z</time></trkpt><trkpt lat="43.34636459597401" lon="5.544521529211631"><ele>663.8571428571429</ele><time>2026-04-02T14:19:47Z</time></trkpt><trkpt lat="43.346340905313234" lon="5.544617398678097"><ele>665.7142857142857</ele><time>2026-04-02T14:19:52Z</time></trkpt><trkpt lat="43.34630650369365" lon="5.5446996025906365"><ele>667.5714285714286</ele><time>2026-04-02T14:19:57Z</time></trkpt><trkpt lat="43.34626418279974" lon="5.544773758543665"><ele>669.4285714285714</ele><time>2026-04-02T14:20:03Z</time></trkpt><trkpt lat="43.346242966023155" lon="5.544861293981929"><ele>671.2857142857143</ele><time>2026-04-02T14:20:08Z</time></trkpt><trkpt lat="43.34619772992662" lon="5.5449257539042645"><ele>673.1428571428571</ele><time>2026-04-02T14:20:13Z</time></trkpt><trkpt lat="43.34615550375001" lon="5.545003928940073"><ele>675.0</ele><time>2026-04-02T14:20:17Z</time></trkpt><trkpt lat="43.3461057018813" lon="5.5450783042235114"><ele>675.0</ele><time>2026-04-02T14:20:22Z</time></trkpt><trkpt lat="43.34606462926878" lon="5.545149038991325"><ele>675.0</ele><time>2026-04-02T14:20:26Z</time></trkpt><trkpt lat="43.34600726031282" lon="5.545229870982811"><ele>675.0</ele><time>2026-04-02T14:20:31Z</time></trkpt><trkpt lat="43.34595580002785" lon="5.545305821650033"><ele>675.0</ele><time>2026-04-02T14:20:35.999Z</time></trkpt><trkpt lat="43.34589494082709" lon="5.545371706329909"><ele>675.0</ele><time>2026-04-02T14:20:40.999Z</time></trkpt><trkpt lat="43.345827018826434" lon="5.545440560694646"><ele>675.0</ele><time>2026-04-02T14:20:45.999Z</time></trkpt><trkpt lat="43.34577790013095" lon="5.5455093241364395"><ele>676.5714285714286</ele><time>2026-04-02T14:20:49.999Z</time></trkpt><trkpt lat="43.34572096054609" lon="5.545560323585941"><ele>678.1428571428571</ele><time>2026-04-02T14:20:53.999Z</time></trkpt><trkpt lat="43.34566053922147" lon="5.545604335412506"><ele>679.7142857142858</ele><time>2026-04-02T14:20:58.999Z</time></trkpt><trkpt lat="43.345618840686264" lon="5.545677713479652"><ele>681.2857142857142</ele><time>2026-04-02T14:21:02.999Z</time></trkpt><trkpt lat="43.34558270788685" lon="5.545765163705716"><ele>682.8571428571429</ele><time>2026-04-02T14:21:07.999Z</time></trkpt><trkpt lat="43.34555687503" lon="5.545866258250955"><ele>684.4285714285714</ele><time>2026-04-02T14:21:11.999Z</time></trkpt><trkpt lat="43.34556465613496" lon="5.545971846175092"><ele>686.0</ele><time>2026-04-02T14:21:16.999Z</time></trkpt><trkpt lat="43.34552643205145" lon="5.546053001167027"><ele>685.1666666666666</ele><time>2026-04-02T14:21:21.999Z</time></trkpt><trkpt lat="43.34552050672037" lon="5.5461486377732205"><ele>684.3333333333333</ele><time>2026-04-02T14:22:01Z</time></trkpt><trkpt lat="43.34556602667618" lon="5.546235600395413"><ele>683.5</ele><time>2026-04-02T14:22:03Z</time></trkpt><trkpt lat="43.34565223876932" lon="5.546325471819357"><ele>682.6666666666666</ele><time>2026-04-02T14:22:05Z</time></trkpt><trkpt lat="43.345707765787296" lon="5.546428035153456"><ele>681.8333333333334</ele><time>2026-04-02T14:22:46.999Z</time></trkpt><trkpt lat="43.34577433149934" lon="5.546524692842507"><ele>681.0</ele><time>2026-04-02T14:22:48.999Z</time></trkpt><trkpt lat="43.345844528691394" lon="5.546645548083367"><ele>681.0</ele><time>2026-04-02T14:22:50.999Z</time></trkpt><trkpt lat="43.34593317034627" lon="5.546764383020143"><ele>681.0</ele><time>2026-04-02T14:22:52.999Z</time></trkpt><trkpt lat="43.34598993993998" lon="5.546828000158124"><ele>681.0</ele><time>2026-04-02T14:22:53.999Z</time></trkpt><trkpt lat="43.34605600552995" lon="5.54689659909701"><ele>681.0</ele><time>2026-04-02T14:22:54.999Z</time></trkpt><trkpt lat="43.346112000883274" lon="5.546960953509996"><ele>681.0</ele><time>2026-04-02T14:22:55.999Z</time></trkpt><trkpt lat="43.34617675100247" lon="5.5470333620571735"><ele>681.0</ele><time>2026-04-02T14:22:56.999Z</time></trkpt><trkpt lat="43.34623827531416" lon="5.547115688097401"><ele>679.8</ele><time>2026-04-02T14:22:57.999Z</time></trkpt><trkpt lat="43.346295766703285" lon="5.547211354519222"><ele>678.5999999999999</ele><time>2026-04-02T14:22:58.999Z</time></trkpt><trkpt lat="43.34635202713354" lon="5.547317845464054"><ele>677.4</ele><time>2026-04-02T14:22:59.999Z</time></trkpt><trkpt lat="43.34640542850064" lon="5.547415562298848"><ele>676.2</ele><time>2026-04-02T14:23:00.999Z</time></trkpt><trkpt lat="43.34644133605085" lon="5.5475403822337155"><ele>675.0</ele><time>2026-04-02T14:23:01.999Z</time></trkpt><trkpt lat="43.346493100910266" lon="5.547653116398302"><ele>675.0</ele><time>2026-04-02T14:23:02.999Z</time></trkpt><trkpt lat="43.346554534518226" lon="5.547740208876432"><ele>675.0</ele><time>2026-04-02T14:23:03.999Z</time></trkpt><trkpt lat="43.34661215050762" lon="5.547831790385256"><ele>675.0</ele><time>2026-04-02T14:23:04.999Z</time></trkpt><trkpt lat="43.34667480127025" lon="5.547901959774259"><ele>675.0</ele><time>2026-04-02T14:23:05.999Z</time></trkpt><trkpt lat="43.34674491030158" lon="5.54796135905313"><ele>675.0</ele><time>2026-04-02T14:23:06.999Z</time></trkpt><trkpt lat="43.34681357473955" lon="5.5480062743634795"><ele>675.0</ele><time>2026-04-02T14:23:07.999Z</time></trkpt><trkpt lat="43.34687616160316" lon="5.548066437291293"><ele>674.2857142857142</ele><time>2026-04-02T14:23:08.999Z</time></trkpt><trkpt lat="43.346935310852345" lon="5.548114123544992"><ele>673.5714285714286</ele><time>2026-04-02T14:23:09.999Z</time></trkpt><trkpt lat="43.34700172655101" lon="5.5481511699908115"><ele>672.8571428571429</ele><time>2026-04-02T14:23:10.999Z</time></trkpt><trkpt lat="43.347066469819836" lon="5.548198137026221"><ele>672.1428571428571</ele><time>2026-04-02T14:23:11.999Z</time></trkpt><trkpt lat="43.34712799442656" lon="5.548254501334118"><ele>671.4285714285714</ele><time>2026-04-02T14:23:12.999Z</time></trkpt><trkpt lat="43.34718845767008" lon="5.548321718895682"><ele>670.7142857142857</ele><time>2026-04-02T14:23:13.999Z</time></trkpt><trkpt lat="43.347249986125966" lon="5.548386598604476"><ele>670.0</ele><time>2026-04-02T14:23:14.999Z</time></trkpt><trkpt lat="43.34731776821134" lon="5.548432883298651"><ele>669.8</ele><time>2026-04-02T14:23:15.999Z</time></trkpt><trkpt lat="43.347436635844005" lon="5.548466765910131"><ele>669.6</ele><time>2026-04-02T14:23:17.999Z</time></trkpt><trkpt lat="43.347499730987124" lon="5.548463196093952"><ele>669.4000000000001</ele><time>2026-04-02T14:23:18.999Z</time></trkpt><trkpt lat="43.347599969532936" lon="5.548415946397075"><ele>669.2</ele><time>2026-04-02T14:23:20.999Z</time></trkpt><trkpt lat="43.347678788157815" lon="5.5483280164341995"><ele>669.0</ele><time>2026-04-02T14:23:22.999Z</time></trkpt><trkpt lat="43.34775879686726" lon="5.548189870590995"><ele>669.0</ele><time>2026-04-02T14:23:24.999Z</time></trkpt><trkpt lat="43.34782243665272" lon="5.548050039845053"><ele>669.0</ele><time>2026-04-02T14:23:26.999Z</time></trkpt><trkpt lat="43.34789311553443" lon="5.547911101698184"><ele>669.0</ele><time>2026-04-02T14:23:28.999Z</time></trkpt><trkpt lat="43.34792974989027" lon="5.547833563109634"><ele>669.0</ele><time>2026-04-02T14:23:29.998Z</time></trkpt><trkpt lat="43.347967256365656" lon="5.547758721936205"><ele>669.0</ele><time>2026-04-02T14:23:30.998Z</time></trkpt><trkpt lat="43.34800737915711" lon="5.547690534839536"><ele>669.0</ele><time>2026-04-02T14:23:31.998Z</time></trkpt><trkpt lat="43.34806445276423" lon="5.547542037090642"><ele>668.0</ele><time>2026-04-02T14:23:33.998Z</time></trkpt><trkpt lat="43.34812238335787" lon="5.547395109873888"><ele>667.0</ele><time>2026-04-02T14:23:35.998Z</time></trkpt><trkpt lat="43.34815375451995" lon="5.54731591792757"><ele>666.0</ele><time>2026-04-02T14:23:36.998Z</time></trkpt><trkpt lat="43.34819651853051" lon="5.547251132139632"><ele>665.0</ele><time>2026-04-02T14:23:37.998Z</time></trkpt><trkpt lat="43.348218388286504" lon="5.547157654107493"><ele>664.0</ele><time>2026-04-02T14:23:38.998Z</time></trkpt><trkpt lat="43.34826129951487" lon="5.547083456749245"><ele>663.0</ele><time>2026-04-02T14:23:39.998Z</time></trkpt><trkpt lat="43.348329556442714" lon="5.54694483938123"><ele>662.5999999999999</ele><time>2026-04-02T14:23:41.998Z</time></trkpt><trkpt lat="43.34837041423489" lon="5.546870833198826"><ele>662.1999999999999</ele><time>2026-04-02T14:23:42.998Z</time></trkpt><trkpt lat="43.34846127736251" lon="5.546772169059439"><ele>661.8</ele><time>2026-04-02T14:23:44.998Z</time></trkpt><trkpt lat="43.34857753768658" lon="5.546758380886255"><ele>661.4</ele><time>2026-04-02T14:23:46.998Z</time></trkpt><trkpt lat="43.348668916700426" lon="5.5467732282636755"><ele>661.0</ele><time>2026-04-02T14:23:48.998Z</time></trkpt><trkpt lat="43.34873244741756" lon="5.546792615895317"><ele>661.0</ele><time>2026-04-02T14:23:50.998Z</time></trkpt><trkpt lat="43.348822312473395" lon="5.546803202941171"><ele>661.0</ele><time>2026-04-02T14:23:52.998Z</time></trkpt><trkpt lat="43.34889742204884" lon="5.546810170841807"><ele>661.0</ele><time>2026-04-02T14:23:54.998Z</time></trkpt><trkpt lat="43.34897370697109" lon="5.5468112003329555"><ele>661.0</ele><time>2026-04-02T14:23:56.999Z</time></trkpt><trkpt lat="43.34904289616249" lon="5.546831867820312"><ele>661.0</ele><time>2026-04-02T14:23:58.999Z</time></trkpt><trkpt lat="43.34910832406597" lon="5.546827813714289"><ele>661.0</ele><time>2026-04-02T14:24:00.999Z</time></trkpt><trkpt lat="43.34917260745716" lon="5.54681161126168"><ele>661.0</ele><time>2026-04-02T14:24:02.999Z</time></trkpt><trkpt lat="43.349245844180466" lon="5.546761775775742"><ele>660.8333333333334</ele><time>2026-04-02T14:24:06Z</time></trkpt><trkpt lat="43.34932541227788" lon="5.546724494230878"><ele>660.6666666666667</ele><time>2026-04-02T14:24:09Z</time></trkpt><trkpt lat="43.34939126761023" lon="5.546661799405974"><ele>660.5</ele><time>2026-04-02T14:24:13Z</time></trkpt><trkpt lat="43.349480356796924" lon="5.546641977841073"><ele>660.3333333333334</ele><time>2026-04-02T14:24:16Z</time></trkpt><trkpt lat="43.34954765439245" lon="5.546581296030612"><ele>660.1666666666666</ele><time>2026-04-02T14:24:19Z</time></trkpt><trkpt lat="43.349607088123605" lon="5.546537430072742"><ele>660.0</ele><time>2026-04-02T14:24:22Z</time></trkpt><trkpt lat="43.349662705670525" lon="5.5464886843891525"><ele>660.1666666666666</ele><time>2026-04-02T14:24:24Z</time></trkpt><trkpt lat="43.34972209647646" lon="5.546448680895286"><ele>660.3333333333334</ele><time>2026-04-02T14:24:27Z</time></trkpt><trkpt lat="43.3497792425486" lon="5.54638041385917"><ele>660.5</ele><time>2026-04-02T14:26:29Z</time></trkpt><trkpt lat="43.349834527486216" lon="5.546327137371006"><ele>660.6666666666667</ele><time>2026-04-02T14:26:31Z</time></trkpt><trkpt lat="43.34989394017524" lon="5.546228569697968"><ele>660.8333333333334</ele><time>2026-04-02T14:26:33Z</time></trkpt><trkpt lat="43.34995846698397" lon="5.546114232569935"><ele>661.0</ele><time>2026-04-02T14:26:35Z</time></trkpt><trkpt lat="43.35000634141793" lon="5.545971944335826"><ele>661.0</ele><time>2026-04-02T14:26:37Z</time></trkpt><trkpt lat="43.35004182570383" lon="5.545835359136523"><ele>661.0</ele><time>2026-04-02T14:26:39Z</time></trkpt><trkpt lat="43.35007446677363" lon="5.54575367138168"><ele>661.0</ele><time>2026-04-02T14:26:40Z</time></trkpt><trkpt lat="43.35014780723517" lon="5.54573215675362"><ele>661.0</ele><time>2026-04-02T14:26:41Z</time></trkpt><trkpt lat="43.35022344262841" lon="5.5457783373966905"><ele>661.0</ele><time>2026-04-02T14:26:41.999Z</time></trkpt><trkpt lat="43.350266170751176" lon="5.545867419580151"><ele>661.0</ele><time>2026-04-02T14:26:42.999Z</time></trkpt><trkpt lat="43.350376111760056" lon="5.545944071684828"><ele>661.0</ele><time>2026-04-02T14:26:44.999Z</time></trkpt><trkpt lat="43.35047359249019" lon="5.546018528863604"><ele>661.0</ele><time>2026-04-02T14:26:46.999Z</time></trkpt><trkpt lat="43.350582528196995" lon="5.5460667734183104"><ele>661.0</ele><time>2026-04-02T14:26:48.999Z</time></trkpt><trkpt lat="43.350682655887454" lon="5.546076704333386"><ele>661.0</ele><time>2026-04-02T14:26:50.999Z</time></trkpt><trkpt lat="43.35078240210852" lon="5.546081877501891"><ele>661.0</ele><time>2026-04-02T14:26:52.999Z</time></trkpt><trkpt lat="43.35087684309837" lon="5.546068057194997"><ele>659.8</ele><time>2026-04-02T14:26:54.999Z</time></trkpt><trkpt lat="43.35096232952525" lon="5.546033305106736"><ele>658.5999999999999</ele><time>2026-04-02T14:26:56.999Z</time></trkpt><trkpt lat="43.35105427435237" lon="5.545980985543141"><ele>657.4</ele><time>2026-04-02T14:26:58.999Z</time></trkpt><trkpt lat="43.35112550204226" lon="5.545914100127559"><ele>656.2</ele><time>2026-04-02T14:27:00.999Z</time></trkpt><trkpt lat="43.35121136617519" lon="5.545861433872342"><ele>655.0</ele><time>2026-04-02T14:27:02.999Z</time></trkpt><trkpt lat="43.351294733065245" lon="5.545805963860672"><ele>654.4</ele><time>2026-04-02T14:27:04.999Z</time></trkpt><trkpt lat="43.35138697248013" lon="5.545742357620222"><ele>653.8</ele><time>2026-04-02T14:27:06.999Z</time></trkpt><trkpt lat="43.35148162430683" lon="5.545676771426989"><ele>653.2</ele><time>2026-04-02T14:27:08.999Z</time></trkpt><trkpt lat="43.35158355055027" lon="5.545601913781333"><ele>652.6</ele><time>2026-04-02T14:27:10.999Z</time></trkpt><trkpt lat="43.35168941417772" lon="5.545528543782591"><ele>652.0</ele><time>2026-04-02T14:27:12.999Z</time></trkpt><trkpt lat="43.35180686565869" lon="5.545468651995383"><ele>652.0</ele><time>2026-04-02T14:27:14.999Z</time></trkpt><trkpt lat="43.35192954649438" lon="5.545445544116773"><ele>652.0</ele><time>2026-04-02T14:27:16.999Z</time></trkpt><trkpt lat="43.35199271184781" lon="5.545476620235394"><ele>652.0</ele><time>2026-04-02T14:27:17.999Z</time></trkpt><trkpt lat="43.35204483274989" lon="5.545546690913416"><ele>652.0</ele><time>2026-04-02T14:27:18.999Z</time></trkpt><trkpt lat="43.352081845745" lon="5.545633172649582"><ele>652.0</ele><time>2026-04-02T14:27:19.999Z</time></trkpt><trkpt lat="43.352123327415946" lon="5.545811603160032"><ele>652.0</ele><time>2026-04-02T14:27:21.999Z</time></trkpt><trkpt lat="43.352168196145065" lon="5.545885773191975"><ele>652.0</ele><time>2026-04-02T14:27:22.999Z</time></trkpt><trkpt lat="43.352187518922044" lon="5.5459767710850905"><ele>652.0</ele><time>2026-04-02T14:27:23.999Z</time></trkpt><trkpt lat="43.352233919641456" lon="5.546050279909682"><ele>652.0</ele><time>2026-04-02T14:27:24.999Z</time></trkpt><trkpt lat="43.35226268785486" lon="5.546134522486206"><ele>652.0</ele><time>2026-04-02T14:27:25.999Z</time></trkpt><trkpt lat="43.35229724476575" lon="5.546213549525218"><ele>652.0</ele><time>2026-04-02T14:27:26.999Z</time></trkpt><trkpt lat="43.35235685903122" lon="5.546362646536908"><ele>650.8333333333334</ele><time>2026-04-02T14:27:28.999Z</time></trkpt><trkpt lat="43.35241195279073" lon="5.546496161584124"><ele>649.6666666666667</ele><time>2026-04-02T14:27:30.999Z</time></trkpt><trkpt lat="43.35246245012902" lon="5.546615413364058"><ele>648.5</ele><time>2026-04-02T14:27:32.999Z</time></trkpt><trkpt lat="43.35250499161934" lon="5.5467106731129245"><ele>647.3333333333334</ele><time>2026-04-02T14:27:34.999Z</time></trkpt><trkpt lat="43.35254403874408" lon="5.546796964086867"><ele>646.1666666666666</ele><time>2026-04-02T14:27:36.999Z</time></trkpt><trkpt lat="43.352580717690756" lon="5.546879232764026"><ele>645.0</ele><time>2026-04-02T14:27:38.999Z</time></trkpt><trkpt lat="43.35261501590674" lon="5.54695352700209"><ele>645.0</ele><time>2026-04-02T14:27:40.999Z</time></trkpt><trkpt lat="43.35264984006725" lon="5.547030464470397"><ele>645.0</ele><time>2026-04-02T14:27:42.999Z</time></trkpt><trkpt lat="43.352684305922224" lon="5.547104359844279"><ele>645.0</ele><time>2026-04-02T14:27:44.999Z</time></trkpt><trkpt lat="43.35272122407008" lon="5.5471872073113"><ele>645.0</ele><time>2026-04-02T14:27:46.999Z</time></trkpt><trkpt lat="43.352772120615654" lon="5.5473021417899275"><ele>645.0</ele><time>2026-04-02T14:27:49.999Z</time></trkpt><trkpt lat="43.352808209057265" lon="5.547396304910958"><ele>645.0</ele><time>2026-04-02T14:27:51.999Z</time></trkpt><trkpt lat="43.35282808952606" lon="5.547484513434103"><ele>645.0</ele><time>2026-04-02T14:27:53.999Z</time></trkpt><trkpt lat="43.352864677499056" lon="5.54756653355877"><ele>645.0</ele><time>2026-04-02T14:27:55.998Z</time></trkpt><trkpt lat="43.35288048058102" lon="5.547692631263096"><ele>645.0</ele><time>2026-04-02T14:27:58.998Z</time></trkpt><trkpt lat="43.35291660787436" lon="5.547825327420365"><ele>645.0</ele><time>2026-04-02T14:28:01.998Z</time></trkpt><trkpt lat="43.35295893954686" lon="5.547950114957276"><ele>645.0</ele><time>2026-04-02T14:28:03.998Z</time></trkpt><trkpt lat="43.35301392985381" lon="5.548104008220383"><ele>645.0</ele><time>2026-04-02T14:28:05.998Z</time></trkpt><trkpt lat="43.35304275038528" lon="5.548189237471438"><ele>644.1666666666666</ele><time>2026-04-02T14:28:06.998Z</time></trkpt><trkpt lat="43.35307338476132" lon="5.548279922909354"><ele>643.3333333333334</ele><time>2026-04-02T14:28:07.998Z</time></trkpt><trkpt lat="43.35310443346744" lon="5.548371834872142"><ele>642.5</ele><time>2026-04-02T14:28:09Z</time></trkpt><trkpt lat="43.35313181968352" lon="5.548473101456142"><ele>641.6666666666667</ele><time>2026-04-02T14:28:10Z</time></trkpt><trkpt lat="43.35314685846247" lon="5.5485864678106696"><ele>640.8333333333334</ele><time>2026-04-02T14:28:11Z</time></trkpt><trkpt lat="43.353154717400855" lon="5.548719101028637"><ele>640.0</ele><time>2026-04-02T14:28:12Z</time></trkpt><trkpt lat="43.35316105126094" lon="5.548853749947875"><ele>640.0</ele><time>2026-04-02T14:28:13Z</time></trkpt><trkpt lat="43.35318244497748" lon="5.548985814764482"><ele>640.0</ele><time>2026-04-02T14:28:14Z</time></trkpt><trkpt lat="43.35317003230417" lon="5.549123883451696"><ele>640.0</ele><time>2026-04-02T14:28:15Z</time></trkpt><trkpt lat="43.353188891735165" lon="5.549259343639769"><ele>640.0</ele><time>2026-04-02T14:28:16Z</time></trkpt><trkpt lat="43.35318270332607" lon="5.549399964644242"><ele>640.0</ele><time>2026-04-02T14:28:17Z</time></trkpt><trkpt lat="43.35321114098506" lon="5.549541065331877"><ele>639.3333333333334</ele><time>2026-04-02T14:28:18Z</time></trkpt><trkpt lat="43.353241708641086" lon="5.549673922903694"><ele>638.6666666666667</ele><time>2026-04-02T14:28:19Z</time></trkpt><trkpt lat="43.35326711323356" lon="5.549781080115089"><ele>638.0</ele><time>2026-04-02T14:28:20Z</time></trkpt><trkpt lat="43.35327090237869" lon="5.549871957217249"><ele>637.3333333333334</ele><time>2026-04-02T14:28:21Z</time></trkpt><trkpt lat="43.353288357477126" lon="5.549959009340539"><ele>636.6666666666666</ele><time>2026-04-02T14:28:23Z</time></trkpt><trkpt lat="43.35337583581553" lon="5.5499538131053665"><ele>636.0</ele><time>2026-04-02T14:28:24Z</time></trkpt><trkpt lat="43.35345144050238" lon="5.550021888002566"><ele>636.0</ele><time>2026-04-02T14:28:27Z</time></trkpt><trkpt lat="43.353506722212686" lon="5.550069568088457"><ele>636.0</ele><time>2026-04-02T14:28:29Z</time></trkpt><trkpt lat="43.35356432027552" lon="5.550119666047768"><ele>636.0</ele><time>2026-04-02T14:28:31Z</time></trkpt><trkpt lat="43.353635759830844" lon="5.550050241666769"><ele>636.0</ele><time>2026-04-02T14:28:32Z</time></trkpt><trkpt lat="43.3537106951976" lon="5.5499715179078635"><ele>636.0</ele><time>2026-04-02T14:28:35Z</time></trkpt><trkpt lat="43.353749225013026" lon="5.549894618448254"><ele>636.0</ele><time>2026-04-02T14:28:37Z</time></trkpt><trkpt lat="43.353817068928855" lon="5.549804404672089"><ele>636.0</ele><time>2026-04-02T14:28:40Z</time></trkpt><trkpt lat="43.35386949452077" lon="5.549699493608085"><ele>636.0</ele><time>2026-04-02T14:28:43Z</time></trkpt><trkpt lat="43.35390631304647" lon="5.549582247536341"><ele>636.0</ele><time>2026-04-02T14:28:46Z</time></trkpt><trkpt lat="43.35393523673113" lon="5.549502001115013"><ele>636.0</ele><time>2026-04-02T14:28:48Z</time></trkpt><trkpt lat="43.35396605203212" lon="5.549420042834969"><ele>636.0</ele><time>2026-04-02T14:28:50Z</time></trkpt><trkpt lat="43.353993654418446" lon="5.549328773942933"><ele>636.0</ele><time>2026-04-02T14:28:52Z</time></trkpt><trkpt lat="43.35402202286662" lon="5.549224476772733"><ele>635.4</ele><time>2026-04-02T14:28:54Z</time></trkpt><trkpt lat="43.354055681493634" lon="5.5490906000461235"><ele>634.8</ele><time>2026-04-02T14:28:55.999Z</time></trkpt><trkpt lat="43.35408900421386" lon="5.5489268946604"><ele>634.1999999999999</ele><time>2026-04-02T14:28:57.999Z</time></trkpt><trkpt lat="43.35408836857032" lon="5.5488285301739415"><ele>633.6</ele><time>2026-04-02T14:28:58.999Z</time></trkpt><trkpt lat="43.35407604905216" lon="5.548735738567468"><ele>633.0</ele><time>2026-04-02T14:28:59.999Z</time></trkpt><trkpt lat="43.354017981822196" lon="5.548644874150231"><ele>632.0</ele><time>2026-04-02T14:29:00.999Z</time></trkpt><trkpt lat="43.353985589841265" lon="5.548541955196133"><ele>631.0</ele><time>2026-04-02T14:29:01.999Z</time></trkpt><trkpt lat="43.35393782547628" lon="5.548452085681677"><ele>630.0</ele><time>2026-04-02T14:29:02.999Z</time></trkpt><trkpt lat="43.35389560801186" lon="5.548338518080064"><ele>629.0</ele><time>2026-04-02T14:29:03.999Z</time></trkpt><trkpt lat="43.35384772900742" lon="5.548233994974669"><ele>628.0</ele><time>2026-04-02T14:29:04.999Z</time></trkpt><trkpt lat="43.353804740583534" lon="5.548135668072298"><ele>627.0</ele><time>2026-04-02T14:29:05.999Z</time></trkpt><trkpt lat="43.35375815511044" lon="5.548028940012852"><ele>628.3333333333334</ele><time>2026-04-02T14:29:06.999Z</time></trkpt><trkpt lat="43.35371451802705" lon="5.547923049845479"><ele>629.6666666666666</ele><time>2026-04-02T14:29:07.999Z</time></trkpt><trkpt lat="43.35367093843682" lon="5.547813466222299"><ele>631.0</ele><time>2026-04-02T14:29:08.999Z</time></trkpt><trkpt lat="43.35362862302635" lon="5.547707061455482"><ele>632.3333333333333</ele><time>2026-04-02T14:29:09.999Z</time></trkpt><trkpt lat="43.353584681301534" lon="5.547596567209725"><ele>633.6666666666666</ele><time>2026-04-02T14:29:10.999Z</time></trkpt><trkpt lat="43.35354523712638" lon="5.547497535731785"><ele>635.0</ele><time>2026-04-02T14:29:11.999Z</time></trkpt><trkpt lat="43.35350162034903" lon="5.547388078840193"><ele>635.0</ele><time>2026-04-02T14:29:12.999Z</time></trkpt><trkpt lat="43.35344416630921" lon="5.547289676168661"><ele>635.0</ele><time>2026-04-02T14:29:13.999Z</time></trkpt><trkpt lat="43.35341426275691" lon="5.547173853927819"><ele>635.0</ele><time>2026-04-02T14:29:14.999Z</time></trkpt><trkpt lat="43.35337004607756" lon="5.5470662062856695"><ele>635.0</ele><time>2026-04-02T14:29:15.999Z</time></trkpt><trkpt lat="43.353323360424106" lon="5.546950616127566"><ele>635.0</ele><time>2026-04-02T14:29:16.999Z</time></trkpt><trkpt lat="43.35327930162802" lon="5.546827405564478"><ele>634.6</ele><time>2026-04-02T14:29:17.999Z</time></trkpt><trkpt lat="43.35322886092657" lon="5.546706242208693"><ele>634.2</ele><time>2026-04-02T14:29:18.999Z</time></trkpt><trkpt lat="43.35320409973134" lon="5.546571530785543"><ele>633.8</ele><time>2026-04-02T14:29:19.999Z</time></trkpt><trkpt lat="43.35319176834196" lon="5.546431694354147"><ele>633.4</ele><time>2026-04-02T14:29:20.999Z</time></trkpt><trkpt lat="43.35319350726272" lon="5.546293088031033"><ele>633.0</ele><time>2026-04-02T14:29:21.999Z</time></trkpt><trkpt lat="43.35322178710298" lon="5.546163669156542"><ele>633.0</ele><time>2026-04-02T14:29:22.999Z</time></trkpt><trkpt lat="43.353270790405226" lon="5.5460485848896655"><ele>633.0</ele><time>2026-04-02T14:29:23.999Z</time></trkpt><trkpt lat="43.353343708974386" lon="5.545954135025808"><ele>633.0</ele><time>2026-04-02T14:29:24.999Z</time></trkpt><trkpt lat="43.35343296544171" lon="5.545908582194786"><ele>633.0</ele><time>2026-04-02T14:29:25.999Z</time></trkpt><trkpt lat="43.35351475481699" lon="5.545842614487063"><ele>633.0</ele><time>2026-04-02T14:29:26.999Z</time></trkpt><trkpt lat="43.35360152317885" lon="5.545805860893709"><ele>633.0</ele><time>2026-04-02T14:29:27.999Z</time></trkpt><trkpt lat="43.353685936202304" lon="5.545756277644159"><ele>633.0</ele><time>2026-04-02T14:29:28.999Z</time></trkpt><trkpt lat="43.35378192376136" lon="5.545728685802391"><ele>633.0</ele><time>2026-04-02T14:29:29.999Z</time></trkpt><trkpt lat="43.353874914366" lon="5.545699931666771"><ele>633.0</ele><time>2026-04-02T14:29:30.999Z</time></trkpt><trkpt lat="43.353962119880194" lon="5.5456553418585655"><ele>633.0</ele><time>2026-04-02T14:29:31.999Z</time></trkpt><trkpt lat="43.35404809249443" lon="5.545610989659877"><ele>630.6666666666666</ele><time>2026-04-02T14:29:32.999Z</time></trkpt><trkpt lat="43.35412844474067" lon="5.545566669288979"><ele>628.3333333333334</ele><time>2026-04-02T14:29:33.999Z</time></trkpt><trkpt lat="43.3542154995948" lon="5.545553347927756"><ele>626.0</ele><time>2026-04-02T14:29:34.999Z</time></trkpt><trkpt lat="43.35430035160858" lon="5.5455384037976305"><ele>623.6666666666667</ele><time>2026-04-02T14:29:35.999Z</time></trkpt><trkpt lat="43.354381715018384" lon="5.545544144444813"><ele>621.3333333333334</ele><time>2026-04-02T14:29:36.999Z</time></trkpt><trkpt lat="43.35446710609408" lon="5.545575530332476"><ele>619.0</ele><time>2026-04-02T14:29:37.999Z</time></trkpt><trkpt lat="43.354541439273724" lon="5.545630715937582"><ele>619.0</ele><time>2026-04-02T14:29:38.999Z</time></trkpt><trkpt lat="43.3546154521878" lon="5.545671977291214"><ele>619.0</ele><time>2026-04-02T14:29:39.999Z</time></trkpt><trkpt lat="43.354685095640626" lon="5.545730879457987"><ele>619.0</ele><time>2026-04-02T14:29:40.999Z</time></trkpt><trkpt lat="43.35475865315242" lon="5.545759536543254"><ele>619.0</ele><time>2026-04-02T14:29:41.999Z</time></trkpt><trkpt lat="43.35483192078722" lon="5.5457716852361765"><ele>619.0</ele><time>2026-04-02T14:29:42.999Z</time></trkpt><trkpt lat="43.354901163576365" lon="5.545785463987797"><ele>619.0</ele><time>2026-04-02T14:29:43.999Z</time></trkpt><trkpt lat="43.35497598670299" lon="5.5457990104941155"><ele>619.2857142857142</ele><time>2026-04-02T14:29:44.999Z</time></trkpt><trkpt lat="43.355046294111496" lon="5.545823037450486"><ele>619.5714285714286</ele><time>2026-04-02T14:29:45.999Z</time></trkpt><trkpt lat="43.355117046662954" lon="5.545856442138571"><ele>619.8571428571429</ele><time>2026-04-02T14:29:46.999Z</time></trkpt><trkpt lat="43.35518455470414" lon="5.545892526489021"><ele>620.1428571428571</ele><time>2026-04-02T14:29:47.999Z</time></trkpt><trkpt lat="43.35525394837396" lon="5.545934030855788"><ele>620.4285714285714</ele><time>2026-04-02T14:29:48.999Z</time></trkpt><trkpt lat="43.35532280287004" lon="5.545982103336241"><ele>620.7142857142857</ele><time>2026-04-02T14:29:49.999Z</time></trkpt><trkpt lat="43.355389659263295" lon="5.546029809504706"><ele>621.0</ele><time>2026-04-02T14:29:50.999Z</time></trkpt><trkpt lat="43.35545697040947" lon="5.546091054565777"><ele>621.0</ele><time>2026-04-02T14:29:51.999Z</time></trkpt><trkpt lat="43.35551591314562" lon="5.546157977769078"><ele>621.0</ele><time>2026-04-02T14:29:52.999Z</time></trkpt><trkpt lat="43.35557663793404" lon="5.546230125914449"><ele>621.0</ele><time>2026-04-02T14:29:53.999Z</time></trkpt><trkpt lat="43.355645862909185" lon="5.546289441654036"><ele>621.0</ele><time>2026-04-02T14:29:54.999Z</time></trkpt><trkpt lat="43.35569120722316" lon="5.546371924757921"><ele>621.0</ele><time>2026-04-02T14:29:55.999Z</time></trkpt><trkpt lat="43.35575979432808" lon="5.546425712963295"><ele>621.0</ele><time>2026-04-02T14:29:56.999Z</time></trkpt><trkpt lat="43.35581220183897" lon="5.5464759110468265"><ele>618.3333333333334</ele><time>2026-04-02T14:29:57.999Z</time></trkpt><trkpt lat="43.355874749276396" lon="5.546520073740161"><ele>615.6666666666666</ele><time>2026-04-02T14:29:58.999Z</time></trkpt><trkpt lat="43.35594570415711" lon="5.5465586815111125"><ele>613.0</ele><time>2026-04-02T14:29:59.999Z</time></trkpt><trkpt lat="43.35602058552245" lon="5.546601643916443"><ele>610.3333333333333</ele><time>2026-04-02T14:30:00.999Z</time></trkpt><trkpt lat="43.35610108865778" lon="5.546634498832733"><ele>607.6666666666666</ele><time>2026-04-02T14:30:01.999Z</time></trkpt><trkpt lat="43.35618400734603" lon="5.5466679280596685"><ele>605.0</ele><time>2026-04-02T14:30:02.999Z</time></trkpt><trkpt lat="43.35626290536129" lon="5.546692516744281"><ele>605.0</ele><time>2026-04-02T14:30:03.999Z</time></trkpt><trkpt lat="43.356343429554435" lon="5.546709250151829"><ele>605.0</ele><time>2026-04-02T14:30:04.999Z</time></trkpt><trkpt lat="43.35641960292082" lon="5.546716269317105"><ele>605.0</ele><time>2026-04-02T14:30:05.999Z</time></trkpt><trkpt lat="43.35651143386898" lon="5.546669644100288"><ele>605.0</ele><time>2026-04-02T14:30:06.999Z</time></trkpt><trkpt lat="43.35659134465442" lon="5.546635991141768"><ele>605.0</ele><time>2026-04-02T14:30:07.999Z</time></trkpt><trkpt lat="43.35665973372025" lon="5.546602349723862"><ele>605.0</ele><time>2026-04-02T14:30:08.999Z</time></trkpt><trkpt lat="43.35673943427701" lon="5.5465529718145445"><ele>603.8333333333333</ele><time>2026-04-02T14:30:10.998Z</time></trkpt><trkpt lat="43.35677758549517" lon="5.546445537864722"><ele>602.6666666666666</ele><time>2026-04-02T14:30:12.998Z</time></trkpt><trkpt lat="43.356805826500334" lon="5.546363085740424"><ele>601.5</ele><time>2026-04-02T14:30:15Z</time></trkpt><trkpt lat="43.35683340947201" lon="5.546244478285511"><ele>600.3333333333334</ele><time>2026-04-02T14:30:18Z</time></trkpt><trkpt lat="43.356852576157664" lon="5.546141157610178"><ele>599.1666666666667</ele><time>2026-04-02T14:30:20Z</time></trkpt><trkpt lat="43.356848301518355" lon="5.545986967991294"><ele>598.0</ele><time>2026-04-02T14:30:22Z</time></trkpt><trkpt lat="43.35679661643709" lon="5.545901264869218"><ele>597.1666666666667</ele><time>2026-04-02T14:30:23Z</time></trkpt><trkpt lat="43.35675095959372" lon="5.545827900518052"><ele>596.3333333333334</ele><time>2026-04-02T14:30:24Z</time></trkpt><trkpt lat="43.3566955903579" lon="5.5457631500923865"><ele>595.5</ele><time>2026-04-02T14:30:25Z</time></trkpt><trkpt lat="43.35663067945467" lon="5.545703983134539"><ele>594.6666666666666</ele><time>2026-04-02T14:30:26Z</time></trkpt><trkpt lat="43.35656036352867" lon="5.545599207635147"><ele>593.8333333333333</ele><time>2026-04-02T14:30:28Z</time></trkpt><trkpt lat="43.35649779181876" lon="5.545535304562539"><ele>593.0</ele><time>2026-04-02T14:30:30Z</time></trkpt><trkpt lat="43.35642396390572" lon="5.545456179926781"><ele>592.0</ele><time>2026-04-02T14:30:32Z</time></trkpt><trkpt lat="43.35638784390656" lon="5.545324079643544"><ele>591.0</ele><time>2026-04-02T14:30:34Z</time></trkpt><trkpt lat="43.35641059458853" lon="5.545146202398545"><ele>590.0</ele><time>2026-04-02T14:30:36Z</time></trkpt><trkpt lat="43.35644043426195" lon="5.545043683546411"><ele>589.0</ele><time>2026-04-02T14:30:37Z</time></trkpt><trkpt lat="43.35648265279087" lon="5.5449484550006565"><ele>588.0</ele><time>2026-04-02T14:30:38Z</time></trkpt><trkpt lat="43.35653438951934" lon="5.5448538439926605"><ele>588.0</ele><time>2026-04-02T14:30:39Z</time></trkpt><trkpt lat="43.35661607379012" lon="5.544854683008257"><ele>588.0</ele><time>2026-04-02T14:30:40Z</time></trkpt><trkpt lat="43.35673543923031" lon="5.544845114683671"><ele>588.0</ele><time>2026-04-02T14:30:42Z</time></trkpt><trkpt lat="43.35681629169341" lon="5.544846158638359"><ele>588.0</ele><time>2026-04-02T14:30:43Z</time></trkpt><trkpt lat="43.35689896999868" lon="5.544827240523234"><ele>588.0</ele><time>2026-04-02T14:30:44Z</time></trkpt><trkpt lat="43.35698120774216" lon="5.544794742606771"><ele>588.0</ele><time>2026-04-02T14:30:45Z</time></trkpt><trkpt lat="43.357058392891915" lon="5.5447483099640875"><ele>588.0</ele><time>2026-04-02T14:30:46Z</time></trkpt><trkpt lat="43.35712511981112" lon="5.544699858348091"><ele>588.0</ele><time>2026-04-02T14:30:47Z</time></trkpt><trkpt lat="43.35718299932972" lon="5.544618818680462"><ele>588.0</ele><time>2026-04-02T14:30:48Z</time></trkpt><trkpt lat="43.35723073054052" lon="5.544523048291131"><ele>588.0</ele><time>2026-04-02T14:30:49Z</time></trkpt><trkpt lat="43.35727544605613" lon="5.544425632635842"><ele>588.0</ele><time>2026-04-02T14:30:50Z</time></trkpt><trkpt lat="43.35732433872516" lon="5.5443250674331575"><ele>584.3333333333334</ele><time>2026-04-02T14:30:51Z</time></trkpt><trkpt lat="43.35736260668198" lon="5.544221918583037"><ele>580.6666666666666</ele><time>2026-04-02T14:30:52Z</time></trkpt><trkpt lat="43.35738899035601" lon="5.544129804616605"><ele>577.0</ele><time>2026-04-02T14:30:53Z</time></trkpt><trkpt lat="43.35741860320865" lon="5.543974099305882"><ele>573.3333333333333</ele><time>2026-04-02T14:30:55Z</time></trkpt><trkpt lat="43.35738945695281" lon="5.5438837278999635"><ele>569.6666666666666</ele><time>2026-04-02T14:30:56Z</time></trkpt><trkpt lat="43.35734298960075" lon="5.543811336442896"><ele>566.0</ele><time>2026-04-02T14:30:57Z</time></trkpt><trkpt lat="43.35726060497758" lon="5.543743516925371"><ele>566.5</ele><time>2026-04-02T14:30:59Z</time></trkpt><trkpt lat="43.35718211649412" lon="5.543687720880867"><ele>567.0</ele><time>2026-04-02T14:31:00.999Z</time></trkpt><trkpt lat="43.357111832358804" lon="5.543614563776384"><ele>567.5</ele><time>2026-04-02T14:31:02.999Z</time></trkpt><trkpt lat="43.35707551363512" lon="5.5434615733478765"><ele>568.0</ele><time>2026-04-02T14:31:04.999Z</time></trkpt><trkpt lat="43.357042904002746" lon="5.543373596723841"><ele>568.5</ele><time>2026-04-02T14:31:05.999Z</time></trkpt><trkpt lat="43.35698971248033" lon="5.543286639278205"><ele>569.0</ele><time>2026-04-02T14:31:06.999Z</time></trkpt><trkpt lat="43.356913821423966" lon="5.543217042409448"><ele>569.0</ele><time>2026-04-02T14:31:07.999Z</time></trkpt><trkpt lat="43.3568549119727" lon="5.5431635789291205"><ele>569.0</ele><time>2026-04-02T14:31:08.999Z</time></trkpt><trkpt lat="43.35679266557806" lon="5.543102257145985"><ele>569.0</ele><time>2026-04-02T14:31:09.999Z</time></trkpt><trkpt lat="43.35674095773235" lon="5.5430269911011"><ele>569.0</ele><time>2026-04-02T14:31:10.999Z</time></trkpt><trkpt lat="43.35668274426003" lon="5.5429298565076905"><ele>569.0</ele><time>2026-04-02T14:31:11.999Z</time></trkpt><trkpt lat="43.356629137705305" lon="5.542837638420794"><ele>569.0</ele><time>2026-04-02T14:31:12.999Z</time></trkpt><trkpt lat="43.356576972139514" lon="5.542743692099308"><ele>567.1666666666666</ele><time>2026-04-02T14:31:13.999Z</time></trkpt><trkpt lat="43.35652303991874" lon="5.542646564157091"><ele>565.3333333333333</ele><time>2026-04-02T14:31:14.999Z</time></trkpt><trkpt lat="43.35647003759361" lon="5.542537364247503"><ele>563.5</ele><time>2026-04-02T14:31:16.999Z</time></trkpt><trkpt lat="43.35649089054326" lon="5.542444663648018"><ele>561.6666666666666</ele><time>2026-04-02T14:31:19.999Z</time></trkpt><trkpt lat="43.356554085319466" lon="5.542472225632748"><ele>559.8333333333334</ele><time>2026-04-02T14:31:21.999Z</time></trkpt><trkpt lat="43.35657901060403" lon="5.542572381264823"><ele>558.0</ele><time>2026-04-02T14:31:23.999Z</time></trkpt><trkpt lat="43.356625427556544" lon="5.542637793095354"><ele>558.0</ele><time>2026-04-02T14:31:25.999Z</time></trkpt><trkpt lat="43.356687007149" lon="5.54267178034846"><ele>558.0</ele><time>2026-04-02T14:31:27.999Z</time></trkpt><trkpt lat="43.35678543233556" lon="5.54273772256849"><ele>558.0</ele><time>2026-04-02T14:31:29.999Z</time></trkpt><trkpt lat="43.356857830460086" lon="5.542766050518291"><ele>558.0</ele><time>2026-04-02T14:31:30.999Z</time></trkpt><trkpt lat="43.35693641636738" lon="5.542750718027906"><ele>558.0</ele><time>2026-04-02T14:31:31.999Z</time></trkpt><trkpt lat="43.35702374336479" lon="5.542742758079357"><ele>558.0</ele><time>2026-04-02T14:31:32.999Z</time></trkpt><trkpt lat="43.35710901968099" lon="5.54274177224608"><ele>558.0</ele><time>2026-04-02T14:31:33.999Z</time></trkpt><trkpt lat="43.357174918762375" lon="5.542717903598375"><ele>558.0</ele><time>2026-04-02T14:31:34.999Z</time></trkpt><trkpt lat="43.357272049152" lon="5.542677190485828"><ele>558.0</ele><time>2026-04-02T14:31:36.999Z</time></trkpt><trkpt lat="43.35732415266302" lon="5.542577881884524"><ele>558.0</ele><time>2026-04-02T14:31:39.999Z</time></trkpt><trkpt lat="43.35728366888224" lon="5.542456383184229"><ele>558.0</ele><time>2026-04-02T14:31:41.999Z</time></trkpt><trkpt lat="43.35720657218355" lon="5.542446615840598"><ele>558.0</ele><time>2026-04-02T14:31:42.999Z</time></trkpt><trkpt lat="43.35714857930209" lon="5.542395166823414"><ele>558.0</ele><time>2026-04-02T14:31:43.999Z</time></trkpt><trkpt lat="43.357090665378394" lon="5.54235674398406"><ele>558.0</ele><time>2026-04-02T14:31:44.999Z</time></trkpt><trkpt lat="43.35704200157181" lon="5.542231424746024"><ele>558.0</ele><time>2026-04-02T14:31:46.999Z</time></trkpt><trkpt lat="43.357073588221475" lon="5.542153934254458"><ele>558.0</ele><time>2026-04-02T14:31:48.999Z</time></trkpt><trkpt lat="43.357102501404604" lon="5.542076520615256"><ele>558.0</ele><time>2026-04-02T14:31:50.999Z</time></trkpt><trkpt lat="43.357171386429705" lon="5.541964493601276"><ele>558.0</ele><time>2026-04-02T14:31:52.999Z</time></trkpt><trkpt lat="43.35721577454143" lon="5.541888271297175"><ele>552.8333333333334</ele><time>2026-04-02T14:31:53.999Z</time></trkpt><trkpt lat="43.357264131946195" lon="5.5417877288235085"><ele>547.6666666666666</ele><time>2026-04-02T14:31:55.999Z</time></trkpt><trkpt lat="43.35732314882482" lon="5.54170224769661"><ele>542.5</ele><time>2026-04-02T14:32:43Z</time></trkpt><trkpt lat="43.35738094020704" lon="5.541585868483968"><ele>537.3333333333333</ele><time>2026-04-02T14:32:45Z</time></trkpt><trkpt lat="43.35741642508291" lon="5.541513467894794"><ele>532.1666666666666</ele><time>2026-04-02T14:32:46Z</time></trkpt><trkpt lat="43.35744077750888" lon="5.541427113585249"><ele>527.0</ele><time>2026-04-02T14:32:48Z</time></trkpt><trkpt lat="43.357443094836455" lon="5.541315704378855"><ele>527.0</ele><time>2026-04-02T14:32:50Z</time></trkpt><trkpt lat="43.35733652268987" lon="5.541268234179534"><ele>527.0</ele><time>2026-04-02T14:32:51Z</time></trkpt><trkpt lat="43.35730360141705" lon="5.5411685897696445"><ele>527.0</ele><time>2026-04-02T14:32:53Z</time></trkpt><trkpt lat="43.35730556135041" lon="5.54102093714151"><ele>527.0</ele><time>2026-04-02T14:32:55Z</time></trkpt><trkpt lat="43.35730914217329" lon="5.540926230219627"><ele>527.0</ele><time>2026-04-02T14:32:56Z</time></trkpt><trkpt lat="43.3573149148094" lon="5.540823106065452"><ele>527.0</ele><time>2026-04-02T14:32:57Z</time></trkpt><trkpt lat="43.35734441118487" lon="5.540704054480287"><ele>526.0</ele><time>2026-04-02T14:32:58Z</time></trkpt><trkpt lat="43.35737691600371" lon="5.540586086242497"><ele>525.0</ele><time>2026-04-02T14:32:59Z</time></trkpt><trkpt lat="43.35742307463351" lon="5.540461399931183"><ele>524.0</ele><time>2026-04-02T14:33:00Z</time></trkpt><trkpt lat="43.357450056300635" lon="5.540325684227143"><ele>523.0</ele><time>2026-04-02T14:33:01Z</time></trkpt><trkpt lat="43.35749415825814" lon="5.540199828494607"><ele>522.0</ele><time>2026-04-02T14:33:02Z</time></trkpt><trkpt lat="43.357544681535494" lon="5.540058109393474"><ele>522.0</ele><time>2026-04-02T14:33:03Z</time></trkpt><trkpt lat="43.357617493860644" lon="5.539932731343307"><ele>522.0</ele><time>2026-04-02T14:33:04Z</time></trkpt><trkpt lat="43.357663823940385" lon="5.539804310482231"><ele>522.0</ele><time>2026-04-02T14:33:05Z</time></trkpt><trkpt lat="43.35772332788175" lon="5.5396811434914675"><ele>522.0</ele><time>2026-04-02T14:33:06Z</time></trkpt><trkpt lat="43.357785342610015" lon="5.539561150092627"><ele>522.0</ele><time>2026-04-02T14:33:07Z</time></trkpt><trkpt lat="43.357837291272055" lon="5.539466134793577"><ele>522.4</ele><time>2026-04-02T14:33:08Z</time></trkpt><trkpt lat="43.357879633144755" lon="5.53937194075989"><ele>522.8000000000001</ele><time>2026-04-02T14:33:09Z</time></trkpt><trkpt lat="43.35795721110496" lon="5.539253229764446"><ele>523.2</ele><time>2026-04-02T14:33:11Z</time></trkpt><trkpt lat="43.35800631201589" lon="5.539129064457324"><ele>523.6</ele><time>2026-04-02T14:33:13Z</time></trkpt><trkpt lat="43.35803887846343" lon="5.539042029353074"><ele>524.0</ele><time>2026-04-02T14:33:15Z</time></trkpt><trkpt lat="43.35804540414123" lon="5.53893336983272"><ele>515.6666666666666</ele><time>2026-04-02T14:33:17Z</time></trkpt><trkpt lat="43.35806972820105" lon="5.538843528894459"><ele>507.3333333333333</ele><time>2026-04-02T14:33:19.999Z</time></trkpt><trkpt lat="43.35806283677656" lon="5.538727384655433"><ele>499.0</ele><time>2026-04-02T14:33:21.999Z</time></trkpt><trkpt lat="43.358067442566664" lon="5.538578764979041"><ele>490.66666666666663</ele><time>2026-04-02T14:33:23.999Z</time></trkpt><trkpt lat="43.35807162625313" lon="5.538449194614431"><ele>482.3333333333333</ele><time>2026-04-02T14:34:05.999Z</time></trkpt><trkpt lat="43.358097900534645" lon="5.538328639286918"><ele>474.0</ele><time>2026-04-02T14:34:07.999Z</time></trkpt><trkpt lat="43.35809045597825" lon="5.5381687017983054"><ele>473.5</ele><time>2026-04-02T14:34:09.999Z</time></trkpt><trkpt lat="43.35809203915197" lon="5.5380804285415755"><ele>473.0</ele><time>2026-04-02T14:34:10.999Z</time></trkpt><trkpt lat="43.35808705380657" lon="5.537981931831911"><ele>472.5</ele><time>2026-04-02T14:34:11.999Z</time></trkpt><trkpt lat="43.358082112957696" lon="5.537880175073622"><ele>472.0</ele><time>2026-04-02T14:34:12.999Z</time></trkpt><trkpt lat="43.35806747130858" lon="5.537771119830051"><ele>471.5</ele><time>2026-04-02T14:34:13.999Z</time></trkpt><trkpt lat="43.3580604862661" lon="5.537662155376906"><ele>471.0</ele><time>2026-04-02T14:34:14.999Z</time></trkpt><trkpt lat="43.35804618846655" lon="5.537543537225627"><ele>469.6</ele><time>2026-04-02T14:34:15.999Z</time></trkpt><trkpt lat="43.35805987482847" lon="5.537420810747926"><ele>468.20000000000005</ele><time>2026-04-02T14:34:16.999Z</time></trkpt><trkpt lat="43.35806277865783" lon="5.537287495370101"><ele>466.79999999999995</ele><time>2026-04-02T14:34:17.999Z</time></trkpt><trkpt lat="43.358066136453" lon="5.537133338403798"><ele>465.4</ele><time>2026-04-02T14:34:18.999Z</time></trkpt><trkpt lat="43.3580610337171" lon="5.536981130952273"><ele>464.0</ele><time>2026-04-02T14:34:19.999Z</time></trkpt><trkpt lat="43.35807398908577" lon="5.53683019199268"><ele>462.6</ele><time>2026-04-02T14:34:20.999Z</time></trkpt><trkpt lat="43.35806130141041" lon="5.536673089922886"><ele>461.2</ele><time>2026-04-02T14:34:21.999Z</time></trkpt><trkpt lat="43.35806428862807" lon="5.536534708133684"><ele>459.80000000000007</ele><time>2026-04-02T14:34:22.999Z</time></trkpt><trkpt lat="43.358049648706135" lon="5.536397544819325"><ele>458.40000000000003</ele><time>2026-04-02T14:34:23.999Z</time></trkpt><trkpt lat="43.35802768204314" lon="5.536255492871654"><ele>457.0</ele><time>2026-04-02T14:34:24.999Z</time></trkpt><trkpt lat="43.357993050732155" lon="5.536102462241073"><ele>463.75</ele><time>2026-04-02T14:34:25.999Z</time></trkpt><trkpt lat="43.3579466328973" lon="5.5359560189873145"><ele>470.5</ele><time>2026-04-02T14:34:27Z</time></trkpt><trkpt lat="43.35791966954838" lon="5.535804102935875"><ele>477.25</ele><time>2026-04-02T14:34:28Z</time></trkpt><trkpt lat="43.35788617459977" lon="5.5356358671039105"><ele>484.0</ele><time>2026-04-02T14:34:29Z</time></trkpt><trkpt lat="43.35786081074468" lon="5.5354644912619255"><ele>480.75</ele><time>2026-04-02T14:34:30Z</time></trkpt><trkpt lat="43.35784347060029" lon="5.535301081088938"><ele>477.5</ele><time>2026-04-02T14:34:31Z</time></trkpt><trkpt lat="43.35782758642952" lon="5.535093908966128"><ele>474.25</ele><time>2026-04-02T14:34:32Z</time></trkpt><trkpt lat="43.35781043422018" lon="5.5349071711688"><ele>471.0</ele><time>2026-04-02T14:34:33Z</time></trkpt><trkpt lat="43.3577916697488" lon="5.534745584719874"><ele>471.0</ele><time>2026-04-02T14:34:34Z</time></trkpt><trkpt lat="43.357740271165255" lon="5.534592085218553"><ele>471.0</ele><time>2026-04-02T14:34:35Z</time></trkpt><trkpt lat="43.35769461225838" lon="5.534443700334941"><ele>471.0</ele><time>2026-04-02T14:34:36Z</time></trkpt><trkpt lat="43.35764508902475" lon="5.534293432303505"><ele>471.0</ele><time>2026-04-02T14:34:37Z</time></trkpt><trkpt lat="43.3575957349171" lon="5.53414566314215"><ele>468.4</ele><time>2026-04-02T14:34:38Z</time></trkpt><trkpt lat="43.357526419017745" lon="5.5340122623423795"><ele>465.8</ele><time>2026-04-02T14:34:39Z</time></trkpt><trkpt lat="43.357495493926" lon="5.533866940474002"><ele>463.19999999999993</ele><time>2026-04-02T14:34:40Z</time></trkpt><trkpt lat="43.35746916382259" lon="5.533741443869889"><ele>460.59999999999997</ele><time>2026-04-02T14:34:41Z</time></trkpt><trkpt lat="43.35745556063137" lon="5.53362824641873"><ele>458.0</ele><time>2026-04-02T14:34:42Z</time></trkpt><trkpt lat="43.35744601120578" lon="5.533527169049157"><ele>455.79999999999995</ele><time>2026-04-02T14:34:43Z</time></trkpt><trkpt lat="43.357473214355345" lon="5.533425050311729"><ele>453.59999999999997</ele><time>2026-04-02T14:34:44Z</time></trkpt><trkpt lat="43.35751048492049" lon="5.533327111843069"><ele>451.40000000000003</ele><time>2026-04-02T14:34:45Z</time></trkpt><trkpt lat="43.35752627508906" lon="5.533210457827326"><ele>449.20000000000005</ele><time>2026-04-02T14:34:46Z</time></trkpt><trkpt lat="43.35751255416081" lon="5.533104647597199"><ele>447.0</ele><time>2026-04-02T14:34:47Z</time></trkpt><trkpt lat="43.357466323746905" lon="5.532935740300549"><ele>445.3333333333333</ele><time>2026-04-02T14:34:49Z</time></trkpt><trkpt lat="43.35744810526271" lon="5.532835735432306"><ele>443.66666666666663</ele><time>2026-04-02T14:34:50Z</time></trkpt><trkpt lat="43.35740266058249" lon="5.532737623649295"><ele>442.0</ele><time>2026-04-02T14:34:51Z</time></trkpt><trkpt lat="43.357376534228976" lon="5.532629843563099"><ele>440.3333333333333</ele><time>2026-04-02T14:34:52Z</time></trkpt><trkpt lat="43.357346320794" lon="5.532506445316026"><ele>438.66666666666663</ele><time>2026-04-02T14:34:54Z</time></trkpt><trkpt lat="43.35739032614147" lon="5.5323922096541045"><ele>437.0</ele><time>2026-04-02T14:34:57Z</time></trkpt><trkpt lat="43.3574608009765" lon="5.532459039334699"><ele>436.99999999999994</ele><time>2026-04-02T14:34:59Z</time></trkpt><trkpt lat="43.357515833845355" lon="5.532561923955737"><ele>437.0</ele><time>2026-04-02T14:35:01Z</time></trkpt><trkpt lat="43.35759464278296" lon="5.5326738503654225"><ele>437.0</ele><time>2026-04-02T14:35:03Z</time></trkpt><trkpt lat="43.35765465874913" lon="5.532724810694673"><ele>437.0</ele><time>2026-04-02T14:35:04Z</time></trkpt><trkpt lat="43.3577291405127" lon="5.532764812962946"><ele>436.99999999999994</ele><time>2026-04-02T14:35:05Z</time></trkpt><trkpt lat="43.35780295767288" lon="5.532789796980407"><ele>437.0</ele><time>2026-04-02T14:35:06Z</time></trkpt><trkpt lat="43.35787597984305" lon="5.5327928463434395"><ele>436.99999999999994</ele><time>2026-04-02T14:35:07Z</time></trkpt><trkpt lat="43.3579608414589" lon="5.53276826063881"><ele>437.0</ele><time>2026-04-02T14:35:08Z</time></trkpt><trkpt lat="43.35804500958551" lon="5.532705512603205"><ele>437.0</ele><time>2026-04-02T14:35:09Z</time></trkpt><trkpt lat="43.35811345599099" lon="5.532613679426015"><ele>437.0</ele><time>2026-04-02T14:35:10Z</time></trkpt><trkpt lat="43.358169321199995" lon="5.532528637215476"><ele>436.99999999999994</ele><time>2026-04-02T14:35:11Z</time></trkpt><trkpt lat="43.35822954336401" lon="5.532454131904655"><ele>437.0</ele><time>2026-04-02T14:35:12Z</time></trkpt><trkpt lat="43.35828883133695" lon="5.5323873432897415"><ele>434.3333333333333</ele><time>2026-04-02T14:35:13Z</time></trkpt><trkpt lat="43.35838724154647" lon="5.5323318736767435"><ele>431.66666666666663</ele><time>2026-04-02T14:35:15Z</time></trkpt><trkpt lat="43.35845290709883" lon="5.53235864858016"><ele>429.0</ele><time>2026-04-02T14:35:17Z</time></trkpt><trkpt lat="43.3584687071281" lon="5.532468564446104"><ele>426.33333333333337</ele><time>2026-04-02T14:35:19Z</time></trkpt><trkpt lat="43.35848091182622" lon="5.532565853593107"><ele>423.6666666666667</ele><time>2026-04-02T14:35:21Z</time></trkpt><trkpt lat="43.358469824834344" lon="5.532699427585413"><ele>421.0</ele><time>2026-04-02T14:35:24Z</time></trkpt><trkpt lat="43.35840009623143" lon="5.53282962107579"><ele>420.50000000000006</ele><time>2026-04-02T14:35:26Z</time></trkpt><trkpt lat="43.358374865511664" lon="5.532915496271714"><ele>420.0</ele><time>2026-04-02T14:35:26.999Z</time></trkpt><trkpt lat="43.35833791907962" lon="5.532996316528335"><ele>419.5</ele><time>2026-04-02T14:35:27.999Z</time></trkpt><trkpt lat="43.35829681013722" lon="5.5330840768914324"><ele>419.0</ele><time>2026-04-02T14:35:28.999Z</time></trkpt><trkpt lat="43.35826476495436" lon="5.5331696426840535"><ele>418.50000000000006</ele><time>2026-04-02T14:35:29.999Z</time></trkpt><trkpt lat="43.35822504576844" lon="5.5332722275771395"><ele>418.0</ele><time>2026-04-02T14:35:30.999Z</time></trkpt><trkpt lat="43.358189762039785" lon="5.53338746568224"><ele>418.00000000000006</ele><time>2026-04-02T14:35:31.999Z</time></trkpt><trkpt lat="43.35817978067446" lon="5.533499571828897"><ele>418.0</ele><time>2026-04-02T14:35:32.999Z</time></trkpt><trkpt lat="43.35819558792726" lon="5.533610684306202"><ele>418.0</ele><time>2026-04-02T14:35:33.999Z</time></trkpt><trkpt lat="43.35821909519233" lon="5.533721745169488"><ele>418.0</ele><time>2026-04-02T14:35:34.999Z</time></trkpt><trkpt lat="43.358245482984685" lon="5.533835970287813"><ele>418.00000000000006</ele><time>2026-04-02T14:35:35.999Z</time></trkpt><trkpt lat="43.35827249830716" lon="5.533938126115886"><ele>418.0</ele><time>2026-04-02T14:35:36.999Z</time></trkpt><trkpt lat="43.358307473364185" lon="5.53401388968751"><ele>418.33333333333337</ele><time>2026-04-02T14:35:37.999Z</time></trkpt><trkpt lat="43.358335289020026" lon="5.534112200144125"><ele>418.6666666666667</ele><time>2026-04-02T14:35:38.999Z</time></trkpt><trkpt lat="43.35834553601453" lon="5.534210269226051"><ele>419.0</ele><time>2026-04-02T14:35:39.999Z</time></trkpt><trkpt lat="43.358382279791165" lon="5.534296653059412"><ele>419.33333333333337</ele><time>2026-04-02T14:35:40.999Z</time></trkpt><trkpt lat="43.35840814920792" lon="5.534395784526658"><ele>419.6666666666667</ele><time>2026-04-02T14:35:41.999Z</time></trkpt><trkpt lat="43.358444297687846" lon="5.534484935669992"><ele>420.0</ele><time>2026-04-02T14:35:42.999Z</time></trkpt><trkpt lat="43.35848602067751" lon="5.534585577438228"><ele>421.42857142857144</ele><time>2026-04-02T14:35:43.999Z</time></trkpt><trkpt lat="43.358520277776115" lon="5.534677104356199"><ele>422.8571428571429</ele><time>2026-04-02T14:35:44.999Z</time></trkpt><trkpt lat="43.35855170897663" lon="5.534765543675379"><ele>424.2857142857143</ele><time>2026-04-02T14:35:45.999Z</time></trkpt><trkpt lat="43.35860183969346" lon="5.534852307250693"><ele>425.7142857142857</ele><time>2026-04-02T14:35:46.999Z</time></trkpt><trkpt lat="43.3586438499702" lon="5.534939832145304"><ele>427.14285714285717</ele><time>2026-04-02T14:35:47.999Z</time></trkpt><trkpt lat="43.35868096898699" lon="5.535017820042316"><ele>428.57142857142856</ele><time>2026-04-02T14:35:48.999Z</time></trkpt><trkpt lat="43.358723445249936" lon="5.535083327880841"><ele>430.0</ele><time>2026-04-02T14:35:49.999Z</time></trkpt><trkpt lat="43.35877658370089" lon="5.535133262557379"><ele>426.4</ele><time>2026-04-02T14:35:50.999Z</time></trkpt><trkpt lat="43.358886876316" lon="5.535192475917986"><ele>422.8</ele><time>2026-04-02T14:35:52.999Z</time></trkpt><trkpt lat="43.35894632229486" lon="5.535221582976539"><ele>419.20000000000005</ele><time>2026-04-02T14:35:53.999Z</time></trkpt><trkpt lat="43.35906894169583" lon="5.535219098273901"><ele>415.6</ele><time>2026-04-02T14:35:55.999Z</time></trkpt><trkpt lat="43.359178099953944" lon="5.535156359764105"><ele>412.0</ele><time>2026-04-02T14:35:57.999Z</time></trkpt><trkpt lat="43.359235533991374" lon="5.535115482357076"><ele>412.00000000000006</ele><time>2026-04-02T14:35:58.999Z</time></trkpt><trkpt lat="43.359352750898985" lon="5.535026204243475"><ele>412.0</ele><time>2026-04-02T14:36:00.999Z</time></trkpt><trkpt lat="43.359414395207004" lon="5.534991425510772"><ele>412.0</ele><time>2026-04-02T14:36:01.999Z</time></trkpt><trkpt lat="43.35948687110366" lon="5.534951965101061"><ele>412.0</ele><time>2026-04-02T14:36:02.999Z</time></trkpt><trkpt lat="43.359553818313984" lon="5.534897431150538"><ele>412.00000000000006</ele><time>2026-04-02T14:36:03.999Z</time></trkpt><trkpt lat="43.359608537368544" lon="5.534817820987136"><ele>412.0</ele><time>2026-04-02T14:36:04.999Z</time></trkpt><trkpt lat="43.35964744566222" lon="5.534729952717964"><ele>411.00000000000006</ele><time>2026-04-02T14:36:05.999Z</time></trkpt><trkpt lat="43.35970320348222" lon="5.534657091716091"><ele>410.0</ele><time>2026-04-02T14:36:06.999Z</time></trkpt><trkpt lat="43.35975432646069" lon="5.534584355321511"><ele>409.0</ele><time>2026-04-02T14:36:07.999Z</time></trkpt><trkpt lat="43.35979929080568" lon="5.53449990892952"><ele>408.0</ele><time>2026-04-02T14:36:08.999Z</time></trkpt><trkpt lat="43.35985494598155" lon="5.534426337155921"><ele>407.00000000000006</ele><time>2026-04-02T14:36:09.999Z</time></trkpt><trkpt lat="43.359910606333976" lon="5.534354050463269"><ele>406.0</ele><time>2026-04-02T14:36:10.999Z</time></trkpt><trkpt lat="43.35996501714591" lon="5.534279293117166"><ele>406.00000000000006</ele><time>2026-04-02T14:36:11.999Z</time></trkpt><trkpt lat="43.36001291036567" lon="5.53420243863771"><ele>406.0</ele><time>2026-04-02T14:36:12.999Z</time></trkpt><trkpt lat="43.360058978882606" lon="5.534132791457629"><ele>406.0</ele><time>2026-04-02T14:36:13.999Z</time></trkpt><trkpt lat="43.36010383192153" lon="5.534068983417273"><ele>406.0</ele><time>2026-04-02T14:36:14.999Z</time></trkpt><trkpt lat="43.360187201749675" lon="5.533952753416836"><ele>406.00000000000006</ele><time>2026-04-02T14:36:16.999Z</time></trkpt><trkpt lat="43.360281145337396" lon="5.533908199133726"><ele>406.0</ele><time>2026-04-02T14:36:18.999Z</time></trkpt><trkpt lat="43.36035709621486" lon="5.533967260811929"><ele>406.00000000000006</ele><time>2026-04-02T14:36:20.999Z</time></trkpt><trkpt lat="43.360404252765065" lon="5.534067968406283"><ele>406.0</ele><time>2026-04-02T14:36:22.999Z</time></trkpt><trkpt lat="43.36044019569623" lon="5.534199407583042"><ele>406.0</ele><time>2026-04-02T14:36:24.999Z</time></trkpt><trkpt lat="43.36047976834261" lon="5.534268869670037"><ele>406.0</ele><time>2026-04-02T14:36:25.999Z</time></trkpt><trkpt lat="43.360499869246745" lon="5.534353567119243"><ele>406.00000000000006</ele><time>2026-04-02T14:36:26.999Z</time></trkpt><trkpt lat="43.36054961204518" lon="5.534510739208664"><ele>406.0</ele><time>2026-04-02T14:36:28.999Z</time></trkpt><trkpt lat="43.3605790968183" lon="5.5345920198697796"><ele>407.1666666666667</ele><time>2026-04-02T14:36:29.998Z</time></trkpt><trkpt lat="43.36061269001305" lon="5.534671069602557"><ele>408.33333333333337</ele><time>2026-04-02T14:36:30.998Z</time></trkpt><trkpt lat="43.36063326226932" lon="5.534763358799769"><ele>409.5</ele><time>2026-04-02T14:36:31.998Z</time></trkpt><trkpt lat="43.36069333498492" lon="5.534926879861107"><ele>410.66666666666663</ele><time>2026-04-02T14:36:34Z</time></trkpt><trkpt lat="43.36073056784861" lon="5.535016250535497"><ele>411.8333333333333</ele><time>2026-04-02T14:36:35Z</time></trkpt><trkpt lat="43.360798987439566" lon="5.535076937528945"><ele>413.0</ele><time>2026-04-02T14:36:36Z</time></trkpt><trkpt lat="43.36089286501196" lon="5.535030017185604"><ele>413.0</ele><time>2026-04-02T14:36:37Z</time></trkpt><trkpt lat="43.360956965426894" lon="5.535003627319762"><ele>413.0</ele><time>2026-04-02T14:36:38Z</time></trkpt><trkpt lat="43.36106794943039" lon="5.535014157373986"><ele>413.0</ele><time>2026-04-02T14:36:40Z</time></trkpt><trkpt lat="43.3611663315916" lon="5.535015000415619"><ele>413.0</ele><time>2026-04-02T14:36:42Z</time></trkpt><trkpt lat="43.36124662094009" lon="5.535070452299957"><ele>413.0</ele><time>2026-04-02T14:36:44Z</time></trkpt><trkpt lat="43.361297956403476" lon="5.535161292824134"><ele>413.0</ele><time>2026-04-02T14:36:46Z</time></trkpt><trkpt lat="43.361343064455866" lon="5.535265574261262"><ele>413.0</ele><time>2026-04-02T14:36:48Z</time></trkpt><trkpt lat="43.36135892957689" lon="5.535382511605498"><ele>413.0</ele><time>2026-04-02T14:36:50Z</time></trkpt><trkpt lat="43.361378437331474" lon="5.535537934911904"><ele>413.0</ele><time>2026-04-02T14:36:52Z</time></trkpt><trkpt lat="43.36144923064808" lon="5.53566177324977"><ele>413.0</ele><time>2026-04-02T14:36:54Z</time></trkpt><trkpt lat="43.36152475999476" lon="5.5357702168729475"><ele>412.2</ele><time>2026-04-02T14:36:56Z</time></trkpt><trkpt lat="43.36158549211959" lon="5.535876378247243"><ele>411.4</ele><time>2026-04-02T14:36:58Z</time></trkpt><trkpt lat="43.361682305577745" lon="5.535964932623795"><ele>410.59999999999997</ele><time>2026-04-02T14:37:00Z</time></trkpt><trkpt lat="43.361805317107105" lon="5.535961105137466"><ele>409.79999999999995</ele><time>2026-04-02T14:37:02Z</time></trkpt><trkpt lat="43.361897198544895" lon="5.535874873765511"><ele>409.0</ele><time>2026-04-02T14:37:04Z</time></trkpt><trkpt lat="43.361954778822835" lon="5.535811348671306"><ele>409.0</ele><time>2026-04-02T14:37:05Z</time></trkpt><trkpt lat="43.36200847450902" lon="5.535747794956138"><ele>409.0</ele><time>2026-04-02T14:37:06Z</time></trkpt><trkpt lat="43.362077054234526" lon="5.535709170162186"><ele>409.0</ele><time>2026-04-02T14:37:07Z</time></trkpt><trkpt lat="43.36214643613778" lon="5.535636873656169"><ele>409.0</ele><time>2026-04-02T14:37:08Z</time></trkpt><trkpt lat="43.36220756742587" lon="5.535596500992873"><ele>409.0</ele><time>2026-04-02T14:37:09Z</time></trkpt><trkpt lat="43.362274334465255" lon="5.535567560060283"><ele>409.0</ele><time>2026-04-02T14:37:10Z</time></trkpt><trkpt lat="43.36232702105663" lon="5.535497229312926"><ele>409.0</ele><time>2026-04-02T14:37:11Z</time></trkpt><trkpt lat="43.362378037709455" lon="5.5354397039407885"><ele>407.33333333333337</ele><time>2026-04-02T14:37:12Z</time></trkpt><trkpt lat="43.362439785390585" lon="5.535371551315543"><ele>405.6666666666667</ele><time>2026-04-02T14:37:13Z</time></trkpt><trkpt lat="43.362510589481026" lon="5.535317551370137"><ele>404.0</ele><time>2026-04-02T14:37:14Z</time></trkpt><trkpt lat="43.36256261881362" lon="5.535231072168232"><ele>402.33333333333337</ele><time>2026-04-02T14:37:15Z</time></trkpt><trkpt lat="43.36260524830887" lon="5.535145806815239"><ele>400.6666666666667</ele><time>2026-04-02T14:37:16Z</time></trkpt><trkpt lat="43.36264168613945" lon="5.535074563145653"><ele>399.0</ele><time>2026-04-02T14:37:17Z</time></trkpt><trkpt lat="43.36269415650975" lon="5.5349798893100495"><ele>399.0</ele><time>2026-04-02T14:37:19Z</time></trkpt><trkpt lat="43.36271498060303" lon="5.535095770245194"><ele>399.0</ele><time>2026-04-02T14:37:23.999Z</time></trkpt><trkpt lat="43.362706222257025" lon="5.535206146934306"><ele>399.0</ele><time>2026-04-02T14:37:25.999Z</time></trkpt><trkpt lat="43.36269651053265" lon="5.535319464470202"><ele>399.0</ele><time>2026-04-02T14:37:27.999Z</time></trkpt><trkpt lat="43.36267635351905" lon="5.5354672916188505"><ele>399.0</ele><time>2026-04-02T14:37:29.999Z</time></trkpt><trkpt lat="43.36267544142682" lon="5.535618208726788"><ele>398.85714285714283</ele><time>2026-04-02T14:37:31.999Z</time></trkpt><trkpt lat="43.36267165526477" lon="5.535707205940244"><ele>398.7142857142857</ele><time>2026-04-02T14:37:32.999Z</time></trkpt><trkpt lat="43.36266511600875" lon="5.535801135692612"><ele>398.57142857142856</ele><time>2026-04-02T14:37:33.999Z</time></trkpt><trkpt lat="43.36266754997337" lon="5.53589514109111"><ele>398.42857142857144</ele><time>2026-04-02T14:37:34.999Z</time></trkpt><trkpt lat="43.3626668465079" lon="5.536003518734163"><ele>398.2857142857143</ele><time>2026-04-02T14:37:35.999Z</time></trkpt><trkpt lat="43.36267011172242" lon="5.536094134040891"><ele>398.1428571428571</ele><time>2026-04-02T14:37:36.999Z</time></trkpt><trkpt lat="43.36267563341151" lon="5.536192743993917"><ele>398.0</ele><time>2026-04-02T14:37:37.999Z</time></trkpt><trkpt lat="43.362670667516326" lon="5.536298810842502"><ele>397.49999999999994</ele><time>2026-04-02T14:37:38.999Z</time></trkpt><trkpt lat="43.36266865363396" lon="5.536418808502947"><ele>397.0</ele><time>2026-04-02T14:37:39.999Z</time></trkpt><trkpt lat="43.36266736675895" lon="5.536513078751122"><ele>396.5</ele><time>2026-04-02T14:37:40.999Z</time></trkpt><trkpt lat="43.362687111800305" lon="5.536641131398234"><ele>396.0</ele><time>2026-04-02T14:37:42.999Z</time></trkpt><trkpt lat="43.36275269841437" lon="5.536695291935992"><ele>395.49999999999994</ele><time>2026-04-02T14:37:43.999Z</time></trkpt><trkpt lat="43.362829643803025" lon="5.5368157190863"><ele>395.0</ele><time>2026-04-02T14:37:45.999Z</time></trkpt><trkpt lat="43.362856754617255" lon="5.536950483115825"><ele>394.99999999999994</ele><time>2026-04-02T14:37:47.999Z</time></trkpt><trkpt lat="43.36286281970257" lon="5.537037181169491"><ele>395.0</ele><time>2026-04-02T14:37:48.999Z</time></trkpt><trkpt lat="43.36281970818403" lon="5.537205348528623"><ele>395.0</ele><time>2026-04-02T14:37:50.999Z</time></trkpt><trkpt lat="43.362813645488565" lon="5.537317833337205"><ele>395.0</ele><time>2026-04-02T14:37:51.999Z</time></trkpt><trkpt lat="43.362784991070285" lon="5.5374210199448095"><ele>394.99999999999994</ele><time>2026-04-02T14:37:52.999Z</time></trkpt><trkpt lat="43.36277020905341" lon="5.5375401652439145"><ele>395.0</ele><time>2026-04-02T14:37:53.999Z</time></trkpt><trkpt lat="43.36276583400442" lon="5.5376525158873395"><ele>394.6</ele><time>2026-04-02T14:37:54.999Z</time></trkpt><trkpt lat="43.3627784733118" lon="5.537771729119985"><ele>394.2</ele><time>2026-04-02T14:37:55.999Z</time></trkpt><trkpt lat="43.36280192298824" lon="5.537898706098202"><ele>393.79999999999995</ele><time>2026-04-02T14:37:56.999Z</time></trkpt><trkpt lat="43.36283315597895" lon="5.538015240510695"><ele>393.4</ele><time>2026-04-02T14:37:57.999Z</time></trkpt><trkpt lat="43.36284693408589" lon="5.538145133548762"><ele>393.0</ele><time>2026-04-02T14:37:58.999Z</time></trkpt><trkpt lat="43.362861525934996" lon="5.538279430214757"><ele>392.2</ele><time>2026-04-02T14:37:59.999Z</time></trkpt><trkpt lat="43.362893635656945" lon="5.538410274108386"><ele>391.4</ele><time>2026-04-02T14:38:00.999Z</time></trkpt><trkpt lat="43.36292671581949" lon="5.538540256723887"><ele>390.59999999999997</ele><time>2026-04-02T14:38:01.999Z</time></trkpt><trkpt lat="43.36293740293071" lon="5.538674648520976"><ele>389.79999999999995</ele><time>2026-04-02T14:38:02.999Z</time></trkpt><trkpt lat="43.36294112310085" lon="5.538767563612406"><ele>389.0</ele><time>2026-04-02T14:38:03.999Z</time></trkpt><trkpt lat="43.36290696494874" lon="5.538933780970487"><ele>387.66666666666663</ele><time>2026-04-02T14:38:05.999Z</time></trkpt><trkpt lat="43.362876609553716" lon="5.539015872181861"><ele>386.3333333333333</ele><time>2026-04-02T14:38:06.999Z</time></trkpt><trkpt lat="43.36284235136894" lon="5.539103407492913"><ele>385.0</ele><time>2026-04-02T14:38:07.999Z</time></trkpt><trkpt lat="43.36280683487562" lon="5.539187561900687"><ele>383.66666666666663</ele><time>2026-04-02T14:38:08.999Z</time></trkpt><trkpt lat="43.362764745093" lon="5.539286312951888"><ele>382.3333333333333</ele><time>2026-04-02T14:38:09.999Z</time></trkpt><trkpt lat="43.362722522117124" lon="5.539383748110708"><ele>381.0</ele><time>2026-04-02T14:38:10.999Z</time></trkpt><trkpt lat="43.36267623710476" lon="5.539489834078835"><ele>379.1666666666667</ele><time>2026-04-02T14:38:11.999Z</time></trkpt><trkpt lat="43.362638722640064" lon="5.539589443523689"><ele>377.3333333333333</ele><time>2026-04-02T14:38:12.999Z</time></trkpt><trkpt lat="43.36257956107879" lon="5.539676404066238"><ele>375.5</ele><time>2026-04-02T14:38:13.999Z</time></trkpt><trkpt lat="43.3625181880708" lon="5.5397595662784"><ele>373.66666666666663</ele><time>2026-04-02T14:38:14.999Z</time></trkpt><trkpt lat="43.36246642251896" lon="5.539826988639943"><ele>371.8333333333333</ele><time>2026-04-02T14:38:15.999Z</time></trkpt><trkpt lat="43.362410757648185" lon="5.539930232121942"><ele>370.0</ele><time>2026-04-02T14:38:17.999Z</time></trkpt><trkpt lat="43.362453287141186" lon="5.54001491290949"><ele>370.0</ele><time>2026-04-02T14:38:20.999Z</time></trkpt><trkpt lat="43.362527936815255" lon="5.5400559995566185"><ele>370.0</ele><time>2026-04-02T14:38:22.999Z</time></trkpt><trkpt lat="43.36264251739035" lon="5.539999528934734"><ele>370.0</ele><time>2026-04-02T14:38:24.998Z</time></trkpt><trkpt lat="43.36270278544391" lon="5.539973965799078"><ele>370.0</ele><time>2026-04-02T14:38:25.998Z</time></trkpt><trkpt lat="43.36282361986836" lon="5.539918380792963"><ele>370.0</ele><time>2026-04-02T14:38:27.998Z</time></trkpt><trkpt lat="43.36288470923316" lon="5.5398748840396985"><ele>370.0</ele><time>2026-04-02T14:38:28.998Z</time></trkpt><trkpt lat="43.36296353026398" lon="5.539826176395977"><ele>370.0</ele><time>2026-04-02T14:38:29.998Z</time></trkpt><trkpt lat="43.36302856009398" lon="5.539761443544855"><ele>370.0</ele><time>2026-04-02T14:38:30.998Z</time></trkpt><trkpt lat="43.36308980086115" lon="5.53969487724222"><ele>370.0</ele><time>2026-04-02T14:38:31.998Z</time></trkpt><trkpt lat="43.36316359709571" lon="5.539617192608848"><ele>370.0</ele><time>2026-04-02T14:38:32.998Z</time></trkpt><trkpt lat="43.3632388362327" lon="5.539583315123983"><ele>370.0</ele><time>2026-04-02T14:38:33.998Z</time></trkpt><trkpt lat="43.36331547876713" lon="5.53956524887265"><ele>368.3333333333333</ele><time>2026-04-02T14:38:34.998Z</time></trkpt><trkpt lat="43.36338121717604" lon="5.539591603433356"><ele>366.66666666666663</ele><time>2026-04-02T14:38:35.998Z</time></trkpt><trkpt lat="43.363428694126384" lon="5.539648897383596"><ele>365.0</ele><time>2026-04-02T14:38:36.998Z</time></trkpt><trkpt lat="43.36349206415709" lon="5.539711183250112"><ele>363.3333333333333</ele><time>2026-04-02T14:38:37.998Z</time></trkpt><trkpt lat="43.3635616083709" lon="5.53979844807243"><ele>361.6666666666667</ele><time>2026-04-02T14:38:39Z</time></trkpt><trkpt lat="43.36362754888835" lon="5.539897970364088"><ele>360.0</ele><time>2026-04-02T14:38:40Z</time></trkpt><trkpt lat="43.36368229736766" lon="5.5400078413653215"><ele>360.0</ele><time>2026-04-02T14:38:41Z</time></trkpt><trkpt lat="43.363724338719955" lon="5.540133999299065"><ele>360.0</ele><time>2026-04-02T14:38:42Z</time></trkpt><trkpt lat="43.36372025521585" lon="5.540280808166587"><ele>360.0</ele><time>2026-04-02T14:38:43Z</time></trkpt><trkpt lat="43.3637520420091" lon="5.54038631260524"><ele>360.0</ele><time>2026-04-02T14:38:44Z</time></trkpt><trkpt lat="43.36375978662734" lon="5.540507531346935"><ele>360.0</ele><time>2026-04-02T14:38:45Z</time></trkpt><trkpt lat="43.36380293091829" lon="5.540604366314946"><ele>358.4</ele><time>2026-04-02T14:38:46Z</time></trkpt><trkpt lat="43.363839254132984" lon="5.540701101740788"><ele>356.8</ele><time>2026-04-02T14:38:47Z</time></trkpt><trkpt lat="43.36388511478174" lon="5.5407825155502834"><ele>355.20000000000005</ele><time>2026-04-02T14:38:48Z</time></trkpt><trkpt lat="43.36400582566505" lon="5.540879838237171"><ele>353.6</ele><time>2026-04-02T14:38:50Z</time></trkpt><trkpt lat="43.364093445007796" lon="5.540857793101217"><ele>352.0</ele><time>2026-04-02T14:38:51Z</time></trkpt><trkpt lat="43.364180442610134" lon="5.540882264311464"><ele>351.8333333333333</ele><time>2026-04-02T14:38:52Z</time></trkpt><trkpt lat="43.36427003820044" lon="5.540888812900046"><ele>351.66666666666663</ele><time>2026-04-02T14:38:53Z</time></trkpt><trkpt lat="43.36435225561348" lon="5.540917010064529"><ele>351.5</ele><time>2026-04-02T14:38:54Z</time></trkpt><trkpt lat="43.364399160657214" lon="5.541007456174855"><ele>351.3333333333333</ele><time>2026-04-02T14:38:55Z</time></trkpt><trkpt lat="43.36436539694341" lon="5.541133706573813"><ele>351.1666666666667</ele><time>2026-04-02T14:38:56Z</time></trkpt><trkpt lat="43.3643704318429" lon="5.541238995696744"><ele>351.0</ele><time>2026-04-02T14:38:57Z</time></trkpt><trkpt lat="43.364382987024925" lon="5.5413297061372555"><ele>350.0</ele><time>2026-04-02T14:38:58Z</time></trkpt><trkpt lat="43.36441116944963" lon="5.54149922362"><ele>349.0</ele><time>2026-04-02T14:39:00Z</time></trkpt><trkpt lat="43.36442724658833" lon="5.54163425993457"><ele>348.0</ele><time>2026-04-02T14:39:02Z</time></trkpt><trkpt lat="43.36443980683564" lon="5.541769856435142"><ele>347.0</ele><time>2026-04-02T14:39:04Z</time></trkpt><trkpt lat="43.36444025152973" lon="5.541872661729723"><ele>346.0</ele><time>2026-04-02T14:39:07Z</time></trkpt><trkpt lat="43.36451595151095" lon="5.541923480988505"><ele>346.0</ele><time>2026-04-02T14:39:10Z</time></trkpt><trkpt lat="43.36457810467811" lon="5.541959045708534"><ele>346.0</ele><time>2026-04-02T14:39:13Z</time></trkpt><trkpt lat="43.364633660273746" lon="5.5419149906687535"><ele>346.0</ele><time>2026-04-02T14:39:15Z</time></trkpt><trkpt lat="43.36468922334397" lon="5.541965465478396"><ele>346.0</ele><time>2026-04-02T14:39:18.999Z</time></trkpt><trkpt lat="43.364756444102106" lon="5.541982802585122"><ele>346.0</ele><time>2026-04-02T14:39:22.999Z</time></trkpt><trkpt lat="43.36482421141494" lon="5.54198964171223"><ele>346.0</ele><time>2026-04-02T14:39:25.999Z</time></trkpt><trkpt lat="43.364892514986636" lon="5.542003966553297"><ele>346.0</ele><time>2026-04-02T14:39:27.999Z</time></trkpt><trkpt lat="43.36497582482893" lon="5.542014413323925"><ele>345.8</ele><time>2026-04-02T14:39:29.999Z</time></trkpt><trkpt lat="43.36506499301456" lon="5.542028801013535"><ele>345.6</ele><time>2026-04-02T14:39:31.999Z</time></trkpt><trkpt lat="43.365148368736016" lon="5.542014367339686"><ele>345.4</ele><time>2026-04-02T14:39:33.999Z</time></trkpt><trkpt lat="43.36522352448236" lon="5.541943484608847"><ele>345.2</ele><time>2026-04-02T14:39:35.999Z</time></trkpt><trkpt lat="43.365254225994754" lon="5.541816977176662"><ele>345.0</ele><time>2026-04-02T14:39:37.999Z</time></trkpt><trkpt lat="43.36528844470057" lon="5.54167426021524"><ele>345.0</ele><time>2026-04-02T14:39:39.999Z</time></trkpt><trkpt lat="43.365334156421206" lon="5.541519112394881"><ele>345.0</ele><time>2026-04-02T14:39:41.999Z</time></trkpt><trkpt lat="43.36537467552435" lon="5.541443591253012"><ele>345.0</ele><time>2026-04-02T14:39:43.999Z</time></trkpt><trkpt lat="43.36536546263792" lon="5.541347135000341"><ele>345.0</ele><time>2026-04-02T14:39:48.999Z</time></trkpt><trkpt lat="43.36539904064956" lon="5.541265635965631"><ele>345.0</ele><time>2026-04-02T14:39:50.999Z</time></trkpt><trkpt lat="43.36544907958557" lon="5.541146163594322"><ele>345.0</ele><time>2026-04-02T14:39:52.999Z</time></trkpt><trkpt lat="43.36552803850532" lon="5.541044091192209"><ele>345.2</ele><time>2026-04-02T14:39:54.999Z</time></trkpt><trkpt lat="43.36561525499931" lon="5.540927028663104"><ele>345.4</ele><time>2026-04-02T14:39:56.999Z</time></trkpt><trkpt lat="43.36570537570316" lon="5.540804839241264"><ele>345.6</ele><time>2026-04-02T14:39:58.999Z</time></trkpt><trkpt lat="43.365748418674464" lon="5.540740271920636"><ele>345.8</ele><time>2026-04-02T14:39:59.999Z</time></trkpt><trkpt lat="43.36579593792439" lon="5.540672912276059"><ele>346.0</ele><time>2026-04-02T14:40:00.999Z</time></trkpt><trkpt lat="43.365844884554306" lon="5.540598991382868"><ele>346.0</ele><time>2026-04-02T14:40:01.999Z</time></trkpt><trkpt lat="43.36589422887492" lon="5.540534471053067"><ele>346.0</ele><time>2026-04-02T14:40:02.999Z</time></trkpt><trkpt lat="43.3659509471019" lon="5.540474412756159"><ele>346.0</ele><time>2026-04-02T14:40:03.999Z</time></trkpt><trkpt lat="43.36601186130361" lon="5.540427864217316"><ele>346.0</ele><time>2026-04-02T14:40:04.999Z</time></trkpt><trkpt lat="43.36607905341171" lon="5.540381977153199"><ele>346.0</ele><time>2026-04-02T14:40:05.999Z</time></trkpt><trkpt lat="43.36614406463346" lon="5.540341048264765"><ele>346.0</ele><time>2026-04-02T14:40:06.999Z</time></trkpt><trkpt lat="43.366222193344065" lon="5.540292538456905"><ele>346.0</ele><time>2026-04-02T14:40:07.999Z</time></trkpt><trkpt lat="43.36629516883181" lon="5.54023451599977"><ele>345.16666666666663</ele><time>2026-04-02T14:40:08.999Z</time></trkpt><trkpt lat="43.36635945709181" lon="5.5401699352308"><ele>344.3333333333333</ele><time>2026-04-02T14:40:09.999Z</time></trkpt><trkpt lat="43.36642055667024" lon="5.540090354119225"><ele>343.5</ele><time>2026-04-02T14:40:10.999Z</time></trkpt><trkpt lat="43.36646903386843" lon="5.5399888925495535"><ele>342.6666666666667</ele><time>2026-04-02T14:40:11.999Z</time></trkpt><trkpt lat="43.366484443918196" lon="5.539868104439336"><ele>341.83333333333337</ele><time>2026-04-02T14:40:12.999Z</time></trkpt><trkpt lat="43.36650405918208" lon="5.539753834440835"><ele>341.0</ele><time>2026-04-02T14:40:13.999Z</time></trkpt><trkpt lat="43.366530750614785" lon="5.539640398330783"><ele>339.20000000000005</ele><time>2026-04-02T14:40:14.999Z</time></trkpt><trkpt lat="43.366560089837925" lon="5.539526117186625"><ele>337.40000000000003</ele><time>2026-04-02T14:40:15.999Z</time></trkpt><trkpt lat="43.36663423389011" lon="5.539443583653661"><ele>335.6</ele><time>2026-04-02T14:40:16.999Z</time></trkpt><trkpt lat="43.36672982368038" lon="5.539406678707289"><ele>333.8</ele><time>2026-04-02T14:40:17.999Z</time></trkpt><trkpt lat="43.36683164571055" lon="5.539404352086926"><ele>332.0</ele><time>2026-04-02T14:40:18.999Z</time></trkpt><trkpt lat="43.36692499814405" lon="5.5394011650720625"><ele>332.0</ele><time>2026-04-02T14:40:19.999Z</time></trkpt><trkpt lat="43.36701174166867" lon="5.539350238197528"><ele>332.0</ele><time>2026-04-02T14:40:20.999Z</time></trkpt><trkpt lat="43.3671013535586" lon="5.53932469538154"><ele>332.0</ele><time>2026-04-02T14:40:21.999Z</time></trkpt><trkpt lat="43.36718934977336" lon="5.539278288994754"><ele>332.0</ele><time>2026-04-02T14:40:22.999Z</time></trkpt><trkpt lat="43.36726983819189" lon="5.539214550590556"><ele>332.0</ele><time>2026-04-02T14:40:23.999Z</time></trkpt><trkpt lat="43.36735399464499" lon="5.539152228814767"><ele>332.20000000000005</ele><time>2026-04-02T14:40:24.998Z</time></trkpt><trkpt lat="43.36744302765402" lon="5.5391038790127"><ele>332.4</ele><time>2026-04-02T14:40:25.998Z</time></trkpt><trkpt lat="43.3675355028056" lon="5.539061192458418"><ele>332.6</ele><time>2026-04-02T14:40:26.998Z</time></trkpt><trkpt lat="43.367626341171324" lon="5.539022863403863"><ele>332.79999999999995</ele><time>2026-04-02T14:40:27.998Z</time></trkpt><trkpt lat="43.36771698980987" lon="5.538993547737526"><ele>333.0</ele><time>2026-04-02T14:40:28.998Z</time></trkpt><trkpt lat="43.36780223569188" lon="5.53896355447774"><ele>333.0</ele><time>2026-04-02T14:40:29.998Z</time></trkpt><trkpt lat="43.367880761613236" lon="5.538932046217102"><ele>333.0</ele><time>2026-04-02T14:40:30.998Z</time></trkpt><trkpt lat="43.36793571835953" lon="5.5388401557823554"><ele>333.0</ele><time>2026-04-02T14:40:31.998Z</time></trkpt><trkpt lat="43.36797739496369" lon="5.538759221062903"><ele>333.0</ele><time>2026-04-02T14:40:32.998Z</time></trkpt><trkpt lat="43.36804372519581" lon="5.538641565075784"><ele>333.0</ele><time>2026-04-02T14:40:34.998Z</time></trkpt><trkpt lat="43.368108672060075" lon="5.538561857855834"><ele>333.0</ele><time>2026-04-02T14:40:36.998Z</time></trkpt><trkpt lat="43.3681944165414" lon="5.538489785752383"><ele>331.5</ele><time>2026-04-02T14:40:38.998Z</time></trkpt><trkpt lat="43.36829581578641" lon="5.538440101615528"><ele>330.0</ele><time>2026-04-02T14:40:40.998Z</time></trkpt><trkpt lat="43.36835906107888" lon="5.538404146159461"><ele>328.5</ele><time>2026-04-02T14:40:43.998Z</time></trkpt><trkpt lat="43.368430667751866" lon="5.538396121335006"><ele>327.0</ele><time>2026-04-02T14:41:03Z</time></trkpt><trkpt lat="43.36849798537657" lon="5.5383962528363515"><ele>325.5</ele><time>2026-04-02T14:41:06Z</time></trkpt><trkpt lat="43.36856462894977" lon="5.538396931389244"><ele>324.0</ele><time>2026-04-02T14:41:08Z</time></trkpt><trkpt lat="43.3686440665972" lon="5.538405022102909"><ele>324.0</ele><time>2026-04-02T14:41:10Z</time></trkpt><trkpt lat="43.36872166611299" lon="5.538361936608296"><ele>324.0</ele><time>2026-04-02T14:41:12Z</time></trkpt><trkpt lat="43.36881949358585" lon="5.538319159274652"><ele>324.0</ele><time>2026-04-02T14:41:14Z</time></trkpt><trkpt lat="43.36891206834273" lon="5.538206286299724"><ele>324.0</ele><time>2026-04-02T14:41:16Z</time></trkpt><trkpt lat="43.368972988417504" lon="5.5381740129168575"><ele>324.0</ele><time>2026-04-02T14:41:17Z</time></trkpt><trkpt lat="43.3690574885199" lon="5.538047537014226"><ele>323.8333333333333</ele><time>2026-04-02T14:41:19Z</time></trkpt><trkpt lat="43.36907872051031" lon="5.537955106828949"><ele>323.6666666666667</ele><time>2026-04-02T14:41:20Z</time></trkpt><trkpt lat="43.36911636977946" lon="5.537871944920775"><ele>323.5</ele><time>2026-04-02T14:41:21Z</time></trkpt><trkpt lat="43.369156275036175" lon="5.5378000545140855"><ele>323.33333333333337</ele><time>2026-04-02T14:41:22Z</time></trkpt><trkpt lat="43.36922973795865" lon="5.5376554526489485"><ele>323.1666666666667</ele><time>2026-04-02T14:41:24Z</time></trkpt><trkpt lat="43.369269065088695" lon="5.537587281750231"><ele>323.0</ele><time>2026-04-02T14:41:25Z</time></trkpt><trkpt lat="43.36932727434482" lon="5.5375307570988666"><ele>322.0</ele><time>2026-04-02T14:41:26Z</time></trkpt><trkpt lat="43.3693715609477" lon="5.53745617586972"><ele>321.0</ele><time>2026-04-02T14:41:27Z</time></trkpt><trkpt lat="43.369429017300156" lon="5.537403900663149"><ele>320.0</ele><time>2026-04-02T14:41:28Z</time></trkpt><trkpt lat="43.369506807756736" lon="5.537335800426501"><ele>319.0</ele><time>2026-04-02T14:41:30Z</time></trkpt><trkpt lat="43.36959450176693" lon="5.537290187941396"><ele>318.0</ele><time>2026-04-02T14:41:33Z</time></trkpt><trkpt lat="43.36967402442962" lon="5.537308757066232"><ele>317.0</ele><time>2026-04-02T14:41:35.999Z</time></trkpt><trkpt lat="43.36975619859029" lon="5.5373160277866775"><ele>317.0</ele><time>2026-04-02T14:41:42.999Z</time></trkpt><trkpt lat="43.36985070789819" lon="5.537305219520546"><ele>317.0</ele><time>2026-04-02T14:41:45.999Z</time></trkpt><trkpt lat="43.36991833397866" lon="5.537271095342556"><ele>317.0</ele><time>2026-04-02T14:41:47.999Z</time></trkpt><trkpt lat="43.370036675024" lon="5.537250471186288"><ele>317.0</ele><time>2026-04-02T14:42:49.998Z</time></trkpt><trkpt lat="43.370237270357876" lon="5.537214008932215"><ele>317.0</ele><time>2026-04-02T14:42:57Z</time></trkpt><trkpt lat="43.37030736972501" lon="5.537186065710922"><ele>317.0</ele><time>2026-04-02T14:43:01Z</time></trkpt><trkpt lat="43.37037136486728" lon="5.537161197576461"><ele>317.0</ele><time>2026-04-02T14:43:04Z</time></trkpt><trkpt lat="43.37043707775234" lon="5.5371346242714505"><ele>317.0</ele><time>2026-04-02T14:43:07Z</time></trkpt><trkpt lat="43.370500985642906" lon="5.537091236310191"><ele>317.0</ele><time>2026-04-02T14:43:11Z</time></trkpt><trkpt lat="43.37056207355216" lon="5.537046622421579"><ele>317.0</ele><time>2026-04-02T14:43:15Z</time></trkpt><trkpt lat="43.370571063965535" lon="5.536938797702613"><ele>317.0</ele><time>2026-04-02T14:43:19Z</time></trkpt><trkpt lat="43.370562089289535" lon="5.536851656879537"><ele>317.14285714285717</ele><time>2026-04-02T14:43:21Z</time></trkpt><trkpt lat="43.370545796564045" lon="5.5367526914636604"><ele>317.2857142857143</ele><time>2026-04-02T14:43:23Z</time></trkpt><trkpt lat="43.3705283352936" lon="5.536655898982202"><ele>317.42857142857144</ele><time>2026-04-02T14:43:25Z</time></trkpt><trkpt lat="43.37052557201881" lon="5.536553369904065"><ele>317.57142857142856</ele><time>2026-04-02T14:43:27Z</time></trkpt><trkpt lat="43.37053064672025" lon="5.5364579277342285"><ele>317.7142857142857</ele><time>2026-04-02T14:43:29Z</time></trkpt><trkpt lat="43.3705572051396" lon="5.536372913682663"><ele>317.85714285714283</ele><time>2026-04-02T14:43:31Z</time></trkpt><trkpt lat="43.37058879298567" lon="5.536295519896168"><ele>318.0</ele><time>2026-04-02T14:43:33Z</time></trkpt><trkpt lat="43.37063967610858" lon="5.53619034794228"><ele>316.5</ele><time>2026-04-02T14:43:36Z</time></trkpt><trkpt lat="43.3707023549048" lon="5.536087480844409"><ele>315.0</ele><time>2026-04-02T14:43:39Z</time></trkpt><trkpt lat="43.370743611482816" lon="5.536015528498679"><ele>313.5</ele><time>2026-04-02T14:43:41Z</time></trkpt><trkpt lat="43.370788950812354" lon="5.5359417678973"><ele>312.0</ele><time>2026-04-02T14:43:43Z</time></trkpt><trkpt lat="43.37084351167623" lon="5.535873279202654"><ele>310.5</ele><time>2026-04-02T14:43:45Z</time></trkpt><trkpt lat="43.37089249301835" lon="5.535798626687962"><ele>309.0</ele><time>2026-04-02T14:43:46.999Z</time></trkpt><trkpt lat="43.370945829338524" lon="5.535731429147488"><ele>309.00000000000006</ele><time>2026-04-02T14:43:48.999Z</time></trkpt><trkpt lat="43.37099772594845" lon="5.535671173904016"><ele>309.0</ele><time>2026-04-02T14:43:50.999Z</time></trkpt><trkpt lat="43.37104604402678" lon="5.535605874563891"><ele>309.0</ele><time>2026-04-02T14:43:52.999Z</time></trkpt><trkpt lat="43.3711006379093" lon="5.535542199869706"><ele>309.0</ele><time>2026-04-02T14:43:54.999Z</time></trkpt><trkpt lat="43.37116870193415" lon="5.535500799488985"><ele>309.0</ele><time>2026-04-02T14:43:56.999Z</time></trkpt><trkpt lat="43.37123972993938" lon="5.535509939106998"><ele>309.00000000000006</ele><time>2026-04-02T14:43:58.999Z</time></trkpt><trkpt lat="43.3713126645313" lon="5.535568276221825"><ele>309.0</ele><time>2026-04-02T14:44:01.999Z</time></trkpt><trkpt lat="43.3713987002737" lon="5.535594755047067"><ele>310.0</ele><time>2026-04-02T14:44:04.999Z</time></trkpt><trkpt lat="43.371466873106684" lon="5.535613647217951"><ele>311.0</ele><time>2026-04-02T14:44:07.999Z</time></trkpt><trkpt lat="43.37156151163866" lon="5.5356170832902585"><ele>312.0</ele><time>2026-04-02T14:44:10.999Z</time></trkpt><trkpt lat="43.371643588606176" lon="5.535615851363715"><ele>313.0</ele><time>2026-04-02T14:44:13.999Z</time></trkpt><trkpt lat="43.37171432357885" lon="5.535612165362217"><ele>314.0</ele><time>2026-04-02T14:44:16.999Z</time></trkpt><trkpt lat="43.37178869589787" lon="5.535640390306607"><ele>315.0</ele><time>2026-04-02T14:44:19.999Z</time></trkpt><trkpt lat="43.371874543521955" lon="5.535641777633324"><ele>315.0</ele><time>2026-04-02T14:44:22.999Z</time></trkpt><trkpt lat="43.37195702844792" lon="5.535648330388139"><ele>315.0</ele><time>2026-04-02T14:44:25.999Z</time></trkpt><trkpt lat="43.3720420485788" lon="5.535674259314863"><ele>315.0</ele><time>2026-04-02T14:44:28.999Z</time></trkpt><trkpt lat="43.372123964355325" lon="5.535712553061068"><ele>315.0</ele><time>2026-04-02T14:44:31.999Z</time></trkpt><trkpt lat="43.372192498072145" lon="5.535784752307577"><ele>315.0</ele><time>2026-04-02T14:44:34.999Z</time></trkpt><trkpt lat="43.3721988682939" lon="5.5358806919613945"><ele>315.0</ele><time>2026-04-02T14:44:36.999Z</time></trkpt><trkpt lat="43.37222247684774" lon="5.535997232436072"><ele>315.6666666666667</ele><time>2026-04-02T14:44:38.999Z</time></trkpt><trkpt lat="43.3722606571295" lon="5.53609963700014"><ele>316.3333333333333</ele><time>2026-04-02T14:44:40.999Z</time></trkpt><trkpt lat="43.372279340339794" lon="5.536202401147332"><ele>317.0</ele><time>2026-04-02T14:44:42.999Z</time></trkpt><trkpt lat="43.372315128660304" lon="5.536298526451966"><ele>317.66666666666663</ele><time>2026-04-02T14:44:44.999Z</time></trkpt><trkpt lat="43.37235045063897" lon="5.536374595570119"><ele>318.3333333333333</ele><time>2026-04-02T14:44:46.999Z</time></trkpt><trkpt lat="43.37238243854988" lon="5.53645348697897"><ele>319.0</ele><time>2026-04-02T14:44:49.998Z</time></trkpt><trkpt lat="43.372427655166426" lon="5.536570820089705"><ele>319.14285714285717</ele><time>2026-04-02T14:44:53.998Z</time></trkpt><trkpt lat="43.372468309305596" lon="5.536652110459173"><ele>319.2857142857143</ele><time>2026-04-02T14:44:55.998Z</time></trkpt><trkpt lat="43.37248463899164" lon="5.536744676295213"><ele>319.42857142857144</ele><time>2026-04-02T14:44:58Z</time></trkpt><trkpt lat="43.372490164778455" lon="5.536849953201258"><ele>319.57142857142856</ele><time>2026-04-02T14:45:00Z</time></trkpt><trkpt lat="43.3725260723219" lon="5.536949704387439"><ele>319.7142857142857</ele><time>2026-04-02T14:45:04Z</time></trkpt><trkpt lat="43.372560895516536" lon="5.537043353319938"><ele>319.85714285714283</ele><time>2026-04-02T14:45:08Z</time></trkpt><trkpt lat="43.372602555403056" lon="5.537115714935784"><ele>320.0</ele><time>2026-04-02T14:45:11Z</time></trkpt><trkpt lat="43.372645730532156" lon="5.5371936931207975"><ele>320.5</ele><time>2026-04-02T14:45:14Z</time></trkpt><trkpt lat="43.37269217870516" lon="5.537285890316782"><ele>321.0</ele><time>2026-04-02T14:45:17Z</time></trkpt><trkpt lat="43.37272419983089" lon="5.537388620242827"><ele>321.5</ele><time>2026-04-02T14:45:19Z</time></trkpt><trkpt lat="43.372740836643295" lon="5.5374868038396"><ele>322.0</ele><time>2026-04-02T14:45:26Z</time></trkpt><trkpt lat="43.37275092921785" lon="5.537574686242315"><ele>322.5</ele><time>2026-04-02T14:45:29Z</time></trkpt><trkpt lat="43.372713916154446" lon="5.537676549088649"><ele>323.0</ele><time>2026-04-02T14:45:33Z</time></trkpt><trkpt lat="43.37271084679703" lon="5.537768840780814"><ele>323.00000000000006</ele><time>2026-04-02T14:45:36Z</time></trkpt><trkpt lat="43.372698075406646" lon="5.5378590264683085"><ele>323.0</ele><time>2026-04-02T14:45:39Z</time></trkpt><trkpt lat="43.372720135636655" lon="5.537964022121395"><ele>323.0</ele><time>2026-04-02T14:45:43Z</time></trkpt><trkpt lat="43.372777617917386" lon="5.538021206385107"><ele>323.0</ele><time>2026-04-02T14:45:46Z</time></trkpt><trkpt lat="43.37282505462447" lon="5.538085698456432"><ele>323.0</ele><time>2026-04-02T14:45:58.999Z</time></trkpt><trkpt lat="43.3728657367351" lon="5.538152154862812"><ele>323.00000000000006</ele><time>2026-04-02T14:46:05.999Z</time></trkpt><trkpt lat="43.372942328694194" lon="5.5381732688463465"><ele>323.0</ele><time>2026-04-02T14:49:22Z</time></trkpt><trkpt lat="43.373019721831426" lon="5.538210767229604"><ele>323.28571428571433</ele><time>2026-04-02T14:49:26Z</time></trkpt><trkpt lat="43.373104014066804" lon="5.5382206892371055"><ele>323.57142857142856</ele><time>2026-04-02T14:49:30Z</time></trkpt><trkpt lat="43.37317696231883" lon="5.538195432666711"><ele>323.8571428571429</ele><time>2026-04-02T14:49:33.999Z</time></trkpt><trkpt lat="43.37325073518686" lon="5.538175285534577"><ele>324.14285714285717</ele><time>2026-04-02T14:49:36.999Z</time></trkpt><trkpt lat="43.373314862362164" lon="5.538139684759197"><ele>324.42857142857144</ele><time>2026-04-02T14:49:39.999Z</time></trkpt><trkpt lat="43.37337632068458" lon="5.538107845991733"><ele>324.7142857142857</ele><time>2026-04-02T14:49:41.999Z</time></trkpt><trkpt lat="43.37343897724173" lon="5.538074256892391"><ele>325.0</ele><time>2026-04-02T14:49:44.999Z</time></trkpt><trkpt lat="43.373523857907465" lon="5.5380391499966555"><ele>325.0</ele><time>2026-04-02T14:49:47.999Z</time></trkpt><trkpt lat="43.373585965110415" lon="5.53801821894062"><ele>325.0</ele><time>2026-04-02T14:49:49.999Z</time></trkpt><trkpt lat="43.37367785745468" lon="5.537998391364334"><ele>325.0</ele><time>2026-04-02T14:49:52.999Z</time></trkpt><trkpt lat="43.37375816383729" lon="5.537975419245127"><ele>325.0</ele><time>2026-04-02T14:49:55.999Z</time></trkpt><trkpt lat="43.37384975893274" lon="5.537944850280789"><ele>325.0</ele><time>2026-04-02T14:49:58.999Z</time></trkpt><trkpt lat="43.373931523468165" lon="5.537918766148948"><ele>325.0</ele><time>2026-04-02T14:50:01.999Z</time></trkpt><trkpt lat="43.374015357004986" lon="5.537887804294698"><ele>325.16666666666663</ele><time>2026-04-02T14:50:05.999Z</time></trkpt><trkpt lat="43.374108279400666" lon="5.537855481410588"><ele>325.3333333333333</ele><time>2026-04-02T14:50:08.999Z</time></trkpt><trkpt lat="43.374168758204235" lon="5.537827827159049"><ele>325.5</ele><time>2026-04-02T14:50:10.999Z</time></trkpt><trkpt lat="43.37425611105091" lon="5.53778978596523"><ele>325.6666666666667</ele><time>2026-04-02T14:50:13.999Z</time></trkpt><trkpt lat="43.37433846345027" lon="5.537752962472785"><ele>325.83333333333337</ele><time>2026-04-02T14:50:16.999Z</time></trkpt><trkpt lat="43.37442033205262" lon="5.537720603190859"><ele>326.0</ele><time>2026-04-02T14:50:19.999Z</time></trkpt><trkpt lat="43.3745003164788" lon="5.537695230368279"><ele>326.0</ele><time>2026-04-02T14:50:22.999Z</time></trkpt><trkpt lat="43.374583270327875" lon="5.537660055168205"><ele>326.0</ele><time>2026-04-02T14:50:25.999Z</time></trkpt><trkpt lat="43.3746518688263" lon="5.537644874653417"><ele>326.0</ele><time>2026-04-02T14:50:28.999Z</time></trkpt><trkpt lat="43.37471781544052" lon="5.5376462633949926"><ele>326.0</ele><time>2026-04-02T14:50:30.999Z</time></trkpt><trkpt lat="43.37479996523549" lon="5.537657937166465"><ele>326.0</ele><time>2026-04-02T14:50:32.999Z</time></trkpt><trkpt lat="43.37486724659163" lon="5.537681307136712"><ele>326.0</ele><time>2026-04-02T14:50:34.999Z</time></trkpt><trkpt lat="43.37494384519501" lon="5.537729120666969"><ele>326.5</ele><time>2026-04-02T14:50:37.999Z</time></trkpt><trkpt lat="43.374997315349994" lon="5.537775244646632"><ele>327.0</ele><time>2026-04-02T14:50:39.999Z</time></trkpt><trkpt lat="43.37506203000369" lon="5.537807354119601"><ele>327.5</ele><time>2026-04-02T14:50:41.998Z</time></trkpt><trkpt lat="43.37514209496676" lon="5.5378638610595825"><ele>328.0</ele><time>2026-04-02T14:50:44.998Z</time></trkpt><trkpt lat="43.37521639665509" lon="5.537877465458099"><ele>328.5</ele><time>2026-04-02T14:50:46.998Z</time></trkpt><trkpt lat="43.37528266457895" lon="5.537896250945577"><ele>329.0</ele><time>2026-04-02T14:50:48.998Z</time></trkpt><trkpt lat="43.37534528106697" lon="5.537982802591383"><ele>329.42857142857144</ele><time>2026-04-02T14:50:51.998Z</time></trkpt><trkpt lat="43.37538954302316" lon="5.538060637769251"><ele>329.8571428571429</ele><time>2026-04-02T14:50:53.998Z</time></trkpt><trkpt lat="43.37543634538857" lon="5.538128134256647"><ele>330.2857142857143</ele><time>2026-04-02T14:50:55.998Z</time></trkpt><trkpt lat="43.375503586496045" lon="5.53817982143146"><ele>330.7142857142857</ele><time>2026-04-02T14:50:57.998Z</time></trkpt><trkpt lat="43.37556767532799" lon="5.538237171742269"><ele>331.14285714285717</ele><time>2026-04-02T14:50:59.998Z</time></trkpt><trkpt lat="43.37562143109825" lon="5.538303055637433"><ele>331.57142857142856</ele><time>2026-04-02T14:51:01.998Z</time></trkpt><trkpt lat="43.375673353795264" lon="5.538357396327573"><ele>332.0</ele><time>2026-04-02T14:51:03.998Z</time></trkpt><trkpt lat="43.375729844162024" lon="5.5384120946184465"><ele>332.33333333333337</ele><time>2026-04-02T14:51:05.998Z</time></trkpt><trkpt lat="43.37582232757552" lon="5.538462722923925"><ele>332.6666666666667</ele><time>2026-04-02T14:51:08.998Z</time></trkpt><trkpt lat="43.375888847327424" lon="5.538494371705854"><ele>333.0</ele><time>2026-04-02T14:51:10.998Z</time></trkpt><trkpt lat="43.375959949564304" lon="5.538524488333504"><ele>333.3333333333333</ele><time>2026-04-02T14:51:12.998Z</time></trkpt><trkpt lat="43.37602509827434" lon="5.538571379845911"><ele>333.66666666666663</ele><time>2026-04-02T14:51:14.999Z</time></trkpt><trkpt lat="43.376111987320954" lon="5.538618881881777"><ele>334.0</ele><time>2026-04-02T14:51:17.999Z</time></trkpt><trkpt lat="43.376167003422964" lon="5.5386647783347085"><ele>334.0</ele><time>2026-04-02T14:51:19.999Z</time></trkpt><trkpt lat="43.37622903664942" lon="5.538704237606414"><ele>334.0</ele><time>2026-04-02T14:51:21.999Z</time></trkpt><trkpt lat="43.37628483565693" lon="5.538749167626712"><ele>334.0</ele><time>2026-04-02T14:51:23.999Z</time></trkpt><trkpt lat="43.37636195976341" lon="5.538809847945442"><ele>334.0</ele><time>2026-04-02T14:51:26.999Z</time></trkpt><trkpt lat="43.37642846346455" lon="5.538896275793648"><ele>334.0</ele><time>2026-04-02T14:51:29.999Z</time></trkpt><trkpt lat="43.376483925821546" lon="5.538941814378996"><ele>334.0</ele><time>2026-04-02T14:51:32.999Z</time></trkpt><trkpt lat="43.37654485489415" lon="5.538978902912754"><ele>334.0</ele><time>2026-04-02T14:51:36.999Z</time></trkpt><trkpt lat="43.37662058861422" lon="5.539048934829504"><ele>334.0</ele><time>2026-04-02T14:51:40.999Z</time></trkpt><trkpt lat="43.376680118210885" lon="5.539094213901467"><ele>334.0</ele><time>2026-04-02T14:51:42.999Z</time></trkpt><trkpt lat="43.376740413931294" lon="5.539134300740311"><ele>334.0</ele><time>2026-04-02T14:51:44.999Z</time></trkpt><trkpt lat="43.37679981235111" lon="5.539184207119695"><ele>334.0</ele><time>2026-04-02T14:51:46.999Z</time></trkpt><trkpt lat="43.376856703437845" lon="5.5392329530380255"><ele>334.0</ele><time>2026-04-02T14:51:48.999Z</time></trkpt><trkpt lat="43.37693335195572" lon="5.539287677315542"><ele>334.0</ele><time>2026-04-02T14:51:51.999Z</time></trkpt><trkpt lat="43.37699781808802" lon="5.539335189007118"><ele>334.0</ele><time>2026-04-02T14:51:54.999Z</time></trkpt><trkpt lat="43.37706069726991" lon="5.5393515943572575"><ele>334.0</ele><time>2026-04-02T14:51:57.999Z</time></trkpt><trkpt lat="43.377124801256564" lon="5.539369069736837"><ele>334.0</ele><time>2026-04-02T14:52:00.999Z</time></trkpt><trkpt lat="43.37719460651678" lon="5.539363527171814"><ele>334.0</ele><time>2026-04-02T14:52:03.999Z</time></trkpt><trkpt lat="43.37727021739076" lon="5.539345563258005"><ele>334.0</ele><time>2026-04-02T14:52:18.999Z</time></trkpt><trkpt lat="43.3773353524731" lon="5.539338046857349"><ele>334.0</ele><time>2026-04-02T14:52:21.999Z</time></trkpt><trkpt lat="43.37741626395147" lon="5.539310785561527"><ele>334.0</ele><time>2026-04-02T14:52:24.999Z</time></trkpt><trkpt lat="43.377482934590844" lon="5.5392584134277625"><ele>334.0</ele><time>2026-04-02T14:52:27.999Z</time></trkpt><trkpt lat="43.37753187720236" lon="5.539196246601785"><ele>334.66666666666663</ele><time>2026-04-02T14:52:31.999Z</time></trkpt><trkpt lat="43.37759078882574" lon="5.539125071402978"><ele>335.3333333333333</ele><time>2026-04-02T14:52:34.999Z</time></trkpt><trkpt lat="43.37765574831587" lon="5.539034966955042"><ele>336.0</ele><time>2026-04-02T14:52:37.999Z</time></trkpt><trkpt lat="43.37770224890797" lon="5.538972769358721"><ele>336.6666666666667</ele><time>2026-04-02T14:52:39.999Z</time></trkpt><trkpt lat="43.37776544321778" lon="5.5389166731600055"><ele>337.33333333333337</ele><time>2026-04-02T14:52:42.999Z</time></trkpt><trkpt lat="43.37784120652525" lon="5.538863118323181"><ele>338.0</ele><time>2026-04-02T14:52:45.999Z</time></trkpt><trkpt lat="43.37790331985402" lon="5.538836610157168"><ele>338.0</ele><time>2026-04-02T14:52:47.999Z</time></trkpt><trkpt lat="43.377992138194195" lon="5.538829025205202"><ele>338.0</ele><time>2026-04-02T14:52:50.999Z</time></trkpt><trkpt lat="43.378077407673544" lon="5.538843841357662"><ele>338.0</ele><time>2026-04-02T14:52:53.998Z</time></trkpt><trkpt lat="43.37813534045355" lon="5.538883610606186"><ele>338.0</ele><time>2026-04-02T14:52:56.998Z</time></trkpt><trkpt lat="43.37820628003758" lon="5.538931634345449"><ele>338.0</ele><time>2026-04-02T14:52:59.998Z</time></trkpt><trkpt lat="43.37824367495286" lon="5.539003180223409"><ele>338.0</ele><time>2026-04-02T14:53:02.998Z</time></trkpt><trkpt lat="43.37827779074678" lon="5.539081715709163"><ele>338.0</ele><time>2026-04-02T14:53:07.998Z</time></trkpt><trkpt lat="43.378301190525356" lon="5.53917525975209"><ele>338.2857142857143</ele><time>2026-04-02T14:53:12.998Z</time></trkpt><trkpt lat="43.378286048728434" lon="5.539268851969101"><ele>338.57142857142856</ele><time>2026-04-02T14:53:16.998Z</time></trkpt><trkpt lat="43.37826016320459" lon="5.53936353481491"><ele>338.8571428571429</ele><time>2026-04-02T14:53:21.999Z</time></trkpt><trkpt lat="43.37822670277482" lon="5.539444907257132"><ele>339.1428571428571</ele><time>2026-04-02T14:53:24.999Z</time></trkpt><trkpt lat="43.378215961032495" lon="5.539532569025463"><ele>339.4285714285714</ele><time>2026-04-02T14:53:27.999Z</time></trkpt><trkpt lat="43.378209857334774" lon="5.539620384004809"><ele>339.7142857142857</ele><time>2026-04-02T14:53:30.999Z</time></trkpt><trkpt lat="43.37820529380634" lon="5.539710007390751"><ele>340.0</ele><time>2026-04-02T14:53:34.999Z</time></trkpt><trkpt lat="43.378192953841605" lon="5.539809079805527"><ele>340.3333333333333</ele><time>2026-04-02T14:53:38.999Z</time></trkpt><trkpt lat="43.37821028221752" lon="5.539934270969612"><ele>340.66666666666663</ele><time>2026-04-02T14:53:42.999Z</time></trkpt><trkpt lat="43.378226683471574" lon="5.5400430268265435"><ele>341.0</ele><time>2026-04-02T14:53:46.999Z</time></trkpt><trkpt lat="43.37821401213693" lon="5.540131200009762"><ele>341.3333333333333</ele><time>2026-04-02T14:53:49.999Z</time></trkpt><trkpt lat="43.37821464626502" lon="5.540226992303816"><ele>341.6666666666667</ele><time>2026-04-02T14:53:52.999Z</time></trkpt><trkpt lat="43.37822743790932" lon="5.540336782448258"><ele>342.0</ele><time>2026-04-02T14:53:55.999Z</time></trkpt><trkpt lat="43.37822971612307" lon="5.540440156278531"><ele>342.0</ele><time>2026-04-02T14:53:58.999Z</time></trkpt><trkpt lat="43.378235100856756" lon="5.540547003083213"><ele>342.0</ele><time>2026-04-02T14:54:01.999Z</time></trkpt><trkpt lat="43.37824853512899" lon="5.540658685213292"><ele>342.0</ele><time>2026-04-02T14:54:04.999Z</time></trkpt><trkpt lat="43.378269855317455" lon="5.540777463517517"><ele>342.0</ele><time>2026-04-02T14:54:07.999Z</time></trkpt><trkpt lat="43.37830225721552" lon="5.540890105147938"><ele>342.0</ele><time>2026-04-02T14:54:10.999Z</time></trkpt><trkpt lat="43.37838202432227" lon="5.54091577458295"><ele>342.0</ele><time>2026-04-02T14:54:13.999Z</time></trkpt><trkpt lat="43.37845172127532" lon="5.540994262517305"><ele>342.0</ele><time>2026-04-02T14:54:16.999Z</time></trkpt><trkpt lat="43.378492283205944" lon="5.54110214181856"><ele>342.0</ele><time>2026-04-02T14:54:19.999Z</time></trkpt><trkpt lat="43.37856012745804" lon="5.541179103396114"><ele>342.0</ele><time>2026-04-02T14:54:22.999Z</time></trkpt><trkpt lat="43.37861416267029" lon="5.541248224732502"><ele>342.0</ele><time>2026-04-02T14:54:24.999Z</time></trkpt><trkpt lat="43.37863855728983" lon="5.541335323192049"><ele>342.0</ele><time>2026-04-02T14:54:26.999Z</time></trkpt><trkpt lat="43.37871360378677" lon="5.541416963178558"><ele>342.0</ele><time>2026-04-02T14:54:29.999Z</time></trkpt><trkpt lat="43.3787801965194" lon="5.541475969609623"><ele>341.8333333333333</ele><time>2026-04-02T14:54:32.999Z</time></trkpt><trkpt lat="43.378843267198825" lon="5.541438237301778"><ele>341.6666666666667</ele><time>2026-04-02T14:54:39.999Z</time></trkpt><trkpt lat="43.37890935961641" lon="5.541408507293889"><ele>341.5</ele><time>2026-04-02T14:54:49.999Z</time></trkpt><trkpt lat="43.378957658419544" lon="5.541304812644325"><ele>341.33333333333337</ele><time>2026-04-02T14:54:52.999Z</time></trkpt><trkpt lat="43.379025902316435" lon="5.541250230963387"><ele>341.1666666666667</ele><time>2026-04-02T14:55:56.999Z</time></trkpt><trkpt lat="43.37908990859541" lon="5.541224387507076"><ele>341.0</ele><time>2026-04-02T14:55:58.999Z</time></trkpt><trkpt lat="43.37916790624752" lon="5.5412190755694635"><ele>341.42857142857144</ele><time>2026-04-02T14:56:01.999Z</time></trkpt><trkpt lat="43.37923341469603" lon="5.541186426111607"><ele>341.8571428571429</ele><time>2026-04-02T14:56:04.999Z</time></trkpt><trkpt lat="43.3792978950463" lon="5.541146864022221"><ele>342.28571428571433</ele><time>2026-04-02T14:56:07.999Z</time></trkpt><trkpt lat="43.37936984312997" lon="5.541109973234291"><ele>342.7142857142857</ele><time>2026-04-02T14:56:10.999Z</time></trkpt><trkpt lat="43.37943637348003" lon="5.541087045496016"><ele>343.14285714285717</ele><time>2026-04-02T14:56:13.999Z</time></trkpt><trkpt lat="43.37949899715459" lon="5.541047045179314"><ele>343.5714285714286</ele><time>2026-04-02T14:56:16.999Z</time></trkpt><trkpt lat="43.37957334717895" lon="5.541039462069437"><ele>344.0</ele><time>2026-04-02T14:56:19.999Z</time></trkpt><trkpt lat="43.3796375214299" lon="5.541046666404167"><ele>344.5714285714286</ele><time>2026-04-02T14:56:23.999Z</time></trkpt><trkpt lat="43.37970187725083" lon="5.541075940410141"><ele>345.14285714285717</ele><time>2026-04-02T14:56:27.999Z</time></trkpt><trkpt lat="43.37975832174633" lon="5.541123091378945"><ele>345.7142857142857</ele><time>2026-04-02T14:56:33.999Z</time></trkpt><trkpt lat="43.37981788190242" lon="5.541188612456582"><ele>346.28571428571433</ele><time>2026-04-02T14:56:39.999Z</time></trkpt><trkpt lat="43.37987465773469" lon="5.541230635226163"><ele>346.8571428571429</ele><time>2026-04-02T14:56:44.999Z</time></trkpt><trkpt lat="43.37993085287199" lon="5.541293537925028"><ele>347.42857142857144</ele><time>2026-04-02T14:56:49.999Z</time></trkpt><trkpt lat="43.37998907057656" lon="5.541339613747348"><ele>348.0</ele><time>2026-04-02T14:56:56.999Z</time></trkpt><trkpt lat="43.380051314694455" lon="5.541380498018213"><ele>348.42857142857144</ele><time>2026-04-02T14:57:03.999Z</time></trkpt><trkpt lat="43.38011589553822" lon="5.541416852082313"><ele>348.8571428571429</ele><time>2026-04-02T14:57:10.999Z</time></trkpt><trkpt lat="43.38018544284487" lon="5.5414471710395325"><ele>349.28571428571433</ele><time>2026-04-02T14:57:17.999Z</time></trkpt><trkpt lat="43.380249631564034" lon="5.541502009864171"><ele>349.7142857142857</ele><time>2026-04-02T14:57:24.999Z</time></trkpt><trkpt lat="43.380314406762686" lon="5.541527815607345"><ele>350.14285714285717</ele><time>2026-04-02T14:57:29.999Z</time></trkpt><trkpt lat="43.380383166298515" lon="5.541570441744053"><ele>350.5714285714286</ele><time>2026-04-02T14:57:36Z</time></trkpt><trkpt lat="43.38044271169528" lon="5.541613717804877"><ele>351.0</ele><time>2026-04-02T14:57:42Z</time></trkpt><trkpt lat="43.38050277290349" lon="5.541650890754393"><ele>352.42857142857144</ele><time>2026-04-02T14:57:48Z</time></trkpt><trkpt lat="43.380568340989555" lon="5.541690305466515"><ele>353.8571428571429</ele><time>2026-04-02T14:57:54Z</time></trkpt><trkpt lat="43.38062994535173" lon="5.541726404169073"><ele>355.28571428571433</ele><time>2026-04-02T14:57:59Z</time></trkpt><trkpt lat="43.380701063413575" lon="5.541767624218228"><ele>356.7142857142857</ele><time>2026-04-02T14:58:03Z</time></trkpt><trkpt lat="43.38077386937077" lon="5.541803985499246"><ele>358.1428571428571</ele><time>2026-04-02T14:58:08Z</time></trkpt><trkpt lat="43.38084583136204" lon="5.541820190525982"><ele>359.5714285714286</ele><time>2026-04-02T14:58:13Z</time></trkpt><trkpt lat="43.380915643593475" lon="5.541847244514909"><ele>361.0</ele><time>2026-04-02T14:58:18Z</time></trkpt><trkpt lat="43.38098446475538" lon="5.541854912701107"><ele>361.0</ele><time>2026-04-02T14:58:23Z</time></trkpt><trkpt lat="43.38106039697563" lon="5.5418638894216015"><ele>361.0</ele><time>2026-04-02T14:58:28Z</time></trkpt><trkpt lat="43.38113290337548" lon="5.541886646093059"><ele>361.0</ele><time>2026-04-02T14:58:32Z</time></trkpt><trkpt lat="43.3812067432241" lon="5.541905656801209"><ele>361.0</ele><time>2026-04-02T14:58:37Z</time></trkpt><trkpt lat="43.38127137582935" lon="5.54191705726434"><ele>361.0</ele><time>2026-04-02T14:58:41Z</time></trkpt><trkpt lat="43.381339228271" lon="5.541929963881414"><ele>361.0</ele><time>2026-04-02T14:58:44.999Z</time></trkpt><trkpt lat="43.38140941112975" lon="5.541939208574606"><ele>361.0</ele><time>2026-04-02T14:58:48.999Z</time></trkpt><trkpt lat="43.38147969298101" lon="5.541946181297477"><ele>362.2857142857143</ele><time>2026-04-02T14:58:52.999Z</time></trkpt><trkpt lat="43.381551565360866" lon="5.541942473728644"><ele>363.57142857142856</ele><time>2026-04-02T14:58:56.999Z</time></trkpt><trkpt lat="43.38162536212554" lon="5.541932605788548"><ele>364.85714285714283</ele><time>2026-04-02T14:59:00.999Z</time></trkpt><trkpt lat="43.38169673582107" lon="5.541891539130755"><ele>366.1428571428571</ele><time>2026-04-02T14:59:04.999Z</time></trkpt><trkpt lat="43.38175955060002" lon="5.541844060024408"><ele>367.42857142857144</ele><time>2026-04-02T14:59:08.999Z</time></trkpt><trkpt lat="43.3818220253868" lon="5.54180913825521"><ele>368.71428571428567</ele><time>2026-04-02T14:59:12.999Z</time></trkpt><trkpt lat="43.38187733822357" lon="5.541744866413949"><ele>370.0</ele><time>2026-04-02T14:59:16.999Z</time></trkpt><trkpt lat="43.38192552793644" lon="5.541681849331758"><ele>369.99999999999994</ele><time>2026-04-02T14:59:20.999Z</time></trkpt><trkpt lat="43.38198476058091" lon="5.54163996963412"><ele>370.0</ele><time>2026-04-02T14:59:24.999Z</time></trkpt><trkpt lat="43.382048357025475" lon="5.541607770194182"><ele>370.0</ele><time>2026-04-02T14:59:28.999Z</time></trkpt><trkpt lat="43.38211314746907" lon="5.541579399214474"><ele>370.0</ele><time>2026-04-02T14:59:32.999Z</time></trkpt><trkpt lat="43.382183645580454" lon="5.541555716533784"><ele>370.0</ele><time>2026-04-02T14:59:38Z</time></trkpt><trkpt lat="43.38224769918863" lon="5.541566506583779"><ele>369.99999999999994</ele><time>2026-04-02T14:59:42Z</time></trkpt><trkpt lat="43.38231071788046" lon="5.541566542758765"><ele>370.0</ele><time>2026-04-02T14:59:46Z</time></trkpt><trkpt lat="43.38237685659509" lon="5.5415803013295415"><ele>370.8333333333333</ele><time>2026-04-02T14:59:50Z</time></trkpt><trkpt lat="43.38245325003611" lon="5.541584685174891"><ele>371.66666666666663</ele><time>2026-04-02T14:59:55Z</time></trkpt><trkpt lat="43.38252166286171" lon="5.541593763405712"><ele>372.5</ele><time>2026-04-02T14:59:58Z</time></trkpt><trkpt lat="43.38260057588391" lon="5.541603758515724"><ele>373.3333333333333</ele><time>2026-04-02T15:00:02Z</time></trkpt><trkpt lat="43.382674257214674" lon="5.541606591548451"><ele>374.1666666666667</ele><time>2026-04-02T15:00:06Z</time></trkpt><trkpt lat="43.3827546785248" lon="5.541598132420469"><ele>375.0</ele><time>2026-04-02T15:00:10Z</time></trkpt><trkpt lat="43.382832453009186" lon="5.541590933665519"><ele>375.0</ele><time>2026-04-02T15:00:14Z</time></trkpt><trkpt lat="43.38290589455967" lon="5.541584831063521"><ele>375.0</ele><time>2026-04-02T15:00:18Z</time></trkpt><trkpt lat="43.38297966699185" lon="5.541569127831448"><ele>375.0</ele><time>2026-04-02T15:00:22Z</time></trkpt><trkpt lat="43.383047218355564" lon="5.5415500955658334"><ele>375.0</ele><time>2026-04-02T15:00:25Z</time></trkpt><trkpt lat="43.38312737314772" lon="5.541545510477973"><ele>375.0</ele><time>2026-04-02T15:00:29Z</time></trkpt><trkpt lat="43.38320169554511" lon="5.5415525590329064"><ele>375.0</ele><time>2026-04-02T15:00:33Z</time></trkpt><trkpt lat="43.38326598714209" lon="5.541567501624575"><ele>375.0</ele><time>2026-04-02T15:00:36Z</time></trkpt><trkpt lat="43.38332953931881" lon="5.541581713591025"><ele>375.42857142857144</ele><time>2026-04-02T15:00:40Z</time></trkpt><trkpt lat="43.38339219912632" lon="5.541609628478192"><ele>375.85714285714283</ele><time>2026-04-02T15:00:44Z</time></trkpt><trkpt lat="43.38346034738575" lon="5.541628519987186"><ele>376.2857142857143</ele><time>2026-04-02T15:00:49Z</time></trkpt><trkpt lat="43.383519132486946" lon="5.541673688851834"><ele>376.7142857142857</ele><time>2026-04-02T15:00:53.999Z</time></trkpt><trkpt lat="43.383579142582036" lon="5.541722143858248"><ele>377.1428571428571</ele><time>2026-04-02T15:00:58.999Z</time></trkpt><trkpt lat="43.38363666429707" lon="5.541767450451121"><ele>377.57142857142856</ele><time>2026-04-02T15:01:02.999Z</time></trkpt><trkpt lat="43.383690131899804" lon="5.541816193220198"><ele>378.0</ele><time>2026-04-02T15:01:07.999Z</time></trkpt><trkpt lat="43.383746717656685" lon="5.541869620365717"><ele>378.0</ele><time>2026-04-02T15:01:12.999Z</time></trkpt><trkpt lat="43.383806866041695" lon="5.541918730366247"><ele>378.0</ele><time>2026-04-02T15:01:17.999Z</time></trkpt><trkpt lat="43.3838699695546" lon="5.541970425757497"><ele>378.0</ele><time>2026-04-02T15:01:22.999Z</time></trkpt><trkpt lat="43.383930407244044" lon="5.542017992400036"><ele>378.0</ele><time>2026-04-02T15:01:27.999Z</time></trkpt><trkpt lat="43.38398900198486" lon="5.5420635141717876"><ele>378.0</ele><time>2026-04-02T15:01:38.999Z</time></trkpt><trkpt lat="43.38404316972842" lon="5.542115050844106"><ele>378.0</ele><time>2026-04-02T15:01:44.001Z</time></trkpt><trkpt lat="43.38410364100467" lon="5.542169668921935"><ele>378.0</ele><time>2026-04-02T15:01:50.001Z</time></trkpt><trkpt lat="43.38415990983489" lon="5.542217334409211"><ele>380.42857142857144</ele><time>2026-04-02T15:01:55.001Z</time></trkpt><trkpt lat="43.3842186446747" lon="5.542276091277144"><ele>382.8571428571429</ele><time>2026-04-02T15:02:01Z</time></trkpt><trkpt lat="43.384278811394864" lon="5.542317790825194"><ele>385.2857142857143</ele><time>2026-04-02T15:02:06Z</time></trkpt><trkpt lat="43.38433817744316" lon="5.542355376485423"><ele>387.7142857142857</ele><time>2026-04-02T15:02:10Z</time></trkpt><trkpt lat="43.38441182987133" lon="5.542390144073648"><ele>390.14285714285717</ele><time>2026-04-02T15:02:15Z</time></trkpt><trkpt lat="43.384484820720665" lon="5.542413966326718"><ele>392.57142857142856</ele><time>2026-04-02T15:02:20Z</time></trkpt><trkpt lat="43.38456127513432" lon="5.5424423610857465"><ele>395.0</ele><time>2026-04-02T15:02:25Z</time></trkpt><trkpt lat="43.384606387265336" lon="5.542503055259207"><ele>395.0</ele><time>2026-04-02T15:02:29Z</time></trkpt><trkpt lat="43.38462489952032" lon="5.542590688064197"><ele>395.0</ele><time>2026-04-02T15:02:34Z</time></trkpt><trkpt lat="43.38461780945819" lon="5.542692267020128"><ele>395.0</ele><time>2026-04-02T15:02:39Z</time></trkpt><trkpt lat="43.384591037254715" lon="5.54277846937369"><ele>395.0</ele><time>2026-04-02T15:02:43Z</time></trkpt><trkpt lat="43.38455713245181" lon="5.542864113461249"><ele>395.0</ele><time>2026-04-02T15:02:47Z</time></trkpt><trkpt lat="43.38451562858432" lon="5.542947610252271"><ele>395.0</ele><time>2026-04-02T15:02:52Z</time></trkpt><trkpt lat="43.38447786262319" lon="5.5430414998669075"><ele>395.0</ele><time>2026-04-02T15:02:57Z</time></trkpt><trkpt lat="43.384491545605094" lon="5.543134983652274"><ele>395.1428571428571</ele><time>2026-04-02T15:03:01.999Z</time></trkpt><trkpt lat="43.38454135947243" lon="5.543196846405322"><ele>395.28571428571433</ele><time>2026-04-02T15:03:06.999Z</time></trkpt><trkpt lat="43.38460769206366" lon="5.5432011988061545"><ele>395.42857142857144</ele><time>2026-04-02T15:03:13.999Z</time></trkpt><trkpt lat="43.38467259584873" lon="5.543202948609852"><ele>395.57142857142856</ele><time>2026-04-02T15:03:19.999Z</time></trkpt><trkpt lat="43.38473804696046" lon="5.5431917905452375"><ele>395.71428571428567</ele><time>2026-04-02T15:03:24.999Z</time></trkpt><trkpt lat="43.384803889885085" lon="5.543184881396122"><ele>395.8571428571429</ele><time>2026-04-02T15:03:30.999Z</time></trkpt><trkpt lat="43.3848684475732" lon="5.543180584830933"><ele>396.0</ele><time>2026-04-02T15:03:35.999Z</time></trkpt><trkpt lat="43.384943270920076" lon="5.54316649383966"><ele>396.8571428571429</ele><time>2026-04-02T15:03:41.999Z</time></trkpt><trkpt lat="43.38501473560378" lon="5.543164585040722"><ele>397.71428571428567</ele><time>2026-04-02T15:03:47.999Z</time></trkpt><trkpt lat="43.38508063328751" lon="5.543160476272353"><ele>398.57142857142856</ele><time>2026-04-02T15:03:53.001Z</time></trkpt><trkpt lat="43.38514609156909" lon="5.543156490563913"><ele>399.42857142857144</ele><time>2026-04-02T15:03:58.001Z</time></trkpt><trkpt lat="43.38521529011368" lon="5.543155224214321"><ele>400.28571428571433</ele><time>2026-04-02T15:04:03.001Z</time></trkpt><trkpt lat="43.385284337915245" lon="5.543178588709512"><ele>401.1428571428571</ele><time>2026-04-02T15:04:08Z</time></trkpt><trkpt lat="43.385345652430466" lon="5.543209689077124"><ele>402.0</ele><time>2026-04-02T15:04:12Z</time></trkpt><trkpt lat="43.38541896125567" lon="5.543259855324724"><ele>402.0</ele><time>2026-04-02T15:04:16Z</time></trkpt><trkpt lat="43.385482221983764" lon="5.543303962088254"><ele>402.0</ele><time>2026-04-02T15:04:19Z</time></trkpt><trkpt lat="43.38553625006712" lon="5.543348558741586"><ele>402.0</ele><time>2026-04-02T15:04:23Z</time></trkpt><trkpt lat="43.38560236749528" lon="5.5433901227008535"><ele>402.0</ele><time>2026-04-02T15:04:28Z</time></trkpt><trkpt lat="43.385663504097025" lon="5.543440431206691"><ele>402.0</ele><time>2026-04-02T15:04:33Z</time></trkpt><trkpt lat="43.38572251595672" lon="5.543483823793376"><ele>402.0</ele><time>2026-04-02T15:04:37Z</time></trkpt><trkpt lat="43.385782419664636" lon="5.543521423912672"><ele>402.0</ele><time>2026-04-02T15:04:41Z</time></trkpt><trkpt lat="43.38584648682853" lon="5.54356274208334"><ele>401.7142857142857</ele><time>2026-04-02T15:04:45Z</time></trkpt><trkpt lat="43.38590854502884" lon="5.543601166064675"><ele>401.42857142857144</ele><time>2026-04-02T15:04:49Z</time></trkpt><trkpt lat="43.38597206882223" lon="5.543638889243224"><ele>401.14285714285717</ele><time>2026-04-02T15:04:53Z</time></trkpt><trkpt lat="43.386044911262" lon="5.543671086293201"><ele>400.8571428571429</ele><time>2026-04-02T15:04:57Z</time></trkpt><trkpt lat="43.3861309277362" lon="5.543695829027987"><ele>400.57142857142856</ele><time>2026-04-02T15:05:01Z</time></trkpt><trkpt lat="43.386202620347056" lon="5.543725126325786"><ele>400.28571428571433</ele><time>2026-04-02T15:05:03.999Z</time></trkpt><trkpt lat="43.38627109213469" lon="5.543739585819577"><ele>400.0</ele><time>2026-04-02T15:05:05.999Z</time></trkpt><trkpt lat="43.38633628592285" lon="5.543746790122335"><ele>402.33333333333337</ele><time>2026-04-02T15:05:07.999Z</time></trkpt><trkpt lat="43.38639873602135" lon="5.543734182703848"><ele>404.6666666666667</ele><time>2026-04-02T15:05:09.999Z</time></trkpt><trkpt lat="43.386479969791445" lon="5.543707683200726"><ele>407.0</ele><time>2026-04-02T15:05:12.999Z</time></trkpt><trkpt lat="43.38654983492406" lon="5.543659857578224"><ele>409.33333333333337</ele><time>2026-04-02T15:05:15.999Z</time></trkpt><trkpt lat="43.38661334784462" lon="5.543605086370936"><ele>411.6666666666667</ele><time>2026-04-02T15:05:19.999Z</time></trkpt><trkpt lat="43.38669305098305" lon="5.543541967747276"><ele>414.0</ele><time>2026-04-02T15:05:23.999Z</time></trkpt><trkpt lat="43.38676838465468" lon="5.543525498215178"><ele>414.00000000000006</ele><time>2026-04-02T15:05:26.999Z</time></trkpt><trkpt lat="43.38683570456647" lon="5.543588586533697"><ele>414.0</ele><time>2026-04-02T15:05:31.999Z</time></trkpt><trkpt lat="43.38688453356697" lon="5.543653133872107"><ele>414.0</ele><time>2026-04-02T15:05:35.999Z</time></trkpt><trkpt lat="43.38692408831575" lon="5.543723067108991"><ele>414.0</ele><time>2026-04-02T15:05:39.999Z</time></trkpt><trkpt lat="43.38697897874659" lon="5.543792476272445"><ele>414.0</ele><time>2026-04-02T15:05:44.999Z</time></trkpt><trkpt lat="43.387038308692425" lon="5.54385183981332"><ele>414.00000000000006</ele><time>2026-04-02T15:05:49.999Z</time></trkpt><trkpt lat="43.38709912949371" lon="5.543895291848684"><ele>414.0</ele><time>2026-04-02T15:05:53.999Z</time></trkpt><trkpt lat="43.387181849959" lon="5.543876757206303"><ele>413.8333333333333</ele><time>2026-04-02T15:05:59Z</time></trkpt><trkpt lat="43.38723422553048" lon="5.54380559097894"><ele>413.66666666666663</ele><time>2026-04-02T15:06:02Z</time></trkpt><trkpt lat="43.38728809193437" lon="5.543744436017294"><ele>413.5</ele><time>2026-04-02T15:06:04Z</time></trkpt><trkpt lat="43.38734776269726" lon="5.5436524723581275"><ele>413.3333333333333</ele><time>2026-04-02T15:06:06Z</time></trkpt><trkpt lat="43.3874244389809" lon="5.543523168953021"><ele>413.16666666666663</ele><time>2026-04-02T15:06:08Z</time></trkpt><trkpt lat="43.38747019247031" lon="5.5434517050761025"><ele>413.0</ele><time>2026-04-02T15:06:09Z</time></trkpt><trkpt lat="43.38752094087799" lon="5.543382903509907"><ele>413.7142857142857</ele><time>2026-04-02T15:06:10Z</time></trkpt><trkpt lat="43.38757052375933" lon="5.543321539140424"><ele>414.42857142857144</ele><time>2026-04-02T15:06:11Z</time></trkpt><trkpt lat="43.38762439004902" lon="5.54326266817511"><ele>415.1428571428571</ele><time>2026-04-02T15:06:12Z</time></trkpt><trkpt lat="43.38767717604159" lon="5.543207673549379"><ele>415.8571428571429</ele><time>2026-04-02T15:06:13Z</time></trkpt><trkpt lat="43.38772663071877" lon="5.543146810076802"><ele>416.57142857142856</ele><time>2026-04-02T15:06:14Z</time></trkpt><trkpt lat="43.38777556981779" lon="5.543088902040051"><ele>417.2857142857143</ele><time>2026-04-02T15:06:15Z</time></trkpt><trkpt lat="43.38787628548156" lon="5.543016189783547"><ele>418.0</ele><time>2026-04-02T15:06:17Z</time></trkpt><trkpt lat="43.38796173286198" lon="5.542992342391469"><ele>418.1428571428571</ele><time>2026-04-02T15:06:19Z</time></trkpt><trkpt lat="43.388034211086676" lon="5.542976952170909"><ele>418.2857142857143</ele><time>2026-04-02T15:06:21Z</time></trkpt><trkpt lat="43.38810796241641" lon="5.542980807675039"><ele>418.42857142857144</ele><time>2026-04-02T15:06:23Z</time></trkpt><trkpt lat="43.3881916723624" lon="5.5429620241781565"><ele>418.57142857142856</ele><time>2026-04-02T15:06:25Z</time></trkpt><trkpt lat="43.38826361958165" lon="5.542935397262394"><ele>418.7142857142857</ele><time>2026-04-02T15:06:27Z</time></trkpt><trkpt lat="43.38833247472009" lon="5.5428981894613925"><ele>418.85714285714283</ele><time>2026-04-02T15:06:29Z</time></trkpt><trkpt lat="43.38839418031717" lon="5.54285834952236"><ele>419.0</ele><time>2026-04-02T15:06:31Z</time></trkpt><trkpt lat="43.3884580515398" lon="5.542797304671158"><ele>420.1428571428571</ele><time>2026-04-02T15:06:34Z</time></trkpt><trkpt lat="43.38850422037326" lon="5.542737744668439"><ele>421.2857142857143</ele><time>2026-04-02T15:06:52Z</time></trkpt><trkpt lat="43.38856630447198" lon="5.542692417512531"><ele>422.42857142857144</ele><time>2026-04-02T15:06:55Z</time></trkpt><trkpt lat="43.38862782829309" lon="5.542673980526881"><ele>423.57142857142856</ele><time>2026-04-02T15:06:58Z</time></trkpt><trkpt lat="43.38869324656934" lon="5.542695869317293"><ele>424.7142857142857</ele><time>2026-04-02T15:07:02.999Z</time></trkpt><trkpt lat="43.38875991960834" lon="5.542719656461734"><ele>425.85714285714283</ele><time>2026-04-02T15:07:06.999Z</time></trkpt><trkpt lat="43.38882239814509" lon="5.542749616940146"><ele>427.0</ele><time>2026-04-02T15:07:09.999Z</time></trkpt><trkpt lat="43.388893001303614" lon="5.542778744561324"><ele>427.14285714285717</ele><time>2026-04-02T15:07:12.999Z</time></trkpt><trkpt lat="43.38895888551814" lon="5.542791998399121"><ele>427.2857142857143</ele><time>2026-04-02T15:07:15.999Z</time></trkpt><trkpt lat="43.38903487740173" lon="5.542794985278131"><ele>427.42857142857144</ele><time>2026-04-02T15:07:19.999Z</time></trkpt><trkpt lat="43.389108421583146" lon="5.542783841792268"><ele>427.57142857142856</ele><time>2026-04-02T15:07:24.999Z</time></trkpt><trkpt lat="43.38916529815761" lon="5.542732997350939"><ele>427.7142857142857</ele><time>2026-04-02T15:08:09Z</time></trkpt><trkpt lat="43.389175722884126" lon="5.542646157291646"><ele>427.8571428571429</ele><time>2026-04-02T15:08:15Z</time></trkpt><trkpt lat="43.38923102310691" lon="5.54257030497576"><ele>428.0</ele><time>2026-04-02T15:15:20.999Z</time></trkpt><trkpt lat="43.389288464422556" lon="5.542517958760683"><ele>428.00000000000006</ele><time>2026-04-02T15:15:25.999Z</time></trkpt><trkpt lat="43.38934338411944" lon="5.542441022452809"><ele>428.0</ele><time>2026-04-02T15:15:31.999Z</time></trkpt><trkpt lat="43.38939480842791" lon="5.5423687964320365"><ele>428.0</ele><time>2026-04-02T15:15:36.999Z</time></trkpt><trkpt lat="43.38944031619891" lon="5.542299141595091"><ele>428.0</ele><time>2026-04-02T15:15:41.999Z</time></trkpt><trkpt lat="43.38948697293194" lon="5.5422294175294695"><ele>428.0</ele><time>2026-04-02T15:15:46.999Z</time></trkpt><trkpt lat="43.38954217017079" lon="5.542157005735429"><ele>428.00000000000006</ele><time>2026-04-02T15:15:52.999Z</time></trkpt><trkpt lat="43.38958978834227" lon="5.542085942858747"><ele>428.0</ele><time>2026-04-02T15:15:59.999Z</time></trkpt><trkpt lat="43.38964373025532" lon="5.542029915896049"><ele>429.5714285714286</ele><time>2026-04-02T15:16:06.998Z</time></trkpt><trkpt lat="43.38970542675885" lon="5.541971714181679"><ele>431.14285714285717</ele><time>2026-04-02T15:16:12.998Z</time></trkpt><trkpt lat="43.38976421653283" lon="5.5419127706894455"><ele>432.7142857142857</ele><time>2026-04-02T15:16:18.998Z</time></trkpt><trkpt lat="43.38980920622855" lon="5.541834609475794"><ele>434.28571428571433</ele><time>2026-04-02T15:16:23.998Z</time></trkpt><trkpt lat="43.38979357446846" lon="5.541746430099027"><ele>435.85714285714283</ele><time>2026-04-02T15:16:30Z</time></trkpt><trkpt lat="43.389738822382725" lon="5.541697772082843"><ele>437.42857142857144</ele><time>2026-04-02T15:16:37Z</time></trkpt><trkpt lat="43.38968087786568" lon="5.541738891305978"><ele>439.0</ele><time>2026-04-02T15:16:44Z</time></trkpt><trkpt lat="43.389612712875184" lon="5.541749597347265"><ele>439.42857142857144</ele><time>2026-04-02T15:16:50Z</time></trkpt><trkpt lat="43.38954752359633" lon="5.541751571155153"><ele>439.85714285714283</ele><time>2026-04-02T15:16:56Z</time></trkpt><trkpt lat="43.38948327491781" lon="5.541754944557545"><ele>440.28571428571433</ele><time>2026-04-02T15:17:02Z</time></trkpt><trkpt lat="43.38941497123004" lon="5.54174868769494"><ele>440.7142857142857</ele><time>2026-04-02T15:17:09Z</time></trkpt><trkpt lat="43.38934514011059" lon="5.541754140461573"><ele>441.14285714285717</ele><time>2026-04-02T15:17:15.999Z</time></trkpt><trkpt lat="43.38928347221772" lon="5.541733519924928"><ele>441.5714285714286</ele><time>2026-04-02T15:17:21.999Z</time></trkpt><trkpt lat="43.389215864280786" lon="5.541703781716622"><ele>442.0</ele><time>2026-04-02T15:17:27.999Z</time></trkpt><trkpt lat="43.3891568377675" lon="5.54166061474246"><ele>442.00000000000006</ele><time>2026-04-02T15:17:32.999Z</time></trkpt><trkpt lat="43.38911681505245" lon="5.541591756580383"><ele>442.0</ele><time>2026-04-02T15:17:37.999Z</time></trkpt><trkpt lat="43.38910989541756" lon="5.541495627556695"><ele>442.0</ele><time>2026-04-02T15:17:43.999Z</time></trkpt><trkpt lat="43.389101426081744" lon="5.541392848852817"><ele>442.0</ele><time>2026-04-02T15:17:49.999Z</time></trkpt><trkpt lat="43.389097227808044" lon="5.541292104714673"><ele>442.0</ele><time>2026-04-02T15:17:55.999Z</time></trkpt><trkpt lat="43.389090108477" lon="5.541185754617892"><ele>442.00000000000006</ele><time>2026-04-02T15:17:59.999Z</time></trkpt><trkpt lat="43.38905750247601" lon="5.541088996420638"><ele>442.0</ele><time>2026-04-02T15:18:04.999Z</time></trkpt><trkpt lat="43.38899532893121" lon="5.541036050930252"><ele>441.8571428571429</ele><time>2026-04-02T15:18:09.998Z</time></trkpt><trkpt lat="43.388930538518686" lon="5.541069213807162"><ele>441.7142857142857</ele><time>2026-04-02T15:18:14.998Z</time></trkpt><trkpt lat="43.38886822343761" lon="5.5411221830884765"><ele>441.57142857142856</ele><time>2026-04-02T15:18:19.998Z</time></trkpt><trkpt lat="43.388813737218214" lon="5.5411662335790846"><ele>441.42857142857144</ele><time>2026-04-02T15:18:23.998Z</time></trkpt><trkpt lat="43.38874889356628" lon="5.541216111128732"><ele>441.2857142857143</ele><time>2026-04-02T15:18:28.998Z</time></trkpt><trkpt lat="43.38867739499909" lon="5.541252175597228"><ele>441.14285714285717</ele><time>2026-04-02T15:18:34Z</time></trkpt><trkpt lat="43.38860801940962" lon="5.541293760069241"><ele>441.0</ele><time>2026-04-02T15:18:39Z</time></trkpt><trkpt lat="43.38854320279152" lon="5.541299936310087"><ele>441.0</ele><time>2026-04-02T15:18:44Z</time></trkpt><trkpt lat="43.38847944036755" lon="5.541284081030211"><ele>441.0</ele><time>2026-04-02T15:18:49Z</time></trkpt><trkpt lat="43.38842538309785" lon="5.541222917955783"><ele>441.0</ele><time>2026-04-02T15:18:55Z</time></trkpt><trkpt lat="43.388404290474384" lon="5.541133204936285"><ele>441.0</ele><time>2026-04-02T15:19:00Z</time></trkpt><trkpt lat="43.38837560831036" lon="5.541052010282947"><ele>441.0</ele><time>2026-04-02T15:19:06Z</time></trkpt><trkpt lat="43.38835529354406" lon="5.540966557144228"><ele>441.0</ele><time>2026-04-02T15:19:12Z</time></trkpt><trkpt lat="43.38833483503312" lon="5.540879796248823"><ele>441.0</ele><time>2026-04-02T15:19:17.999Z</time></trkpt><trkpt lat="43.38832132390046" lon="5.540783456542071"><ele>443.7142857142857</ele><time>2026-04-02T15:19:23.999Z</time></trkpt><trkpt lat="43.38831017798726" lon="5.540693129587291"><ele>446.42857142857144</ele><time>2026-04-02T15:19:28.999Z</time></trkpt><trkpt lat="43.38827455810764" lon="5.540611767947557"><ele>449.1428571428571</ele><time>2026-04-02T15:19:33.999Z</time></trkpt><trkpt lat="43.388212372236154" lon="5.540560423881724"><ele>451.85714285714283</ele><time>2026-04-02T15:19:38.999Z</time></trkpt><trkpt lat="43.38814275294901" lon="5.540576376417107"><ele>454.57142857142856</ele><time>2026-04-02T15:19:43.999Z</time></trkpt><trkpt lat="43.38810096915733" lon="5.5406412129018285"><ele>457.2857142857142</ele><time>2026-04-02T15:19:47.999Z</time></trkpt><trkpt lat="43.388051790066655" lon="5.540718462751877"><ele>459.99999999999994</ele><time>2026-04-02T15:19:52.999Z</time></trkpt><trkpt lat="43.38799444894948" lon="5.540779699107206"><ele>463.1428571428571</ele><time>2026-04-02T15:19:58.999Z</time></trkpt><trkpt lat="43.387939740873506" lon="5.540833613687455"><ele>466.2857142857143</ele><time>2026-04-02T15:20:02.999Z</time></trkpt><trkpt lat="43.38789220025523" lon="5.540898001609555"><ele>469.42857142857144</ele><time>2026-04-02T15:20:07.999Z</time></trkpt><trkpt lat="43.387844816387755" lon="5.540963405835502"><ele>472.57142857142856</ele><time>2026-04-02T15:20:12.998Z</time></trkpt><trkpt lat="43.387785374409546" lon="5.541022284453811"><ele>475.7142857142858</ele><time>2026-04-02T15:20:18.998Z</time></trkpt><trkpt lat="43.38773127860467" lon="5.5410829614716075"><ele>478.8571428571429</ele><time>2026-04-02T15:20:23.998Z</time></trkpt><trkpt lat="43.38767848978407" lon="5.5411336167714955"><ele>482.0</ele><time>2026-04-02T15:20:27.998Z</time></trkpt><trkpt lat="43.387625503074005" lon="5.541183588708254"><ele>478.42857142857144</ele><time>2026-04-02T15:20:31.998Z</time></trkpt><trkpt lat="43.387574024823344" lon="5.541243524797274"><ele>474.8571428571429</ele><time>2026-04-02T15:20:35.998Z</time></trkpt><trkpt lat="43.38752609391016" lon="5.541301921803718"><ele>471.28571428571433</ele><time>2026-04-02T15:20:40Z</time></trkpt><trkpt lat="43.38747788927398" lon="5.541369297335302"><ele>467.7142857142858</ele><time>2026-04-02T15:20:45Z</time></trkpt><trkpt lat="43.387435553159584" lon="5.541434322989282"><ele>464.14285714285717</ele><time>2026-04-02T15:20:49Z</time></trkpt><trkpt lat="43.387392667222564" lon="5.541501990757291"><ele>460.57142857142867</ele><time>2026-04-02T15:20:54Z</time></trkpt><trkpt lat="43.3873475229357" lon="5.541567193712695"><ele>457.00000000000006</ele><time>2026-04-02T15:20:59Z</time></trkpt><trkpt lat="43.38729520798368" lon="5.54162423818584"><ele>457.00000000000006</ele><time>2026-04-02T15:21:04Z</time></trkpt><trkpt lat="43.38724269928009" lon="5.5416732921234875"><ele>457.0</ele><time>2026-04-02T15:21:09Z</time></trkpt><trkpt lat="43.38718581734963" lon="5.541714457929488"><ele>457.00000000000006</ele><time>2026-04-02T15:21:14Z</time></trkpt><trkpt lat="43.38711841215763" lon="5.541751312033303"><ele>457.00000000000006</ele><time>2026-04-02T15:21:19Z</time></trkpt><trkpt lat="43.38705275204531" lon="5.541771774473272"><ele>457.0</ele><time>2026-04-02T15:21:23.999Z</time></trkpt><trkpt lat="43.38698093765048" lon="5.541792841899756"><ele>457.00000000000006</ele><time>2026-04-02T15:21:28.999Z</time></trkpt><trkpt lat="43.3869108203148" lon="5.5418061130782155"><ele>457.00000000000006</ele><time>2026-04-02T15:21:33.999Z</time></trkpt><trkpt lat="43.38683908170934" lon="5.541812420900129"><ele>459.7142857142858</ele><time>2026-04-02T15:21:38.999Z</time></trkpt><trkpt lat="43.38676593269199" lon="5.54181463598532"><ele>462.42857142857144</ele><time>2026-04-02T15:21:43.999Z</time></trkpt><trkpt lat="43.386701192553424" lon="5.54181318966326"><ele>465.14285714285717</ele><time>2026-04-02T15:21:48.999Z</time></trkpt><trkpt lat="43.38663620799277" lon="5.54180151860572"><ele>467.8571428571429</ele><time>2026-04-02T15:21:53.999Z</time></trkpt><trkpt lat="43.3865723998604" lon="5.541779485360153"><ele>470.57142857142856</ele><time>2026-04-02T15:21:58.999Z</time></trkpt><trkpt lat="43.3865117519823" lon="5.541754260713676"><ele>473.2857142857143</ele><time>2026-04-02T15:22:03.999Z</time></trkpt><trkpt lat="43.386441463020745" lon="5.541708043014687"><ele>476.0</ele><time>2026-04-02T15:22:09.999Z</time></trkpt><trkpt lat="43.38638678696278" lon="5.54166013855021"><ele>476.1428571428571</ele><time>2026-04-02T15:22:15.998Z</time></trkpt><trkpt lat="43.38633913282562" lon="5.541599951260813"><ele>476.2857142857143</ele><time>2026-04-02T15:22:20.998Z</time></trkpt><trkpt lat="43.38629894929185" lon="5.541527706537272"><ele>476.42857142857144</ele><time>2026-04-02T15:22:25.998Z</time></trkpt><trkpt lat="43.38625752929278" lon="5.541444924473663"><ele>476.57142857142856</ele><time>2026-04-02T15:22:30.998Z</time></trkpt><trkpt lat="43.386215561837425" lon="5.541364855282537"><ele>476.71428571428567</ele><time>2026-04-02T15:22:35.998Z</time></trkpt><trkpt lat="43.38617498822497" lon="5.5412767497183015"><ele>476.85714285714283</ele><time>2026-04-02T15:22:40.998Z</time></trkpt><trkpt lat="43.38614147360132" lon="5.54119830512901"><ele>477.0</ele><time>2026-04-02T15:22:45Z</time></trkpt><trkpt lat="43.38610696165747" lon="5.541121909716864"><ele>477.0</ele><time>2026-04-02T15:22:49Z</time></trkpt><trkpt lat="43.38607003443868" lon="5.541032289742804"><ele>476.99999999999994</ele><time>2026-04-02T15:22:54Z</time></trkpt><trkpt lat="43.386042401926126" lon="5.540947296000891"><ele>477.0</ele><time>2026-04-02T15:22:58Z</time></trkpt><trkpt lat="43.38601250553766" lon="5.540853332247915"><ele>477.0</ele><time>2026-04-02T15:23:03Z</time></trkpt><trkpt lat="43.38599330913062" lon="5.540748429856182"><ele>476.99999999999994</ele><time>2026-04-02T15:23:08Z</time></trkpt><trkpt lat="43.38597523088821" lon="5.540653330213484"><ele>477.0</ele><time>2026-04-02T15:23:13Z</time></trkpt><trkpt lat="43.385961257154214" lon="5.540559982322183"><ele>477.0</ele><time>2026-04-02T15:23:18Z</time></trkpt><trkpt lat="43.38594957295288" lon="5.540473429899246"><ele>479.0</ele><time>2026-04-02T15:23:22Z</time></trkpt><trkpt lat="43.385932353944526" lon="5.54037003456937"><ele>480.99999999999994</ele><time>2026-04-02T15:23:26.999Z</time></trkpt><trkpt lat="43.38591617187303" lon="5.540280237908321"><ele>483.0</ele><time>2026-04-02T15:23:30.999Z</time></trkpt><trkpt lat="43.38589801131027" lon="5.540193710472768"><ele>485.0</ele><time>2026-04-02T15:23:34.999Z</time></trkpt><trkpt lat="43.38588145594739" lon="5.540101749774763"><ele>486.99999999999994</ele><time>2026-04-02T15:23:38.999Z</time></trkpt><trkpt lat="43.385860124973824" lon="5.540009333503357"><ele>489.0</ele><time>2026-04-02T15:23:42.999Z</time></trkpt><trkpt lat="43.38583381604453" lon="5.539912743784994"><ele>491.0</ele><time>2026-04-02T15:23:46.999Z</time></trkpt><trkpt lat="43.385805897116" lon="5.53982677780773"><ele>491.0</ele><time>2026-04-02T15:23:51.999Z</time></trkpt><trkpt lat="43.385781065047276" lon="5.539746163518894"><ele>490.99999999999994</ele><time>2026-04-02T15:23:56.999Z</time></trkpt><trkpt lat="43.385750634049316" lon="5.539667358791519"><ele>491.0</ele><time>2026-04-02T15:24:02.999Z</time></trkpt><trkpt lat="43.38572112213104" lon="5.539582784200435"><ele>491.0</ele><time>2026-04-02T15:24:09.999Z</time></trkpt><trkpt lat="43.38568312756922" lon="5.539508899456552"><ele>490.99999999999994</ele><time>2026-04-02T15:24:16.998Z</time></trkpt><trkpt lat="43.385665939871" lon="5.539425328703326"><ele>491.0</ele><time>2026-04-02T15:24:22.998Z</time></trkpt><trkpt lat="43.38562905673606" lon="5.539350736077849"><ele>491.0</ele><time>2026-04-02T15:24:28.998Z</time></trkpt><trkpt lat="43.385608545702716" lon="5.539260223845313"><ele>493.1428571428571</ele><time>2026-04-02T15:24:34.998Z</time></trkpt><trkpt lat="43.38559127227154" lon="5.539167010651477"><ele>495.2857142857142</ele><time>2026-04-02T15:24:39.998Z</time></trkpt><trkpt lat="43.38557101406586" lon="5.53906568519496"><ele>497.42857142857144</ele><time>2026-04-02T15:24:44.998Z</time></trkpt><trkpt lat="43.385542938661075" lon="5.53896400782947"><ele>499.57142857142856</ele><time>2026-04-02T15:24:48.998Z</time></trkpt><trkpt lat="43.38551176068308" lon="5.53888100905114"><ele>501.7142857142857</ele><time>2026-04-02T15:24:53Z</time></trkpt><trkpt lat="43.385477676846385" lon="5.538795975709801"><ele>503.8571428571429</ele><time>2026-04-02T15:24:57Z</time></trkpt><trkpt lat="43.38545156801701" lon="5.538695488140041"><ele>506.00000000000006</ele><time>2026-04-02T15:25:02Z</time></trkpt><trkpt lat="43.3854320991707" lon="5.538607190713953"><ele>505.4285714285715</ele><time>2026-04-02T15:25:06Z</time></trkpt><trkpt lat="43.38542650654335" lon="5.5385199830550205"><ele>504.8571428571429</ele><time>2026-04-02T15:25:10Z</time></trkpt><trkpt lat="43.38545940737087" lon="5.5384334547708765"><ele>504.2857142857143</ele><time>2026-04-02T15:25:15Z</time></trkpt><trkpt lat="43.385514440961046" lon="5.53838761443288"><ele>503.7142857142857</ele><time>2026-04-02T15:25:20Z</time></trkpt><trkpt lat="43.38558947384672" lon="5.538390288832791"><ele>503.1428571428571</ele><time>2026-04-02T15:25:25Z</time></trkpt><trkpt lat="43.38565482681961" lon="5.538374334355195"><ele>502.5714285714285</ele><time>2026-04-02T15:25:30Z</time></trkpt><trkpt lat="43.385721401712615" lon="5.538347808188346"><ele>501.99999999999994</ele><time>2026-04-02T15:25:35.999Z</time></trkpt><trkpt lat="43.38578344668214" lon="5.5383231338582695"><ele>501.99999999999994</ele><time>2026-04-02T15:25:41.999Z</time></trkpt><trkpt lat="43.38585347668865" lon="5.538325213590707"><ele>502.0</ele><time>2026-04-02T15:25:48.999Z</time></trkpt><trkpt lat="43.385916823166156" lon="5.538303274291344"><ele>501.99999999999994</ele><time>2026-04-02T15:25:54.999Z</time></trkpt><trkpt lat="43.385976918600036" lon="5.53827406857938"><ele>501.99999999999994</ele><time>2026-04-02T15:26:00.999Z</time></trkpt><trkpt lat="43.38603766653682" lon="5.538232128045153"><ele>502.0</ele><time>2026-04-02T15:26:07.999Z</time></trkpt><trkpt lat="43.38609452422572" lon="5.538176262242689"><ele>501.99999999999994</ele><time>2026-04-02T15:26:14.999Z</time></trkpt><trkpt lat="43.38616174838608" lon="5.5381363895261995"><ele>501.99999999999994</ele><time>2026-04-02T15:26:27.998Z</time></trkpt><trkpt lat="43.38623042342513" lon="5.538111524771025"><ele>501.99999999999994</ele><time>2026-04-02T15:26:33.998Z</time></trkpt><trkpt lat="43.386296629326914" lon="5.538096992776019"><ele>502.0</ele><time>2026-04-02T15:26:39.998Z</time></trkpt><trkpt lat="43.386360031082795" lon="5.538063435920379"><ele>501.99999999999994</ele><time>2026-04-02T15:26:43.998Z</time></trkpt><trkpt lat="43.386423889742076" lon="5.538037383968859"><ele>501.99999999999994</ele><time>2026-04-02T15:26:48.998Z</time></trkpt><trkpt lat="43.386496922236255" lon="5.538014454956366"><ele>502.0</ele><time>2026-04-02T15:26:54.998Z</time></trkpt><trkpt lat="43.38656654049669" lon="5.537996764933742"><ele>501.99999999999994</ele><time>2026-04-02T15:27:01Z</time></trkpt><trkpt lat="43.38663395716225" lon="5.537948754085903"><ele>501.99999999999994</ele><time>2026-04-02T15:27:07Z</time></trkpt><trkpt lat="43.38670546548864" lon="5.537917387957458"><ele>503.71428571428567</ele><time>2026-04-02T15:27:13Z</time></trkpt><trkpt lat="43.386773139777894" lon="5.5378788774485095"><ele>505.42857142857144</ele><time>2026-04-02T15:27:18Z</time></trkpt><trkpt lat="43.38683645466508" lon="5.537842898453694"><ele>507.1428571428571</ele><time>2026-04-02T15:27:23Z</time></trkpt><trkpt lat="43.38689809397554" lon="5.537778207374593"><ele>508.85714285714283</ele><time>2026-04-02T15:27:28Z</time></trkpt><trkpt lat="43.3869240715286" lon="5.537691458751353"><ele>510.57142857142856</ele><time>2026-04-02T15:27:33Z</time></trkpt><trkpt lat="43.38692827044262" lon="5.5375929854974935"><ele>512.2857142857142</ele><time>2026-04-02T15:27:37.999Z</time></trkpt><trkpt lat="43.38690359775729" lon="5.5374941057424945"><ele>514.0</ele><time>2026-04-02T15:27:42.999Z</time></trkpt><trkpt lat="43.38687019899087" lon="5.537410847015056"><ele>514.0</ele><time>2026-04-02T15:27:46.999Z</time></trkpt><trkpt lat="43.386825830814594" lon="5.537340722482606"><ele>514.0</ele><time>2026-04-02T15:27:50.999Z</time></trkpt><trkpt lat="43.38677063952047" lon="5.537272420562315"><ele>514.0</ele><time>2026-04-02T15:27:54.999Z</time></trkpt><trkpt lat="43.38671757895074" lon="5.537208192065429"><ele>514.0</ele><time>2026-04-02T15:27:58.999Z</time></trkpt><trkpt lat="43.38667093272174" lon="5.537141310965592"><ele>514.0</ele><time>2026-04-02T15:28:02.999Z</time></trkpt><trkpt lat="43.38659756071015" lon="5.537096667413605"><ele>514.0</ele><time>2026-04-02T15:28:06.999Z</time></trkpt><trkpt lat="43.38654211138111" lon="5.537042517003503"><ele>514.0</ele><time>2026-04-02T15:28:10.999Z</time></trkpt><trkpt lat="43.38648473982414" lon="5.536982421415102"><ele>513.4285714285714</ele><time>2026-04-02T15:28:14.999Z</time></trkpt><trkpt lat="43.38641980958421" lon="5.536934065984498"><ele>512.8571428571429</ele><time>2026-04-02T15:28:18.999Z</time></trkpt><trkpt lat="43.386356225237165" lon="5.536870468593297"><ele>512.2857142857143</ele><time>2026-04-02T15:28:22.999Z</time></trkpt><trkpt lat="43.38630471659369" lon="5.536817258520635"><ele>511.7142857142857</ele><time>2026-04-02T15:28:25.999Z</time></trkpt><trkpt lat="43.38624307979834" lon="5.536745903636105"><ele>511.1428571428572</ele><time>2026-04-02T15:28:29.998Z</time></trkpt><trkpt lat="43.38618151240021" lon="5.5366750176468145"><ele>510.5714285714286</ele><time>2026-04-02T15:28:33.998Z</time></trkpt><trkpt lat="43.38613203908533" lon="5.536621379206526"><ele>510.0</ele><time>2026-04-02T15:28:36.998Z</time></trkpt><trkpt lat="43.38609599926658" lon="5.536525438504367"><ele>510.0</ele><time>2026-04-02T15:28:40.998Z</time></trkpt><trkpt lat="43.386067284627856" lon="5.53644317262279"><ele>510.00000000000006</ele><time>2026-04-02T15:28:44.998Z</time></trkpt><trkpt lat="43.38609483686341" lon="5.536357967929873"><ele>510.0</ele><time>2026-04-02T15:29:15Z</time></trkpt><trkpt lat="43.38617275242842" lon="5.536361177097651"><ele>510.0</ele><time>2026-04-02T15:29:19Z</time></trkpt><trkpt lat="43.38622309178366" lon="5.5364189825977945"><ele>510.00000000000006</ele><time>2026-04-02T15:29:22Z</time></trkpt><trkpt lat="43.38627976179903" lon="5.536493099662117"><ele>510.0</ele><time>2026-04-02T15:29:25Z</time></trkpt><trkpt lat="43.38632337152891" lon="5.536582496862461"><ele>510.0</ele><time>2026-04-02T15:29:29Z</time></trkpt><trkpt lat="43.38637731377506" lon="5.536647002881144"><ele>511.42857142857144</ele><time>2026-04-02T15:29:33Z</time></trkpt><trkpt lat="43.38642942221254" lon="5.536699867911503"><ele>512.8571428571429</ele><time>2026-04-02T15:29:36.999Z</time></trkpt><trkpt lat="43.386503304223496" lon="5.536736084133765"><ele>514.2857142857143</ele><time>2026-04-02T15:29:41.999Z</time></trkpt><trkpt lat="43.38656521210906" lon="5.536765049555806"><ele>515.7142857142858</ele><time>2026-04-02T15:29:44.999Z</time></trkpt><trkpt lat="43.386628203801166" lon="5.536806698502594"><ele>517.1428571428571</ele><time>2026-04-02T15:29:47.999Z</time></trkpt><trkpt lat="43.38670060247013" lon="5.536854241065773"><ele>518.5714285714287</ele><time>2026-04-02T15:29:50.999Z</time></trkpt><trkpt lat="43.38676720677758" lon="5.536906277803004"><ele>520.0</ele><time>2026-04-02T15:29:53.999Z</time></trkpt><trkpt lat="43.386833925187524" lon="5.536960060412622"><ele>520.0000000000001</ele><time>2026-04-02T15:29:56.999Z</time></trkpt><trkpt lat="43.386890607441934" lon="5.537012240264444"><ele>520.0</ele><time>2026-04-02T15:29:59.999Z</time></trkpt><trkpt lat="43.38694974402768" lon="5.537074818448122"><ele>520.0</ele><time>2026-04-02T15:30:02.999Z</time></trkpt><trkpt lat="43.38701324765544" lon="5.537128981820705"><ele>520.0</ele><time>2026-04-02T15:30:05.999Z</time></trkpt><trkpt lat="43.38708133509055" lon="5.5372134224738225"><ele>520.0</ele><time>2026-04-02T15:30:08.999Z</time></trkpt><trkpt lat="43.38714130719666" lon="5.537267903284754"><ele>520.0000000000001</ele><time>2026-04-02T15:30:10.999Z</time></trkpt><trkpt lat="43.38719304394628" lon="5.537317535382695"><ele>520.0</ele><time>2026-04-02T15:30:12.999Z</time></trkpt><trkpt lat="43.38724325590826" lon="5.537378907910001"><ele>520.5</ele><time>2026-04-02T15:30:14.999Z</time></trkpt><trkpt lat="43.38729597633291" lon="5.537441242060399"><ele>521.0</ele><time>2026-04-02T15:30:16.999Z</time></trkpt><trkpt lat="43.387358953157914" lon="5.5375158205184105"><ele>521.5</ele><time>2026-04-02T15:30:19.999Z</time></trkpt><trkpt lat="43.3874150050566" lon="5.537586939782028"><ele>522.0</ele><time>2026-04-02T15:30:22.999Z</time></trkpt><trkpt lat="43.387485891505435" lon="5.537650281674011"><ele>522.5</ele><time>2026-04-02T15:30:26.999Z</time></trkpt><trkpt lat="43.38755215904635" lon="5.5376860500070695"><ele>523.0</ele><time>2026-04-02T15:30:29.998Z</time></trkpt><trkpt lat="43.38761128173083" lon="5.537736618378784"><ele>522.9999999999999</ele><time>2026-04-02T15:30:32.998Z</time></trkpt><trkpt lat="43.3876713523965" lon="5.537794372455215"><ele>523.0</ele><time>2026-04-02T15:30:35.998Z</time></trkpt><trkpt lat="43.387726437471414" lon="5.537845219429249"><ele>523.0</ele><time>2026-04-02T15:30:38.998Z</time></trkpt><trkpt lat="43.38778103856736" lon="5.537903792582705"><ele>523.0</ele><time>2026-04-02T15:30:41.998Z</time></trkpt><trkpt lat="43.38783361984538" lon="5.537960739564203"><ele>523.0</ele><time>2026-04-02T15:30:44.998Z</time></trkpt><trkpt lat="43.387892255690964" lon="5.538016636786964"><ele>522.9999999999999</ele><time>2026-04-02T15:30:47.998Z</time></trkpt><trkpt lat="43.38795714750022" lon="5.538070564640279"><ele>523.0</ele><time>2026-04-02T15:30:50.998Z</time></trkpt><trkpt lat="43.38803846497498" lon="5.53809568040049"><ele>524.4285714285713</ele><time>2026-04-02T15:30:53.998Z</time></trkpt><trkpt lat="43.38811410744076" lon="5.538069215159681"><ele>525.8571428571429</ele><time>2026-04-02T15:30:56.998Z</time></trkpt><trkpt lat="43.38818746726599" lon="5.538023560813992"><ele>527.2857142857142</ele><time>2026-04-02T15:31:00.998Z</time></trkpt><trkpt lat="43.38823426421443" lon="5.5379595421848515"><ele>528.7142857142857</ele><time>2026-04-02T15:31:04.998Z</time></trkpt><trkpt lat="43.388289828924975" lon="5.537902082529328"><ele>530.1428571428571</ele><time>2026-04-02T15:31:09Z</time></trkpt><trkpt lat="43.38834453196595" lon="5.537823526769117"><ele>531.5714285714286</ele><time>2026-04-02T15:31:13Z</time></trkpt><trkpt lat="43.388398247769516" lon="5.537763992525635"><ele>533.0</ele><time>2026-04-02T15:31:17Z</time></trkpt><trkpt lat="43.38844151038151" lon="5.53768561747162"><ele>533.1428571428571</ele><time>2026-04-02T15:31:22Z</time></trkpt><trkpt lat="43.388491768708256" lon="5.537611680248467"><ele>533.2857142857142</ele><time>2026-04-02T15:31:27Z</time></trkpt><trkpt lat="43.388540973931654" lon="5.5375318300715035"><ele>533.4285714285714</ele><time>2026-04-02T15:31:33Z</time></trkpt><trkpt lat="43.38859258001797" lon="5.537456657307983"><ele>533.5714285714286</ele><time>2026-04-02T15:31:38Z</time></trkpt><trkpt lat="43.38864309171083" lon="5.537393370086419"><ele>533.7142857142858</ele><time>2026-04-02T15:31:43Z</time></trkpt><trkpt lat="43.38868653146646" lon="5.537323437248244"><ele>533.8571428571429</ele><time>2026-04-02T15:31:47Z</time></trkpt><trkpt lat="43.38872776848829" lon="5.537256036325321"><ele>534.0</ele><time>2026-04-02T15:31:50.999Z</time></trkpt><trkpt lat="43.3887837037334" lon="5.537181860918979"><ele>534.0000000000001</ele><time>2026-04-02T15:31:55.999Z</time></trkpt><trkpt lat="43.3888413279331" lon="5.537108223490056"><ele>534.0</ele><time>2026-04-02T15:32:00.999Z</time></trkpt><trkpt lat="43.38888886836976" lon="5.537048849082885"><ele>534.0</ele><time>2026-04-02T15:32:04.999Z</time></trkpt><trkpt lat="43.38893686859017" lon="5.536980637642219"><ele>534.0</ele><time>2026-04-02T15:32:08.999Z</time></trkpt><trkpt lat="43.388989766681796" lon="5.536928024261596"><ele>534.0</ele><time>2026-04-02T15:32:12.999Z</time></trkpt><trkpt lat="43.38903651082917" lon="5.536866124892504"><ele>534.0000000000001</ele><time>2026-04-02T15:32:16.999Z</time></trkpt><trkpt lat="43.389095142862026" lon="5.5368087985704975"><ele>534.0</ele><time>2026-04-02T15:32:20.999Z</time></trkpt><trkpt lat="43.3891522539015" lon="5.536756468971289"><ele>535.8571428571429</ele><time>2026-04-02T15:32:24.999Z</time></trkpt><trkpt lat="43.38920864345727" lon="5.536709526449463"><ele>537.7142857142858</ele><time>2026-04-02T15:32:28.999Z</time></trkpt><trkpt lat="43.38926595095717" lon="5.536664372812163"><ele>539.5714285714286</ele><time>2026-04-02T15:32:32.999Z</time></trkpt><trkpt lat="43.38932488733089" lon="5.536627498597779"><ele>541.4285714285714</ele><time>2026-04-02T15:32:36.999Z</time></trkpt><trkpt lat="43.38939298725622" lon="5.536581059588604"><ele>543.2857142857142</ele><time>2026-04-02T15:32:41.998Z</time></trkpt><trkpt lat="43.38945892766608" lon="5.536538374904374"><ele>545.1428571428571</ele><time>2026-04-02T15:32:45.998Z</time></trkpt><trkpt lat="43.38952495422197" lon="5.536493700618517"><ele>547.0</ele><time>2026-04-02T15:32:49.998Z</time></trkpt><trkpt lat="43.38958675024772" lon="5.536446601279597"><ele>547.0</ele><time>2026-04-02T15:32:53.998Z</time></trkpt><trkpt lat="43.38964524559717" lon="5.536406041994354"><ele>547.0</ele><time>2026-04-02T15:32:57.998Z</time></trkpt><trkpt lat="43.389694498857224" lon="5.536335000965996"><ele>547.0</ele><time>2026-04-02T15:33:02.998Z</time></trkpt><trkpt lat="43.38973044849181" lon="5.536251130611759"><ele>547.0</ele><time>2026-04-02T15:33:07.998Z</time></trkpt><trkpt lat="43.38973075784555" lon="5.5361606464392485"><ele>547.0</ele><time>2026-04-02T15:33:11.998Z</time></trkpt><trkpt lat="43.389716466934374" lon="5.536069038454907"><ele>547.0</ele><time>2026-04-02T15:33:16Z</time></trkpt><trkpt lat="43.389711125045444" lon="5.535972684804466"><ele>547.0</ele><time>2026-04-02T15:33:20Z</time></trkpt><trkpt lat="43.3896959243218" lon="5.535878613958638"><ele>546.5714285714286</ele><time>2026-04-02T15:33:24Z</time></trkpt><trkpt lat="43.389685564799215" lon="5.535792864091352"><ele>546.1428571428571</ele><time>2026-04-02T15:33:28Z</time></trkpt><trkpt lat="43.38968070481813" lon="5.535705032831155"><ele>545.7142857142857</ele><time>2026-04-02T15:33:33Z</time></trkpt><trkpt lat="43.38966616456516" lon="5.535618300183053"><ele>545.2857142857142</ele><time>2026-04-02T15:33:37Z</time></trkpt><trkpt lat="43.38965385727222" lon="5.535528909303939"><ele>544.8571428571429</ele><time>2026-04-02T15:33:41Z</time></trkpt><trkpt lat="43.38963851292888" lon="5.535430816616146"><ele>544.4285714285713</ele><time>2026-04-02T15:33:45Z</time></trkpt><trkpt lat="43.38962041104452" lon="5.535327151180327"><ele>544.0</ele><time>2026-04-02T15:33:50Z</time></trkpt><trkpt lat="43.38960614800244" lon="5.535237339955424"><ele>543.9999999999999</ele><time>2026-04-02T15:33:54.999Z</time></trkpt><trkpt lat="43.389580505582536" lon="5.535151162434881"><ele>544.0</ele><time>2026-04-02T15:33:59.999Z</time></trkpt><trkpt lat="43.38956193655063" lon="5.535057355599194"><ele>544.0</ele><time>2026-04-02T15:34:05.999Z</time></trkpt><trkpt lat="43.38954375910262" lon="5.534968842211661"><ele>544.0</ele><time>2026-04-02T15:34:11.999Z</time></trkpt><trkpt lat="43.38951199797311" lon="5.534880775239727"><ele>544.0</ele><time>2026-04-02T15:34:17.999Z</time></trkpt><trkpt lat="43.389481438327365" lon="5.534788334932823"><ele>543.9999999999999</ele><time>2026-04-02T15:34:23.999Z</time></trkpt><trkpt lat="43.38945341155401" lon="5.534699559882663"><ele>544.0</ele><time>2026-04-02T15:34:29.999Z</time></trkpt><trkpt lat="43.38943248026681" lon="5.5346087830035815"><ele>546.5714285714286</ele><time>2026-04-02T15:34:35.999Z</time></trkpt><trkpt lat="43.38941064003728" lon="5.534513501020426"><ele>549.1428571428571</ele><time>2026-04-02T15:34:40.999Z</time></trkpt><trkpt lat="43.38937462960922" lon="5.534419720772956"><ele>551.7142857142858</ele><time>2026-04-02T15:34:46.998Z</time></trkpt><trkpt lat="43.38934486970264" lon="5.534340555235789"><ele>554.2857142857142</ele><time>2026-04-02T15:34:50.998Z</time></trkpt><trkpt lat="43.38931090164448" lon="5.534261386930276"><ele>556.8571428571429</ele><time>2026-04-02T15:34:55.998Z</time></trkpt><trkpt lat="43.389281500707256" lon="5.53418430894146"><ele>559.4285714285714</ele><time>2026-04-02T15:34:59.998Z</time></trkpt><trkpt lat="43.389235656559876" lon="5.534109667580055"><ele>562.0</ele><time>2026-04-02T15:35:03.998Z</time></trkpt><trkpt lat="43.38919321909612" lon="5.534038521148653"><ele>562.0000000000001</ele><time>2026-04-02T15:35:07.998Z</time></trkpt><trkpt lat="43.38914831196053" lon="5.533961127304262"><ele>562.0</ele><time>2026-04-02T15:35:12.998Z</time></trkpt><trkpt lat="43.389111863725454" lon="5.533887050242785"><ele>562.0</ele><time>2026-04-02T15:35:16.998Z</time></trkpt><trkpt lat="43.38905879132028" lon="5.533808367086164"><ele>562.0</ele><time>2026-04-02T15:35:22Z</time></trkpt><trkpt lat="43.388999442309235" lon="5.533743182491424"><ele>562.0</ele><time>2026-04-02T15:35:27Z</time></trkpt><trkpt lat="43.3889625169414" lon="5.5336598275084405"><ele>562.0000000000001</ele><time>2026-04-02T15:35:30Z</time></trkpt><trkpt lat="43.388942364808095" lon="5.533573050281741"><ele>562.0</ele><time>2026-04-02T15:35:33Z</time></trkpt><trkpt lat="43.38893469730056" lon="5.5334778340312125"><ele>561.1666666666667</ele><time>2026-04-02T15:35:36Z</time></trkpt><trkpt lat="43.388942739353155" lon="5.533378920069701"><ele>560.3333333333334</ele><time>2026-04-02T15:35:39Z</time></trkpt><trkpt lat="43.3889547649298" lon="5.533284811790914"><ele>559.5</ele><time>2026-04-02T15:35:42Z</time></trkpt><trkpt lat="43.388972522518706" lon="5.533175309029052"><ele>558.6666666666666</ele><time>2026-04-02T15:35:46Z</time></trkpt><trkpt lat="43.388993599718994" lon="5.533079164252501"><ele>557.8333333333333</ele><time>2026-04-02T15:35:50Z</time></trkpt><trkpt lat="43.38901135539101" lon="5.53297676347752"><ele>557.0</ele><time>2026-04-02T15:35:54Z</time></trkpt><trkpt lat="43.389014599835846" lon="5.532866801279034"><ele>557.0</ele><time>2026-04-02T15:35:58Z</time></trkpt><trkpt lat="43.388982407709506" lon="5.532754742153765"><ele>557.0</ele><time>2026-04-02T15:36:01.999Z</time></trkpt><trkpt lat="43.38893740412706" lon="5.532657602371328"><ele>557.0</ele><time>2026-04-02T15:36:03.999Z</time></trkpt><trkpt lat="43.388869805134036" lon="5.532554819168159"><ele>557.0</ele><time>2026-04-02T15:36:05.999Z</time></trkpt><trkpt lat="43.38882545425686" lon="5.532490584798973"><ele>557.0</ele><time>2026-04-02T15:36:06.999Z</time></trkpt><trkpt lat="43.38877680156195" lon="5.532433412148779"><ele>557.0</ele><time>2026-04-02T15:36:07.999Z</time></trkpt><trkpt lat="43.38872800477789" lon="5.532375536479619"><ele>556.8333333333333</ele><time>2026-04-02T15:36:08.999Z</time></trkpt><trkpt lat="43.38869387569686" lon="5.5322928756949885"><ele>556.6666666666666</ele><time>2026-04-02T15:36:09.999Z</time></trkpt><trkpt lat="43.388659717010405" lon="5.532215442343775"><ele>556.5</ele><time>2026-04-02T15:36:10.999Z</time></trkpt><trkpt lat="43.38862330839248" lon="5.532071769229356"><ele>556.3333333333334</ele><time>2026-04-02T15:36:12.999Z</time></trkpt><trkpt lat="43.388587572577116" lon="5.531983376251927"><ele>556.1666666666667</ele><time>2026-04-02T15:36:13.999Z</time></trkpt><trkpt lat="43.38854887883935" lon="5.5319045485752"><ele>556.0</ele><time>2026-04-02T15:36:14.999Z</time></trkpt><trkpt lat="43.38848059104679" lon="5.531777519390116"><ele>556.0</ele><time>2026-04-02T15:36:16.999Z</time></trkpt><trkpt lat="43.38843015339384" lon="5.531683694811039"><ele>556.0</ele><time>2026-04-02T15:36:18.999Z</time></trkpt><trkpt lat="43.388382899128594" lon="5.531588057067496"><ele>556.0</ele><time>2026-04-02T15:36:21.999Z</time></trkpt><trkpt lat="43.38834122659482" lon="5.531506189102175"><ele>556.0</ele><time>2026-04-02T15:36:27.999Z</time></trkpt><trkpt lat="43.38830516561866" lon="5.531430876007921"><ele>556.0</ele><time>2026-04-02T15:36:34.999Z</time></trkpt><trkpt lat="43.38797939546242" lon="5.531687296626358"><ele>556.0</ele><time>2026-04-02T15:36:36.999Z</time></trkpt><trkpt lat="43.38792765319419" lon="5.531621082443441"><ele>556.0</ele><time>2026-04-02T15:36:42.999Z</time></trkpt><trkpt lat="43.38787816458974" lon="5.531547890194586"><ele>556.0</ele><time>2026-04-02T15:36:48.999Z</time></trkpt><trkpt lat="43.387891863270646" lon="5.531625634230586"><ele>556.0</ele><time>2026-04-02T15:43:27.998Z</time></trkpt><trkpt lat="43.387956777267384" lon="5.531651963432252"><ele>556.0</ele><time>2026-04-02T15:43:29.998Z</time></trkpt><trkpt lat="43.387993607431284" lon="5.531733679254153"><ele>556.0</ele><time>2026-04-02T15:43:40.998Z</time></trkpt><trkpt lat="43.38806487257372" lon="5.531774599495196"><ele>556.0</ele><time>2026-04-02T15:43:43Z</time></trkpt><trkpt lat="43.38815868668399" lon="5.5318768752748655"><ele>556.0</ele><time>2026-04-02T15:43:45Z</time></trkpt><trkpt lat="43.38820798250722" lon="5.531937881784029"><ele>556.0</ele><time>2026-04-02T15:43:46Z</time></trkpt><trkpt lat="43.388261306219576" lon="5.531998599936583"><ele>556.0</ele><time>2026-04-02T15:43:47Z</time></trkpt><trkpt lat="43.38832068246926" lon="5.5320456933525035"><ele>556.0</ele><time>2026-04-02T15:43:48Z</time></trkpt><trkpt lat="43.38838167401812" lon="5.5320979702324475"><ele>556.0</ele><time>2026-04-02T15:43:49Z</time></trkpt><trkpt lat="43.38843762197742" lon="5.532142522082074"><ele>556.0</ele><time>2026-04-02T15:43:50Z</time></trkpt><trkpt lat="43.388492300144875" lon="5.53218628008725"><ele>556.0</ele><time>2026-04-02T15:43:51Z</time></trkpt><trkpt lat="43.38860057423218" lon="5.5322747753426125"><ele>556.0</ele><time>2026-04-02T15:43:53Z</time></trkpt><trkpt lat="43.388621912492546" lon="5.532173720006169"><ele>556.0</ele><time>2026-04-02T15:43:58Z</time></trkpt><trkpt lat="43.38860741064142" lon="5.53207054375402"><ele>556.0</ele><time>2026-04-02T15:44:00Z</time></trkpt><trkpt lat="43.38856897327352" lon="5.531979017768083"><ele>556.0</ele><time>2026-04-02T15:44:02Z</time></trkpt><trkpt lat="43.38852165989732" lon="5.531902382662597"><ele>556.0</ele><time>2026-04-02T15:44:04Z</time></trkpt><trkpt lat="43.38847551936656" lon="5.531825634393295"><ele>556.0</ele><time>2026-04-02T15:44:06Z</time></trkpt><trkpt lat="43.38844142451294" lon="5.5317497780467955"><ele>556.0</ele><time>2026-04-02T15:44:08Z</time></trkpt><trkpt lat="43.38838303971403" lon="5.531628227777727"><ele>556.0</ele><time>2026-04-02T15:44:10Z</time></trkpt><trkpt lat="43.38831083990179" lon="5.531508366778038"><ele>556.0</ele><time>2026-04-02T15:44:12Z</time></trkpt><trkpt lat="43.38827701487035" lon="5.531433687449127"><ele>556.0</ele><time>2026-04-02T15:44:13Z</time></trkpt><trkpt lat="43.3882588479836" lon="5.531334050861116"><ele>556.0</ele><time>2026-04-02T15:44:14Z</time></trkpt><trkpt lat="43.388218374344966" lon="5.5312473286892905"><ele>556.0</ele><time>2026-04-02T15:44:15Z</time></trkpt><trkpt lat="43.38817985414415" lon="5.531158154366683"><ele>556.0</ele><time>2026-04-02T15:44:16Z</time></trkpt><trkpt lat="43.388138451396976" lon="5.531056302729565"><ele>554.4</ele><time>2026-04-02T15:44:17Z</time></trkpt><trkpt lat="43.388098314183495" lon="5.530947095785459"><ele>552.8</ele><time>2026-04-02T15:44:18Z</time></trkpt><trkpt lat="43.388054429689106" lon="5.530823218460713"><ele>551.1999999999999</ele><time>2026-04-02T15:44:19Z</time></trkpt><trkpt lat="43.38801271398833" lon="5.530694347531409"><ele>549.6</ele><time>2026-04-02T15:44:20Z</time></trkpt><trkpt lat="43.387959478810245" lon="5.5305776068247585"><ele>548.0</ele><time>2026-04-02T15:44:21Z</time></trkpt><trkpt lat="43.38792656084962" lon="5.530414596541969"><ele>545.75</ele><time>2026-04-02T15:44:22Z</time></trkpt><trkpt lat="43.38788189968286" lon="5.530259236749674"><ele>543.5</ele><time>2026-04-02T15:44:22.999Z</time></trkpt><trkpt lat="43.38782722476485" lon="5.5301288992088455"><ele>541.25</ele><time>2026-04-02T15:44:23.999Z</time></trkpt><trkpt lat="43.38777982225317" lon="5.529975342382399"><ele>539.0</ele><time>2026-04-02T15:44:24.999Z</time></trkpt><trkpt lat="43.387734755072316" lon="5.529812481628188"><ele>539.0</ele><time>2026-04-02T15:44:25.999Z</time></trkpt><trkpt lat="43.38768841913429" lon="5.529656811854706"><ele>539.0</ele><time>2026-04-02T15:44:26.999Z</time></trkpt><trkpt lat="43.38766178687017" lon="5.529509184403761"><ele>539.0</ele><time>2026-04-02T15:44:27.999Z</time></trkpt><trkpt lat="43.38762311189894" lon="5.529362699462428"><ele>539.0</ele><time>2026-04-02T15:44:28.999Z</time></trkpt><trkpt lat="43.38758360507452" lon="5.5292130638261465"><ele>536.0</ele><time>2026-04-02T15:44:29.999Z</time></trkpt><trkpt lat="43.38753207309839" lon="5.529066372722406"><ele>533.0</ele><time>2026-04-02T15:44:30.999Z</time></trkpt><trkpt lat="43.38750066195184" lon="5.528950440696167"><ele>530.0</ele><time>2026-04-02T15:44:31.999Z</time></trkpt><trkpt lat="43.38747064518653" lon="5.528835707198762"><ele>527.0</ele><time>2026-04-02T15:44:32.999Z</time></trkpt><trkpt lat="43.38745469549551" lon="5.528724268558816"><ele>524.0</ele><time>2026-04-02T15:44:33.999Z</time></trkpt><trkpt lat="43.38743452229599" lon="5.528623638575393"><ele>522.5</ele><time>2026-04-02T15:44:34.999Z</time></trkpt><trkpt lat="43.38741636589676" lon="5.528531930776743"><ele>521.0</ele><time>2026-04-02T15:44:35.999Z</time></trkpt><trkpt lat="43.38741999624358" lon="5.528416848868776"><ele>519.5</ele><time>2026-04-02T15:44:36.999Z</time></trkpt><trkpt lat="43.3874385508247" lon="5.528300720177035"><ele>518.0</ele><time>2026-04-02T15:44:37.999Z</time></trkpt><trkpt lat="43.387452260702396" lon="5.528187660252295"><ele>516.5</ele><time>2026-04-02T15:44:38.999Z</time></trkpt><trkpt lat="43.387460407802195" lon="5.528066546057685"><ele>515.0</ele><time>2026-04-02T15:44:39.999Z</time></trkpt><trkpt lat="43.38746599735235" lon="5.527966431624235"><ele>514.5</ele><time>2026-04-02T15:44:40.999Z</time></trkpt><trkpt lat="43.38747885434811" lon="5.527866748223773"><ele>514.0</ele><time>2026-04-02T15:44:41.999Z</time></trkpt><trkpt lat="43.3875166285374" lon="5.527766133862286"><ele>513.5</ele><time>2026-04-02T15:44:42.999Z</time></trkpt><trkpt lat="43.387532409136" lon="5.527667883723073"><ele>513.0</ele><time>2026-04-02T15:44:43.999Z</time></trkpt><trkpt lat="43.38756829066107" lon="5.527583281656354"><ele>512.5</ele><time>2026-04-02T15:44:44.999Z</time></trkpt><trkpt lat="43.3875965769664" lon="5.527500292806988"><ele>512.0</ele><time>2026-04-02T15:44:45.999Z</time></trkpt><trkpt lat="43.38764164693275" lon="5.527359919128563"><ele>512.0</ele><time>2026-04-02T15:44:47.999Z</time></trkpt><trkpt lat="43.38766889806301" lon="5.527276491769524"><ele>512.0</ele><time>2026-04-02T15:44:48.999Z</time></trkpt><trkpt lat="43.3877189285509" lon="5.527130534469183"><ele>512.0</ele><time>2026-04-02T15:44:50.999Z</time></trkpt><trkpt lat="43.38776765354508" lon="5.526988961452529"><ele>512.0</ele><time>2026-04-02T15:44:52.999Z</time></trkpt><trkpt lat="43.38780977719658" lon="5.5268396122626475"><ele>512.0</ele><time>2026-04-02T15:44:54.999Z</time></trkpt><trkpt lat="43.387855714060464" lon="5.5266957522267655"><ele>512.6</ele><time>2026-04-02T15:44:56.999Z</time></trkpt><trkpt lat="43.387898442836914" lon="5.526570611069813"><ele>513.2</ele><time>2026-04-02T15:44:58.999Z</time></trkpt><trkpt lat="43.38795521060092" lon="5.526445688077099"><ele>513.8</ele><time>2026-04-02T15:45:00.999Z</time></trkpt><trkpt lat="43.38798379106866" lon="5.52631372474039"><ele>514.4</ele><time>2026-04-02T15:45:02.999Z</time></trkpt><trkpt lat="43.388026689439634" lon="5.52617639847493"><ele>515.0</ele><time>2026-04-02T15:45:04.999Z</time></trkpt><trkpt lat="43.38799969605627" lon="5.52604524133662"><ele>513.0</ele><time>2026-04-02T15:45:06.999Z</time></trkpt><trkpt lat="43.38792767242444" lon="5.525929811467151"><ele>511.0</ele><time>2026-04-02T15:45:08.999Z</time></trkpt><trkpt lat="43.38785248085604" lon="5.525840021247745"><ele>509.0</ele><time>2026-04-02T15:45:10.999Z</time></trkpt><trkpt lat="43.38782168049552" lon="5.525718272469383"><ele>507.0</ele><time>2026-04-02T15:45:12.999Z</time></trkpt><trkpt lat="43.38777872776674" lon="5.525639688302912"><ele>505.0</ele><time>2026-04-02T15:45:14.999Z</time></trkpt><trkpt lat="43.38772299724121" lon="5.525568247585687"><ele>505.0</ele><time>2026-04-02T15:45:17.998Z</time></trkpt><trkpt lat="43.387661671348944" lon="5.52547356245187"><ele>505.0</ele><time>2026-04-02T15:45:20.998Z</time></trkpt><trkpt lat="43.38760850003157" lon="5.525367321492106"><ele>505.0</ele><time>2026-04-02T15:45:23.998Z</time></trkpt><trkpt lat="43.3875907230619" lon="5.525272427979686"><ele>505.0</ele><time>2026-04-02T15:45:25.998Z</time></trkpt><trkpt lat="43.38754056894724" lon="5.525171315080668"><ele>505.0</ele><time>2026-04-02T15:45:27.998Z</time></trkpt><trkpt lat="43.387509184686415" lon="5.525034985693404"><ele>503.33333333333337</ele><time>2026-04-02T15:45:29.998Z</time></trkpt><trkpt lat="43.3874706296267" lon="5.524963750317137"><ele>501.6666666666667</ele><time>2026-04-02T15:45:30.998Z</time></trkpt><trkpt lat="43.387429029935134" lon="5.524814124250889"><ele>500.0</ele><time>2026-04-02T15:45:32.998Z</time></trkpt><trkpt lat="43.3874121013877" lon="5.524730425981962"><ele>498.33333333333337</ele><time>2026-04-02T15:45:33.998Z</time></trkpt><trkpt lat="43.38738358703596" lon="5.52456018788819"><ele>496.6666666666667</ele><time>2026-04-02T15:45:35.998Z</time></trkpt><trkpt lat="43.3873822159154" lon="5.524467856372441"><ele>495.0</ele><time>2026-04-02T15:45:36.998Z</time></trkpt><trkpt lat="43.38738007698256" lon="5.524361086975522"><ele>492.8</ele><time>2026-04-02T15:45:37.998Z</time></trkpt><trkpt lat="43.3873653346151" lon="5.5242522660658615"><ele>490.6</ele><time>2026-04-02T15:45:38.998Z</time></trkpt><trkpt lat="43.38733324679867" lon="5.524135987735516"><ele>488.4</ele><time>2026-04-02T15:45:39.998Z</time></trkpt><trkpt lat="43.38728436287948" lon="5.524018197430919"><ele>486.2</ele><time>2026-04-02T15:45:40.998Z</time></trkpt><trkpt lat="43.38723076404661" lon="5.523903821331585"><ele>484.0</ele><time>2026-04-02T15:45:41.998Z</time></trkpt><trkpt lat="43.38716576790959" lon="5.523776031455906"><ele>483.4</ele><time>2026-04-02T15:45:42.998Z</time></trkpt><trkpt lat="43.38710016523723" lon="5.523651482046122"><ele>482.79999999999995</ele><time>2026-04-02T15:45:43.998Z</time></trkpt><trkpt lat="43.38703174448338" lon="5.523529954677498"><ele>482.20000000000005</ele><time>2026-04-02T15:45:44.998Z</time></trkpt><trkpt lat="43.38695253248364" lon="5.523432501471677"><ele>481.6</ele><time>2026-04-02T15:45:45.998Z</time></trkpt><trkpt lat="43.386896277194495" lon="5.5233417428108025"><ele>481.0</ele><time>2026-04-02T15:45:46.998Z</time></trkpt><trkpt lat="43.38685310319528" lon="5.5232592430495595"><ele>481.0</ele><time>2026-04-02T15:45:47.998Z</time></trkpt><trkpt lat="43.386807472912096" lon="5.523152777241301"><ele>481.0</ele><time>2026-04-02T15:45:49Z</time></trkpt><trkpt lat="43.38675215178181" lon="5.523046581040151"><ele>481.0</ele><time>2026-04-02T15:45:50Z</time></trkpt><trkpt lat="43.38667414596636" lon="5.522957223295281"><ele>481.0</ele><time>2026-04-02T15:45:51Z</time></trkpt><trkpt lat="43.38657141846057" lon="5.522910515684826"><ele>481.0</ele><time>2026-04-02T15:45:52Z</time></trkpt><trkpt lat="43.38649084197877" lon="5.522827986674499"><ele>481.4</ele><time>2026-04-02T15:45:53Z</time></trkpt><trkpt lat="43.386408825824546" lon="5.522749402581923"><ele>481.8</ele><time>2026-04-02T15:45:54Z</time></trkpt><trkpt lat="43.38632731214552" lon="5.5226574500337335"><ele>482.19999999999993</ele><time>2026-04-02T15:45:55Z</time></trkpt><trkpt lat="43.38625306334549" lon="5.5225657485723865"><ele>482.59999999999997</ele><time>2026-04-02T15:45:56Z</time></trkpt><trkpt lat="43.386166621309734" lon="5.522463786066218"><ele>483.0</ele><time>2026-04-02T15:45:57Z</time></trkpt><trkpt lat="43.38607055425721" lon="5.522386665611039"><ele>480.25</ele><time>2026-04-02T15:45:58Z</time></trkpt><trkpt lat="43.3859710756252" lon="5.522313538414185"><ele>477.5</ele><time>2026-04-02T15:45:59Z</time></trkpt><trkpt lat="43.38586635264872" lon="5.522249202869618"><ele>474.75</ele><time>2026-04-02T15:46:00Z</time></trkpt><trkpt lat="43.385760495428876" lon="5.522184418656273"><ele>472.0</ele><time>2026-04-02T15:46:01Z</time></trkpt><trkpt lat="43.38565545318023" lon="5.522115866076177"><ele>474.40000000000003</ele><time>2026-04-02T15:46:02Z</time></trkpt><trkpt lat="43.385561562277076" lon="5.5220204599087905"><ele>476.80000000000007</ele><time>2026-04-02T15:46:03Z</time></trkpt><trkpt lat="43.38547565458434" lon="5.521947300330161"><ele>479.2</ele><time>2026-04-02T15:46:04Z</time></trkpt><trkpt lat="43.385403640265665" lon="5.521866533536555"><ele>481.6</ele><time>2026-04-02T15:46:05Z</time></trkpt><trkpt lat="43.38535974868563" lon="5.521803473755277"><ele>484.0</ele><time>2026-04-02T15:46:06Z</time></trkpt><trkpt lat="43.38530898261914" lon="5.5216792132725665"><ele>480.00000000000006</ele><time>2026-04-02T15:46:08Z</time></trkpt><trkpt lat="43.38528027712095" lon="5.521522529978777"><ele>476.0</ele><time>2026-04-02T15:46:10Z</time></trkpt><trkpt lat="43.38527009869526" lon="5.521432980415128"><ele>472.0</ele><time>2026-04-02T15:46:11Z</time></trkpt><trkpt lat="43.385253628419086" lon="5.521339899177386"><ele>468.0</ele><time>2026-04-02T15:46:12Z</time></trkpt><trkpt lat="43.38524947178182" lon="5.521240320474164"><ele>464.00000000000006</ele><time>2026-04-02T15:46:13Z</time></trkpt><trkpt lat="43.385242314669654" lon="5.5211421965203265"><ele>460.0</ele><time>2026-04-02T15:46:14Z</time></trkpt><trkpt lat="43.38523315785806" lon="5.521036002088773"><ele>459.6</ele><time>2026-04-02T15:46:15Z</time></trkpt><trkpt lat="43.38522492957169" lon="5.520927528468786"><ele>459.2</ele><time>2026-04-02T15:46:16Z</time></trkpt><trkpt lat="43.385218346791554" lon="5.520822977268708"><ele>458.79999999999995</ele><time>2026-04-02T15:46:17Z</time></trkpt><trkpt lat="43.38522143471025" lon="5.520675100741831"><ele>458.4</ele><time>2026-04-02T15:46:19Z</time></trkpt><trkpt lat="43.385289691649994" lon="5.520549764697878"><ele>458.0</ele><time>2026-04-02T15:46:21Z</time></trkpt><trkpt lat="43.385365594472965" lon="5.520424290777276"><ele>457.99999999999994</ele><time>2026-04-02T15:46:22.999Z</time></trkpt><trkpt lat="43.385458792836445" lon="5.520449026909406"><ele>458.0</ele><time>2026-04-02T15:46:25.999Z</time></trkpt><trkpt lat="43.385528823987634" lon="5.520512046005372"><ele>458.0</ele><time>2026-04-02T15:46:27.999Z</time></trkpt><trkpt lat="43.385619150476614" lon="5.520596627737044"><ele>458.0</ele><time>2026-04-02T15:46:29.999Z</time></trkpt><trkpt lat="43.385672474220854" lon="5.520643507150639"><ele>457.99999999999994</ele><time>2026-04-02T15:46:30.999Z</time></trkpt><trkpt lat="43.38572621950812" lon="5.520691350666054"><ele>458.0</ele><time>2026-04-02T15:46:31.999Z</time></trkpt><trkpt lat="43.385788116777185" lon="5.520737647072672"><ele>458.99999999999994</ele><time>2026-04-02T15:46:32.999Z</time></trkpt><trkpt lat="43.385857030494186" lon="5.5207766133424325"><ele>460.0</ele><time>2026-04-02T15:46:33.999Z</time></trkpt><trkpt lat="43.38593349152652" lon="5.520810673881598"><ele>461.0</ele><time>2026-04-02T15:46:34.999Z</time></trkpt><trkpt lat="43.38601072993455" lon="5.520846083154722"><ele>462.0</ele><time>2026-04-02T15:46:35.999Z</time></trkpt><trkpt lat="43.38608357246195" lon="5.520876755739967"><ele>462.99999999999994</ele><time>2026-04-02T15:46:36.999Z</time></trkpt><trkpt lat="43.386159676912385" lon="5.520913341892853"><ele>464.0</ele><time>2026-04-02T15:46:37.999Z</time></trkpt><trkpt lat="43.38623610889154" lon="5.520961806633572"><ele>464.0</ele><time>2026-04-02T15:46:38.999Z</time></trkpt><trkpt lat="43.38630887476886" lon="5.520997009887751"><ele>464.0</ele><time>2026-04-02T15:46:39.999Z</time></trkpt><trkpt lat="43.38638401529129" lon="5.521031003080966"><ele>464.0</ele><time>2026-04-02T15:46:40.999Z</time></trkpt><trkpt lat="43.386499808293266" lon="5.521029164462395"><ele>464.0</ele><time>2026-04-02T15:46:42.999Z</time></trkpt><trkpt lat="43.386573514319544" lon="5.520939021787312"><ele>464.0</ele><time>2026-04-02T15:46:44.999Z</time></trkpt><trkpt lat="43.38644325698333" lon="5.520861517894463"><ele>463.99999999999994</ele><time>2026-04-02T15:47:45.998Z</time></trkpt><trkpt lat="43.38638014451716" lon="5.520844238191909"><ele>464.0</ele><time>2026-04-02T15:47:46.998Z</time></trkpt><trkpt lat="43.38627162742294" lon="5.520800890358539"><ele>464.0</ele><time>2026-04-02T15:47:48.998Z</time></trkpt><trkpt lat="43.38617042833277" lon="5.520710803497741"><ele>464.0</ele><time>2026-04-02T15:47:50.998Z</time></trkpt><trkpt lat="43.38611723859127" lon="5.520655491088628"><ele>463.99999999999994</ele><time>2026-04-02T15:47:51.998Z</time></trkpt><trkpt lat="43.386055599867895" lon="5.520585924951982"><ele>464.0</ele><time>2026-04-02T15:47:52.998Z</time></trkpt><trkpt lat="43.3859953027953" lon="5.520512144734825"><ele>463.99999999999994</ele><time>2026-04-02T15:47:53.998Z</time></trkpt><trkpt lat="43.38593734995522" lon="5.520427016258528"><ele>464.0</ele><time>2026-04-02T15:47:55Z</time></trkpt><trkpt lat="43.385878012978" lon="5.520327340131423"><ele>464.0</ele><time>2026-04-02T15:47:56Z</time></trkpt><trkpt lat="43.385844054988695" lon="5.520233311617526"><ele>464.0</ele><time>2026-04-02T15:47:57Z</time></trkpt><trkpt lat="43.385795477703724" lon="5.520118504473552"><ele>463.99999999999994</ele><time>2026-04-02T15:47:58Z</time></trkpt><trkpt lat="43.3857472253689" lon="5.520007029454637"><ele>464.0</ele><time>2026-04-02T15:47:59Z</time></trkpt><trkpt lat="43.38570063315688" lon="5.519918281311101"><ele>460.49999999999994</ele><time>2026-04-02T15:48:00Z</time></trkpt><trkpt lat="43.385645121603766" lon="5.519874230628859"><ele>457.0</ele><time>2026-04-02T15:48:01Z</time></trkpt><trkpt lat="43.38559402936577" lon="5.519802980904727"><ele>453.5</ele><time>2026-04-02T15:48:02Z</time></trkpt><trkpt lat="43.38549839362237" lon="5.519748626328529"><ele>450.0</ele><time>2026-04-02T15:48:03Z</time></trkpt><trkpt lat="43.38542430307815" lon="5.5197113948722905"><ele>446.49999999999994</ele><time>2026-04-02T15:48:04Z</time></trkpt><trkpt lat="43.3853410910102" lon="5.519663022223672"><ele>443.0</ele><time>2026-04-02T15:48:05Z</time></trkpt><trkpt lat="43.385255612969615" lon="5.519609254539829"><ele>440.2</ele><time>2026-04-02T15:48:06Z</time></trkpt><trkpt lat="43.38517634876907" lon="5.5195445557869265"><ele>437.4</ele><time>2026-04-02T15:48:07Z</time></trkpt><trkpt lat="43.38510608879472" lon="5.519449178119109"><ele>434.59999999999997</ele><time>2026-04-02T15:48:08Z</time></trkpt><trkpt lat="43.38505199196499" lon="5.519333985755174"><ele>431.79999999999995</ele><time>2026-04-02T15:48:09Z</time></trkpt><trkpt lat="43.38501663717083" lon="5.519203988810557"><ele>429.0</ele><time>2026-04-02T15:48:10Z</time></trkpt><trkpt lat="43.38500393196174" lon="5.51908425705978"><ele>429.0</ele><time>2026-04-02T15:48:11Z</time></trkpt><trkpt lat="43.384994658585704" lon="5.518956171624089"><ele>429.0</ele><time>2026-04-02T15:48:12Z</time></trkpt><trkpt lat="43.38499042186806" lon="5.518839735196637"><ele>429.0</ele><time>2026-04-02T15:48:13Z</time></trkpt><trkpt lat="43.384995592073786" lon="5.518737914045624"><ele>429.0</ele><time>2026-04-02T15:48:14Z</time></trkpt><trkpt lat="43.38500576413603" lon="5.518623656945991"><ele>429.0</ele><time>2026-04-02T15:48:15Z</time></trkpt><trkpt lat="43.38499996563251" lon="5.51851001376764"><ele>429.0</ele><time>2026-04-02T15:48:16Z</time></trkpt><trkpt lat="43.385009431665075" lon="5.518410284849126"><ele>428.2857142857143</ele><time>2026-04-02T15:48:17Z</time></trkpt><trkpt lat="43.38501141667781" lon="5.518314201553876"><ele>427.57142857142856</ele><time>2026-04-02T15:48:18Z</time></trkpt><trkpt lat="43.38502418587974" lon="5.518225751074224"><ele>426.8571428571429</ele><time>2026-04-02T15:48:19Z</time></trkpt><trkpt lat="43.38500469384378" lon="5.51812741007797"><ele>426.1428571428571</ele><time>2026-04-02T15:48:20Z</time></trkpt><trkpt lat="43.38499062576231" lon="5.518038580472066"><ele>425.4285714285714</ele><time>2026-04-02T15:48:21Z</time></trkpt><trkpt lat="43.38497592296624" lon="5.51794247079639"><ele>424.7142857142857</ele><time>2026-04-02T15:48:22Z</time></trkpt><trkpt lat="43.38495957726631" lon="5.517853097089324"><ele>424.0</ele><time>2026-04-02T15:48:23Z</time></trkpt><trkpt lat="43.38493844350151" lon="5.517765316297888"><ele>423.5714285714286</ele><time>2026-04-02T15:48:24Z</time></trkpt><trkpt lat="43.38490843125602" lon="5.517679433932645"><ele>423.1428571428571</ele><time>2026-04-02T15:48:25Z</time></trkpt><trkpt lat="43.384875529640674" lon="5.517599113828543"><ele>422.7142857142857</ele><time>2026-04-02T15:48:26Z</time></trkpt><trkpt lat="43.38484402321429" lon="5.517513358201335"><ele>422.28571428571433</ele><time>2026-04-02T15:48:27Z</time></trkpt><trkpt lat="43.38480070959122" lon="5.517429358595046"><ele>421.8571428571429</ele><time>2026-04-02T15:48:28Z</time></trkpt><trkpt lat="43.384760953720395" lon="5.517343344477189"><ele>421.42857142857144</ele><time>2026-04-02T15:48:28.999Z</time></trkpt><trkpt lat="43.38471739501788" lon="5.51725879448822"><ele>421.0</ele><time>2026-04-02T15:48:29.999Z</time></trkpt><trkpt lat="43.38468291106035" lon="5.5171572549969525"><ele>423.00000000000006</ele><time>2026-04-02T15:48:30.999Z</time></trkpt><trkpt lat="43.3846267558123" lon="5.517082136372636"><ele>425.0</ele><time>2026-04-02T15:48:31.999Z</time></trkpt><trkpt lat="43.38458011560899" lon="5.517001399482808"><ele>427.0</ele><time>2026-04-02T15:48:32.999Z</time></trkpt><trkpt lat="43.38454613308003" lon="5.516902427768123"><ele>429.0</ele><time>2026-04-02T15:48:33.999Z</time></trkpt><trkpt lat="43.38449814236809" lon="5.516817634186766"><ele>431.00000000000006</ele><time>2026-04-02T15:48:34.999Z</time></trkpt><trkpt lat="43.384449936642454" lon="5.5167334101096515"><ele>433.0</ele><time>2026-04-02T15:48:35.999Z</time></trkpt><trkpt lat="43.38438936846797" lon="5.516663315360684"><ele>433.00000000000006</ele><time>2026-04-02T15:48:36.999Z</time></trkpt><trkpt lat="43.384338882770166" lon="5.516574010840907"><ele>433.0</ele><time>2026-04-02T15:48:37.999Z</time></trkpt><trkpt lat="43.38429226668809" lon="5.51649220243685"><ele>433.0</ele><time>2026-04-02T15:48:38.999Z</time></trkpt><trkpt lat="43.384246330423224" lon="5.516418012806059"><ele>433.0</ele><time>2026-04-02T15:48:39.999Z</time></trkpt><trkpt lat="43.384158801005704" lon="5.516384057284343"><ele>433.00000000000006</ele><time>2026-04-02T15:48:40.999Z</time></trkpt><trkpt lat="43.384089835847654" lon="5.516335910359679"><ele>433.0</ele><time>2026-04-02T15:48:41.999Z</time></trkpt><trkpt lat="43.38402401469517" lon="5.51628710999615"><ele>432.99999999999994</ele><time>2026-04-02T15:48:42.999Z</time></trkpt><trkpt lat="43.3839673461885" lon="5.516222790997178"><ele>433.0</ele><time>2026-04-02T15:48:43.999Z</time></trkpt><trkpt lat="43.38390546795883" lon="5.516170279821938"><ele>433.0</ele><time>2026-04-02T15:48:44.999Z</time></trkpt><trkpt lat="43.3838488052453" lon="5.516115493700779"><ele>433.0</ele><time>2026-04-02T15:48:45.999Z</time></trkpt><trkpt lat="43.383787646985965" lon="5.516064160708501"><ele>433.0</ele><time>2026-04-02T15:48:46.999Z</time></trkpt><trkpt lat="43.38373706263538" lon="5.515983180119466"><ele>432.99999999999994</ele><time>2026-04-02T15:48:47.999Z</time></trkpt><trkpt lat="43.383695100139676" lon="5.515907689033278"><ele>433.0</ele><time>2026-04-02T15:48:48.999Z</time></trkpt><trkpt lat="43.38365616847529" lon="5.515817587279925"><ele>433.00000000000006</ele><time>2026-04-02T15:48:49.999Z</time></trkpt><trkpt lat="43.38362020744537" lon="5.515739619172733"><ele>433.0</ele><time>2026-04-02T15:48:50.999Z</time></trkpt><trkpt lat="43.383606114745504" lon="5.515637630845009"><ele>433.0</ele><time>2026-04-02T15:48:51.999Z</time></trkpt><trkpt lat="43.38355137248363" lon="5.515466560912771"><ele>433.0</ele><time>2026-04-02T15:48:53.999Z</time></trkpt><trkpt lat="43.38354836826399" lon="5.515365432301457"><ele>433.00000000000006</ele><time>2026-04-02T15:48:54.999Z</time></trkpt><trkpt lat="43.383535597017165" lon="5.515261818288331"><ele>433.0</ele><time>2026-04-02T15:48:55.999Z</time></trkpt><trkpt lat="43.383517920024694" lon="5.515151586068412"><ele>431.79999999999995</ele><time>2026-04-02T15:48:56.999Z</time></trkpt><trkpt lat="43.38353443893843" lon="5.515034411107248"><ele>430.59999999999997</ele><time>2026-04-02T15:48:57.999Z</time></trkpt><trkpt lat="43.383532020480544" lon="5.514907732821968"><ele>429.40000000000003</ele><time>2026-04-02T15:48:58.999Z</time></trkpt><trkpt lat="43.383536487424124" lon="5.514784773505857"><ele>428.20000000000005</ele><time>2026-04-02T15:48:59.999Z</time></trkpt><trkpt lat="43.383547584834886" lon="5.514655864316656"><ele>427.0</ele><time>2026-04-02T15:49:00.999Z</time></trkpt><trkpt lat="43.38355647570469" lon="5.514530203761732"><ele>426.6</ele><time>2026-04-02T15:49:01.999Z</time></trkpt><trkpt lat="43.383563036998936" lon="5.514410906593052"><ele>426.20000000000005</ele><time>2026-04-02T15:49:02.999Z</time></trkpt><trkpt lat="43.38354517159422" lon="5.514287306784603"><ele>425.8</ele><time>2026-04-02T15:49:03.999Z</time></trkpt><trkpt lat="43.383519469895255" lon="5.5141632445458875"><ele>425.4</ele><time>2026-04-02T15:49:04.999Z</time></trkpt><trkpt lat="43.38352626295097" lon="5.514036659513016"><ele>425.0</ele><time>2026-04-02T15:49:05.999Z</time></trkpt><trkpt lat="43.38353836936703" lon="5.513910811923582"><ele>424.99999999999994</ele><time>2026-04-02T15:49:06.999Z</time></trkpt><trkpt lat="43.38356936499468" lon="5.513793785824593"><ele>425.0</ele><time>2026-04-02T15:49:07.999Z</time></trkpt><trkpt lat="43.38358980736278" lon="5.513666502118562"><ele>425.0</ele><time>2026-04-02T15:49:08.999Z</time></trkpt><trkpt lat="43.383617062357835" lon="5.513550925709976"><ele>425.0</ele><time>2026-04-02T15:49:09.999Z</time></trkpt><trkpt lat="43.38363579308082" lon="5.513429041626919"><ele>424.99999999999994</ele><time>2026-04-02T15:49:10.999Z</time></trkpt><trkpt lat="43.383641313259076" lon="5.513312239121189"><ele>425.0</ele><time>2026-04-02T15:49:11.999Z</time></trkpt><trkpt lat="43.3836222134274" lon="5.513201687677743"><ele>424.49999999999994</ele><time>2026-04-02T15:49:12.999Z</time></trkpt><trkpt lat="43.38357634108479" lon="5.5131004864340305"><ele>424.0</ele><time>2026-04-02T15:49:13.999Z</time></trkpt><trkpt lat="43.38352235678157" lon="5.512997757960219"><ele>423.5</ele><time>2026-04-02T15:49:14.999Z</time></trkpt><trkpt lat="43.3834594944881" lon="5.512917317898977"><ele>423.0</ele><time>2026-04-02T15:49:15.999Z</time></trkpt><trkpt lat="43.38340326282948" lon="5.512837244580556"><ele>422.49999999999994</ele><time>2026-04-02T15:49:16.999Z</time></trkpt><trkpt lat="43.383351115478085" lon="5.512751207412317"><ele>422.0</ele><time>2026-04-02T15:49:17.999Z</time></trkpt><trkpt lat="43.383319595603446" lon="5.5126266989308546"><ele>419.0</ele><time>2026-04-02T15:49:18.999Z</time></trkpt><trkpt lat="43.383286496416666" lon="5.512512386055257"><ele>416.0</ele><time>2026-04-02T15:49:19.999Z</time></trkpt><trkpt lat="43.383243817266035" lon="5.512400784076344"><ele>413.0</ele><time>2026-04-02T15:49:20.999Z</time></trkpt><trkpt lat="43.383229840774504" lon="5.512249231369902"><ele>410.0</ele><time>2026-04-02T15:49:21.999Z</time></trkpt><trkpt lat="43.38320900887769" lon="5.512114561102574"><ele>407.0</ele><time>2026-04-02T15:49:22.999Z</time></trkpt><trkpt lat="43.38319420221442" lon="5.511980704465515"><ele>406.8</ele><time>2026-04-02T15:49:23.999Z</time></trkpt><trkpt lat="43.38315658454321" lon="5.511844245873105"><ele>406.6</ele><time>2026-04-02T15:49:24.999Z</time></trkpt><trkpt lat="43.38311761507108" lon="5.511729667539594"><ele>406.40000000000003</ele><time>2026-04-02T15:49:25.999Z</time></trkpt><trkpt lat="43.383064185419904" lon="5.5116054769556895"><ele>406.20000000000005</ele><time>2026-04-02T15:49:26.999Z</time></trkpt><trkpt lat="43.38302382734309" lon="5.511475641350459"><ele>406.0</ele><time>2026-04-02T15:49:27.999Z</time></trkpt><trkpt lat="43.3829565849385" lon="5.511375038444401"><ele>406.00000000000006</ele><time>2026-04-02T15:49:28.999Z</time></trkpt><trkpt lat="43.38290021917056" lon="5.511282678680633"><ele>406.0</ele><time>2026-04-02T15:49:29.998Z</time></trkpt><trkpt lat="43.38283441879565" lon="5.511231048319283"><ele>406.0</ele><time>2026-04-02T15:49:30.998Z</time></trkpt><trkpt lat="43.38271431994845" lon="5.511205681755634"><ele>406.0</ele><time>2026-04-02T15:49:32.998Z</time></trkpt><trkpt lat="43.38264122894865" lon="5.511172638685541"><ele>406.00000000000006</ele><time>2026-04-02T15:49:33.998Z</time></trkpt><trkpt lat="43.38256842797571" lon="5.511156325412717"><ele>406.0</ele><time>2026-04-02T15:49:34.998Z</time></trkpt><trkpt lat="43.382490115719435" lon="5.511167131393609"><ele>403.00000000000006</ele><time>2026-04-02T15:49:35.998Z</time></trkpt><trkpt lat="43.38240888814777" lon="5.511150172944235"><ele>400.0</ele><time>2026-04-02T15:49:36.998Z</time></trkpt><trkpt lat="43.382322895740714" lon="5.511200250485564"><ele>397.0</ele><time>2026-04-02T15:49:37.998Z</time></trkpt><trkpt lat="43.38225057099436" lon="5.511230756268631"><ele>394.0</ele><time>2026-04-02T15:49:38.998Z</time></trkpt><trkpt lat="43.38218029066698" lon="5.511304681359382"><ele>391.00000000000006</ele><time>2026-04-02T15:49:39.998Z</time></trkpt><trkpt lat="43.38212043634381" lon="5.51138821148031"><ele>388.0</ele><time>2026-04-02T15:49:40.998Z</time></trkpt><trkpt lat="43.382073071671314" lon="5.5114818624454305"><ele>388.00000000000006</ele><time>2026-04-02T15:49:41.998Z</time></trkpt><trkpt lat="43.38200360629969" lon="5.5115491194154185"><ele>388.0</ele><time>2026-04-02T15:49:42.998Z</time></trkpt><trkpt lat="43.381939171289574" lon="5.511633852644713"><ele>388.0</ele><time>2026-04-02T15:49:43.998Z</time></trkpt><trkpt lat="43.381877647239044" lon="5.511708583674984"><ele>388.0</ele><time>2026-04-02T15:49:44.998Z</time></trkpt><trkpt lat="43.38181202424062" lon="5.511779305832808"><ele>388.00000000000006</ele><time>2026-04-02T15:49:45.998Z</time></trkpt><trkpt lat="43.38173715383726" lon="5.511850397290227"><ele>388.0</ele><time>2026-04-02T15:49:46.998Z</time></trkpt><trkpt lat="43.38165770769386" lon="5.511887826177414"><ele>388.0</ele><time>2026-04-02T15:49:47.998Z</time></trkpt><trkpt lat="43.381569386829014" lon="5.511898177701159"><ele>388.0</ele><time>2026-04-02T15:49:48.998Z</time></trkpt><trkpt lat="43.38147590749923" lon="5.511893386308767"><ele>388.0</ele><time>2026-04-02T15:49:49.998Z</time></trkpt><trkpt lat="43.381376335735986" lon="5.511875097440277"><ele>388.0</ele><time>2026-04-02T15:49:50.998Z</time></trkpt><trkpt lat="43.381277547981036" lon="5.511851670430245"><ele>388.0</ele><time>2026-04-02T15:49:51.998Z</time></trkpt><trkpt lat="43.3811707170227" lon="5.511820961005838"><ele>386.79999999999995</ele><time>2026-04-02T15:49:52.998Z</time></trkpt><trkpt lat="43.381070651591976" lon="5.5117784606553055"><ele>385.6</ele><time>2026-04-02T15:49:53.998Z</time></trkpt><trkpt lat="43.38096443467553" lon="5.511731372587144"><ele>384.4</ele><time>2026-04-02T15:49:54.998Z</time></trkpt><trkpt lat="43.38085523134422" lon="5.5117099329357355"><ele>383.20000000000005</ele><time>2026-04-02T15:49:55.998Z</time></trkpt><trkpt lat="43.38074982181395" lon="5.511653647559322"><ele>382.0</ele><time>2026-04-02T15:49:56.998Z</time></trkpt><trkpt lat="43.38064064058488" lon="5.511615437152593"><ele>382.0</ele><time>2026-04-02T15:49:57.998Z</time></trkpt><trkpt lat="43.38052740530433" lon="5.511599555799001"><ele>382.0</ele><time>2026-04-02T15:49:58.998Z</time></trkpt><trkpt lat="43.3804055336518" lon="5.511537120480965"><ele>382.0</ele><time>2026-04-02T15:49:59.998Z</time></trkpt><trkpt lat="43.380292027158625" lon="5.511500696955331"><ele>382.0</ele><time>2026-04-02T15:50:01Z</time></trkpt><trkpt lat="43.38019489405147" lon="5.511471101442772"><ele>381.0</ele><time>2026-04-02T15:50:02Z</time></trkpt><trkpt lat="43.38011144483847" lon="5.511451098402998"><ele>380.0</ele><time>2026-04-02T15:50:03Z</time></trkpt><trkpt lat="43.38003805286999" lon="5.51143973239297"><ele>379.0</ele><time>2026-04-02T15:50:04Z</time></trkpt><trkpt lat="43.379937114906205" lon="5.51146553919363"><ele>378.0</ele><time>2026-04-02T15:50:06Z</time></trkpt><trkpt lat="43.37986473130872" lon="5.511538018605776"><ele>377.0</ele><time>2026-04-02T15:50:08Z</time></trkpt><trkpt lat="43.3798026204393" lon="5.511616834198151"><ele>376.0</ele><time>2026-04-02T15:50:10Z</time></trkpt><trkpt lat="43.37975431706526" lon="5.511765436549077"><ele>376.0</ele><time>2026-04-02T15:50:12Z</time></trkpt><trkpt lat="43.379739669550624" lon="5.511927177415583"><ele>376.0</ele><time>2026-04-02T15:50:14Z</time></trkpt><trkpt lat="43.37975860769176" lon="5.512087329503343"><ele>376.0</ele><time>2026-04-02T15:50:16Z</time></trkpt><trkpt lat="43.379747474962315" lon="5.512257729058152"><ele>376.0</ele><time>2026-04-02T15:50:18Z</time></trkpt><trkpt lat="43.37976651541053" lon="5.512341991971117"><ele>376.0</ele><time>2026-04-02T15:50:19Z</time></trkpt><trkpt lat="43.37977638830676" lon="5.512434394098067"><ele>375.85714285714283</ele><time>2026-04-02T15:50:20Z</time></trkpt><trkpt lat="43.37979141585594" lon="5.512526311062514"><ele>375.71428571428567</ele><time>2026-04-02T15:50:21Z</time></trkpt><trkpt lat="43.37980656649536" lon="5.512622991561207"><ele>375.57142857142856</ele><time>2026-04-02T15:50:22Z</time></trkpt><trkpt lat="43.379797417109195" lon="5.512714775487444"><ele>375.42857142857144</ele><time>2026-04-02T15:50:23Z</time></trkpt><trkpt lat="43.37979704933781" lon="5.512808847255766"><ele>375.2857142857143</ele><time>2026-04-02T15:50:24Z</time></trkpt><trkpt lat="43.379787338591605" lon="5.512897357967427"><ele>375.14285714285717</ele><time>2026-04-02T15:50:25Z</time></trkpt><trkpt lat="43.379744476309256" lon="5.512970062996004"><ele>375.0</ele><time>2026-04-02T15:50:27Z</time></trkpt><trkpt lat="43.37972049389513" lon="5.512884109566004"><ele>375.8333333333333</ele><time>2026-04-02T15:50:30Z</time></trkpt><trkpt lat="43.37973623679312" lon="5.512798423117996"><ele>376.6666666666667</ele><time>2026-04-02T15:50:39.999Z</time></trkpt><trkpt lat="43.379741309313204" lon="5.512679316617149"><ele>377.5</ele><time>2026-04-02T15:50:41.999Z</time></trkpt><trkpt lat="43.37970373853216" lon="5.512542541529948"><ele>378.33333333333337</ele><time>2026-04-02T15:50:43.999Z</time></trkpt><trkpt lat="43.3796593965716" lon="5.512383789240356"><ele>379.1666666666667</ele><time>2026-04-02T15:50:45.999Z</time></trkpt><trkpt lat="43.379631697732904" lon="5.512297532258297"><ele>380.0</ele><time>2026-04-02T15:50:46.999Z</time></trkpt><trkpt lat="43.37960485051563" lon="5.512214950646288"><ele>375.6666666666667</ele><time>2026-04-02T15:50:47.999Z</time></trkpt><trkpt lat="43.379569263250474" lon="5.512125864470894"><ele>371.33333333333337</ele><time>2026-04-02T15:50:48.999Z</time></trkpt><trkpt lat="43.37952935768933" lon="5.512033480085772"><ele>367.0</ele><time>2026-04-02T15:50:49.999Z</time></trkpt><trkpt lat="43.37948291318693" lon="5.511932850398832"><ele>362.6666666666667</ele><time>2026-04-02T15:50:50.999Z</time></trkpt><trkpt lat="43.37943123743935" lon="5.5118362069213385"><ele>358.3333333333333</ele><time>2026-04-02T15:50:51.999Z</time></trkpt><trkpt lat="43.379390915487726" lon="5.511739853118159"><ele>354.0</ele><time>2026-04-02T15:50:52.999Z</time></trkpt><trkpt lat="43.37940342191786" lon="5.511644898470277"><ele>354.0</ele><time>2026-04-02T15:50:53.999Z</time></trkpt><trkpt lat="43.379383711656196" lon="5.511548537368318"><ele>354.0</ele><time>2026-04-02T15:50:54.999Z</time></trkpt><trkpt lat="43.379388684766994" lon="5.511444212252921"><ele>354.0</ele><time>2026-04-02T15:50:55.999Z</time></trkpt><trkpt lat="43.379381222592976" lon="5.51131575512313"><ele>354.0</ele><time>2026-04-02T15:50:56.999Z</time></trkpt><trkpt lat="43.379365882355444" lon="5.511196733120605"><ele>354.0</ele><time>2026-04-02T15:50:57.999Z</time></trkpt><trkpt lat="43.379331708933734" lon="5.511067052973023"><ele>354.0</ele><time>2026-04-02T15:50:58.999Z</time></trkpt><trkpt lat="43.37929708843565" lon="5.5109381992958655"><ele>353.5</ele><time>2026-04-02T15:50:59.999Z</time></trkpt><trkpt lat="43.37924975715105" lon="5.510818224298499"><ele>353.0</ele><time>2026-04-02T15:51:00.999Z</time></trkpt><trkpt lat="43.37921660889172" lon="5.510706962333696"><ele>352.5</ele><time>2026-04-02T15:51:01.999Z</time></trkpt><trkpt lat="43.37920203264015" lon="5.510597663035098"><ele>352.0</ele><time>2026-04-02T15:51:02.999Z</time></trkpt><trkpt lat="43.379164099575945" lon="5.5104979394671725"><ele>351.5</ele><time>2026-04-02T15:51:03.999Z</time></trkpt><trkpt lat="43.3791247293723" lon="5.510380441682012"><ele>351.0</ele><time>2026-04-02T15:51:04.999Z</time></trkpt><trkpt lat="43.37908285820692" lon="5.510240445384468"><ele>349.3333333333333</ele><time>2026-04-02T15:51:05.999Z</time></trkpt><trkpt lat="43.37905031939597" lon="5.510136142706075"><ele>347.6666666666667</ele><time>2026-04-02T15:51:06.999Z</time></trkpt><trkpt lat="43.37901633807363" lon="5.51002472797559"><ele>346.0</ele><time>2026-04-02T15:51:07.999Z</time></trkpt><trkpt lat="43.37900403040821" lon="5.509926450512668"><ele>344.33333333333337</ele><time>2026-04-02T15:51:08.999Z</time></trkpt><trkpt lat="43.37897247888942" lon="5.509787534948467"><ele>342.6666666666667</ele><time>2026-04-02T15:51:10.999Z</time></trkpt><trkpt lat="43.37904354856113" lon="5.509744843214816"><ele>341.0</ele><time>2026-04-02T15:51:13.999Z</time></trkpt><trkpt lat="43.37911616615592" lon="5.509814996667186"><ele>341.0</ele><time>2026-04-02T15:51:16.999Z</time></trkpt><trkpt lat="43.37917453992659" lon="5.509886734431372"><ele>341.0</ele><time>2026-04-02T15:51:20.999Z</time></trkpt><trkpt lat="43.37924432623958" lon="5.50992775482552"><ele>341.0</ele><time>2026-04-02T15:51:23.999Z</time></trkpt><trkpt lat="43.379312806061755" lon="5.509997166363734"><ele>341.0</ele><time>2026-04-02T15:51:26.999Z</time></trkpt><trkpt lat="43.379385619700585" lon="5.510064247526298"><ele>341.0</ele><time>2026-04-02T15:51:29.999Z</time></trkpt><trkpt lat="43.37945528484776" lon="5.510148745901007"><ele>341.0</ele><time>2026-04-02T15:51:32.999Z</time></trkpt><trkpt lat="43.37952000402357" lon="5.5102050976051125"><ele>341.0</ele><time>2026-04-02T15:51:34.999Z</time></trkpt><trkpt lat="43.37960560771955" lon="5.510256991563393"><ele>341.0</ele><time>2026-04-02T15:51:36.999Z</time></trkpt><trkpt lat="43.379700860085094" lon="5.510273457835511"><ele>341.0</ele><time>2026-04-02T15:51:38.998Z</time></trkpt><trkpt lat="43.37979452480929" lon="5.51028869556635"><ele>341.0</ele><time>2026-04-02T15:51:40.998Z</time></trkpt><trkpt lat="43.3799131227581" lon="5.510294075196818"><ele>341.0</ele><time>2026-04-02T15:51:42.998Z</time></trkpt><trkpt lat="43.38004411383491" lon="5.510298160596411"><ele>339.57142857142856</ele><time>2026-04-02T15:51:44.998Z</time></trkpt><trkpt lat="43.38011407588652" lon="5.510294245150659"><ele>338.14285714285717</ele><time>2026-04-02T15:51:45.998Z</time></trkpt><trkpt lat="43.380179563722216" lon="5.510293667760022"><ele>336.7142857142857</ele><time>2026-04-02T15:51:46.998Z</time></trkpt><trkpt lat="43.38025364868017" lon="5.510292053281995"><ele>335.2857142857143</ele><time>2026-04-02T15:51:47.998Z</time></trkpt><trkpt lat="43.380331757731376" lon="5.510296980192001"><ele>333.85714285714283</ele><time>2026-04-02T15:51:48.998Z</time></trkpt><trkpt lat="43.380408952342236" lon="5.510307147885708"><ele>332.42857142857144</ele><time>2026-04-02T15:51:49.998Z</time></trkpt><trkpt lat="43.380488614285426" lon="5.5103233939732705"><ele>331.0</ele><time>2026-04-02T15:51:50.998Z</time></trkpt><trkpt lat="43.38056585360015" lon="5.510339468339745"><ele>331.0</ele><time>2026-04-02T15:51:51.998Z</time></trkpt><trkpt lat="43.38064701929457" lon="5.510354802377484"><ele>331.0</ele><time>2026-04-02T15:51:52.998Z</time></trkpt><trkpt lat="43.380730256288274" lon="5.510369946328686"><ele>331.0</ele><time>2026-04-02T15:51:53.998Z</time></trkpt><trkpt lat="43.38082303291721" lon="5.510386878571748"><ele>331.0</ele><time>2026-04-02T15:51:54.998Z</time></trkpt><trkpt lat="43.380914849161414" lon="5.510401554171162"><ele>331.0</ele><time>2026-04-02T15:51:55.998Z</time></trkpt><trkpt lat="43.38099299812431" lon="5.510398114017469"><ele>331.0</ele><time>2026-04-02T15:51:56.998Z</time></trkpt><trkpt lat="43.38106249740086" lon="5.510387689618342"><ele>331.0</ele><time>2026-04-02T15:51:57.998Z</time></trkpt><trkpt lat="43.381140862939475" lon="5.510290498092809"><ele>331.0</ele><time>2026-04-02T15:51:59.998Z</time></trkpt><trkpt lat="43.38111849605499" lon="5.510200794964794"><ele>331.0</ele><time>2026-04-02T15:52:00.998Z</time></trkpt><trkpt lat="43.381067364180566" lon="5.510071109927692"><ele>331.0</ele><time>2026-04-02T15:52:02.998Z</time></trkpt><trkpt lat="43.38102819187089" lon="5.509891099690093"><ele>331.0</ele><time>2026-04-02T15:52:04.998Z</time></trkpt><trkpt lat="43.38100888105928" lon="5.509786216895479"><ele>331.0</ele><time>2026-04-02T15:52:05.998Z</time></trkpt><trkpt lat="43.38097587414757" lon="5.509680625905032"><ele>331.0</ele><time>2026-04-02T15:52:07Z</time></trkpt><trkpt lat="43.38095299646983" lon="5.509566884237047"><ele>331.0</ele><time>2026-04-02T15:52:08Z</time></trkpt><trkpt lat="43.38091848335076" lon="5.509460562627683"><ele>331.0</ele><time>2026-04-02T15:52:09Z</time></trkpt><trkpt lat="43.38088242245218" lon="5.509339819077754"><ele>331.0</ele><time>2026-04-02T15:52:10Z</time></trkpt><trkpt lat="43.380854966524346" lon="5.509207492720154"><ele>331.0</ele><time>2026-04-02T15:52:11Z</time></trkpt><trkpt lat="43.38081126175477" lon="5.509096653143935"><ele>329.3333333333333</ele><time>2026-04-02T15:52:12Z</time></trkpt><trkpt lat="43.38077532036876" lon="5.5089844170167686"><ele>327.66666666666663</ele><time>2026-04-02T15:52:13Z</time></trkpt><trkpt lat="43.38074296240626" lon="5.508876689659801"><ele>326.0</ele><time>2026-04-02T15:52:14Z</time></trkpt><trkpt lat="43.38073365207084" lon="5.508759665062924"><ele>324.3333333333333</ele><time>2026-04-02T15:52:15Z</time></trkpt><trkpt lat="43.380705729961946" lon="5.5086450771773"><ele>322.6666666666667</ele><time>2026-04-02T15:52:16Z</time></trkpt><trkpt lat="43.38069897340536" lon="5.508536500796211"><ele>321.0</ele><time>2026-04-02T15:52:17Z</time></trkpt><trkpt lat="43.38070399267382" lon="5.5084485955945395"><ele>319.5</ele><time>2026-04-02T15:52:18Z</time></trkpt><trkpt lat="43.380749368658805" lon="5.508336325917213"><ele>318.0</ele><time>2026-04-02T15:52:20Z</time></trkpt><trkpt lat="43.38079580267582" lon="5.508275476880885"><ele>316.5</ele><time>2026-04-02T15:52:21Z</time></trkpt><trkpt lat="43.38085602254756" lon="5.508211926415842"><ele>315.0</ele><time>2026-04-02T15:52:22Z</time></trkpt><trkpt lat="43.38092776379245" lon="5.508156288793006"><ele>313.5</ele><time>2026-04-02T15:52:23Z</time></trkpt><trkpt lat="43.38100258330214" lon="5.508102228159087"><ele>312.0</ele><time>2026-04-02T15:52:24Z</time></trkpt><trkpt lat="43.38106865852178" lon="5.5080254996366556"><ele>312.0</ele><time>2026-04-02T15:52:25Z</time></trkpt><trkpt lat="43.38113460868678" lon="5.507945428389234"><ele>312.0</ele><time>2026-04-02T15:52:26Z</time></trkpt><trkpt lat="43.38120303924631" lon="5.507895045127314"><ele>312.0</ele><time>2026-04-02T15:52:27Z</time></trkpt><trkpt lat="43.381282090011624" lon="5.5078973025132"><ele>312.0</ele><time>2026-04-02T15:52:28Z</time></trkpt><trkpt lat="43.381375560369214" lon="5.507932128646194"><ele>312.0</ele><time>2026-04-02T15:52:30Z</time></trkpt><trkpt lat="43.38141544256496" lon="5.508037815487029"><ele>312.0</ele><time>2026-04-02T15:52:32Z</time></trkpt><trkpt lat="43.381482632707886" lon="5.508175122932245"><ele>311.6666666666667</ele><time>2026-04-02T15:52:34Z</time></trkpt><trkpt lat="43.381521929232655" lon="5.508245972158846"><ele>311.3333333333333</ele><time>2026-04-02T15:52:35Z</time></trkpt><trkpt lat="43.38157037208962" lon="5.508322643683242"><ele>311.0</ele><time>2026-04-02T15:52:36Z</time></trkpt><trkpt lat="43.3816352643579" lon="5.508386586142618"><ele>310.66666666666663</ele><time>2026-04-02T15:52:37Z</time></trkpt><trkpt lat="43.38172471184607" lon="5.508424859026323"><ele>310.3333333333333</ele><time>2026-04-02T15:52:38Z</time></trkpt><trkpt lat="43.38180079702916" lon="5.5084399383419385"><ele>310.0</ele><time>2026-04-02T15:52:39Z</time></trkpt><trkpt lat="43.38188628810004" lon="5.508359227404689"><ele>310.0</ele><time>2026-04-02T15:52:41Z</time></trkpt><trkpt lat="43.381969135871564" lon="5.508271645706483"><ele>310.0</ele><time>2026-04-02T15:52:43Z</time></trkpt><trkpt lat="43.382041696258796" lon="5.508236844039633"><ele>310.0</ele><time>2026-04-02T15:52:44Z</time></trkpt><trkpt lat="43.382120197642" lon="5.508215786974996"><ele>310.0</ele><time>2026-04-02T15:52:45Z</time></trkpt><trkpt lat="43.382213726839076" lon="5.508228695101088"><ele>310.0</ele><time>2026-04-02T15:52:45.999Z</time></trkpt><trkpt lat="43.38227698851408" lon="5.508264772262648"><ele>310.0</ele><time>2026-04-02T15:52:46.999Z</time></trkpt><trkpt lat="43.38234182441227" lon="5.508393618017101"><ele>311.8571428571429</ele><time>2026-04-02T15:52:48.999Z</time></trkpt><trkpt lat="43.382368806191735" lon="5.5084749506560415"><ele>313.7142857142857</ele><time>2026-04-02T15:52:49.999Z</time></trkpt><trkpt lat="43.38240131512699" lon="5.508564718158193"><ele>315.57142857142856</ele><time>2026-04-02T15:52:50.999Z</time></trkpt><trkpt lat="43.38244380253406" lon="5.508639572375913"><ele>317.42857142857144</ele><time>2026-04-02T15:52:51.999Z</time></trkpt><trkpt lat="43.38250722154826" lon="5.508706930865065"><ele>319.2857142857143</ele><time>2026-04-02T15:52:52.999Z</time></trkpt><trkpt lat="43.382575782180496" lon="5.508732330164875"><ele>321.14285714285717</ele><time>2026-04-02T15:52:53.999Z</time></trkpt><trkpt lat="43.382657502854215" lon="5.508753998956532"><ele>323.0</ele><time>2026-04-02T15:52:54.999Z</time></trkpt><trkpt lat="43.382738847830986" lon="5.508759425964426"><ele>323.0</ele><time>2026-04-02T15:52:55.999Z</time></trkpt><trkpt lat="43.38282485764803" lon="5.508758956249611"><ele>323.0</ele><time>2026-04-02T15:52:56.999Z</time></trkpt><trkpt lat="43.38292239086428" lon="5.508739407685564"><ele>323.0</ele><time>2026-04-02T15:52:57.999Z</time></trkpt><trkpt lat="43.3830100871789" lon="5.5086976656183975"><ele>323.0</ele><time>2026-04-02T15:52:58.999Z</time></trkpt><trkpt lat="43.38310408427373" lon="5.508627034338919"><ele>323.0</ele><time>2026-04-02T15:52:59.999Z</time></trkpt><trkpt lat="43.3831889556761" lon="5.508533599699959"><ele>317.2</ele><time>2026-04-02T15:53:00.999Z</time></trkpt><trkpt lat="43.38326402474251" lon="5.508411281307544"><ele>311.4</ele><time>2026-04-02T15:53:01.999Z</time></trkpt><trkpt lat="43.38333654297373" lon="5.508293471168967"><ele>305.59999999999997</ele><time>2026-04-02T15:53:02.999Z</time></trkpt><trkpt lat="43.38340754223362" lon="5.508193484435288"><ele>299.79999999999995</ele><time>2026-04-02T15:53:03.999Z</time></trkpt><trkpt lat="43.38347540033847" lon="5.508133229396994"><ele>294.0</ele><time>2026-04-02T15:53:04.999Z</time></trkpt><trkpt lat="43.38354043489977" lon="5.508098727903525"><ele>294.0</ele><time>2026-04-02T15:53:05.999Z</time></trkpt><trkpt lat="43.38360734255512" lon="5.508089446992661"><ele>294.0</ele><time>2026-04-02T15:53:06.999Z</time></trkpt><trkpt lat="43.383673358509576" lon="5.508112031303408"><ele>294.0</ele><time>2026-04-02T15:53:07.999Z</time></trkpt><trkpt lat="43.383779492448525" lon="5.5081065782139635"><ele>294.0</ele><time>2026-04-02T15:53:09.999Z</time></trkpt><trkpt lat="43.38380440468464" lon="5.508002698532112"><ele>294.0</ele><time>2026-04-02T15:53:11.999Z</time></trkpt><trkpt lat="43.38371638759972" lon="5.507927305328167"><ele>294.0</ele><time>2026-04-02T15:53:13.999Z</time></trkpt><trkpt lat="43.38364952859713" lon="5.507857786660483"><ele>295.8</ele><time>2026-04-02T15:53:15.999Z</time></trkpt><trkpt lat="43.38357171127817" lon="5.507813282640574"><ele>297.59999999999997</ele><time>2026-04-02T15:53:17.999Z</time></trkpt><trkpt lat="43.38349055328237" lon="5.507780475180068"><ele>299.4</ele><time>2026-04-02T15:53:19.999Z</time></trkpt><trkpt lat="43.383403584987406" lon="5.50777317076496"><ele>301.2</ele><time>2026-04-02T15:53:21.999Z</time></trkpt><trkpt lat="43.38330954576511" lon="5.50780217896266"><ele>303.0</ele><time>2026-04-02T15:53:23.999Z</time></trkpt><trkpt lat="43.38323084690628" lon="5.507890936851553"><ele>301.6666666666667</ele><time>2026-04-02T15:53:25.999Z</time></trkpt><trkpt lat="43.383159898463596" lon="5.507989279304672"><ele>300.3333333333333</ele><time>2026-04-02T15:53:27.999Z</time></trkpt><trkpt lat="43.38310424589495" lon="5.508055446786176"><ele>299.0</ele><time>2026-04-02T15:53:29.999Z</time></trkpt><trkpt lat="43.383045459149486" lon="5.508102233990511"><ele>297.66666666666663</ele><time>2026-04-02T15:53:32.999Z</time></trkpt><trkpt lat="43.38297162283777" lon="5.508169430432425"><ele>296.3333333333333</ele><time>2026-04-02T15:53:35.999Z</time></trkpt><trkpt lat="43.38287957112422" lon="5.508235068345855"><ele>295.0</ele><time>2026-04-02T15:53:38.999Z</time></trkpt><trkpt lat="43.382801913310644" lon="5.508224642703825"><ele>295.0</ele><time>2026-04-02T15:53:40.999Z</time></trkpt><trkpt lat="43.38273582474508" lon="5.508119618157897"><ele>295.0</ele><time>2026-04-02T15:53:42.999Z</time></trkpt><trkpt lat="43.38269979360216" lon="5.507968692839069"><ele>295.0</ele><time>2026-04-02T15:53:44.999Z</time></trkpt><trkpt lat="43.382689754309304" lon="5.507880174668841"><ele>295.0</ele><time>2026-04-02T15:53:45.999Z</time></trkpt><trkpt lat="43.38266246916546" lon="5.507715410044696"><ele>295.0</ele><time>2026-04-02T15:53:47.999Z</time></trkpt><trkpt lat="43.382591568899336" lon="5.507568891261958"><ele>294.8571428571429</ele><time>2026-04-02T15:53:49.999Z</time></trkpt><trkpt lat="43.3825449150359" lon="5.507505024093562"><ele>294.7142857142857</ele><time>2026-04-02T15:53:50.999Z</time></trkpt><trkpt lat="43.382485458363114" lon="5.507463502614469"><ele>294.57142857142856</ele><time>2026-04-02T15:53:51.999Z</time></trkpt><trkpt lat="43.38242723393651" lon="5.507427747890245"><ele>294.42857142857144</ele><time>2026-04-02T15:53:52.998Z</time></trkpt><trkpt lat="43.38236687491582" lon="5.507402868053087"><ele>294.2857142857143</ele><time>2026-04-02T15:53:53.998Z</time></trkpt><trkpt lat="43.38230354272386" lon="5.507376438285336"><ele>294.14285714285717</ele><time>2026-04-02T15:53:54.998Z</time></trkpt><trkpt lat="43.38223947557741" lon="5.507349844770088"><ele>294.0</ele><time>2026-04-02T15:53:55.998Z</time></trkpt><trkpt lat="43.382181054039506" lon="5.507298830059865"><ele>294.0</ele><time>2026-04-02T15:53:56.998Z</time></trkpt><trkpt lat="43.382086433461346" lon="5.507186818082254"><ele>294.0</ele><time>2026-04-02T15:53:58.998Z</time></trkpt><trkpt lat="43.382049564987334" lon="5.50711187817119"><ele>294.0</ele><time>2026-04-02T15:53:59.998Z</time></trkpt><trkpt lat="43.382020776102486" lon="5.506925228849876"><ele>294.0</ele><time>2026-04-02T15:54:01.998Z</time></trkpt><trkpt lat="43.38198541846256" lon="5.506826422566685"><ele>294.0</ele><time>2026-04-02T15:54:02.998Z</time></trkpt><trkpt lat="43.381968848402906" lon="5.506722190579121"><ele>292.0</ele><time>2026-04-02T15:54:03.998Z</time></trkpt><trkpt lat="43.38194761398041" lon="5.506625088349944"><ele>290.0</ele><time>2026-04-02T15:54:04.998Z</time></trkpt><trkpt lat="43.38191573458031" lon="5.506526818016695"><ele>288.0</ele><time>2026-04-02T15:54:05.998Z</time></trkpt><trkpt lat="43.381874428468635" lon="5.5064301936211555"><ele>286.0</ele><time>2026-04-02T15:54:06.998Z</time></trkpt><trkpt lat="43.38182086582286" lon="5.506356880680358"><ele>284.0</ele><time>2026-04-02T15:54:07.998Z</time></trkpt><trkpt lat="43.38175350963121" lon="5.506290059583957"><ele>282.0</ele><time>2026-04-02T15:54:08.998Z</time></trkpt><trkpt lat="43.38168383246462" lon="5.506226616108921"><ele>282.0</ele><time>2026-04-02T15:54:09.998Z</time></trkpt><trkpt lat="43.38160313643636" lon="5.506217867248219"><ele>282.0</ele><time>2026-04-02T15:54:10.998Z</time></trkpt><trkpt lat="43.38152044016926" lon="5.5062399639534965"><ele>282.0</ele><time>2026-04-02T15:54:11.998Z</time></trkpt><trkpt lat="43.38144647739356" lon="5.506295325838361"><ele>282.0</ele><time>2026-04-02T15:54:13Z</time></trkpt><trkpt lat="43.38138479396947" lon="5.506355533250813"><ele>282.0</ele><time>2026-04-02T15:54:14Z</time></trkpt><trkpt lat="43.3813227943411" lon="5.506412828512986"><ele>282.0</ele><time>2026-04-02T15:54:15Z</time></trkpt><trkpt lat="43.3812633815351" lon="5.506462644834718"><ele>282.2857142857143</ele><time>2026-04-02T15:54:16Z</time></trkpt><trkpt lat="43.38120366871034" lon="5.506506559807649"><ele>282.57142857142856</ele><time>2026-04-02T15:54:17Z</time></trkpt><trkpt lat="43.38112992145" lon="5.506553925198665"><ele>282.85714285714283</ele><time>2026-04-02T15:54:18Z</time></trkpt><trkpt lat="43.381069635349924" lon="5.506587954789516"><ele>283.1428571428571</ele><time>2026-04-02T15:54:19Z</time></trkpt><trkpt lat="43.3810028843413" lon="5.506618540751202"><ele>283.4285714285714</ele><time>2026-04-02T15:54:20Z</time></trkpt><trkpt lat="43.38093806307175" lon="5.506637374506427"><ele>283.7142857142857</ele><time>2026-04-02T15:54:21Z</time></trkpt><trkpt lat="43.380869081811554" lon="5.506671688365713"><ele>284.0</ele><time>2026-04-02T15:54:22Z</time></trkpt><trkpt lat="43.38079707078295" lon="5.506683073127292"><ele>284.0</ele><time>2026-04-02T15:54:23Z</time></trkpt><trkpt lat="43.38072890845475" lon="5.50668558050274"><ele>284.0</ele><time>2026-04-02T15:54:24Z</time></trkpt><trkpt lat="43.380659111680224" lon="5.506678769841672"><ele>284.0</ele><time>2026-04-02T15:54:25Z</time></trkpt><trkpt lat="43.38057928430641" lon="5.506677270719305"><ele>284.0</ele><time>2026-04-02T15:54:26Z</time></trkpt><trkpt lat="43.38050607713911" lon="5.50670007242784"><ele>284.0</ele><time>2026-04-02T15:54:27Z</time></trkpt><trkpt lat="43.38043126013314" lon="5.5067062033459955"><ele>284.0</ele><time>2026-04-02T15:54:28Z</time></trkpt><trkpt lat="43.38035484598242" lon="5.506702073269006"><ele>284.0</ele><time>2026-04-02T15:54:29Z</time></trkpt><trkpt lat="43.380288456437995" lon="5.506730696031612"><ele>285.2</ele><time>2026-04-02T15:54:30Z</time></trkpt><trkpt lat="43.38022207579618" lon="5.506779425698186"><ele>286.4</ele><time>2026-04-02T15:54:31Z</time></trkpt><trkpt lat="43.38013521358078" lon="5.506849149338238"><ele>287.6</ele><time>2026-04-02T15:54:33Z</time></trkpt><trkpt lat="43.380034262144626" lon="5.506843898747701"><ele>288.8</ele><time>2026-04-02T15:54:35Z</time></trkpt><trkpt lat="43.37993442995657" lon="5.506868230336949"><ele>290.0</ele><time>2026-04-02T15:54:37Z</time></trkpt><trkpt lat="43.379823852379715" lon="5.506878931333174"><ele>290.0</ele><time>2026-04-02T15:54:39Z</time></trkpt><trkpt lat="43.37975853614873" lon="5.506864341389827"><ele>290.0</ele><time>2026-04-02T15:54:40Z</time></trkpt><trkpt lat="43.379636156445606" lon="5.506877360412893"><ele>290.0</ele><time>2026-04-02T15:54:42Z</time></trkpt><trkpt lat="43.37958540496412" lon="5.506930463241958"><ele>290.0</ele><time>2026-04-02T15:54:43Z</time></trkpt><trkpt lat="43.379562170966274" lon="5.507015420354616"><ele>290.0</ele><time>2026-04-02T15:54:44Z</time></trkpt><trkpt lat="43.37954265173009" lon="5.507099255628544"><ele>290.0</ele><time>2026-04-02T15:54:45Z</time></trkpt><trkpt lat="43.379519330675826" lon="5.507251245226214"><ele>289.0</ele><time>2026-04-02T15:54:47Z</time></trkpt><trkpt lat="43.379454573471236" lon="5.50735676590764"><ele>288.0</ele><time>2026-04-02T15:54:49Z</time></trkpt><trkpt lat="43.37936029530664" lon="5.507340900868549"><ele>287.0</ele><time>2026-04-02T15:54:51Z</time></trkpt><trkpt lat="43.379262859791986" lon="5.507308393044993"><ele>286.0</ele><time>2026-04-02T15:54:53Z</time></trkpt><trkpt lat="43.37918761890489" lon="5.507265048943757"><ele>285.0</ele><time>2026-04-02T15:54:55Z</time></trkpt><trkpt lat="43.379122824522135" lon="5.507246387989073"><ele>284.0</ele><time>2026-04-02T15:54:57Z</time></trkpt><trkpt lat="43.37904571598519" lon="5.507234245954601"><ele>284.0</ele><time>2026-04-02T15:54:59.999Z</time></trkpt><trkpt lat="43.378975872829436" lon="5.507204065513599"><ele>284.0</ele><time>2026-04-02T15:55:03.999Z</time></trkpt><trkpt lat="43.37889364598437" lon="5.507176632340215"><ele>284.0</ele><time>2026-04-02T15:55:07.999Z</time></trkpt><trkpt lat="43.378830678843876" lon="5.507163793720755"><ele>284.0</ele><time>2026-04-02T15:55:10.999Z</time></trkpt><trkpt lat="43.378778483243316" lon="5.5071130343134795"><ele>284.0</ele><time>2026-04-02T15:55:12.999Z</time></trkpt><trkpt lat="43.37868547102394" lon="5.507067460769351"><ele>284.0</ele><time>2026-04-02T15:55:15.999Z</time></trkpt><trkpt lat="43.37862419255226" lon="5.507020500654273"><ele>283.1666666666667</ele><time>2026-04-02T15:55:17.999Z</time></trkpt><trkpt lat="43.37855531457794" lon="5.50697122512903"><ele>282.33333333333337</ele><time>2026-04-02T15:55:19.999Z</time></trkpt><trkpt lat="43.3784890064027" lon="5.506922209443601"><ele>281.5</ele><time>2026-04-02T15:55:21.999Z</time></trkpt><trkpt lat="43.37842688967203" lon="5.506848619300468"><ele>280.6666666666667</ele><time>2026-04-02T15:55:25.999Z</time></trkpt><trkpt lat="43.37837245410103" lon="5.506762444232027"><ele>279.8333333333333</ele><time>2026-04-02T15:55:28.999Z</time></trkpt><trkpt lat="43.378325849975155" lon="5.506691814174504"><ele>279.0</ele><time>2026-04-02T15:55:30.999Z</time></trkpt><trkpt lat="43.37829550184144" lon="5.506600161092467"><ele>279.0</ele><time>2026-04-02T15:55:32.999Z</time></trkpt><trkpt lat="43.37824843055126" lon="5.5064806796913475"><ele>279.0</ele><time>2026-04-02T15:55:34.999Z</time></trkpt><trkpt lat="43.37820257434653" lon="5.506365491318796"><ele>279.0</ele><time>2026-04-02T15:55:36.999Z</time></trkpt><trkpt lat="43.37817747639535" lon="5.506239037262225"><ele>279.0</ele><time>2026-04-02T15:55:38.999Z</time></trkpt><trkpt lat="43.37816820291255" lon="5.506100537537486"><ele>279.0</ele><time>2026-04-02T15:55:40.999Z</time></trkpt><trkpt lat="43.378154782242454" lon="5.505978695419212"><ele>278.0</ele><time>2026-04-02T15:55:42.999Z</time></trkpt><trkpt lat="43.37815427217155" lon="5.505886746964729"><ele>277.0</ele><time>2026-04-02T15:55:43.999Z</time></trkpt><trkpt lat="43.37812178185629" lon="5.505738763503597"><ele>276.0</ele><time>2026-04-02T15:55:45.999Z</time></trkpt><trkpt lat="43.37807956933143" lon="5.50560698164125"><ele>275.0</ele><time>2026-04-02T15:55:47.999Z</time></trkpt><trkpt lat="43.37802201621508" lon="5.505486238586295"><ele>274.0</ele><time>2026-04-02T15:55:49.999Z</time></trkpt><trkpt lat="43.377949381552405" lon="5.505383533713103"><ele>274.0</ele><time>2026-04-02T15:55:51.999Z</time></trkpt><trkpt lat="43.377908173127345" lon="5.505316612474619"><ele>274.0</ele><time>2026-04-02T15:55:52.999Z</time></trkpt><trkpt lat="43.3778206787213" lon="5.505211831085912"><ele>274.0</ele><time>2026-04-02T15:55:54.999Z</time></trkpt><trkpt lat="43.377728751384424" lon="5.505105319053426"><ele>274.0</ele><time>2026-04-02T15:55:56.999Z</time></trkpt><trkpt lat="43.3776255487949" lon="5.504999637874508"><ele>274.0</ele><time>2026-04-02T15:55:58.999Z</time></trkpt><trkpt lat="43.3775123349155" lon="5.504922065101565"><ele>274.0</ele><time>2026-04-02T15:56:00.999Z</time></trkpt><trkpt lat="43.37747714644652" lon="5.504842226061893"><ele>274.0</ele><time>2026-04-02T15:56:01.999Z</time></trkpt><trkpt lat="43.37736247705885" lon="5.504789983949107"><ele>274.0</ele><time>2026-04-02T15:56:03.998Z</time></trkpt><trkpt lat="43.37731380985073" lon="5.504727543445578"><ele>274.0</ele><time>2026-04-02T15:56:04.998Z</time></trkpt><trkpt lat="43.3772000902848" lon="5.504669165027746"><ele>274.0</ele><time>2026-04-02T15:56:06.998Z</time></trkpt><trkpt lat="43.377087075680244" lon="5.504642813455963"><ele>272.75</ele><time>2026-04-02T15:56:08.998Z</time></trkpt><trkpt lat="43.376973084168746" lon="5.5046214102859965"><ele>271.5</ele><time>2026-04-02T15:56:10.998Z</time></trkpt><trkpt lat="43.376865956087286" lon="5.504625571556632"><ele>270.25</ele><time>2026-04-02T15:56:12.998Z</time></trkpt><trkpt lat="43.376773939849926" lon="5.504536508367985"><ele>269.0</ele><time>2026-04-02T15:56:14.998Z</time></trkpt><trkpt lat="43.37667202275738" lon="5.504463343193514"><ele>269.0</ele><time>2026-04-02T15:56:16.998Z</time></trkpt><trkpt lat="43.37657055713261" lon="5.504389985446153"><ele>269.0</ele><time>2026-04-02T15:56:19Z</time></trkpt><trkpt lat="43.37645306027122" lon="5.504349889093359"><ele>269.0</ele><time>2026-04-02T15:56:21Z</time></trkpt><trkpt lat="43.37633693986312" lon="5.5042779512021065"><ele>269.0</ele><time>2026-04-02T15:56:23Z</time></trkpt><trkpt lat="43.37627629729087" lon="5.504252218095483"><ele>269.0</ele><time>2026-04-02T15:56:24Z</time></trkpt><trkpt lat="43.37620992467211" lon="5.504223833373946"><ele>267.8</ele><time>2026-04-02T15:56:25Z</time></trkpt><trkpt lat="43.37614441136569" lon="5.504231899528625"><ele>266.59999999999997</ele><time>2026-04-02T15:56:26Z</time></trkpt><trkpt lat="43.37608163724412" lon="5.504199638758099"><ele>265.4</ele><time>2026-04-02T15:56:27Z</time></trkpt><trkpt lat="43.37596624711143" lon="5.504151738622545"><ele>264.2</ele><time>2026-04-02T15:56:29Z</time></trkpt><trkpt lat="43.375836865100865" lon="5.504139936971456"><ele>263.0</ele><time>2026-04-02T15:56:31Z</time></trkpt><trkpt lat="43.37576842781153" lon="5.504143406869322"><ele>263.0</ele><time>2026-04-02T15:56:32Z</time></trkpt><trkpt lat="43.37564604335554" lon="5.504195287745865"><ele>263.0</ele><time>2026-04-02T15:56:34Z</time></trkpt><trkpt lat="43.3755883949568" lon="5.504254827981482"><ele>263.0</ele><time>2026-04-02T15:56:35Z</time></trkpt><trkpt lat="43.37552861902863" lon="5.504292953606131"><ele>263.0</ele><time>2026-04-02T15:56:36Z</time></trkpt><trkpt lat="43.375427926791" lon="5.504343941866637"><ele>263.0</ele><time>2026-04-02T15:56:38Z</time></trkpt><trkpt lat="43.375330689530024" lon="5.5043878077129005"><ele>262.4</ele><time>2026-04-02T15:56:40Z</time></trkpt><trkpt lat="43.37523602767576" lon="5.504425170451113"><ele>261.8</ele><time>2026-04-02T15:56:42Z</time></trkpt><trkpt lat="43.37514134359675" lon="5.504484646436096"><ele>261.2</ele><time>2026-04-02T15:56:44Z</time></trkpt><trkpt lat="43.375045087757044" lon="5.504499102574398"><ele>260.6</ele><time>2026-04-02T15:56:46Z</time></trkpt><trkpt lat="43.37493850678133" lon="5.50449355394373"><ele>260.0</ele><time>2026-04-02T15:56:48Z</time></trkpt><trkpt lat="43.374834405040374" lon="5.504451943147525"><ele>260.0</ele><time>2026-04-02T15:56:50Z</time></trkpt><trkpt lat="43.374720731486136" lon="5.504422193250987"><ele>260.0</ele><time>2026-04-02T15:56:52Z</time></trkpt><trkpt lat="43.37460593302239" lon="5.504383113446305"><ele>260.0</ele><time>2026-04-02T15:56:54Z</time></trkpt><trkpt lat="43.3745529979245" lon="5.5043351097249795"><ele>260.0</ele><time>2026-04-02T15:56:55Z</time></trkpt><trkpt lat="43.37451548599654" lon="5.50424831765285"><ele>260.0</ele><time>2026-04-02T15:56:56Z</time></trkpt><trkpt lat="43.37447056744322" lon="5.5041704266856835"><ele>260.0</ele><time>2026-04-02T15:56:57Z</time></trkpt><trkpt lat="43.37443762916616" lon="5.504090756609638"><ele>260.2</ele><time>2026-04-02T15:56:58Z</time></trkpt><trkpt lat="43.37439546735978" lon="5.5040012387175"><ele>260.4</ele><time>2026-04-02T15:56:59Z</time></trkpt><trkpt lat="43.37435461220337" lon="5.503914495104243"><ele>260.6</ele><time>2026-04-02T15:57:00Z</time></trkpt><trkpt lat="43.37431490902635" lon="5.5038301973737145"><ele>260.8</ele><time>2026-04-02T15:57:01Z</time></trkpt><trkpt lat="43.37413836897467" lon="5.503918362284263"><ele>261.0</ele><time>2026-04-02T15:57:02Z</time></trkpt><trkpt lat="43.37404892490837" lon="5.503917316595679"><ele>261.0</ele><time>2026-04-02T15:57:03Z</time></trkpt><trkpt lat="43.37395570923776" lon="5.5039396228603845"><ele>261.0</ele><time>2026-04-02T15:57:04Z</time></trkpt><trkpt lat="43.37386189754017" lon="5.503969408913017"><ele>261.0</ele><time>2026-04-02T15:57:05Z</time></trkpt><trkpt lat="43.3737757215742" lon="5.504022439088616"><ele>261.0</ele><time>2026-04-02T15:57:06Z</time></trkpt><trkpt lat="43.373690114595085" lon="5.504058341029557"><ele>261.0</ele><time>2026-04-02T15:57:07Z</time></trkpt><trkpt lat="43.37359084834615" lon="5.504060374151115"><ele>261.8333333333333</ele><time>2026-04-02T15:57:07.999Z</time></trkpt><trkpt lat="43.373498145431675" lon="5.504058821744012"><ele>262.6666666666667</ele><time>2026-04-02T15:57:08.999Z</time></trkpt><trkpt lat="43.37341822064669" lon="5.504015113906369"><ele>263.5</ele><time>2026-04-02T15:57:09.999Z</time></trkpt><trkpt lat="43.37336995010218" lon="5.503956996611882"><ele>264.33333333333337</ele><time>2026-04-02T15:57:10.999Z</time></trkpt><trkpt lat="43.373340101056975" lon="5.50380249190536"><ele>265.1666666666667</ele><time>2026-04-02T15:57:12.999Z</time></trkpt><trkpt lat="43.3732938728071" lon="5.503742495217179"><ele>266.0</ele><time>2026-04-02T15:57:13.999Z</time></trkpt><trkpt lat="43.373182862555566" lon="5.503756362372371"><ele>263.8</ele><time>2026-04-02T15:57:15.999Z</time></trkpt><trkpt lat="43.373084194773476" lon="5.503792644270297"><ele>261.6</ele><time>2026-04-02T15:57:17.999Z</time></trkpt><trkpt lat="43.37298479145549" lon="5.503879184794949"><ele>259.4</ele><time>2026-04-02T15:57:19.999Z</time></trkpt><trkpt lat="43.372934715654075" lon="5.503937988464006"><ele>257.2</ele><time>2026-04-02T15:57:20.999Z</time></trkpt><trkpt lat="43.37283485830352" lon="5.504062422982371"><ele>255.0</ele><time>2026-04-02T15:57:22.999Z</time></trkpt><trkpt lat="43.37278622239155" lon="5.504130632384546"><ele>254.33333333333334</ele><time>2026-04-02T15:57:23.999Z</time></trkpt><trkpt lat="43.37273663073166" lon="5.5041964610548515"><ele>253.66666666666669</ele><time>2026-04-02T15:57:24.999Z</time></trkpt><trkpt lat="43.37260830868694" lon="5.504261003539245"><ele>253.0</ele><time>2026-04-02T15:57:26.999Z</time></trkpt><trkpt lat="43.37253715475135" lon="5.504256879413901"><ele>252.33333333333334</ele><time>2026-04-02T15:57:27.999Z</time></trkpt><trkpt lat="43.37246854111812" lon="5.504206268573577"><ele>251.66666666666669</ele><time>2026-04-02T15:57:28.999Z</time></trkpt><trkpt lat="43.37240899225078" lon="5.50414412688358"><ele>251.0</ele><time>2026-04-02T15:57:29.999Z</time></trkpt><trkpt lat="43.37236404215296" lon="5.504066335334527"><ele>251.00000000000003</ele><time>2026-04-02T15:57:30.999Z</time></trkpt><trkpt lat="43.37232255760054" lon="5.503979210507859"><ele>251.0</ele><time>2026-04-02T15:57:31.999Z</time></trkpt><trkpt lat="43.37227064595306" lon="5.503894561965757"><ele>251.0</ele><time>2026-04-02T15:57:32.999Z</time></trkpt><trkpt lat="43.37222701926156" lon="5.503817457331549"><ele>251.0</ele><time>2026-04-02T15:57:33.999Z</time></trkpt><trkpt lat="43.37218678191111" lon="5.503729756256382"><ele>251.00000000000003</ele><time>2026-04-02T15:57:34.999Z</time></trkpt><trkpt lat="43.372143119811476" lon="5.503644082756999"><ele>251.0</ele><time>2026-04-02T15:57:35.999Z</time></trkpt><trkpt lat="43.372101047460404" lon="5.503561531934396"><ele>252.83333333333334</ele><time>2026-04-02T15:57:36.999Z</time></trkpt><trkpt lat="43.37205327612554" lon="5.5034773108939685"><ele>254.66666666666669</ele><time>2026-04-02T15:57:37.999Z</time></trkpt><trkpt lat="43.37201580751232" lon="5.5033926455486055"><ele>256.5</ele><time>2026-04-02T15:57:38.999Z</time></trkpt><trkpt lat="43.372026213764556" lon="5.503208504749463"><ele>258.3333333333333</ele><time>2026-04-02T15:57:40.999Z</time></trkpt><trkpt lat="43.37205042093864" lon="5.5031194763282825"><ele>260.16666666666663</ele><time>2026-04-02T15:57:41.999Z</time></trkpt><trkpt lat="43.37206633022669" lon="5.5030321176974475"><ele>262.0</ele><time>2026-04-02T15:57:42.999Z</time></trkpt><trkpt lat="43.37208170171041" lon="5.502918408991045"><ele>261.0</ele><time>2026-04-02T15:57:44.999Z</time></trkpt><trkpt lat="43.37203172716997" lon="5.502835396478799"><ele>260.0</ele><time>2026-04-02T15:58:21.998Z</time></trkpt><trkpt lat="43.37210365562789" lon="5.502791587940894"><ele>259.0</ele><time>2026-04-02T15:59:03Z</time></trkpt><trkpt lat="43.37217059867511" lon="5.502702014183897"><ele>258.0</ele><time>2026-04-02T15:59:07Z</time></trkpt><trkpt lat="43.372234212253204" lon="5.5026416924415456"><ele>257.0</ele><time>2026-04-02T15:59:10Z</time></trkpt><trkpt lat="43.372299039059115" lon="5.502588922546403"><ele>256.0</ele><time>2026-04-02T15:59:12Z</time></trkpt><trkpt lat="43.37235450214268" lon="5.5025253396770255"><ele>253.66666666666666</ele><time>2026-04-02T15:59:14Z</time></trkpt><trkpt lat="43.37241413298012" lon="5.50246035382769"><ele>251.33333333333331</ele><time>2026-04-02T15:59:15.999Z</time></trkpt><trkpt lat="43.3724796052185" lon="5.502401000848493"><ele>249.0</ele><time>2026-04-02T15:59:17.999Z</time></trkpt><trkpt lat="43.372531322699324" lon="5.5023346818678895"><ele>246.66666666666669</ele><time>2026-04-02T15:59:19.999Z</time></trkpt><trkpt lat="43.37257018151934" lon="5.502238107947832"><ele>244.33333333333334</ele><time>2026-04-02T15:59:21.999Z</time></trkpt><trkpt lat="43.37262226357356" lon="5.502131066526924"><ele>242.0</ele><time>2026-04-02T15:59:23.999Z</time></trkpt><trkpt lat="43.372619775621" lon="5.502004084587196"><ele>241.83333333333334</ele><time>2026-04-02T15:59:25.999Z</time></trkpt><trkpt lat="43.372583704726054" lon="5.50191559289826"><ele>241.66666666666669</ele><time>2026-04-02T15:59:27.999Z</time></trkpt><trkpt lat="43.37254346615285" lon="5.501846368032259"><ele>241.5</ele><time>2026-04-02T15:59:29.999Z</time></trkpt><trkpt lat="43.37247865131771" lon="5.501768082660738"><ele>241.33333333333331</ele><time>2026-04-02T15:59:31.999Z</time></trkpt><trkpt lat="43.37242079128898" lon="5.5016930243930044"><ele>241.16666666666666</ele><time>2026-04-02T15:59:33.999Z</time></trkpt><trkpt lat="43.37234408759802" lon="5.501605909171399"><ele>241.0</ele><time>2026-04-02T15:59:35.999Z</time></trkpt><trkpt lat="43.372265879794405" lon="5.501535377805297"><ele>240.99999999999997</ele><time>2026-04-02T15:59:37.999Z</time></trkpt><trkpt lat="43.37228542283692" lon="5.50143687872817"><ele>241.0</ele><time>2026-04-02T15:59:40.999Z</time></trkpt><trkpt lat="43.37221383623583" lon="5.501339047627734"><ele>241.0</ele><time>2026-04-02T15:59:46.999Z</time></trkpt><trkpt lat="43.37213030078397" lon="5.501323001887844"><ele>241.0</ele><time>2026-04-02T15:59:48.999Z</time></trkpt><trkpt lat="43.372053961825586" lon="5.501323687883311"><ele>240.99999999999997</ele><time>2026-04-02T15:59:50.999Z</time></trkpt><trkpt lat="43.37198705625126" lon="5.501319630955295"><ele>241.0</ele><time>2026-04-02T15:59:52.999Z</time></trkpt><trkpt lat="43.37190368142552" lon="5.501333921296631"><ele>241.33333333333331</ele><time>2026-04-02T15:59:55.999Z</time></trkpt><trkpt lat="43.371840942237256" lon="5.501320664172779"><ele>241.66666666666666</ele><time>2026-04-02T16:00:09.999Z</time></trkpt><trkpt lat="43.37176707524398" lon="5.50130589694126"><ele>242.0</ele><time>2026-04-02T16:00:13.999Z</time></trkpt><trkpt lat="43.37170104732024" lon="5.50128386078161"><ele>242.33333333333331</ele><time>2026-04-02T16:00:15.999Z</time></trkpt><trkpt lat="43.371622167354175" lon="5.501247301241165"><ele>242.66666666666666</ele><time>2026-04-02T16:00:17.999Z</time></trkpt><trkpt lat="43.37152648641414" lon="5.501218009458999"><ele>243.0</ele><time>2026-04-02T16:00:19.999Z</time></trkpt><trkpt lat="43.37141996227856" lon="5.501251129730565"><ele>242.60000000000002</ele><time>2026-04-02T16:00:21.998Z</time></trkpt><trkpt lat="43.371325123670466" lon="5.50133925758753"><ele>242.20000000000002</ele><time>2026-04-02T16:00:23.998Z</time></trkpt><trkpt lat="43.371238314844526" lon="5.501444252480244"><ele>241.8</ele><time>2026-04-02T16:00:25.998Z</time></trkpt><trkpt lat="43.3711931040974" lon="5.5015072986601865"><ele>241.4</ele><time>2026-04-02T16:00:26.998Z</time></trkpt><trkpt lat="43.37108520047904" lon="5.501595753285631"><ele>241.0</ele><time>2026-04-02T16:00:28.998Z</time></trkpt><trkpt lat="43.37101117166452" lon="5.501617837493087"><ele>240.99999999999997</ele><time>2026-04-02T16:00:29.998Z</time></trkpt><trkpt lat="43.37093338786534" lon="5.501619852522523"><ele>241.0</ele><time>2026-04-02T16:00:31Z</time></trkpt><trkpt lat="43.37085000336293" lon="5.501611781946998"><ele>241.0</ele><time>2026-04-02T16:00:32Z</time></trkpt><trkpt lat="43.37077142563573" lon="5.501570820506366"><ele>241.0</ele><time>2026-04-02T16:00:33Z</time></trkpt><trkpt lat="43.37068854074032" lon="5.5015240398893335"><ele>240.99999999999997</ele><time>2026-04-02T16:00:34Z</time></trkpt><trkpt lat="43.370610295129374" lon="5.501516657430509"><ele>241.0</ele><time>2026-04-02T16:00:35Z</time></trkpt><trkpt lat="43.37052738275073" lon="5.501557608807016"><ele>240.20000000000002</ele><time>2026-04-02T16:00:36Z</time></trkpt><trkpt lat="43.37044869190717" lon="5.50163817910696"><ele>239.40000000000003</ele><time>2026-04-02T16:00:37Z</time></trkpt><trkpt lat="43.37036927407367" lon="5.50168438158944"><ele>238.6</ele><time>2026-04-02T16:00:38Z</time></trkpt><trkpt lat="43.37028238626102" lon="5.501713636269155"><ele>237.8</ele><time>2026-04-02T16:00:39Z</time></trkpt><trkpt lat="43.37017930160463" lon="5.501749544838774"><ele>237.0</ele><time>2026-04-02T16:00:41Z</time></trkpt><trkpt lat="43.37009674482844" lon="5.501859628207631"><ele>237.0</ele><time>2026-04-02T16:00:43Z</time></trkpt><trkpt lat="43.36999368614892" lon="5.501944959496319"><ele>237.0</ele><time>2026-04-02T16:00:45Z</time></trkpt><trkpt lat="43.36992403084696" lon="5.5019816437412805"><ele>237.0</ele><time>2026-04-02T16:00:46Z</time></trkpt><trkpt lat="43.36985283959945" lon="5.501984901917852"><ele>237.0</ele><time>2026-04-02T16:00:47Z</time></trkpt><trkpt lat="43.36978406016738" lon="5.501979538044825"><ele>237.0</ele><time>2026-04-02T16:00:48Z</time></trkpt><trkpt lat="43.36971165701702" lon="5.501979893022167"><ele>237.0</ele><time>2026-04-02T16:00:49Z</time></trkpt><trkpt lat="43.36959624725579" lon="5.502020317294934"><ele>236.57142857142856</ele><time>2026-04-02T16:00:51Z</time></trkpt><trkpt lat="43.36953148197525" lon="5.5020309813344435"><ele>236.14285714285714</ele><time>2026-04-02T16:00:52Z</time></trkpt><trkpt lat="43.369467456357" lon="5.50200477754611"><ele>235.71428571428572</ele><time>2026-04-02T16:00:53Z</time></trkpt><trkpt lat="43.36941459614207" lon="5.501954939934667"><ele>235.28571428571428</ele><time>2026-04-02T16:00:54Z</time></trkpt><trkpt lat="43.36935304620968" lon="5.501921034132339"><ele>234.8571428571429</ele><time>2026-04-02T16:00:55Z</time></trkpt><trkpt lat="43.369287639118404" lon="5.501888675207502"><ele>234.42857142857144</ele><time>2026-04-02T16:00:56Z</time></trkpt><trkpt lat="43.36922353399055" lon="5.5018360168247655"><ele>234.0</ele><time>2026-04-02T16:00:57Z</time></trkpt><trkpt lat="43.36915906950245" lon="5.50176151088669"><ele>234.0</ele><time>2026-04-02T16:00:58Z</time></trkpt><trkpt lat="43.36910634690799" lon="5.501689437698782"><ele>234.0</ele><time>2026-04-02T16:00:59Z</time></trkpt><trkpt lat="43.36904382603451" lon="5.501660915052698"><ele>234.0</ele><time>2026-04-02T16:01:00Z</time></trkpt><trkpt lat="43.36898143834466" lon="5.501745480810172"><ele>234.0</ele><time>2026-04-02T16:01:02Z</time></trkpt><trkpt lat="43.36889636488405" lon="5.501827444379556"><ele>234.0</ele><time>2026-04-02T16:01:04Z</time></trkpt><trkpt lat="43.3688301040042" lon="5.501866632140608"><ele>234.0</ele><time>2026-04-02T16:01:05Z</time></trkpt><trkpt lat="43.368769706650404" lon="5.501925635219892"><ele>232.83333333333334</ele><time>2026-04-02T16:01:06Z</time></trkpt><trkpt lat="43.3687092902446" lon="5.501996669497389"><ele>231.66666666666669</ele><time>2026-04-02T16:01:07Z</time></trkpt><trkpt lat="43.36863642509937" lon="5.502045234991415"><ele>230.5</ele><time>2026-04-02T16:01:08Z</time></trkpt><trkpt lat="43.36855818451277" lon="5.502052325170053"><ele>229.33333333333334</ele><time>2026-04-02T16:01:09Z</time></trkpt><trkpt lat="43.36848217789241" lon="5.5020304209418205"><ele>228.16666666666669</ele><time>2026-04-02T16:01:10Z</time></trkpt><trkpt lat="43.368399604433996" lon="5.502019739715628"><ele>227.0</ele><time>2026-04-02T16:01:11Z</time></trkpt><trkpt lat="43.36832603317275" lon="5.502005261519318"><ele>227.0</ele><time>2026-04-02T16:01:12Z</time></trkpt><trkpt lat="43.36825538294702" lon="5.502005449797784"><ele>227.00000000000003</ele><time>2026-04-02T16:01:13Z</time></trkpt><trkpt lat="43.3681860638792" lon="5.5020332912977"><ele>227.0</ele><time>2026-04-02T16:01:14Z</time></trkpt><trkpt lat="43.36811095744631" lon="5.5020670887642025"><ele>227.0</ele><time>2026-04-02T16:01:14.999Z</time></trkpt><trkpt lat="43.368041509100095" lon="5.5020988729888645"><ele>227.00000000000003</ele><time>2026-04-02T16:01:15.999Z</time></trkpt><trkpt lat="43.367982774726265" lon="5.502143687415661"><ele>227.0</ele><time>2026-04-02T16:01:16.999Z</time></trkpt><trkpt lat="43.367918981558475" lon="5.502133823862283"><ele>227.0</ele><time>2026-04-02T16:01:19.999Z</time></trkpt><trkpt lat="43.367869187429925" lon="5.502041825260451"><ele>227.66666666666669</ele><time>2026-04-02T16:01:23.999Z</time></trkpt><trkpt lat="43.36780476369159" lon="5.50197378739441"><ele>228.33333333333334</ele><time>2026-04-02T16:01:26.999Z</time></trkpt><trkpt lat="43.36774169312195" lon="5.501943363292554"><ele>229.0</ele><time>2026-04-02T16:01:28.999Z</time></trkpt><trkpt lat="43.36767054642394" lon="5.5019275383969966"><ele>229.66666666666669</ele><time>2026-04-02T16:01:30.999Z</time></trkpt><trkpt lat="43.36758410830032" lon="5.50192077112801"><ele>230.33333333333334</ele><time>2026-04-02T16:01:32.999Z</time></trkpt><trkpt lat="43.36749103239867" lon="5.501913734227954"><ele>231.0</ele><time>2026-04-02T16:01:34.999Z</time></trkpt><trkpt lat="43.36739515964849" lon="5.501917140222104"><ele>231.0</ele><time>2026-04-02T16:01:36.999Z</time></trkpt><trkpt lat="43.36729259890108" lon="5.501921397930942"><ele>231.00000000000003</ele><time>2026-04-02T16:01:38.999Z</time></trkpt><trkpt lat="43.36719541672684" lon="5.501946324074176"><ele>231.00000000000003</ele><time>2026-04-02T16:01:40.999Z</time></trkpt><trkpt lat="43.367088660940794" lon="5.501977138940336"><ele>231.0</ele><time>2026-04-02T16:01:42.999Z</time></trkpt><trkpt lat="43.36698626940893" lon="5.501977220491422"><ele>231.0</ele><time>2026-04-02T16:01:44.999Z</time></trkpt><trkpt lat="43.366913058908004" lon="5.502101474914513"><ele>226.83333333333334</ele><time>2026-04-02T16:01:46.999Z</time></trkpt><trkpt lat="43.366833164837665" lon="5.502225013923046"><ele>222.66666666666669</ele><time>2026-04-02T16:01:48.999Z</time></trkpt><trkpt lat="43.36681347471154" lon="5.502311187070649"><ele>218.5</ele><time>2026-04-02T16:01:49.999Z</time></trkpt><trkpt lat="43.36678572352015" lon="5.502396439582307"><ele>214.33333333333334</ele><time>2026-04-02T16:01:50.999Z</time></trkpt><trkpt lat="43.36674336678307" lon="5.502477271403853"><ele>210.16666666666669</ele><time>2026-04-02T16:01:51.999Z</time></trkpt><trkpt lat="43.366699518473965" lon="5.5025532202280685"><ele>206.0</ele><time>2026-04-02T16:01:52.999Z</time></trkpt><trkpt lat="43.36666336567866" lon="5.502642857488843"><ele>206.00000000000003</ele><time>2026-04-02T16:01:53.999Z</time></trkpt><trkpt lat="43.36662779752845" lon="5.502733743390872"><ele>206.0</ele><time>2026-04-02T16:01:54.999Z</time></trkpt><trkpt lat="43.36659885967859" lon="5.502829894539382"><ele>206.0</ele><time>2026-04-02T16:01:55.999Z</time></trkpt><trkpt lat="43.366576596587535" lon="5.502933283673557"><ele>206.0</ele><time>2026-04-02T16:01:56.999Z</time></trkpt><trkpt lat="43.366571931945096" lon="5.503045123724358"><ele>206.00000000000003</ele><time>2026-04-02T16:01:57.999Z</time></trkpt><trkpt lat="43.36657377150592" lon="5.50315186547886"><ele>206.0</ele><time>2026-04-02T16:01:58.999Z</time></trkpt><trkpt lat="43.366574044214225" lon="5.5032631390160125"><ele>207.83333333333334</ele><time>2026-04-02T16:01:59.999Z</time></trkpt><trkpt lat="43.36656842767337" lon="5.50337837443846"><ele>209.66666666666669</ele><time>2026-04-02T16:02:00.999Z</time></trkpt><trkpt lat="43.36654162789097" lon="5.503484113253565"><ele>211.5</ele><time>2026-04-02T16:02:01.999Z</time></trkpt><trkpt lat="43.36648687420476" lon="5.503578289444235"><ele>213.33333333333331</ele><time>2026-04-02T16:02:02.999Z</time></trkpt><trkpt lat="43.3664173615787" lon="5.503652181049505"><ele>215.16666666666666</ele><time>2026-04-02T16:02:03.999Z</time></trkpt><trkpt lat="43.36633642694566" lon="5.503689483726614"><ele>217.0</ele><time>2026-04-02T16:02:04.999Z</time></trkpt><trkpt lat="43.366248360531735" lon="5.503690896085325"><ele>218.28571428571428</ele><time>2026-04-02T16:02:05.999Z</time></trkpt><trkpt lat="43.36617169059467" lon="5.503663167156798"><ele>219.57142857142856</ele><time>2026-04-02T16:02:06.999Z</time></trkpt><trkpt lat="43.366101470113314" lon="5.503629781024432"><ele>220.85714285714286</ele><time>2026-04-02T16:02:07.999Z</time></trkpt><trkpt lat="43.36603607188614" lon="5.503593332391045"><ele>222.14285714285714</ele><time>2026-04-02T16:02:08.999Z</time></trkpt><trkpt lat="43.365970799880316" lon="5.503547112783338"><ele>223.42857142857142</ele><time>2026-04-02T16:02:09.999Z</time></trkpt><trkpt lat="43.36592052505817" lon="5.503479998193459"><ele>224.71428571428572</ele><time>2026-04-02T16:02:10.999Z</time></trkpt><trkpt lat="43.36587659050509" lon="5.503398921141278"><ele>226.0</ele><time>2026-04-02T16:02:11.999Z</time></trkpt><trkpt lat="43.36584371298746" lon="5.503303914922287"><ele>225.99999999999997</ele><time>2026-04-02T16:02:12.999Z</time></trkpt><trkpt lat="43.365819907910726" lon="5.503208253801031"><ele>226.0</ele><time>2026-04-02T16:02:13.999Z</time></trkpt><trkpt lat="43.36580239947792" lon="5.50310897534146"><ele>226.0</ele><time>2026-04-02T16:02:14.999Z</time></trkpt><trkpt lat="43.36579168087164" lon="5.503005054149445"><ele>226.0</ele><time>2026-04-02T16:02:15.999Z</time></trkpt><trkpt lat="43.36579187260414" lon="5.50289539460396"><ele>225.99999999999997</ele><time>2026-04-02T16:02:16.999Z</time></trkpt><trkpt lat="43.365796828805664" lon="5.502782949573168"><ele>226.0</ele><time>2026-04-02T16:02:17.999Z</time></trkpt><trkpt lat="43.36580894003373" lon="5.502666786203038"><ele>223.33333333333331</ele><time>2026-04-02T16:02:18.999Z</time></trkpt><trkpt lat="43.36582126138561" lon="5.502547496034069"><ele>220.66666666666666</ele><time>2026-04-02T16:02:19.998Z</time></trkpt><trkpt lat="43.365827853603115" lon="5.502436295186178"><ele>218.0</ele><time>2026-04-02T16:02:20.998Z</time></trkpt><trkpt lat="43.36584148536017" lon="5.502314709517406"><ele>215.33333333333331</ele><time>2026-04-02T16:02:21.998Z</time></trkpt><trkpt lat="43.365859365277785" lon="5.502192449420369"><ele>212.66666666666666</ele><time>2026-04-02T16:02:22.998Z</time></trkpt><trkpt lat="43.36586513381464" lon="5.502074202203846"><ele>210.0</ele><time>2026-04-02T16:02:23.998Z</time></trkpt><trkpt lat="43.365865238586245" lon="5.501953365908601"><ele>208.83333333333334</ele><time>2026-04-02T16:02:24.998Z</time></trkpt><trkpt lat="43.365852379842906" lon="5.50183674902775"><ele>207.66666666666669</ele><time>2026-04-02T16:02:25.998Z</time></trkpt><trkpt lat="43.365837527923716" lon="5.501724632884614"><ele>206.5</ele><time>2026-04-02T16:02:26.998Z</time></trkpt><trkpt lat="43.36579660607131" lon="5.501625388609358"><ele>205.33333333333334</ele><time>2026-04-02T16:02:27.998Z</time></trkpt><trkpt lat="43.36575070435668" lon="5.501511009339763"><ele>204.16666666666669</ele><time>2026-04-02T16:02:28.998Z</time></trkpt><trkpt lat="43.365707097385204" lon="5.5013996670416505"><ele>203.0</ele><time>2026-04-02T16:02:29.998Z</time></trkpt><trkpt lat="43.36566262789456" lon="5.501304700886195"><ele>204.50000000000003</ele><time>2026-04-02T16:02:30.998Z</time></trkpt><trkpt lat="43.36561475399277" lon="5.501210019782401"><ele>206.0</ele><time>2026-04-02T16:02:31.998Z</time></trkpt><trkpt lat="43.3655628237866" lon="5.5011195480625705"><ele>207.5</ele><time>2026-04-02T16:02:32.998Z</time></trkpt><trkpt lat="43.36552130117067" lon="5.501028483486642"><ele>209.0</ele><time>2026-04-02T16:02:33.998Z</time></trkpt><trkpt lat="43.36548269502082" lon="5.500930225030794"><ele>210.50000000000003</ele><time>2026-04-02T16:02:34.998Z</time></trkpt><trkpt lat="43.365447870305395" lon="5.5008362582868235"><ele>212.0</ele><time>2026-04-02T16:02:35.998Z</time></trkpt><trkpt lat="43.36540107036424" lon="5.500749600555807"><ele>212.57142857142858</ele><time>2026-04-02T16:02:37Z</time></trkpt><trkpt lat="43.36535680306752" lon="5.500664794061042"><ele>213.14285714285714</ele><time>2026-04-02T16:02:38Z</time></trkpt><trkpt lat="43.36531810155584" lon="5.500579649436036"><ele>213.71428571428572</ele><time>2026-04-02T16:02:39Z</time></trkpt><trkpt lat="43.36527591190502" lon="5.5004993619573685"><ele>214.28571428571428</ele><time>2026-04-02T16:02:40Z</time></trkpt><trkpt lat="43.36522690869273" lon="5.500425511047507"><ele>214.85714285714283</ele><time>2026-04-02T16:02:41Z</time></trkpt><trkpt lat="43.36517879515576" lon="5.500354584703257"><ele>215.42857142857142</ele><time>2026-04-02T16:02:42Z</time></trkpt><trkpt lat="43.365123323873874" lon="5.5002873690457506"><ele>216.0</ele><time>2026-04-02T16:02:43Z</time></trkpt><trkpt lat="43.36507900061746" lon="5.5002099657039265"><ele>213.71428571428572</ele><time>2026-04-02T16:02:44Z</time></trkpt><trkpt lat="43.36503025403827" lon="5.500141763975108"><ele>211.42857142857142</ele><time>2026-04-02T16:02:45Z</time></trkpt><trkpt lat="43.364978991423136" lon="5.500074872813695"><ele>209.14285714285717</ele><time>2026-04-02T16:02:46Z</time></trkpt><trkpt lat="43.364929877205306" lon="5.5000064854107285"><ele>206.85714285714286</ele><time>2026-04-02T16:02:47Z</time></trkpt><trkpt lat="43.364883644029284" lon="5.499939467917989"><ele>204.57142857142858</ele><time>2026-04-02T16:02:48Z</time></trkpt><trkpt lat="43.36484020800238" lon="5.49986815245734"><ele>202.2857142857143</ele><time>2026-04-02T16:02:49Z</time></trkpt><trkpt lat="43.364798913654425" lon="5.499793491327566"><ele>200.0</ele><time>2026-04-02T16:02:50Z</time></trkpt><trkpt lat="43.36475575726993" lon="5.4997222347911645"><ele>200.00000000000003</ele><time>2026-04-02T16:02:51Z</time></trkpt><trkpt lat="43.364718491436264" lon="5.499646287132532"><ele>200.0</ele><time>2026-04-02T16:02:52Z</time></trkpt><trkpt lat="43.36467670563223" lon="5.499570737394092"><ele>200.0</ele><time>2026-04-02T16:02:53Z</time></trkpt><trkpt lat="43.36463748015839" lon="5.499493065754078"><ele>200.0</ele><time>2026-04-02T16:02:54Z</time></trkpt><trkpt lat="43.364602904077685" lon="5.499416158307469"><ele>200.0</ele><time>2026-04-02T16:02:55Z</time></trkpt><trkpt lat="43.36456998715524" lon="5.4993336341275425"><ele>200.00000000000003</ele><time>2026-04-02T16:02:56Z</time></trkpt><trkpt lat="43.36454065517128" lon="5.499249939873011"><ele>200.0</ele><time>2026-04-02T16:02:57Z</time></trkpt><trkpt lat="43.3645126644612" lon="5.4991589868358615"><ele>199.71428571428572</ele><time>2026-04-02T16:02:58Z</time></trkpt><trkpt lat="43.36448602465778" lon="5.4990680637196965"><ele>199.42857142857144</ele><time>2026-04-02T16:02:59Z</time></trkpt><trkpt lat="43.36446346137946" lon="5.498974456843035"><ele>199.14285714285717</ele><time>2026-04-02T16:03:00Z</time></trkpt><trkpt lat="43.36443985465274" lon="5.498879141826923"><ele>198.85714285714286</ele><time>2026-04-02T16:03:01Z</time></trkpt><trkpt lat="43.364415264879966" lon="5.498788876464995"><ele>198.57142857142856</ele><time>2026-04-02T16:03:02Z</time></trkpt><trkpt lat="43.36439236684497" lon="5.498691386190635"><ele>198.2857142857143</ele><time>2026-04-02T16:03:03Z</time></trkpt><trkpt lat="43.364363781789415" lon="5.49859646961318"><ele>198.0</ele><time>2026-04-02T16:03:04Z</time></trkpt><trkpt lat="43.364335946667154" lon="5.498501396246184"><ele>198.0</ele><time>2026-04-02T16:03:05Z</time></trkpt><trkpt lat="43.364304945908586" lon="5.498413235483923"><ele>198.0</ele><time>2026-04-02T16:03:06Z</time></trkpt><trkpt lat="43.364271485892836" lon="5.49833298756309"><ele>198.0</ele><time>2026-04-02T16:03:07Z</time></trkpt><trkpt lat="43.36424381014567" lon="5.498248487959493"><ele>198.0</ele><time>2026-04-02T16:03:08Z</time></trkpt><trkpt lat="43.36421975116986" lon="5.4981569494171545"><ele>198.0</ele><time>2026-04-02T16:03:09Z</time></trkpt><trkpt lat="43.364206591987845" lon="5.497982694141082"><ele>198.0</ele><time>2026-04-02T16:03:11Z</time></trkpt><trkpt lat="43.36419389884574" lon="5.497812913803302"><ele>196.33333333333334</ele><time>2026-04-02T16:03:13Z</time></trkpt><trkpt lat="43.36418540473009" lon="5.497725609994115"><ele>194.66666666666666</ele><time>2026-04-02T16:03:14Z</time></trkpt><trkpt lat="43.36418237745477" lon="5.497638874624094"><ele>193.0</ele><time>2026-04-02T16:03:15Z</time></trkpt><trkpt lat="43.36416088909229" lon="5.497486265339258"><ele>191.33333333333331</ele><time>2026-04-02T16:03:17Z</time></trkpt><trkpt lat="43.364157094150826" lon="5.497350086291015"><ele>189.66666666666666</ele><time>2026-04-02T16:03:19Z</time></trkpt><trkpt lat="43.36415231840348" lon="5.497246871414085"><ele>188.0</ele><time>2026-04-02T16:03:20.999Z</time></trkpt><trkpt lat="43.364124996122705" lon="5.497140353700835"><ele>187.33333333333331</ele><time>2026-04-02T16:03:22.999Z</time></trkpt><trkpt lat="43.36412347308005" lon="5.497028039125009"><ele>186.66666666666666</ele><time>2026-04-02T16:03:24.999Z</time></trkpt><trkpt lat="43.36411885604849" lon="5.49692407179325"><ele>186.0</ele><time>2026-04-02T16:03:26.999Z</time></trkpt><trkpt lat="43.36408894308173" lon="5.49682499826111"><ele>185.33333333333334</ele><time>2026-04-02T16:03:28.999Z</time></trkpt><trkpt lat="43.36406720490191" lon="5.496728775256015"><ele>184.66666666666669</ele><time>2026-04-02T16:03:30.999Z</time></trkpt><trkpt lat="43.36402989816702" lon="5.496642561658252"><ele>184.0</ele><time>2026-04-02T16:03:32.999Z</time></trkpt><trkpt lat="43.36398623993252" lon="5.496566022352105"><ele>184.0</ele><time>2026-04-02T16:03:34.999Z</time></trkpt><trkpt lat="43.36394453522098" lon="5.496485022217138"><ele>184.0</ele><time>2026-04-02T16:03:36.999Z</time></trkpt><trkpt lat="43.36389228221506" lon="5.49639549227946"><ele>184.0</ele><time>2026-04-02T16:03:38.999Z</time></trkpt><trkpt lat="43.36381757071086" lon="5.4963247456246345"><ele>184.0</ele><time>2026-04-02T16:03:40.999Z</time></trkpt><trkpt lat="43.36374907377686" lon="5.496256690390741"><ele>184.0</ele><time>2026-04-02T16:03:42.999Z</time></trkpt><trkpt lat="43.363666018732985" lon="5.496195090941172"><ele>184.0</ele><time>2026-04-02T16:03:44.999Z</time></trkpt><trkpt lat="43.36359828963945" lon="5.496090869908655"><ele>182.6</ele><time>2026-04-02T16:03:46.999Z</time></trkpt><trkpt lat="43.36350121668558" lon="5.495980961125544"><ele>181.2</ele><time>2026-04-02T16:03:48.999Z</time></trkpt><trkpt lat="43.36344710014721" lon="5.495930145418654"><ele>179.79999999999998</ele><time>2026-04-02T16:03:49.999Z</time></trkpt><trkpt lat="43.3633506232691" lon="5.495814581620432"><ele>178.39999999999998</ele><time>2026-04-02T16:03:51.999Z</time></trkpt><trkpt lat="43.363299708867274" lon="5.495751821371372"><ele>177.0</ele><time>2026-04-02T16:03:52.999Z</time></trkpt><trkpt lat="43.36324929375569" lon="5.4956891542523145"><ele>177.0</ele><time>2026-04-02T16:03:53.999Z</time></trkpt><trkpt lat="43.36319798317623" lon="5.4956299768188295"><ele>177.0</ele><time>2026-04-02T16:03:54.999Z</time></trkpt><trkpt lat="43.363128764982605" lon="5.495492696368545"><ele>177.0</ele><time>2026-04-02T16:03:56.999Z</time></trkpt><trkpt lat="43.36308456065669" lon="5.495342682199159"><ele>177.0</ele><time>2026-04-02T16:03:58.999Z</time></trkpt><trkpt lat="43.363069210498196" lon="5.495204229710714"><ele>177.0</ele><time>2026-04-02T16:04:00.999Z</time></trkpt><trkpt lat="43.363059164879395" lon="5.495066935640655"><ele>177.0</ele><time>2026-04-02T16:04:02.999Z</time></trkpt><trkpt lat="43.36304473201817" lon="5.494937843002864"><ele>177.0</ele><time>2026-04-02T16:04:04.999Z</time></trkpt><trkpt lat="43.363032118764835" lon="5.494840791660201"><ele>177.0</ele><time>2026-04-02T16:04:06.999Z</time></trkpt><trkpt lat="43.363019290595" lon="5.494745265800293"><ele>177.0</ele><time>2026-04-02T16:04:37.998Z</time></trkpt><trkpt lat="43.3629863807533" lon="5.494637665748542"><ele>177.0</ele><time>2026-04-02T16:04:40.998Z</time></trkpt><trkpt lat="43.36295876658487" lon="5.494553912686254"><ele>177.0</ele><time>2026-04-02T16:04:43Z</time></trkpt><trkpt lat="43.36290672745699" lon="5.49444989991854"><ele>176.39999999999998</ele><time>2026-04-02T16:04:45Z</time></trkpt><trkpt lat="43.36284470714803" lon="5.494345396524188"><ele>175.79999999999998</ele><time>2026-04-02T16:04:47Z</time></trkpt><trkpt lat="43.36276882950519" lon="5.4942662273011775"><ele>175.2</ele><time>2026-04-02T16:04:49Z</time></trkpt><trkpt lat="43.36268434138421" lon="5.494194823547798"><ele>174.6</ele><time>2026-04-02T16:04:51Z</time></trkpt><trkpt lat="43.36257614306032" lon="5.4941181709335485"><ele>174.0</ele><time>2026-04-02T16:04:53Z</time></trkpt><trkpt lat="43.36251527775135" lon="5.494083007693825"><ele>174.0</ele><time>2026-04-02T16:04:54Z</time></trkpt><trkpt lat="43.362454638956955" lon="5.494051458793204"><ele>174.0</ele><time>2026-04-02T16:04:55Z</time></trkpt><trkpt lat="43.36238371871155" lon="5.4940201604509245"><ele>174.0</ele><time>2026-04-02T16:04:56Z</time></trkpt><trkpt lat="43.362306602715734" lon="5.494001083786814"><ele>174.0</ele><time>2026-04-02T16:04:57Z</time></trkpt><trkpt lat="43.36223028070824" lon="5.493976817612639"><ele>174.0</ele><time>2026-04-02T16:04:58Z</time></trkpt><trkpt lat="43.36214932496508" lon="5.4939532821300405"><ele>174.0</ele><time>2026-04-02T16:04:59Z</time></trkpt><trkpt lat="43.362067621902476" lon="5.49392919459055"><ele>173.33333333333334</ele><time>2026-04-02T16:05:00Z</time></trkpt><trkpt lat="43.361984605598934" lon="5.493910574579562"><ele>172.66666666666666</ele><time>2026-04-02T16:05:01Z</time></trkpt><trkpt lat="43.36190364261074" lon="5.493890697999417"><ele>172.0</ele><time>2026-04-02T16:05:02Z</time></trkpt><trkpt lat="43.36182373426106" lon="5.493873955000565"><ele>171.33333333333331</ele><time>2026-04-02T16:05:03Z</time></trkpt><trkpt lat="43.36174296241264" lon="5.493846114056977"><ele>170.66666666666666</ele><time>2026-04-02T16:05:04Z</time></trkpt><trkpt lat="43.36166007378445" lon="5.493822976743119"><ele>170.0</ele><time>2026-04-02T16:05:05Z</time></trkpt><trkpt lat="43.36157614433181" lon="5.4938033432330196"><ele>170.0</ele><time>2026-04-02T16:05:06Z</time></trkpt><trkpt lat="43.3614927810981" lon="5.493789475537316"><ele>170.0</ele><time>2026-04-02T16:05:07Z</time></trkpt><trkpt lat="43.36141119234875" lon="5.49378191291367"><ele>170.0</ele><time>2026-04-02T16:05:08Z</time></trkpt><trkpt lat="43.36132687576298" lon="5.493782272911039"><ele>170.0</ele><time>2026-04-02T16:05:09Z</time></trkpt><trkpt lat="43.3612525985537" lon="5.493801514468526"><ele>170.0</ele><time>2026-04-02T16:05:10Z</time></trkpt><trkpt lat="43.36116388694046" lon="5.493826903977489"><ele>170.0</ele><time>2026-04-02T16:05:11Z</time></trkpt><trkpt lat="43.36108336785364" lon="5.493860396051206"><ele>170.16666666666666</ele><time>2026-04-02T16:05:12Z</time></trkpt><trkpt lat="43.361004676508465" lon="5.493896463895957"><ele>170.33333333333331</ele><time>2026-04-02T16:05:13Z</time></trkpt><trkpt lat="43.3609326112056" lon="5.493936555290766"><ele>170.5</ele><time>2026-04-02T16:05:14Z</time></trkpt><trkpt lat="43.36084858582136" lon="5.493959285830007"><ele>170.66666666666666</ele><time>2026-04-02T16:05:15Z</time></trkpt><trkpt lat="43.360767579849174" lon="5.493992055430548"><ele>170.83333333333334</ele><time>2026-04-02T16:05:16Z</time></trkpt><trkpt lat="43.360686629072454" lon="5.494017979829832"><ele>171.0</ele><time>2026-04-02T16:05:17Z</time></trkpt><trkpt lat="43.36060266639235" lon="5.494050998653752"><ele>171.0</ele><time>2026-04-02T16:05:18Z</time></trkpt><trkpt lat="43.36052232537528" lon="5.494074236988345"><ele>171.0</ele><time>2026-04-02T16:05:19Z</time></trkpt><trkpt lat="43.36043727307413" lon="5.494079473504005"><ele>171.0</ele><time>2026-04-02T16:05:20Z</time></trkpt><trkpt lat="43.36035460243781" lon="5.494078329565067"><ele>171.0</ele><time>2026-04-02T16:05:21Z</time></trkpt><trkpt lat="43.360267795020135" lon="5.494071795726295"><ele>171.0</ele><time>2026-04-02T16:05:22Z</time></trkpt><trkpt lat="43.360182835212626" lon="5.4940601362825205"><ele>171.0</ele><time>2026-04-02T16:05:23Z</time></trkpt><trkpt lat="43.36010411553268" lon="5.494051662844793"><ele>171.0</ele><time>2026-04-02T16:05:24Z</time></trkpt><trkpt lat="43.36002074314315" lon="5.494039594344187"><ele>171.0</ele><time>2026-04-02T16:05:25Z</time></trkpt><trkpt lat="43.35993958513061" lon="5.49402411994157"><ele>171.0</ele><time>2026-04-02T16:05:26Z</time></trkpt><trkpt lat="43.359858837676434" lon="5.4940105727150375"><ele>171.0</ele><time>2026-04-02T16:05:27Z</time></trkpt><trkpt lat="43.35977853068501" lon="5.4940047705089095"><ele>171.0</ele><time>2026-04-02T16:05:28Z</time></trkpt><trkpt lat="43.359705879528576" lon="5.493983362798693"><ele>171.0</ele><time>2026-04-02T16:05:29Z</time></trkpt><trkpt lat="43.35962740631808" lon="5.493963962400131"><ele>170.83333333333334</ele><time>2026-04-02T16:05:30Z</time></trkpt><trkpt lat="43.3595524553116" lon="5.493940649310931"><ele>170.66666666666666</ele><time>2026-04-02T16:05:31Z</time></trkpt><trkpt lat="43.359478617936745" lon="5.493912419829"><ele>170.5</ele><time>2026-04-02T16:05:32Z</time></trkpt><trkpt lat="43.359404955731804" lon="5.493870923038975"><ele>170.33333333333331</ele><time>2026-04-02T16:05:33Z</time></trkpt><trkpt lat="43.359334805067554" lon="5.493814261893537"><ele>170.16666666666666</ele><time>2026-04-02T16:05:33.999Z</time></trkpt><trkpt lat="43.35926467475086" lon="5.493759183408243"><ele>170.0</ele><time>2026-04-02T16:05:34.999Z</time></trkpt><trkpt lat="43.359198700164875" lon="5.493700015858472"><ele>170.0</ele><time>2026-04-02T16:05:35.999Z</time></trkpt><trkpt lat="43.359135629953805" lon="5.493631590861136"><ele>170.0</ele><time>2026-04-02T16:05:36.999Z</time></trkpt><trkpt lat="43.359075937598085" lon="5.49355648587633"><ele>170.0</ele><time>2026-04-02T16:05:37.999Z</time></trkpt><trkpt lat="43.35901333232193" lon="5.493480791336228"><ele>170.0</ele><time>2026-04-02T16:05:38.999Z</time></trkpt><trkpt lat="43.35896024967376" lon="5.493397892335238"><ele>170.0</ele><time>2026-04-02T16:05:39.999Z</time></trkpt><trkpt lat="43.358907636211754" lon="5.49331659835227"><ele>170.0</ele><time>2026-04-02T16:05:40.999Z</time></trkpt><trkpt lat="43.35885594708105" lon="5.493235350797248"><ele>169.66666666666666</ele><time>2026-04-02T16:05:41.999Z</time></trkpt><trkpt lat="43.35880754804849" lon="5.493149103091972"><ele>169.33333333333331</ele><time>2026-04-02T16:05:42.999Z</time></trkpt><trkpt lat="43.3587593841306" lon="5.493062549603291"><ele>169.0</ele><time>2026-04-02T16:05:43.999Z</time></trkpt><trkpt lat="43.358713378952984" lon="5.492980141951541"><ele>168.66666666666666</ele><time>2026-04-02T16:05:44.999Z</time></trkpt><trkpt lat="43.35867129344018" lon="5.49289169520424"><ele>168.33333333333334</ele><time>2026-04-02T16:05:45.999Z</time></trkpt><trkpt lat="43.35862952727031" lon="5.49280629990195"><ele>168.0</ele><time>2026-04-02T16:05:46.999Z</time></trkpt><trkpt lat="43.35858895129888" lon="5.49271725653367"><ele>168.0</ele><time>2026-04-02T16:05:47.999Z</time></trkpt><trkpt lat="43.35854505390387" lon="5.492633734846484"><ele>168.0</ele><time>2026-04-02T16:05:48.999Z</time></trkpt><trkpt lat="43.358503826455774" lon="5.492545977432909"><ele>168.0</ele><time>2026-04-02T16:05:49.999Z</time></trkpt><trkpt lat="43.35846017442925" lon="5.492463131292556"><ele>168.0</ele><time>2026-04-02T16:05:50.999Z</time></trkpt><trkpt lat="43.35842971414828" lon="5.492371783949391"><ele>168.0</ele><time>2026-04-02T16:05:51.999Z</time></trkpt><trkpt lat="43.358397667077455" lon="5.4922817149845065"><ele>168.0</ele><time>2026-04-02T16:05:52.999Z</time></trkpt><trkpt lat="43.35835587855333" lon="5.49219793129699"><ele>168.0</ele><time>2026-04-02T16:05:53.999Z</time></trkpt><trkpt lat="43.3583144447384" lon="5.492111771969301"><ele>167.66666666666666</ele><time>2026-04-02T16:05:54.999Z</time></trkpt><trkpt lat="43.35827499363782" lon="5.49202631519237"><ele>167.33333333333334</ele><time>2026-04-02T16:05:55.999Z</time></trkpt><trkpt lat="43.35823264728539" lon="5.491943275324857"><ele>167.0</ele><time>2026-04-02T16:05:56.999Z</time></trkpt><trkpt lat="43.35818797489694" lon="5.49185988902532"><ele>166.66666666666669</ele><time>2026-04-02T16:05:57.999Z</time></trkpt><trkpt lat="43.35814528892243" lon="5.4917721892669205"><ele>166.33333333333334</ele><time>2026-04-02T16:05:58.999Z</time></trkpt><trkpt lat="43.35810233836807" lon="5.491683128050917"><ele>166.0</ele><time>2026-04-02T16:05:59.999Z</time></trkpt><trkpt lat="43.35806064449409" lon="5.491593201021601"><ele>166.16666666666669</ele><time>2026-04-02T16:06:00.999Z</time></trkpt><trkpt lat="43.35801318741152" lon="5.491504201253503"><ele>166.33333333333334</ele><time>2026-04-02T16:06:01.999Z</time></trkpt><trkpt lat="43.35798056484538" lon="5.491401506855065"><ele>166.5</ele><time>2026-04-02T16:06:02.999Z</time></trkpt><trkpt lat="43.357938126584365" lon="5.49130832632133"><ele>166.66666666666666</ele><time>2026-04-02T16:06:03.999Z</time></trkpt><trkpt lat="43.357885261531294" lon="5.491225214028893"><ele>166.83333333333331</ele><time>2026-04-02T16:06:04.999Z</time></trkpt><trkpt lat="43.357858849966206" lon="5.491125149175229"><ele>167.0</ele><time>2026-04-02T16:06:05.999Z</time></trkpt><trkpt lat="43.35784061113651" lon="5.491022673527963"><ele>167.0</ele><time>2026-04-02T16:06:06.999Z</time></trkpt><trkpt lat="43.35781546647643" lon="5.490925109647932"><ele>167.0</ele><time>2026-04-02T16:06:07.999Z</time></trkpt><trkpt lat="43.35776406872282" lon="5.4908588710043675"><ele>167.0</ele><time>2026-04-02T16:06:08.999Z</time></trkpt><trkpt lat="43.357727726151424" lon="5.4907714754929975"><ele>167.0</ele><time>2026-04-02T16:06:09.999Z</time></trkpt><trkpt lat="43.357696397667915" lon="5.490688469872689"><ele>167.0</ele><time>2026-04-02T16:06:10.999Z</time></trkpt><trkpt lat="43.3576691504227" lon="5.490602422017241"><ele>167.0</ele><time>2026-04-02T16:06:11.999Z</time></trkpt><trkpt lat="43.35764202830743" lon="5.490514823185186"><ele>167.0</ele><time>2026-04-02T16:06:12.999Z</time></trkpt><trkpt lat="43.357618693017685" lon="5.490427023344966"><ele>166.2</ele><time>2026-04-02T16:06:13.999Z</time></trkpt><trkpt lat="43.35759608734446" lon="5.490332836861899"><ele>165.39999999999998</ele><time>2026-04-02T16:06:14.999Z</time></trkpt><trkpt lat="43.357583104195754" lon="5.490243217239853"><ele>164.60000000000002</ele><time>2026-04-02T16:06:15.999Z</time></trkpt><trkpt lat="43.35756512132846" lon="5.49014567339487"><ele>163.8</ele><time>2026-04-02T16:06:16.999Z</time></trkpt><trkpt lat="43.35753219618418" lon="5.489988411974839"><ele>163.0</ele><time>2026-04-02T16:06:18.999Z</time></trkpt><trkpt lat="43.35748210985506" lon="5.489828415485263"><ele>163.0</ele><time>2026-04-02T16:06:20.999Z</time></trkpt><trkpt lat="43.357449957400895" lon="5.489730249142597"><ele>163.0</ele><time>2026-04-02T16:06:21.999Z</time></trkpt><trkpt lat="43.35742149093126" lon="5.489559103661147"><ele>163.0</ele><time>2026-04-02T16:06:23.999Z</time></trkpt><trkpt lat="43.357403306457066" lon="5.489464147916441"><ele>163.0</ele><time>2026-04-02T16:06:24.999Z</time></trkpt><trkpt lat="43.35738721769909" lon="5.489376702076176"><ele>163.0</ele><time>2026-04-02T16:06:25.999Z</time></trkpt><trkpt lat="43.35736792938879" lon="5.489280758239944"><ele>163.0</ele><time>2026-04-02T16:06:26.999Z</time></trkpt><trkpt lat="43.35734705614667" lon="5.489182873418555"><ele>162.71428571428572</ele><time>2026-04-02T16:06:27.999Z</time></trkpt><trkpt lat="43.35732744019304" lon="5.489089667577095"><ele>162.42857142857142</ele><time>2026-04-02T16:06:28.999Z</time></trkpt><trkpt lat="43.35730877222373" lon="5.489003480909816"><ele>162.14285714285714</ele><time>2026-04-02T16:06:29.999Z</time></trkpt><trkpt lat="43.35728945172264" lon="5.488907664379855"><ele>161.85714285714286</ele><time>2026-04-02T16:06:30.999Z</time></trkpt><trkpt lat="43.35726977160209" lon="5.488815505891716"><ele>161.57142857142856</ele><time>2026-04-02T16:06:31.999Z</time></trkpt><trkpt lat="43.35725125618296" lon="5.4887278695799955"><ele>161.28571428571428</ele><time>2026-04-02T16:06:32.999Z</time></trkpt><trkpt lat="43.35723123834125" lon="5.488641558461072"><ele>161.0</ele><time>2026-04-02T16:06:33.999Z</time></trkpt><trkpt lat="43.35721422860275" lon="5.488553876718689"><ele>161.0</ele><time>2026-04-02T16:06:34.999Z</time></trkpt><trkpt lat="43.35721584183662" lon="5.488463420697302"><ele>161.0</ele><time>2026-04-02T16:06:35.999Z</time></trkpt><trkpt lat="43.35724704285303" lon="5.488388020318394"><ele>161.0</ele><time>2026-04-02T16:06:36.999Z</time></trkpt><trkpt lat="43.357295553140744" lon="5.488329870102859"><ele>161.0</ele><time>2026-04-02T16:06:37.999Z</time></trkpt><trkpt lat="43.357319959629216" lon="5.488190253547765"><ele>161.0</ele><time>2026-04-02T16:06:39.998Z</time></trkpt><trkpt lat="43.357234549606375" lon="5.488089767107928"><ele>161.0</ele><time>2026-04-02T16:06:41.998Z</time></trkpt><trkpt lat="43.357124115793034" lon="5.488079159720717"><ele>161.0</ele><time>2026-04-02T16:06:43.998Z</time></trkpt><trkpt lat="43.35705083795969" lon="5.488184746143516"><ele>161.0</ele><time>2026-04-02T16:06:45.998Z</time></trkpt><trkpt lat="43.357064446305976" lon="5.4883378451350815"><ele>161.0</ele><time>2026-04-02T16:06:47.998Z</time></trkpt><trkpt lat="43.35713979735979" lon="5.488433450188059"><ele>161.0</ele><time>2026-04-02T16:06:50Z</time></trkpt><trkpt lat="43.357241089901706" lon="5.488425957344512"><ele>161.0</ele><time>2026-04-02T16:06:52Z</time></trkpt><trkpt lat="43.35729599439451" lon="5.488297975558479"><ele>161.0</ele><time>2026-04-02T16:06:54Z</time></trkpt><trkpt lat="43.35729501395547" lon="5.4881817518507905"><ele>161.0</ele><time>2026-04-02T16:06:56Z</time></trkpt><trkpt lat="43.35722177051273" lon="5.488145309871666"><ele>161.0</ele><time>2026-04-02T16:06:57Z</time></trkpt><trkpt lat="43.35712179892008" lon="5.488092269094451"><ele>161.0</ele><time>2026-04-02T16:06:59Z</time></trkpt><trkpt lat="43.35702032404386" lon="5.48801291321731"><ele>161.0</ele><time>2026-04-02T16:07:01Z</time></trkpt><trkpt lat="43.35696717973746" lon="5.487962881094441"><ele>160.5</ele><time>2026-04-02T16:07:02Z</time></trkpt><trkpt lat="43.35691576202671" lon="5.487899688861966"><ele>160.0</ele><time>2026-04-02T16:07:03Z</time></trkpt><trkpt lat="43.35685713845558" lon="5.487834416701624"><ele>159.5</ele><time>2026-04-02T16:07:04Z</time></trkpt><trkpt lat="43.356794448897126" lon="5.4877675524898635"><ele>159.0</ele><time>2026-04-02T16:07:05Z</time></trkpt><trkpt lat="43.35673335153597" lon="5.487693637975945"><ele>158.5</ele><time>2026-04-02T16:07:06Z</time></trkpt><trkpt lat="43.35667148142076" lon="5.487617447709501"><ele>158.0</ele><time>2026-04-02T16:07:07Z</time></trkpt><trkpt lat="43.356611953906025" lon="5.487542079488834"><ele>158.0</ele><time>2026-04-02T16:07:08Z</time></trkpt><trkpt lat="43.35655393885195" lon="5.487466124788065"><ele>158.0</ele><time>2026-04-02T16:07:09Z</time></trkpt><trkpt lat="43.356497952629844" lon="5.487385290819932"><ele>158.0</ele><time>2026-04-02T16:07:10Z</time></trkpt><trkpt lat="43.35643611608675" lon="5.487315651740797"><ele>158.0</ele><time>2026-04-02T16:07:11Z</time></trkpt><trkpt lat="43.356373790374136" lon="5.487247943125961"><ele>158.0</ele><time>2026-04-02T16:07:12Z</time></trkpt><trkpt lat="43.35631806230198" lon="5.487171283199689"><ele>158.0</ele><time>2026-04-02T16:07:13Z</time></trkpt><trkpt lat="43.3562640633819" lon="5.48709355675109"><ele>157.66666666666666</ele><time>2026-04-02T16:07:14Z</time></trkpt><trkpt lat="43.35621117447742" lon="5.487027281528692"><ele>157.33333333333331</ele><time>2026-04-02T16:07:15Z</time></trkpt><trkpt lat="43.356164753456724" lon="5.486952688550372"><ele>157.0</ele><time>2026-04-02T16:07:16Z</time></trkpt><trkpt lat="43.356149549416685" lon="5.486864877839308"><ele>156.66666666666666</ele><time>2026-04-02T16:07:17Z</time></trkpt><trkpt lat="43.35614070434426" lon="5.4867164201082455"><ele>156.33333333333334</ele><time>2026-04-02T16:07:19Z</time></trkpt><trkpt lat="43.35604749027939" lon="5.486644903578273"><ele>156.0</ele><time>2026-04-02T16:07:21Z</time></trkpt><trkpt lat="43.355933910732944" lon="5.486628645308551"><ele>156.0</ele><time>2026-04-02T16:07:23Z</time></trkpt><trkpt lat="43.355829721519044" lon="5.486533317343042"><ele>156.0</ele><time>2026-04-02T16:07:25Z</time></trkpt><trkpt lat="43.35576947511374" lon="5.486498265978788"><ele>156.0</ele><time>2026-04-02T16:07:26Z</time></trkpt><trkpt lat="43.35571124561165" lon="5.486456426715807"><ele>156.0</ele><time>2026-04-02T16:07:27Z</time></trkpt><trkpt lat="43.355648661393715" lon="5.486414765985289"><ele>156.0</ele><time>2026-04-02T16:07:28Z</time></trkpt><trkpt lat="43.35558666963442" lon="5.486375138784914"><ele>156.0</ele><time>2026-04-02T16:07:29Z</time></trkpt><trkpt lat="43.35552472599666" lon="5.48633187200593"><ele>156.14285714285714</ele><time>2026-04-02T16:07:30Z</time></trkpt><trkpt lat="43.3554624489999" lon="5.4862957587387475"><ele>156.28571428571428</ele><time>2026-04-02T16:07:31Z</time></trkpt><trkpt lat="43.355402798455316" lon="5.486253096837692"><ele>156.42857142857142</ele><time>2026-04-02T16:07:32Z</time></trkpt><trkpt lat="43.35534320178349" lon="5.4862158802165295"><ele>156.57142857142856</ele><time>2026-04-02T16:07:33Z</time></trkpt><trkpt lat="43.35528010219149" lon="5.48617805472242"><ele>156.71428571428572</ele><time>2026-04-02T16:07:34Z</time></trkpt><trkpt lat="43.35521900246897" lon="5.486138462743344"><ele>156.85714285714283</ele><time>2026-04-02T16:07:35Z</time></trkpt><trkpt lat="43.35515784222978" lon="5.486105736512814"><ele>157.0</ele><time>2026-04-02T16:07:36Z</time></trkpt><trkpt lat="43.35509418814535" lon="5.486074194453655"><ele>156.99999999999997</ele><time>2026-04-02T16:07:37Z</time></trkpt><trkpt lat="43.355035723194035" lon="5.48603304125187"><ele>157.0</ele><time>2026-04-02T16:07:38Z</time></trkpt><trkpt lat="43.35497412307876" lon="5.485986489279025"><ele>157.0</ele><time>2026-04-02T16:07:39Z</time></trkpt><trkpt lat="43.35491641608763" lon="5.485942017618231"><ele>157.0</ele><time>2026-04-02T16:07:40Z</time></trkpt><trkpt lat="43.35485805819043" lon="5.485888774937602"><ele>157.0</ele><time>2026-04-02T16:07:41Z</time></trkpt><trkpt lat="43.35480285374559" lon="5.485833651651839"><ele>156.99999999999997</ele><time>2026-04-02T16:07:42Z</time></trkpt><trkpt lat="43.35474733845636" lon="5.485771346275337"><ele>157.0</ele><time>2026-04-02T16:07:43Z</time></trkpt><trkpt lat="43.3546987354592" lon="5.485701623023745"><ele>157.33333333333334</ele><time>2026-04-02T16:07:43.999Z</time></trkpt><trkpt lat="43.35465526915842" lon="5.485626449847061"><ele>157.66666666666669</ele><time>2026-04-02T16:07:44.999Z</time></trkpt><trkpt lat="43.35462278927483" lon="5.485543102817222"><ele>158.0</ele><time>2026-04-02T16:07:45.999Z</time></trkpt><trkpt lat="43.35459368392929" lon="5.485456358210348"><ele>158.33333333333334</ele><time>2026-04-02T16:07:46.999Z</time></trkpt><trkpt lat="43.35456494991874" lon="5.485373175006585"><ele>158.66666666666666</ele><time>2026-04-02T16:07:47.999Z</time></trkpt><trkpt lat="43.354538593843735" lon="5.485291495750079"><ele>159.0</ele><time>2026-04-02T16:07:48.999Z</time></trkpt><trkpt lat="43.3544831677347" lon="5.485146247296946"><ele>159.16666666666666</ele><time>2026-04-02T16:07:50.999Z</time></trkpt><trkpt lat="43.354436834554505" lon="5.485010758423177"><ele>159.33333333333334</ele><time>2026-04-02T16:07:52.999Z</time></trkpt><trkpt lat="43.35444036548913" lon="5.484913958400444"><ele>159.5</ele><time>2026-04-02T16:07:55.999Z</time></trkpt><trkpt lat="43.35445976896388" lon="5.484830570950086"><ele>159.66666666666669</ele><time>2026-04-02T16:07:58.999Z</time></trkpt><trkpt lat="43.35447329837331" lon="5.484737590362694"><ele>159.83333333333334</ele><time>2026-04-02T16:08:01.999Z</time></trkpt><trkpt lat="43.35445341321134" lon="5.484650899387312"><ele>160.0</ele><time>2026-04-02T16:08:03.999Z</time></trkpt><trkpt lat="43.35437325876409" lon="5.48458503658697"><ele>160.0</ele><time>2026-04-02T16:08:05.999Z</time></trkpt><trkpt lat="43.35427305637705" lon="5.484579762983868"><ele>160.0</ele><time>2026-04-02T16:08:07.999Z</time></trkpt><trkpt lat="43.35419174612609" lon="5.484648991180739"><ele>160.0</ele><time>2026-04-02T16:08:09.999Z</time></trkpt><trkpt lat="43.35412615723764" lon="5.48455934706986"><ele>160.0</ele><time>2026-04-02T16:08:10.999Z</time></trkpt><trkpt lat="43.3540176173982" lon="5.484487447530805"><ele>160.0</ele><time>2026-04-02T16:08:12.999Z</time></trkpt><trkpt lat="43.35395588614435" lon="5.484448576930916"><ele>160.0</ele><time>2026-04-02T16:08:13.999Z</time></trkpt><trkpt lat="43.35389162212957" lon="5.484412064822391"><ele>160.0</ele><time>2026-04-02T16:08:14.999Z</time></trkpt><trkpt lat="43.35382349034828" lon="5.48437711994813"><ele>160.0</ele><time>2026-04-02T16:08:15.999Z</time></trkpt><trkpt lat="43.35375532461935" lon="5.484335347815561"><ele>160.0</ele><time>2026-04-02T16:08:16.999Z</time></trkpt><trkpt lat="43.35368759459005" lon="5.484282177715661"><ele>160.0</ele><time>2026-04-02T16:08:17.999Z</time></trkpt><trkpt lat="43.35362025999788" lon="5.484225763028877"><ele>160.0</ele><time>2026-04-02T16:08:18.999Z</time></trkpt><trkpt lat="43.3535539417749" lon="5.484165588213607"><ele>159.33333333333334</ele><time>2026-04-02T16:08:19.999Z</time></trkpt><trkpt lat="43.35349159331289" lon="5.484099623666826"><ele>158.66666666666669</ele><time>2026-04-02T16:08:20.999Z</time></trkpt><trkpt lat="43.35342851092934" lon="5.484028122851527"><ele>158.0</ele><time>2026-04-02T16:08:21.999Z</time></trkpt><trkpt lat="43.35336402775112" lon="5.483944133981788"><ele>157.33333333333334</ele><time>2026-04-02T16:08:22.999Z</time></trkpt><trkpt lat="43.353305545361295" lon="5.4838545428508345"><ele>156.66666666666666</ele><time>2026-04-02T16:08:23.999Z</time></trkpt><trkpt lat="43.353248773146746" lon="5.483776882199116"><ele>156.0</ele><time>2026-04-02T16:08:24.999Z</time></trkpt><trkpt lat="43.35319615341623" lon="5.4836918765034355"><ele>156.0</ele><time>2026-04-02T16:08:25.999Z</time></trkpt><trkpt lat="43.35314283620547" lon="5.483604245115092"><ele>156.0</ele><time>2026-04-02T16:08:26.999Z</time></trkpt><trkpt lat="43.35308875957614" lon="5.483520944593292"><ele>156.0</ele><time>2026-04-02T16:08:27.999Z</time></trkpt><trkpt lat="43.353037119615365" lon="5.483434705608518"><ele>156.0</ele><time>2026-04-02T16:08:28.999Z</time></trkpt><trkpt lat="43.352995026054415" lon="5.483341169469333"><ele>156.0</ele><time>2026-04-02T16:08:29.999Z</time></trkpt><trkpt lat="43.35296001820257" lon="5.483249345904923"><ele>156.0</ele><time>2026-04-02T16:08:30.999Z</time></trkpt><trkpt lat="43.35292929051268" lon="5.483152494908101"><ele>155.14285714285714</ele><time>2026-04-02T16:08:31.999Z</time></trkpt><trkpt lat="43.35289942477372" lon="5.4830565237678845"><ele>154.28571428571428</ele><time>2026-04-02T16:08:32.999Z</time></trkpt><trkpt lat="43.35287704376264" lon="5.482960866045227"><ele>153.42857142857142</ele><time>2026-04-02T16:08:33.999Z</time></trkpt><trkpt lat="43.352857164393676" lon="5.48286443878042"><ele>152.57142857142856</ele><time>2026-04-02T16:08:34.999Z</time></trkpt><trkpt lat="43.35283648531649" lon="5.482766398737526"><ele>151.71428571428572</ele><time>2026-04-02T16:08:35.999Z</time></trkpt><trkpt lat="43.35281128255977" lon="5.482672100848275"><ele>150.85714285714283</ele><time>2026-04-02T16:08:36.999Z</time></trkpt><trkpt lat="43.35279330363909" lon="5.4825792841044905"><ele>150.0</ele><time>2026-04-02T16:08:37.999Z</time></trkpt><trkpt lat="43.352772206185655" lon="5.482491812047676"><ele>149.85714285714283</ele><time>2026-04-02T16:08:38.999Z</time></trkpt><trkpt lat="43.352750621082414" lon="5.482397768446448"><ele>149.71428571428572</ele><time>2026-04-02T16:08:39.999Z</time></trkpt><trkpt lat="43.352731581943885" lon="5.482306221496864"><ele>149.57142857142856</ele><time>2026-04-02T16:08:40.999Z</time></trkpt><trkpt lat="43.3527119998469" lon="5.482217395435464"><ele>149.42857142857142</ele><time>2026-04-02T16:08:41.999Z</time></trkpt><trkpt lat="43.35269271319527" lon="5.482123434456773"><ele>149.28571428571428</ele><time>2026-04-02T16:08:42.999Z</time></trkpt><trkpt lat="43.3526716031287" lon="5.482035410774165"><ele>149.14285714285714</ele><time>2026-04-02T16:08:43.999Z</time></trkpt><trkpt lat="43.35265139432092" lon="5.481952658013696"><ele>149.0</ele><time>2026-04-02T16:08:44.999Z</time></trkpt><trkpt lat="43.35263236583402" lon="5.481869975405432"><ele>149.0</ele><time>2026-04-02T16:08:45.999Z</time></trkpt><trkpt lat="43.352593315562714" lon="5.481708381650403"><ele>149.0</ele><time>2026-04-02T16:08:47.998Z</time></trkpt><trkpt lat="43.35255420253787" lon="5.481542138546745"><ele>149.0</ele><time>2026-04-02T16:08:49.998Z</time></trkpt><trkpt lat="43.3525155104801" lon="5.481378819191987"><ele>149.0</ele><time>2026-04-02T16:08:51.998Z</time></trkpt><trkpt lat="43.35248053320499" lon="5.481218490223536"><ele>148.83333333333331</ele><time>2026-04-02T16:08:53.998Z</time></trkpt><trkpt lat="43.352461093614096" lon="5.481130619784197"><ele>148.66666666666666</ele><time>2026-04-02T16:08:55Z</time></trkpt><trkpt lat="43.35241959402457" lon="5.480967893334844"><ele>148.5</ele><time>2026-04-02T16:08:57Z</time></trkpt><trkpt lat="43.35240043769502" lon="5.48088263947588"><ele>148.33333333333334</ele><time>2026-04-02T16:08:58Z</time></trkpt><trkpt lat="43.3523764648204" lon="5.480794002285916"><ele>148.16666666666669</ele><time>2026-04-02T16:08:59Z</time></trkpt><trkpt lat="43.352356666991675" lon="5.480708962119656"><ele>148.0</ele><time>2026-04-02T16:09:00Z</time></trkpt><trkpt lat="43.3523331092181" lon="5.48062519537354"><ele>148.0</ele><time>2026-04-02T16:09:01Z</time></trkpt><trkpt lat="43.35230029947545" lon="5.480454369628975"><ele>148.0</ele><time>2026-04-02T16:09:03Z</time></trkpt><trkpt lat="43.35227918334786" lon="5.480367675184551"><ele>148.0</ele><time>2026-04-02T16:09:04Z</time></trkpt><trkpt lat="43.352258371527974" lon="5.480280777711375"><ele>148.0</ele><time>2026-04-02T16:09:05Z</time></trkpt><trkpt lat="43.35223823298987" lon="5.480194594034259"><ele>148.0</ele><time>2026-04-02T16:09:06Z</time></trkpt><trkpt lat="43.35221569481101" lon="5.480110325894394"><ele>148.0</ele><time>2026-04-02T16:09:07Z</time></trkpt><trkpt lat="43.35219699739366" lon="5.480025173131338"><ele>147.66666666666669</ele><time>2026-04-02T16:09:08Z</time></trkpt><trkpt lat="43.352176100869066" lon="5.479941008937981"><ele>147.33333333333334</ele><time>2026-04-02T16:09:09Z</time></trkpt><trkpt lat="43.35215571099307" lon="5.479855720237907"><ele>147.0</ele><time>2026-04-02T16:09:10Z</time></trkpt><trkpt lat="43.352139346616326" lon="5.479767458480484"><ele>146.66666666666666</ele><time>2026-04-02T16:09:11Z</time></trkpt><trkpt lat="43.35212302439063" lon="5.479681000580489"><ele>146.33333333333331</ele><time>2026-04-02T16:09:12Z</time></trkpt><trkpt lat="43.35210367058946" lon="5.4795093748279955"><ele>146.0</ele><time>2026-04-02T16:09:14Z</time></trkpt><trkpt lat="43.352093025703006" lon="5.479421367383301"><ele>146.0</ele><time>2026-04-02T16:09:15Z</time></trkpt><trkpt lat="43.35208603034143" lon="5.479334669980256"><ele>146.0</ele><time>2026-04-02T16:09:16Z</time></trkpt><trkpt lat="43.35207486231925" lon="5.479167357901971"><ele>146.0</ele><time>2026-04-02T16:09:18Z</time></trkpt><trkpt lat="43.352074139762045" lon="5.479003565798201"><ele>146.0</ele><time>2026-04-02T16:09:20Z</time></trkpt><trkpt lat="43.35206265688022" lon="5.478831359952829"><ele>146.0</ele><time>2026-04-02T16:09:22Z</time></trkpt><trkpt lat="43.35206049548085" lon="5.478743533295863"><ele>145.5</ele><time>2026-04-02T16:09:23Z</time></trkpt><trkpt lat="43.35205237320712" lon="5.478579340136945"><ele>145.0</ele><time>2026-04-02T16:09:25Z</time></trkpt><trkpt lat="43.352042858368115" lon="5.478408005033607"><ele>144.5</ele><time>2026-04-02T16:09:27Z</time></trkpt><trkpt lat="43.3520366374773" lon="5.478236976933712"><ele>144.0</ele><time>2026-04-02T16:09:29Z</time></trkpt><trkpt lat="43.35202472767227" lon="5.478070052906424"><ele>144.25</ele><time>2026-04-02T16:09:31Z</time></trkpt><trkpt lat="43.352018101231714" lon="5.4779086440648594"><ele>144.5</ele><time>2026-04-02T16:09:33Z</time></trkpt><trkpt lat="43.352016714466906" lon="5.477751076843725"><ele>144.75</ele><time>2026-04-02T16:09:35Z</time></trkpt><trkpt lat="43.352007131335945" lon="5.477593178319653"><ele>145.0</ele><time>2026-04-02T16:09:37Z</time></trkpt><trkpt lat="43.352004394891615" lon="5.477433924260719"><ele>145.0</ele><time>2026-04-02T16:09:39Z</time></trkpt><trkpt lat="43.35199368949609" lon="5.477283345021145"><ele>145.0</ele><time>2026-04-02T16:09:41Z</time></trkpt><trkpt lat="43.35198905437505" lon="5.477140492449399"><ele>145.0</ele><time>2026-04-02T16:09:42.999Z</time></trkpt><trkpt lat="43.351982824060656" lon="5.476996150470381"><ele>145.0</ele><time>2026-04-02T16:09:44.999Z</time></trkpt><trkpt lat="43.351972870873155" lon="5.476850404127693"><ele>145.0</ele><time>2026-04-02T16:09:46.999Z</time></trkpt><trkpt lat="43.351963220187365" lon="5.476700066033697"><ele>144.8</ele><time>2026-04-02T16:09:48.999Z</time></trkpt><trkpt lat="43.35195529771548" lon="5.4765519820416975"><ele>144.6</ele><time>2026-04-02T16:09:50.999Z</time></trkpt><trkpt lat="43.35194604245901" lon="5.476407581166084"><ele>144.4</ele><time>2026-04-02T16:09:52.999Z</time></trkpt><trkpt lat="43.351939380727885" lon="5.476268850575595"><ele>144.2</ele><time>2026-04-02T16:09:54.999Z</time></trkpt><trkpt lat="43.35194440038305" lon="5.476138090553133"><ele>144.0</ele><time>2026-04-02T16:09:56.999Z</time></trkpt><trkpt lat="43.35195098778735" lon="5.476030666755546"><ele>144.33333333333334</ele><time>2026-04-02T16:09:58.999Z</time></trkpt><trkpt lat="43.35197981118416" lon="5.475950318209817"><ele>144.66666666666666</ele><time>2026-04-02T16:10:22.999Z</time></trkpt><trkpt lat="43.35211566971093" lon="5.475962699027268"><ele>145.0</ele><time>2026-04-02T16:10:27.999Z</time></trkpt><trkpt lat="43.35217887539422" lon="5.475954319606664"><ele>145.33333333333331</ele><time>2026-04-02T16:10:29.999Z</time></trkpt><trkpt lat="43.35226959274879" lon="5.475961422418462"><ele>145.66666666666666</ele><time>2026-04-02T16:10:32.999Z</time></trkpt><trkpt lat="43.35235388472192" lon="5.47594748280356"><ele>146.0</ele><time>2026-04-02T16:10:35.999Z</time></trkpt><trkpt lat="43.35243840368605" lon="5.47596728622888"><ele>146.0</ele><time>2026-04-02T16:10:39.999Z</time></trkpt><trkpt lat="43.35251329548697" lon="5.4759693096882645"><ele>146.0</ele><time>2026-04-02T16:10:42.999Z</time></trkpt><trkpt lat="43.3525807394369" lon="5.475953681354614"><ele>146.0</ele><time>2026-04-02T16:10:45.999Z</time></trkpt><trkpt lat="43.35264643967831" lon="5.475922204222661"><ele>146.0</ele><time>2026-04-02T16:10:48.999Z</time></trkpt><trkpt lat="43.352712046115045" lon="5.475909999231319"><ele>146.0</ele><time>2026-04-02T16:10:52.998Z</time></trkpt><trkpt lat="43.35275475021736" lon="5.475839570090786"><ele>146.0</ele><time>2026-04-02T16:10:56.998Z</time></trkpt><trkpt lat="43.35280544953471" lon="5.475785751410774"><ele>146.0</ele><time>2026-04-02T16:11:01Z</time></trkpt><trkpt lat="43.352870687235345" lon="5.475717802576195"><ele>146.0</ele><time>2026-04-02T16:11:05Z</time></trkpt><trkpt lat="43.35293501852064" lon="5.4756829322096365"><ele>146.0</ele><time>2026-04-02T16:11:09Z</time></trkpt><trkpt lat="43.35300242585185" lon="5.475615346549015"><ele>146.0</ele><time>2026-04-02T16:11:14Z</time></trkpt><trkpt lat="43.353069215970976" lon="5.4755659087815385"><ele>146.0</ele><time>2026-04-02T16:11:18Z</time></trkpt><trkpt lat="43.353136455495395" lon="5.475518326408253"><ele>146.0</ele><time>2026-04-02T16:11:22Z</time></trkpt><trkpt lat="43.35319904446521" lon="5.475476740664472"><ele>146.0</ele><time>2026-04-02T16:11:26Z</time></trkpt><trkpt lat="43.353266912875704" lon="5.475462124968889"><ele>146.0</ele><time>2026-04-02T16:11:30Z</time></trkpt><trkpt lat="43.353334557223135" lon="5.47543100114388"><ele>146.71428571428572</ele><time>2026-04-02T16:11:35Z</time></trkpt><trkpt lat="43.35340224712442" lon="5.4754021447732795"><ele>147.42857142857144</ele><time>2026-04-02T16:11:39Z</time></trkpt><trkpt lat="43.35346361529451" lon="5.4753725343543875"><ele>148.14285714285717</ele><time>2026-04-02T16:11:43Z</time></trkpt><trkpt lat="43.35352457575373" lon="5.475337266702374"><ele>148.85714285714286</ele><time>2026-04-02T16:11:47Z</time></trkpt><trkpt lat="43.35358765378357" lon="5.475293709582767"><ele>149.57142857142858</ele><time>2026-04-02T16:11:50.999Z</time></trkpt><trkpt lat="43.35365886526758" lon="5.47524791878887"><ele>150.2857142857143</ele><time>2026-04-02T16:11:54.999Z</time></trkpt><trkpt lat="43.35372610897129" lon="5.475208875403343"><ele>151.0</ele><time>2026-04-02T16:11:58.999Z</time></trkpt><trkpt lat="43.35378644312374" lon="5.475178323400151"><ele>151.0</ele><time>2026-04-02T16:12:01.999Z</time></trkpt><trkpt lat="43.35385879742041" lon="5.475136240497137"><ele>151.0</ele><time>2026-04-02T16:12:05.999Z</time></trkpt><trkpt lat="43.35392581109354" lon="5.475099427737815"><ele>151.0</ele><time>2026-04-02T16:12:08.999Z</time></trkpt><trkpt lat="43.35399351575154" lon="5.475022443288465"><ele>151.0</ele><time>2026-04-02T16:12:11.999Z</time></trkpt><trkpt lat="43.354041101029374" lon="5.474963029818972"><ele>151.0</ele><time>2026-04-02T16:12:14.999Z</time></trkpt><trkpt lat="43.354096314816736" lon="5.474899106337458"><ele>151.0</ele><time>2026-04-02T16:12:16.999Z</time></trkpt><trkpt lat="43.35416717963165" lon="5.474806196755603"><ele>151.5</ele><time>2026-04-02T16:12:19.999Z</time></trkpt><trkpt lat="43.354221767967395" lon="5.474733893776222"><ele>152.0</ele><time>2026-04-02T16:12:21.999Z</time></trkpt><trkpt lat="43.354279163975505" lon="5.4746692735766835"><ele>152.5</ele><time>2026-04-02T16:12:23.999Z</time></trkpt><trkpt lat="43.354339482696105" lon="5.474614991806161"><ele>153.0</ele><time>2026-04-02T16:12:25.999Z</time></trkpt><trkpt lat="43.35440801957698" lon="5.474555778230105"><ele>153.5</ele><time>2026-04-02T16:12:27.999Z</time></trkpt><trkpt lat="43.354474066914975" lon="5.47449866658727"><ele>154.0</ele><time>2026-04-02T16:12:29.999Z</time></trkpt><trkpt lat="43.35454993299367" lon="5.474447095487189"><ele>154.0</ele><time>2026-04-02T16:12:31.999Z</time></trkpt><trkpt lat="43.35461233183427" lon="5.474398134310233"><ele>154.0</ele><time>2026-04-02T16:12:33.999Z</time></trkpt><trkpt lat="43.35467267937892" lon="5.474369296090707"><ele>154.0</ele><time>2026-04-02T16:12:35.999Z</time></trkpt><trkpt lat="43.3547522523562" lon="5.474360707321509"><ele>154.0</ele><time>2026-04-02T16:12:38.999Z</time></trkpt><trkpt lat="43.35482989388028" lon="5.474354999768669"><ele>154.0</ele><time>2026-04-02T16:12:42.999Z</time></trkpt><trkpt lat="43.35490409260905" lon="5.474333820126166"><ele>154.0</ele><time>2026-04-02T16:12:45.999Z</time></trkpt><trkpt lat="43.354972348976716" lon="5.474310032500124"><ele>154.0</ele><time>2026-04-02T16:12:48.999Z</time></trkpt><trkpt lat="43.355052112526195" lon="5.474281359313789"><ele>155.0</ele><time>2026-04-02T16:12:52.998Z</time></trkpt><trkpt lat="43.35513934204446" lon="5.474258007918376"><ele>156.0</ele><time>2026-04-02T16:12:57.998Z</time></trkpt><trkpt lat="43.3552022700645" lon="5.474243543173267"><ele>157.0</ele><time>2026-04-02T16:13:01.998Z</time></trkpt><trkpt lat="43.35526866471922" lon="5.474233445452516"><ele>158.0</ele><time>2026-04-02T16:13:05.998Z</time></trkpt><trkpt lat="43.35534791541039" lon="5.474226602244001"><ele>159.0</ele><time>2026-04-02T16:13:10Z</time></trkpt><trkpt lat="43.35543034429034" lon="5.474216939022161"><ele>160.0</ele><time>2026-04-02T16:13:14Z</time></trkpt><trkpt lat="43.35551348266186" lon="5.474204343343597"><ele>161.16666666666669</ele><time>2026-04-02T16:13:19Z</time></trkpt><trkpt lat="43.35559042858148" lon="5.474188867548704"><ele>162.33333333333334</ele><time>2026-04-02T16:13:23Z</time></trkpt><trkpt lat="43.35567147901188" lon="5.4741927132674455"><ele>163.5</ele><time>2026-04-02T16:13:28Z</time></trkpt><trkpt lat="43.355743290064204" lon="5.474182691950284"><ele>164.66666666666666</ele><time>2026-04-02T16:13:32Z</time></trkpt><trkpt lat="43.35582994985511" lon="5.474165253563552"><ele>165.83333333333331</ele><time>2026-04-02T16:13:37Z</time></trkpt><trkpt lat="43.355913545139984" lon="5.474146568512296"><ele>167.0</ele><time>2026-04-02T16:13:43Z</time></trkpt><trkpt lat="43.35598070522528" lon="5.47416279891075"><ele>167.0</ele><time>2026-04-02T16:13:48Z</time></trkpt><trkpt lat="43.35604185345126" lon="5.474190608184694"><ele>167.0</ele><time>2026-04-02T16:13:53Z</time></trkpt><trkpt lat="43.35609458477077" lon="5.474238958097308"><ele>167.0</ele><time>2026-04-02T16:13:57.999Z</time></trkpt><trkpt lat="43.35614541055437" lon="5.474293200638573"><ele>167.0</ele><time>2026-04-02T16:14:03.999Z</time></trkpt><trkpt lat="43.356188649738826" lon="5.474365351997153"><ele>167.0</ele><time>2026-04-02T16:14:09.999Z</time></trkpt><trkpt lat="43.35623634042363" lon="5.474432340892086"><ele>167.0</ele><time>2026-04-02T16:14:16.999Z</time></trkpt><trkpt lat="43.356305583261076" lon="5.474462898720688"><ele>167.0</ele><time>2026-04-02T16:14:24.999Z</time></trkpt><trkpt lat="43.356369767048896" lon="5.474489842398598"><ele>167.85714285714286</ele><time>2026-04-02T16:14:31.999Z</time></trkpt><trkpt lat="43.35643163524232" lon="5.474473795749283"><ele>168.71428571428572</ele><time>2026-04-02T16:14:36.999Z</time></trkpt><trkpt lat="43.35650395254144" lon="5.474462001374788"><ele>169.57142857142856</ele><time>2026-04-02T16:14:42.999Z</time></trkpt><trkpt lat="43.35658187878834" lon="5.474453108217549"><ele>170.42857142857144</ele><time>2026-04-02T16:14:48.999Z</time></trkpt><trkpt lat="43.35665328762667" lon="5.474433138727943"><ele>171.2857142857143</ele><time>2026-04-02T16:14:54.998Z</time></trkpt><trkpt lat="43.356719254583886" lon="5.474412908236598"><ele>172.14285714285714</ele><time>2026-04-02T16:14:59.998Z</time></trkpt><trkpt lat="43.35679692540501" lon="5.474397344989467"><ele>173.0</ele><time>2026-04-02T16:15:03.998Z</time></trkpt><trkpt lat="43.35686500868834" lon="5.474379375681359"><ele>173.0</ele><time>2026-04-02T16:15:07.998Z</time></trkpt></trkseg></trk></gpx>